<?xml version='1.0' encoding='UTF-8'?><gpx version="1.1" creator="JPX - https://github.com/jenetics/jpx" xmlns="http://www.topografix.com/GPX/1/1"><trk><trkseg><trkpt lat="46.06687154443495" lon="12.146032429469177"><ele>393.0</ele><time>2026-04-05T06:09:33.998Z</time></trkpt><trkpt lat="46.06681493095332" lon="12.145967406434389"><ele>393.0</ele><time>2026-04-05T06:10:53.999Z</time></trkpt><trkpt lat="46.0667541553529" lon="12.14601964289482"><ele>393.0</ele><time>2026-04-05T06:10:55.999Z</time></trkpt><trkpt lat="46.066694490923844" lon="12.146069782971049"><ele>393.0</ele><time>2026-04-05T06:10:57.999Z</time></trkpt><trkpt lat="46.066613559588646" lon="12.146096748755882"><ele>393.0</ele><time>2026-04-05T06:10:59.999Z</time></trkpt><trkpt lat="46.066536763036346" lon="12.14615232151683"><ele>393.0</ele><time>2026-04-05T06:11:01.999Z</time></trkpt><trkpt lat="46.06653374609378" lon="12.146270282352551"><ele>394.0</ele><time>2026-04-05T06:11:04.998Z</time></trkpt><trkpt lat="46.06653949462608" lon="12.14638888000253"><ele>395.0</ele><time>2026-04-05T06:11:06.998Z</time></trkpt><trkpt lat="46.06654870671523" lon="12.146501949329018"><ele>396.0</ele><time>2026-04-05T06:11:08.998Z</time></trkpt><trkpt lat="46.066556083490866" lon="12.1466047138911"><ele>397.0</ele><time>2026-04-05T06:11:10.998Z</time></trkpt><trkpt lat="46.066476851261086" lon="12.146551427414094"><ele>398.0</ele><time>2026-04-05T06:11:50.998Z</time></trkpt><trkpt lat="46.06639835934169" lon="12.146397061753273"><ele>397.99999999999994</ele><time>2026-04-05T06:11:52.998Z</time></trkpt><trkpt lat="46.06632371015067" lon="12.146259221167758"><ele>398.0</ele><time>2026-04-05T06:11:54.998Z</time></trkpt><trkpt lat="46.06629525022581" lon="12.146169351860229"><ele>398.0</ele><time>2026-04-05T06:11:55.998Z</time></trkpt><trkpt lat="46.066236991623484" lon="12.146075095581473"><ele>398.0</ele><time>2026-04-05T06:11:56.998Z</time></trkpt><trkpt lat="46.066171045450915" lon="12.146003464249825"><ele>397.99999999999994</ele><time>2026-04-05T06:11:57.997Z</time></trkpt><trkpt lat="46.06612397732611" lon="12.145922994991112"><ele>398.0</ele><time>2026-04-05T06:11:58.997Z</time></trkpt><trkpt lat="46.066067342535774" lon="12.145817890629122"><ele>397.4</ele><time>2026-04-05T06:12:00.997Z</time></trkpt><trkpt lat="46.06598642585007" lon="12.145665487337988"><ele>396.79999999999995</ele><time>2026-04-05T06:17:13.992Z</time></trkpt><trkpt lat="46.06592690650264" lon="12.145583195756611"><ele>396.2</ele><time>2026-04-05T06:17:14.992Z</time></trkpt><trkpt lat="46.06587842919386" lon="12.145510759448225"><ele>395.6</ele><time>2026-04-05T06:17:15.992Z</time></trkpt><trkpt lat="46.06582785446587" lon="12.145426655468967"><ele>395.0</ele><time>2026-04-05T06:17:16.992Z</time></trkpt><trkpt lat="46.06575574511362" lon="12.145313388463183"><ele>395.4</ele><time>2026-04-05T06:17:17.992Z</time></trkpt><trkpt lat="46.06568501508095" lon="12.145214013900064"><ele>395.8</ele><time>2026-04-05T06:17:18.992Z</time></trkpt><trkpt lat="46.06561226425048" lon="12.145118294033024"><ele>396.20000000000005</ele><time>2026-04-05T06:17:19.992Z</time></trkpt><trkpt lat="46.06556285492464" lon="12.1450231628234"><ele>396.6</ele><time>2026-04-05T06:17:20.992Z</time></trkpt><trkpt lat="46.06550507822631" lon="12.144896389279907"><ele>397.0</ele><time>2026-04-05T06:17:21.992Z</time></trkpt><trkpt lat="46.06544677731646" lon="12.144737505884965"><ele>397.0</ele><time>2026-04-05T06:17:22.991Z</time></trkpt><trkpt lat="46.06539736515482" lon="12.144580826263397"><ele>397.0</ele><time>2026-04-05T06:17:23.991Z</time></trkpt><trkpt lat="46.06534107842106" lon="12.14439839058958"><ele>397.0</ele><time>2026-04-05T06:17:24.991Z</time></trkpt><trkpt lat="46.06528209895647" lon="12.144204209620113"><ele>397.0</ele><time>2026-04-05T06:17:25.991Z</time></trkpt><trkpt lat="46.065246291721735" lon="12.144013126646163"><ele>395.25</ele><time>2026-04-05T06:17:26.991Z</time></trkpt><trkpt lat="46.06522081652116" lon="12.143821295434003"><ele>393.5</ele><time>2026-04-05T06:17:27.991Z</time></trkpt><trkpt lat="46.0651880516746" lon="12.143646877404615"><ele>391.75</ele><time>2026-04-05T06:17:28.991Z</time></trkpt><trkpt lat="46.06514581738097" lon="12.143472663693208"><ele>390.0</ele><time>2026-04-05T06:17:29.991Z</time></trkpt><trkpt lat="46.06509087544919" lon="12.143310725631887"><ele>389.2</ele><time>2026-04-05T06:17:30.991Z</time></trkpt><trkpt lat="46.06503755795158" lon="12.143148909111536"><ele>388.4</ele><time>2026-04-05T06:17:31.991Z</time></trkpt><trkpt lat="46.06499719533252" lon="12.143011130358719"><ele>387.6</ele><time>2026-04-05T06:17:32.991Z</time></trkpt><trkpt lat="46.06497054481151" lon="12.14290828539148"><ele>386.8</ele><time>2026-04-05T06:17:33.991Z</time></trkpt><trkpt lat="46.06494961882971" lon="12.142787464497992"><ele>386.0</ele><time>2026-04-05T06:17:35.991Z</time></trkpt><trkpt lat="46.06493949905897" lon="12.142689071688636"><ele>387.6</ele><time>2026-04-05T06:17:39.991Z</time></trkpt><trkpt lat="46.064862529227135" lon="12.14260530096577"><ele>389.20000000000005</ele><time>2026-04-05T06:17:41.991Z</time></trkpt><trkpt lat="46.06476548952246" lon="12.142593587139363"><ele>390.79999999999995</ele><time>2026-04-05T06:17:42.991Z</time></trkpt><trkpt lat="46.06468160265451" lon="12.142595250198974"><ele>392.4</ele><time>2026-04-05T06:17:43.991Z</time></trkpt><trkpt lat="46.06459667942604" lon="12.142591813766352"><ele>394.0</ele><time>2026-04-05T06:17:44.991Z</time></trkpt><trkpt lat="46.06449875842768" lon="12.14259716298178"><ele>394.0</ele><time>2026-04-05T06:17:45.991Z</time></trkpt><trkpt lat="46.06438623753264" lon="12.142606607030526"><ele>394.0</ele><time>2026-04-05T06:17:46.991Z</time></trkpt><trkpt lat="46.06422931465773" lon="12.142626518912683"><ele>394.0</ele><time>2026-04-05T06:17:47.991Z</time></trkpt><trkpt lat="46.06409832938502" lon="12.142636888474744"><ele>394.0</ele><time>2026-04-05T06:17:48.991Z</time></trkpt><trkpt lat="46.06399742538988" lon="12.142649635173056"><ele>396.0</ele><time>2026-04-05T06:17:49.991Z</time></trkpt><trkpt lat="46.06389176298652" lon="12.142661365174552"><ele>398.0</ele><time>2026-04-05T06:17:50.991Z</time></trkpt><trkpt lat="46.06378639966685" lon="12.142673665994066"><ele>400.0</ele><time>2026-04-05T06:17:51.991Z</time></trkpt><trkpt lat="46.06368502073516" lon="12.14268876624125"><ele>402.0</ele><time>2026-04-05T06:17:52.991Z</time></trkpt><trkpt lat="46.063609285768926" lon="12.14270597570015"><ele>404.0</ele><time>2026-04-05T06:17:53.991Z</time></trkpt><trkpt lat="46.06354255252728" lon="12.142659930617597"><ele>403.99999999999994</ele><time>2026-04-05T06:17:56.991Z</time></trkpt><trkpt lat="46.063510373397506" lon="12.142581243651756"><ele>404.0</ele><time>2026-04-05T06:18:12.991Z</time></trkpt><trkpt lat="46.063515511734614" lon="12.142695907919403"><ele>404.0</ele><time>2026-04-05T06:18:28.99Z</time></trkpt><trkpt lat="46.06361270670314" lon="12.142795688486972"><ele>404.0</ele><time>2026-04-05T06:19:12.989Z</time></trkpt><trkpt lat="46.06368177255757" lon="12.142781793656244"><ele>403.99999999999994</ele><time>2026-04-05T06:19:13.989Z</time></trkpt><trkpt lat="46.06376941176144" lon="12.142750627968704"><ele>404.0</ele><time>2026-04-05T06:19:14.989Z</time></trkpt><trkpt lat="46.063877951901446" lon="12.142723792586247"><ele>404.0</ele><time>2026-04-05T06:19:15.989Z</time></trkpt><trkpt lat="46.06399039894043" lon="12.142703090085524"><ele>404.0</ele><time>2026-04-05T06:19:16.989Z</time></trkpt><trkpt lat="46.06409529373143" lon="12.142698318374284"><ele>404.0</ele><time>2026-04-05T06:19:17.989Z</time></trkpt><trkpt lat="46.06420974898428" lon="12.14268421423429"><ele>404.0</ele><time>2026-04-05T06:19:18.989Z</time></trkpt><trkpt lat="46.06433699652676" lon="12.142673614427961"><ele>401.5</ele><time>2026-04-05T06:19:19.989Z</time></trkpt><trkpt lat="46.064491821171195" lon="12.142659827522756"><ele>399.0</ele><time>2026-04-05T06:19:20.989Z</time></trkpt><trkpt lat="46.06463390887268" lon="12.142645880560911"><ele>396.5</ele><time>2026-04-05T06:19:21.989Z</time></trkpt><trkpt lat="46.064763731958344" lon="12.14264842649769"><ele>394.0</ele><time>2026-04-05T06:19:22.989Z</time></trkpt><trkpt lat="46.06489324244706" lon="12.142664065404295"><ele>392.0</ele><time>2026-04-05T06:19:23.989Z</time></trkpt><trkpt lat="46.06501669974242" lon="12.142719101626183"><ele>390.0</ele><time>2026-04-05T06:19:24.989Z</time></trkpt><trkpt lat="46.06513724575154" lon="12.14279135190154"><ele>388.0</ele><time>2026-04-05T06:19:25.989Z</time></trkpt><trkpt lat="46.065243186698936" lon="12.142898830435307"><ele>386.0</ele><time>2026-04-05T06:19:26.989Z</time></trkpt><trkpt lat="46.065342867711585" lon="12.142992017573478"><ele>386.0</ele><time>2026-04-05T06:19:27.989Z</time></trkpt><trkpt lat="46.06544518724845" lon="12.143083918534018"><ele>386.0</ele><time>2026-04-05T06:19:28.989Z</time></trkpt><trkpt lat="46.065556706433085" lon="12.143154941790879"><ele>386.0</ele><time>2026-04-05T06:19:29.989Z</time></trkpt><trkpt lat="46.06568476458646" lon="12.143196832010911"><ele>386.0</ele><time>2026-04-05T06:19:30.989Z</time></trkpt><trkpt lat="46.0658100223993" lon="12.14321827750449"><ele>385.20000000000005</ele><time>2026-04-05T06:19:31.989Z</time></trkpt><trkpt lat="46.06592381739443" lon="12.143239359777807"><ele>384.40000000000003</ele><time>2026-04-05T06:19:32.989Z</time></trkpt><trkpt lat="46.06603339819057" lon="12.143275225208317"><ele>383.6</ele><time>2026-04-05T06:19:33.989Z</time></trkpt><trkpt lat="46.06613830887281" lon="12.143301170581347"><ele>382.8</ele><time>2026-04-05T06:19:34.989Z</time></trkpt><trkpt lat="46.06623935946669" lon="12.143297047491114"><ele>382.0</ele><time>2026-04-05T06:19:35.989Z</time></trkpt><trkpt lat="46.06633310988318" lon="12.143244099674698"><ele>381.0</ele><time>2026-04-05T06:19:36.989Z</time></trkpt><trkpt lat="46.06641445511498" lon="12.143160808571286"><ele>380.0</ele><time>2026-04-05T06:19:37.989Z</time></trkpt><trkpt lat="46.06650188895124" lon="12.143073911282483"><ele>379.0</ele><time>2026-04-05T06:19:38.989Z</time></trkpt><trkpt lat="46.06659697636177" lon="12.14298924256493"><ele>378.0</ele><time>2026-04-05T06:19:39.989Z</time></trkpt><trkpt lat="46.06669065420084" lon="12.142904469431961"><ele>377.0</ele><time>2026-04-05T06:19:40.989Z</time></trkpt><trkpt lat="46.066790538944794" lon="12.142815074861591"><ele>376.25</ele><time>2026-04-05T06:19:41.989Z</time></trkpt><trkpt lat="46.066895935240744" lon="12.142723590520285"><ele>375.5</ele><time>2026-04-05T06:19:42.989Z</time></trkpt><trkpt lat="46.06699781519996" lon="12.142637265698848"><ele>374.75</ele><time>2026-04-05T06:19:43.989Z</time></trkpt><trkpt lat="46.06709741186819" lon="12.142556844007093"><ele>374.0</ele><time>2026-04-05T06:19:44.989Z</time></trkpt><trkpt lat="46.06719471378756" lon="12.14247384902941"><ele>374.0</ele><time>2026-04-05T06:19:45.989Z</time></trkpt><trkpt lat="46.067296638475845" lon="12.142385740593198"><ele>374.0</ele><time>2026-04-05T06:19:46.989Z</time></trkpt><trkpt lat="46.067401198687946" lon="12.14228926707278"><ele>374.0</ele><time>2026-04-05T06:19:47.989Z</time></trkpt><trkpt lat="46.06751126363196" lon="12.142188867128086"><ele>374.0</ele><time>2026-04-05T06:19:48.989Z</time></trkpt><trkpt lat="46.06762190329587" lon="12.142085267099972"><ele>373.25</ele><time>2026-04-05T06:19:49.989Z</time></trkpt><trkpt lat="46.067734450747174" lon="12.14199115658988"><ele>372.5</ele><time>2026-04-05T06:19:50.989Z</time></trkpt><trkpt lat="46.06783946817779" lon="12.1418995092436"><ele>371.75</ele><time>2026-04-05T06:19:51.989Z</time></trkpt><trkpt lat="46.06794198592691" lon="12.141813733372475"><ele>371.0</ele><time>2026-04-05T06:19:52.989Z</time></trkpt><trkpt lat="46.068037806130405" lon="12.141742653639806"><ele>371.0</ele><time>2026-04-05T06:19:53.989Z</time></trkpt><trkpt lat="46.068134430851245" lon="12.141656602021254"><ele>371.0</ele><time>2026-04-05T06:19:54.989Z</time></trkpt><trkpt lat="46.06822522951632" lon="12.141586979662318"><ele>371.0</ele><time>2026-04-05T06:19:55.989Z</time></trkpt><trkpt lat="46.068312357407855" lon="12.141509014001304"><ele>371.0</ele><time>2026-04-05T06:19:56.989Z</time></trkpt><trkpt lat="46.068401284675254" lon="12.141428573927195"><ele>371.0</ele><time>2026-04-05T06:19:57.989Z</time></trkpt><trkpt lat="46.06850474155614" lon="12.141348319202766"><ele>370.5</ele><time>2026-04-05T06:19:58.989Z</time></trkpt><trkpt lat="46.06859708088307" lon="12.141269389238007"><ele>370.0</ele><time>2026-04-05T06:19:59.989Z</time></trkpt><trkpt lat="46.068696814869405" lon="12.141186271292444"><ele>369.5</ele><time>2026-04-05T06:20:00.989Z</time></trkpt><trkpt lat="46.06879691115422" lon="12.141097494623233"><ele>369.0</ele><time>2026-04-05T06:20:01.989Z</time></trkpt><trkpt lat="46.068900714810646" lon="12.141012728944169"><ele>369.0</ele><time>2026-04-05T06:20:02.989Z</time></trkpt><trkpt lat="46.06900613180139" lon="12.140922417457922"><ele>369.0</ele><time>2026-04-05T06:20:03.989Z</time></trkpt><trkpt lat="46.06911744446508" lon="12.140831922169205"><ele>369.0</ele><time>2026-04-05T06:20:04.989Z</time></trkpt><trkpt lat="46.06922029778902" lon="12.14074384923119"><ele>369.0</ele><time>2026-04-05T06:20:05.988Z</time></trkpt><trkpt lat="46.06932373556639" lon="12.1406547089683"><ele>369.0</ele><time>2026-04-05T06:20:06.988Z</time></trkpt><trkpt lat="46.06941764425201" lon="12.140572438000326"><ele>369.0</ele><time>2026-04-05T06:20:07.988Z</time></trkpt><trkpt lat="46.06949599348456" lon="12.140481040553206"><ele>369.0</ele><time>2026-04-05T06:20:08.988Z</time></trkpt><trkpt lat="46.069558749534" lon="12.14036616298975"><ele>369.0</ele><time>2026-04-05T06:20:09.988Z</time></trkpt><trkpt lat="46.069602134065406" lon="12.140234279948007"><ele>369.0</ele><time>2026-04-05T06:20:10.988Z</time></trkpt><trkpt lat="46.06961505217083" lon="12.140086946551259"><ele>369.0</ele><time>2026-04-05T06:20:11.988Z</time></trkpt><trkpt lat="46.06962719499865" lon="12.139933988459909"><ele>369.0</ele><time>2026-04-05T06:20:12.988Z</time></trkpt><trkpt lat="46.06963292651568" lon="12.139779878447493"><ele>369.0</ele><time>2026-04-05T06:20:13.988Z</time></trkpt><trkpt lat="46.069638115238" lon="12.139631591705951"><ele>369.0</ele><time>2026-04-05T06:20:14.988Z</time></trkpt><trkpt lat="46.06964726499002" lon="12.139480624382676"><ele>369.0</ele><time>2026-04-05T06:20:15.988Z</time></trkpt><trkpt lat="46.06966218164343" lon="12.139329182820935"><ele>369.0</ele><time>2026-04-05T06:20:16.988Z</time></trkpt><trkpt lat="46.0697031418328" lon="12.139203941220376"><ele>369.0</ele><time>2026-04-05T06:20:17.988Z</time></trkpt><trkpt lat="46.06976275745939" lon="12.139107500205727"><ele>369.0</ele><time>2026-04-05T06:20:18.988Z</time></trkpt><trkpt lat="46.06984598690582" lon="12.139036399949251"><ele>369.0</ele><time>2026-04-05T06:20:19.988Z</time></trkpt><trkpt lat="46.06993443436989" lon="12.138986352477094"><ele>369.0</ele><time>2026-04-05T06:20:20.988Z</time></trkpt><trkpt lat="46.07002290115449" lon="12.138944004241562"><ele>368.4</ele><time>2026-04-05T06:20:21.988Z</time></trkpt><trkpt lat="46.07011346878276" lon="12.138894270496204"><ele>367.79999999999995</ele><time>2026-04-05T06:20:22.988Z</time></trkpt><trkpt lat="46.07021146472651" lon="12.138838490434976"><ele>367.20000000000005</ele><time>2026-04-05T06:20:23.988Z</time></trkpt><trkpt lat="46.070312831104694" lon="12.138776184441351"><ele>366.6</ele><time>2026-04-05T06:20:24.988Z</time></trkpt><trkpt lat="46.0704141466103" lon="12.13871389293284"><ele>366.0</ele><time>2026-04-05T06:20:25.988Z</time></trkpt><trkpt lat="46.070519600371405" lon="12.13865077950268"><ele>366.0</ele><time>2026-04-05T06:20:26.988Z</time></trkpt><trkpt lat="46.070623549756704" lon="12.138580679975389"><ele>366.0</ele><time>2026-04-05T06:20:27.988Z</time></trkpt><trkpt lat="46.07073647255158" lon="12.13850314145126"><ele>366.0</ele><time>2026-04-05T06:20:28.988Z</time></trkpt><trkpt lat="46.07083891450293" lon="12.138420504852805"><ele>366.0</ele><time>2026-04-05T06:20:29.988Z</time></trkpt><trkpt lat="46.070936782" lon="12.138319355900638"><ele>366.0</ele><time>2026-04-05T06:20:30.988Z</time></trkpt><trkpt lat="46.071031878827036" lon="12.138205802240535"><ele>366.0</ele><time>2026-04-05T06:20:31.988Z</time></trkpt><trkpt lat="46.07112036234093" lon="12.13808253177964"><ele>366.0</ele><time>2026-04-05T06:20:32.988Z</time></trkpt><trkpt lat="46.07120999685794" lon="12.137953839270606"><ele>366.0</ele><time>2026-04-05T06:20:33.988Z</time></trkpt><trkpt lat="46.07129340801563" lon="12.137829769771523"><ele>366.0</ele><time>2026-04-05T06:20:34.988Z</time></trkpt><trkpt lat="46.07139200326473" lon="12.137711702652513"><ele>366.0</ele><time>2026-04-05T06:20:35.988Z</time></trkpt><trkpt lat="46.071499980467024" lon="12.137621850258325"><ele>366.0</ele><time>2026-04-05T06:20:36.988Z</time></trkpt><trkpt lat="46.07161151475485" lon="12.137545936001926"><ele>366.0</ele><time>2026-04-05T06:20:37.988Z</time></trkpt><trkpt lat="46.071713955093884" lon="12.137473613184493"><ele>366.25</ele><time>2026-04-05T06:20:38.988Z</time></trkpt><trkpt lat="46.07182107385099" lon="12.137394051038296"><ele>366.5</ele><time>2026-04-05T06:20:39.988Z</time></trkpt><trkpt lat="46.07192197683728" lon="12.137309383040101"><ele>366.75</ele><time>2026-04-05T06:20:40.988Z</time></trkpt><trkpt lat="46.07201419818544" lon="12.137207133477057"><ele>367.0</ele><time>2026-04-05T06:20:41.988Z</time></trkpt><trkpt lat="46.072083014911286" lon="12.1370744909079"><ele>367.5</ele><time>2026-04-05T06:20:42.988Z</time></trkpt><trkpt lat="46.07213533035454" lon="12.136936706610342"><ele>368.0</ele><time>2026-04-05T06:20:43.988Z</time></trkpt><trkpt lat="46.07218363165162" lon="12.136781218890922"><ele>368.5</ele><time>2026-04-05T06:20:44.988Z</time></trkpt><trkpt lat="46.07222560573637" lon="12.13662502615045"><ele>369.0</ele><time>2026-04-05T06:20:45.988Z</time></trkpt><trkpt lat="46.07227838340704" lon="12.136464618209295"><ele>369.5</ele><time>2026-04-05T06:20:46.988Z</time></trkpt><trkpt lat="46.07232595034608" lon="12.136302195035178"><ele>370.0</ele><time>2026-04-05T06:20:47.988Z</time></trkpt><trkpt lat="46.07237258346915" lon="12.136133510303024"><ele>370.5</ele><time>2026-04-05T06:20:48.988Z</time></trkpt><trkpt lat="46.07241412617571" lon="12.135961198385353"><ele>371.0</ele><time>2026-04-05T06:20:49.988Z</time></trkpt><trkpt lat="46.07246060609996" lon="12.13578369625232"><ele>369.5</ele><time>2026-04-05T06:20:50.988Z</time></trkpt><trkpt lat="46.072509185657616" lon="12.135603424905678"><ele>368.0</ele><time>2026-04-05T06:20:51.988Z</time></trkpt><trkpt lat="46.07255674772026" lon="12.135426216482648"><ele>366.5</ele><time>2026-04-05T06:20:52.988Z</time></trkpt><trkpt lat="46.07261225000479" lon="12.135245047666233"><ele>365.0</ele><time>2026-04-05T06:20:53.988Z</time></trkpt><trkpt lat="46.072670159238186" lon="12.13506457853795"><ele>364.5</ele><time>2026-04-05T06:20:54.988Z</time></trkpt><trkpt lat="46.072739628913425" lon="12.13487967201322"><ele>364.0</ele><time>2026-04-05T06:20:55.988Z</time></trkpt><trkpt lat="46.072801041564695" lon="12.134692577170933"><ele>363.5</ele><time>2026-04-05T06:20:56.988Z</time></trkpt><trkpt lat="46.07286057690038" lon="12.13450955202063"><ele>363.0</ele><time>2026-04-05T06:20:57.988Z</time></trkpt><trkpt lat="46.0729010102865" lon="12.134329479687914"><ele>363.0</ele><time>2026-04-05T06:20:58.988Z</time></trkpt><trkpt lat="46.07292915227599" lon="12.134166006492762"><ele>363.0</ele><time>2026-04-05T06:20:59.987Z</time></trkpt><trkpt lat="46.07295065051924" lon="12.134034425100493"><ele>363.0</ele><time>2026-04-05T06:21:00.987Z</time></trkpt><trkpt lat="46.07297784017477" lon="12.133944478703231"><ele>363.0</ele><time>2026-04-05T06:21:01.987Z</time></trkpt><trkpt lat="46.07304355866233" lon="12.133825082877008"><ele>363.0</ele><time>2026-04-05T06:21:03.987Z</time></trkpt><trkpt lat="46.073137913129464" lon="12.133698477292395"><ele>362.5</ele><time>2026-04-05T06:21:05.987Z</time></trkpt><trkpt lat="46.07323732829847" lon="12.133630146925086"><ele>362.0</ele><time>2026-04-05T06:21:07.987Z</time></trkpt><trkpt lat="46.07330221663079" lon="12.13349997881434"><ele>361.5</ele><time>2026-04-05T06:21:09.987Z</time></trkpt><trkpt lat="46.07334692880661" lon="12.133434617803958"><ele>361.0</ele><time>2026-04-05T06:21:10.987Z</time></trkpt><trkpt lat="46.07337983489212" lon="12.13335673230646"><ele>360.5</ele><time>2026-04-05T06:21:11.987Z</time></trkpt><trkpt lat="46.073429690018685" lon="12.133234434253161"><ele>360.0</ele><time>2026-04-05T06:21:13.987Z</time></trkpt><trkpt lat="46.07340941293743" lon="12.13312244578829"><ele>359.4</ele><time>2026-04-05T06:21:15.987Z</time></trkpt><trkpt lat="46.073339610857225" lon="12.133054622073741"><ele>358.8</ele><time>2026-04-05T06:21:17.987Z</time></trkpt><trkpt lat="46.07320173462557" lon="12.132989102168533"><ele>358.20000000000005</ele><time>2026-04-05T06:21:19.987Z</time></trkpt><trkpt lat="46.07312865308353" lon="12.13296466278331"><ele>357.6</ele><time>2026-04-05T06:21:20.987Z</time></trkpt><trkpt lat="46.073060828794915" lon="12.132977844693636"><ele>357.0</ele><time>2026-04-05T06:21:21.987Z</time></trkpt><trkpt lat="46.07298303258417" lon="12.132991067134311"><ele>357.0</ele><time>2026-04-05T06:21:22.987Z</time></trkpt><trkpt lat="46.07290671779446" lon="12.133010297379858"><ele>357.0</ele><time>2026-04-05T06:21:23.987Z</time></trkpt><trkpt lat="46.07282830230457" lon="12.133006713762635"><ele>357.0</ele><time>2026-04-05T06:21:24.987Z</time></trkpt><trkpt lat="46.07276607720475" lon="12.132979001369954"><ele>357.0</ele><time>2026-04-05T06:21:25.987Z</time></trkpt><trkpt lat="46.07267794677733" lon="12.132904119969375"><ele>357.0</ele><time>2026-04-05T06:21:27.987Z</time></trkpt><trkpt lat="46.072581405186284" lon="12.132814794519435"><ele>357.0</ele><time>2026-04-05T06:21:29.987Z</time></trkpt><trkpt lat="46.07252920325035" lon="12.132724414881618"><ele>357.0</ele><time>2026-04-05T06:21:31.987Z</time></trkpt><trkpt lat="46.07251561871672" lon="12.132621209628926"><ele>357.0</ele><time>2026-04-05T06:21:33.987Z</time></trkpt><trkpt lat="46.07246120186195" lon="12.132463659422609"><ele>357.0</ele><time>2026-04-05T06:21:35.987Z</time></trkpt><trkpt lat="46.072437280670165" lon="12.132376078301185"><ele>357.0</ele><time>2026-04-05T06:21:36.987Z</time></trkpt><trkpt lat="46.07241855530225" lon="12.132268321576953"><ele>357.0</ele><time>2026-04-05T06:21:37.987Z</time></trkpt><trkpt lat="46.07239893337595" lon="12.132159738267893"><ele>357.0</ele><time>2026-04-05T06:21:38.987Z</time></trkpt><trkpt lat="46.07237830002978" lon="12.132053487219624"><ele>357.14285714285717</ele><time>2026-04-05T06:21:39.987Z</time></trkpt><trkpt lat="46.07236213327927" lon="12.131950606461471"><ele>357.2857142857143</ele><time>2026-04-05T06:21:40.987Z</time></trkpt><trkpt lat="46.072354478217946" lon="12.131846546156105"><ele>357.42857142857144</ele><time>2026-04-05T06:21:41.987Z</time></trkpt><trkpt lat="46.072357886987696" lon="12.131740211318686"><ele>357.57142857142856</ele><time>2026-04-05T06:21:42.987Z</time></trkpt><trkpt lat="46.07237547086272" lon="12.131637745907717"><ele>357.7142857142857</ele><time>2026-04-05T06:21:43.987Z</time></trkpt><trkpt lat="46.072398436287415" lon="12.131546290930265"><ele>357.8571428571429</ele><time>2026-04-05T06:21:44.987Z</time></trkpt><trkpt lat="46.072437000746376" lon="12.131461063214227"><ele>358.0</ele><time>2026-04-05T06:21:45.987Z</time></trkpt><trkpt lat="46.07249340105407" lon="12.131383579462048"><ele>356.66666666666663</ele><time>2026-04-05T06:21:46.987Z</time></trkpt><trkpt lat="46.07255664920329" lon="12.131318460840252"><ele>355.3333333333333</ele><time>2026-04-05T06:21:47.987Z</time></trkpt><trkpt lat="46.07261120060679" lon="12.131246083811543"><ele>354.0</ele><time>2026-04-05T06:21:48.987Z</time></trkpt><trkpt lat="46.07266262100668" lon="12.131182179313686"><ele>352.6666666666667</ele><time>2026-04-05T06:21:49.987Z</time></trkpt><trkpt lat="46.07273929906056" lon="12.13109115958029"><ele>351.33333333333337</ele><time>2026-04-05T06:21:51.987Z</time></trkpt><trkpt lat="46.07270318540604" lon="12.130976406362647"><ele>350.0</ele><time>2026-04-05T06:21:54.986Z</time></trkpt><trkpt lat="46.072602165548375" lon="12.130837660876026"><ele>350.0</ele><time>2026-04-05T06:21:56.986Z</time></trkpt><trkpt lat="46.07254107600512" lon="12.130758099377367"><ele>350.0</ele><time>2026-04-05T06:21:57.986Z</time></trkpt><trkpt lat="46.07250700066298" lon="12.130655320056077"><ele>350.0</ele><time>2026-04-05T06:21:58.986Z</time></trkpt><trkpt lat="46.07246143321018" lon="12.130556071965064"><ele>350.0</ele><time>2026-04-05T06:21:59.986Z</time></trkpt><trkpt lat="46.072401918436825" lon="12.130431828664817"><ele>350.0</ele><time>2026-04-05T06:22:00.986Z</time></trkpt><trkpt lat="46.07231776121976" lon="12.130307494991772"><ele>350.5</ele><time>2026-04-05T06:22:01.986Z</time></trkpt><trkpt lat="46.07224126240145" lon="12.130165488673883"><ele>351.0</ele><time>2026-04-05T06:22:02.986Z</time></trkpt><trkpt lat="46.072164919887456" lon="12.130050953813905"><ele>351.5</ele><time>2026-04-05T06:22:03.986Z</time></trkpt><trkpt lat="46.072100795349286" lon="12.129932149861249"><ele>352.0</ele><time>2026-04-05T06:22:04.986Z</time></trkpt><trkpt lat="46.07201572072498" lon="12.129813137245641"><ele>352.0</ele><time>2026-04-05T06:22:05.986Z</time></trkpt><trkpt lat="46.071917522406" lon="12.129703958216368"><ele>352.0</ele><time>2026-04-05T06:22:06.986Z</time></trkpt><trkpt lat="46.071819480001245" lon="12.1296362401834"><ele>352.0</ele><time>2026-04-05T06:22:07.986Z</time></trkpt><trkpt lat="46.071735463508396" lon="12.129581630476075"><ele>352.0</ele><time>2026-04-05T06:22:08.986Z</time></trkpt><trkpt lat="46.071661972287146" lon="12.129547631204604"><ele>352.0</ele><time>2026-04-05T06:22:09.986Z</time></trkpt><trkpt lat="46.07155354169438" lon="12.129476046435784"><ele>353.5</ele><time>2026-04-05T06:22:11.986Z</time></trkpt><trkpt lat="46.07148144299575" lon="12.129426107890323"><ele>355.0</ele><time>2026-04-05T06:22:13.986Z</time></trkpt><trkpt lat="46.071421003686524" lon="12.129381802354851"><ele>356.5</ele><time>2026-04-05T06:22:15.986Z</time></trkpt><trkpt lat="46.071328689556495" lon="12.129320705434692"><ele>358.0</ele><time>2026-04-05T06:22:17.986Z</time></trkpt><trkpt lat="46.07127558662053" lon="12.129268273591553"><ele>359.5</ele><time>2026-04-05T06:22:18.986Z</time></trkpt><trkpt lat="46.071216294588346" lon="12.129221324185231"><ele>361.0</ele><time>2026-04-05T06:22:19.986Z</time></trkpt><trkpt lat="46.071143868010196" lon="12.129181003341237"><ele>361.0</ele><time>2026-04-05T06:22:20.986Z</time></trkpt><trkpt lat="46.071081358774215" lon="12.129131047637873"><ele>361.0</ele><time>2026-04-05T06:22:21.986Z</time></trkpt><trkpt lat="46.071011959300925" lon="12.129076325212836"><ele>361.0</ele><time>2026-04-05T06:22:22.986Z</time></trkpt><trkpt lat="46.070938287305665" lon="12.129019611933348"><ele>361.0</ele><time>2026-04-05T06:22:23.986Z</time></trkpt><trkpt lat="46.07087328302029" lon="12.128963126544267"><ele>361.0</ele><time>2026-04-05T06:22:24.986Z</time></trkpt><trkpt lat="46.070790546555216" lon="12.128893374331895"><ele>361.0</ele><time>2026-04-05T06:22:25.986Z</time></trkpt><trkpt lat="46.07072384427752" lon="12.12883217289065"><ele>360.8333333333333</ele><time>2026-04-05T06:22:26.986Z</time></trkpt><trkpt lat="46.07066771845084" lon="12.128787285682867"><ele>360.66666666666663</ele><time>2026-04-05T06:22:27.986Z</time></trkpt><trkpt lat="46.07061137647829" lon="12.12873813172607"><ele>360.5</ele><time>2026-04-05T06:22:28.986Z</time></trkpt><trkpt lat="46.07050494752086" lon="12.128648532491747"><ele>360.3333333333333</ele><time>2026-04-05T06:22:30.986Z</time></trkpt><trkpt lat="46.070449657893626" lon="12.128599060147579"><ele>360.1666666666667</ele><time>2026-04-05T06:22:31.986Z</time></trkpt><trkpt lat="46.07039369669437" lon="12.128554834337221"><ele>360.0</ele><time>2026-04-05T06:22:32.986Z</time></trkpt><trkpt lat="46.070328962010464" lon="12.128510586700475"><ele>360.0</ele><time>2026-04-05T06:22:33.986Z</time></trkpt><trkpt lat="46.07027306587518" lon="12.128465068001125"><ele>360.0</ele><time>2026-04-05T06:22:34.986Z</time></trkpt><trkpt lat="46.07021472567725" lon="12.128409940202793"><ele>360.0</ele><time>2026-04-05T06:22:35.986Z</time></trkpt><trkpt lat="46.07011659590063" lon="12.128326852949002"><ele>360.0</ele><time>2026-04-05T06:22:37.986Z</time></trkpt><trkpt lat="46.07004859050838" lon="12.12827072799466"><ele>360.0</ele><time>2026-04-05T06:22:39.986Z</time></trkpt><trkpt lat="46.07001022068036" lon="12.128152693391653"><ele>360.0</ele><time>2026-04-05T06:22:42.986Z</time></trkpt><trkpt lat="46.07003890462199" lon="12.128040422793223"><ele>360.0</ele><time>2026-04-05T06:22:44.986Z</time></trkpt><trkpt lat="46.070073614511635" lon="12.127897917719544"><ele>360.0</ele><time>2026-04-05T06:22:46.986Z</time></trkpt><trkpt lat="46.07011420903775" lon="12.127745897371486"><ele>360.0</ele><time>2026-04-05T06:22:48.985Z</time></trkpt><trkpt lat="46.070156910623446" lon="12.127576537177156"><ele>360.0</ele><time>2026-04-05T06:22:50.985Z</time></trkpt><trkpt lat="46.07019467089899" lon="12.12744474244023"><ele>360.0</ele><time>2026-04-05T06:22:52.985Z</time></trkpt><trkpt lat="46.07021116618388" lon="12.127337484790793"><ele>360.0</ele><time>2026-04-05T06:23:53.984Z</time></trkpt><trkpt lat="46.07023654832243" lon="12.127201489567202"><ele>360.0</ele><time>2026-04-05T06:23:55.984Z</time></trkpt><trkpt lat="46.07027830359624" lon="12.127036233739563"><ele>360.0</ele><time>2026-04-05T06:23:57.984Z</time></trkpt><trkpt lat="46.070317949308205" lon="12.126950273853991"><ele>360.0</ele><time>2026-04-05T06:23:59.984Z</time></trkpt><trkpt lat="46.07033832647223" lon="12.126858406885127"><ele>360.0</ele><time>2026-04-05T06:24:01.984Z</time></trkpt><trkpt lat="46.07026122504695" lon="12.126782405068656"><ele>360.0</ele><time>2026-04-05T06:24:02.984Z</time></trkpt><trkpt lat="46.070215564821616" lon="12.126650709062313"><ele>360.0</ele><time>2026-04-05T06:24:04.984Z</time></trkpt><trkpt lat="46.07018642205411" lon="12.126562309492915"><ele>360.0</ele><time>2026-04-05T06:24:05.984Z</time></trkpt><trkpt lat="46.07014597426199" lon="12.126443958855884"><ele>360.0</ele><time>2026-04-05T06:24:06.984Z</time></trkpt><trkpt lat="46.070106083140956" lon="12.126337279718372"><ele>360.0</ele><time>2026-04-05T06:24:07.984Z</time></trkpt><trkpt lat="46.07007509687409" lon="12.126230620552565"><ele>360.0</ele><time>2026-04-05T06:24:08.984Z</time></trkpt><trkpt lat="46.0700332014577" lon="12.126097299326636"><ele>360.0</ele><time>2026-04-05T06:24:10.984Z</time></trkpt><trkpt lat="46.07000399868221" lon="12.126002218465231"><ele>360.0</ele><time>2026-04-05T06:24:12.984Z</time></trkpt><trkpt lat="46.06997735438886" lon="12.125919525762793"><ele>360.0</ele><time>2026-04-05T06:24:14.984Z</time></trkpt><trkpt lat="46.06992227467304" lon="12.1258244029189"><ele>360.0</ele><time>2026-04-05T06:24:17.984Z</time></trkpt><trkpt lat="46.06984789823079" lon="12.125834080563871"><ele>360.0</ele><time>2026-04-05T06:24:20.984Z</time></trkpt><trkpt lat="46.06983483068312" lon="12.125947850823119"><ele>360.0</ele><time>2026-04-05T06:24:24.984Z</time></trkpt><trkpt lat="46.069919106904166" lon="12.12594697446863"><ele>360.0</ele><time>2026-04-05T06:24:27.984Z</time></trkpt><trkpt lat="46.06999537842993" lon="12.125990349192636"><ele>360.0</ele><time>2026-04-05T06:24:30.984Z</time></trkpt><trkpt lat="46.07003107013677" lon="12.126086210239196"><ele>360.0</ele><time>2026-04-05T06:24:32.984Z</time></trkpt><trkpt lat="46.070070368703234" lon="12.126225765706332"><ele>360.0</ele><time>2026-04-05T06:24:34.984Z</time></trkpt><trkpt lat="46.07012143823471" lon="12.126404196815553"><ele>360.0</ele><time>2026-04-05T06:24:36.983Z</time></trkpt><trkpt lat="46.070154708629865" lon="12.126504128064358"><ele>360.0</ele><time>2026-04-05T06:24:37.983Z</time></trkpt><trkpt lat="46.070177784486226" lon="12.126606547249292"><ele>360.0</ele><time>2026-04-05T06:24:38.983Z</time></trkpt><trkpt lat="46.07022649760646" lon="12.126745997314238"><ele>360.0</ele><time>2026-04-05T06:24:40.983Z</time></trkpt><trkpt lat="46.07024916866741" lon="12.126853593515762"><ele>360.0</ele><time>2026-04-05T06:24:42.983Z</time></trkpt><trkpt lat="46.07032099214205" lon="12.126834782016019"><ele>360.0</ele><time>2026-04-05T06:24:44.983Z</time></trkpt><trkpt lat="46.070360677207404" lon="12.126753920392808"><ele>360.0</ele><time>2026-04-05T06:24:46.983Z</time></trkpt><trkpt lat="46.0703777123957" lon="12.126642576595254"><ele>360.0</ele><time>2026-04-05T06:24:48.983Z</time></trkpt><trkpt lat="46.07039421749364" lon="12.126474458275457"><ele>360.0</ele><time>2026-04-05T06:24:50.983Z</time></trkpt><trkpt lat="46.07042683683158" lon="12.126309698200524"><ele>360.0</ele><time>2026-04-05T06:24:52.983Z</time></trkpt><trkpt lat="46.07044807273382" lon="12.12620485831913"><ele>360.0</ele><time>2026-04-05T06:24:53.983Z</time></trkpt><trkpt lat="46.070466080654526" lon="12.126106260457883"><ele>360.0</ele><time>2026-04-05T06:24:54.983Z</time></trkpt><trkpt lat="46.07049940030012" lon="12.12595114425833"><ele>360.0</ele><time>2026-04-05T06:24:56.983Z</time></trkpt><trkpt lat="46.07053854541617" lon="12.12584070943796"><ele>360.0</ele><time>2026-04-05T06:24:58.983Z</time></trkpt><trkpt lat="46.07061899303746" lon="12.125781430148145"><ele>360.0</ele><time>2026-04-05T06:25:00.983Z</time></trkpt><trkpt lat="46.07070630777497" lon="12.125807800434464"><ele>360.0</ele><time>2026-04-05T06:25:02.983Z</time></trkpt><trkpt lat="46.07076887190995" lon="12.12588060389506"><ele>360.0</ele><time>2026-04-05T06:25:04.983Z</time></trkpt><trkpt lat="46.070806299320886" lon="12.125967071774626"><ele>360.0</ele><time>2026-04-05T06:25:06.983Z</time></trkpt><trkpt lat="46.070864489656444" lon="12.12603156263178"><ele>359.3333333333333</ele><time>2026-04-05T06:25:09.983Z</time></trkpt><trkpt lat="46.07093862633669" lon="12.126087615513375"><ele>358.6666666666667</ele><time>2026-04-05T06:25:12.983Z</time></trkpt><trkpt lat="46.07099651016982" lon="12.12613284455187"><ele>358.0</ele><time>2026-04-05T06:25:19.983Z</time></trkpt><trkpt lat="46.071067371187404" lon="12.126185594440472"><ele>357.33333333333337</ele><time>2026-04-05T06:25:25.983Z</time></trkpt><trkpt lat="46.07112948039732" lon="12.126144408550061"><ele>356.6666666666667</ele><time>2026-04-05T06:25:27.983Z</time></trkpt><trkpt lat="46.07117961772375" lon="12.126043745181766"><ele>356.0</ele><time>2026-04-05T06:25:29.983Z</time></trkpt><trkpt lat="46.07123790454402" lon="12.125893091972289"><ele>356.0</ele><time>2026-04-05T06:25:31.982Z</time></trkpt><trkpt lat="46.071277563837896" lon="12.12580051637351"><ele>356.0</ele><time>2026-04-05T06:25:32.982Z</time></trkpt><trkpt lat="46.07134970211026" lon="12.125720892253339"><ele>356.0</ele><time>2026-04-05T06:25:33.982Z</time></trkpt><trkpt lat="46.07139118973078" lon="12.125615979814917"><ele>356.0</ele><time>2026-04-05T06:25:34.982Z</time></trkpt><trkpt lat="46.071432610057386" lon="12.125509136122574"><ele>356.0</ele><time>2026-04-05T06:25:35.982Z</time></trkpt><trkpt lat="46.07146681708027" lon="12.125415348308344"><ele>356.0</ele><time>2026-04-05T06:25:36.982Z</time></trkpt><trkpt lat="46.07151963277741" lon="12.125267647217843"><ele>355.0</ele><time>2026-04-05T06:25:38.982Z</time></trkpt><trkpt lat="46.07154860703185" lon="12.125185023159613"><ele>354.0</ele><time>2026-04-05T06:25:39.982Z</time></trkpt><trkpt lat="46.07159477817771" lon="12.125055203329362"><ele>353.0</ele><time>2026-04-05T06:25:41.982Z</time></trkpt><trkpt lat="46.071643680158026" lon="12.12493772950905"><ele>352.0</ele><time>2026-04-05T06:25:43.982Z</time></trkpt><trkpt lat="46.071686680476716" lon="12.124869304473512"><ele>351.0</ele><time>2026-04-05T06:25:45.982Z</time></trkpt><trkpt lat="46.071755886439696" lon="12.124828102149541"><ele>350.0</ele><time>2026-04-05T06:25:48.982Z</time></trkpt><trkpt lat="46.07183064092032" lon="12.124779314004373"><ele>348.4</ele><time>2026-04-05T06:25:50.982Z</time></trkpt><trkpt lat="46.07189005803861" lon="12.124705864468513"><ele>346.8</ele><time>2026-04-05T06:25:52.982Z</time></trkpt><trkpt lat="46.07194561211118" lon="12.124569212521813"><ele>345.20000000000005</ele><time>2026-04-05T06:25:54.982Z</time></trkpt><trkpt lat="46.071922958415215" lon="12.124452503962592"><ele>343.6</ele><time>2026-04-05T06:25:56.982Z</time></trkpt><trkpt lat="46.07183795724032" lon="12.124361085039896"><ele>342.0</ele><time>2026-04-05T06:25:58.982Z</time></trkpt><trkpt lat="46.07172796148868" lon="12.124285884037892"><ele>342.0</ele><time>2026-04-05T06:26:00.982Z</time></trkpt><trkpt lat="46.07167529251345" lon="12.124224741144786"><ele>342.0</ele><time>2026-04-05T06:26:01.982Z</time></trkpt><trkpt lat="46.071617177917815" lon="12.124142806489782"><ele>342.0</ele><time>2026-04-05T06:26:02.982Z</time></trkpt><trkpt lat="46.07157621445994" lon="12.124052760003549"><ele>342.0</ele><time>2026-04-05T06:26:03.982Z</time></trkpt><trkpt lat="46.0715475943578" lon="12.123902581221508"><ele>342.0</ele><time>2026-04-05T06:26:05.982Z</time></trkpt><trkpt lat="46.07153592758023" lon="12.123788012035854"><ele>342.0</ele><time>2026-04-05T06:26:07.982Z</time></trkpt><trkpt lat="46.071518467361855" lon="12.123690257074173"><ele>342.40000000000003</ele><time>2026-04-05T06:26:10.982Z</time></trkpt><trkpt lat="46.071461597837136" lon="12.123644264486858"><ele>342.8</ele><time>2026-04-05T06:26:13.982Z</time></trkpt><trkpt lat="46.07144416039447" lon="12.123748020751014"><ele>343.2</ele><time>2026-04-05T06:26:16.982Z</time></trkpt><trkpt lat="46.071494167673606" lon="12.123911410111445"><ele>343.6</ele><time>2026-04-05T06:26:18.982Z</time></trkpt><trkpt lat="46.0715183260528" lon="12.124005042565857"><ele>344.0</ele><time>2026-04-05T06:26:19.982Z</time></trkpt><trkpt lat="46.0715784320771" lon="12.12418972487062"><ele>344.33333333333337</ele><time>2026-04-05T06:26:21.982Z</time></trkpt><trkpt lat="46.071603194971146" lon="12.124308076783434"><ele>344.6666666666667</ele><time>2026-04-05T06:26:22.982Z</time></trkpt><trkpt lat="46.071645274745734" lon="12.124429741044613"><ele>345.0</ele><time>2026-04-05T06:26:23.982Z</time></trkpt><trkpt lat="46.071684140067156" lon="12.124534966009602"><ele>345.3333333333333</ele><time>2026-04-05T06:26:24.982Z</time></trkpt><trkpt lat="46.071736419530765" lon="12.124611835231748"><ele>345.66666666666663</ele><time>2026-04-05T06:26:25.981Z</time></trkpt><trkpt lat="46.07179300248532" lon="12.124658822185491"><ele>346.0</ele><time>2026-04-05T06:26:26.981Z</time></trkpt><trkpt lat="46.07185694031344" lon="12.12468344057623"><ele>345.3333333333333</ele><time>2026-04-05T06:26:27.981Z</time></trkpt><trkpt lat="46.07195088205457" lon="12.124589779981235"><ele>344.66666666666663</ele><time>2026-04-05T06:26:29.981Z</time></trkpt><trkpt lat="46.07197595560901" lon="12.124495742939441"><ele>344.0</ele><time>2026-04-05T06:26:30.981Z</time></trkpt><trkpt lat="46.07199309284663" lon="12.124393501400009"><ele>343.3333333333333</ele><time>2026-04-05T06:26:31.981Z</time></trkpt><trkpt lat="46.07201866510884" lon="12.124295062519062"><ele>342.6666666666667</ele><time>2026-04-05T06:26:32.981Z</time></trkpt><trkpt lat="46.07204783163251" lon="12.124193371171613"><ele>342.0</ele><time>2026-04-05T06:26:33.981Z</time></trkpt><trkpt lat="46.07209740018368" lon="12.124084552926831"><ele>341.0</ele><time>2026-04-05T06:26:34.981Z</time></trkpt><trkpt lat="46.07216902213057" lon="12.123974474683239"><ele>340.0</ele><time>2026-04-05T06:26:35.981Z</time></trkpt><trkpt lat="46.072250729659416" lon="12.123875686433871"><ele>339.0</ele><time>2026-04-05T06:26:36.981Z</time></trkpt><trkpt lat="46.072346053120434" lon="12.123774282349249"><ele>338.0</ele><time>2026-04-05T06:26:37.981Z</time></trkpt><trkpt lat="46.07243839707864" lon="12.123663427570582"><ele>337.4</ele><time>2026-04-05T06:26:38.981Z</time></trkpt><trkpt lat="46.07253085038918" lon="12.123550397647895"><ele>336.79999999999995</ele><time>2026-04-05T06:26:39.981Z</time></trkpt><trkpt lat="46.072619528549545" lon="12.123448791014757"><ele>336.2</ele><time>2026-04-05T06:26:40.981Z</time></trkpt><trkpt lat="46.072706395129856" lon="12.123372572042895"><ele>335.6</ele><time>2026-04-05T06:26:41.981Z</time></trkpt><trkpt lat="46.07279816701522" lon="12.123331362496462"><ele>335.0</ele><time>2026-04-05T06:26:42.981Z</time></trkpt><trkpt lat="46.07289160625349" lon="12.123345005311725"><ele>335.0</ele><time>2026-04-05T06:26:43.981Z</time></trkpt><trkpt lat="46.07298528661142" lon="12.123399189554078"><ele>335.0</ele><time>2026-04-05T06:26:44.981Z</time></trkpt><trkpt lat="46.0730342357337" lon="12.123481366832767"><ele>335.0</ele><time>2026-04-05T06:26:45.981Z</time></trkpt><trkpt lat="46.07308717417536" lon="12.123576349155483"><ele>335.0</ele><time>2026-04-05T06:26:46.981Z</time></trkpt><trkpt lat="46.07312961803526" lon="12.123672471831547"><ele>335.0</ele><time>2026-04-05T06:26:47.981Z</time></trkpt><trkpt lat="46.07323320077619" lon="12.123739455731432"><ele>334.6666666666667</ele><time>2026-04-05T06:26:49.981Z</time></trkpt><trkpt lat="46.073289867302286" lon="12.123697638710704"><ele>334.33333333333337</ele><time>2026-04-05T06:26:50.981Z</time></trkpt><trkpt lat="46.073357557556015" lon="12.123564868747405"><ele>334.0</ele><time>2026-04-05T06:26:52.981Z</time></trkpt><trkpt lat="46.073387363202684" lon="12.123455138929193"><ele>333.6666666666667</ele><time>2026-04-05T06:26:53.981Z</time></trkpt><trkpt lat="46.0733905556187" lon="12.123322486670103"><ele>333.3333333333333</ele><time>2026-04-05T06:26:54.981Z</time></trkpt><trkpt lat="46.07339313406936" lon="12.123206111846248"><ele>333.0</ele><time>2026-04-05T06:26:55.981Z</time></trkpt><trkpt lat="46.07340043364322" lon="12.123105468506443"><ele>332.79999999999995</ele><time>2026-04-05T06:26:56.981Z</time></trkpt><trkpt lat="46.07340689177494" lon="12.123010984019423"><ele>332.6</ele><time>2026-04-05T06:26:57.981Z</time></trkpt><trkpt lat="46.07336815774003" lon="12.122907431169365"><ele>332.4</ele><time>2026-04-05T06:26:59.981Z</time></trkpt><trkpt lat="46.073247029452496" lon="12.122893380960257"><ele>332.20000000000005</ele><time>2026-04-05T06:27:01.981Z</time></trkpt><trkpt lat="46.07316191061335" lon="12.122908267649683"><ele>332.0</ele><time>2026-04-05T06:27:02.981Z</time></trkpt><trkpt lat="46.07305497277648" lon="12.122948245619845"><ele>332.40000000000003</ele><time>2026-04-05T06:27:03.981Z</time></trkpt><trkpt lat="46.07297455829419" lon="12.122993480875545"><ele>332.8</ele><time>2026-04-05T06:27:04.981Z</time></trkpt><trkpt lat="46.07288895333919" lon="12.123039790482903"><ele>333.2</ele><time>2026-04-05T06:27:05.981Z</time></trkpt><trkpt lat="46.07279875504756" lon="12.12307047621566"><ele>333.6</ele><time>2026-04-05T06:27:06.981Z</time></trkpt><trkpt lat="46.07269880079804" lon="12.123106403705563"><ele>334.0</ele><time>2026-04-05T06:27:07.981Z</time></trkpt><trkpt lat="46.072595455411594" lon="12.12315397000288"><ele>334.0</ele><time>2026-04-05T06:27:08.981Z</time></trkpt><trkpt lat="46.0725050705972" lon="12.123196866776174"><ele>334.0</ele><time>2026-04-05T06:27:09.981Z</time></trkpt><trkpt lat="46.07243071097827" lon="12.123230161034728"><ele>334.0</ele><time>2026-04-05T06:27:10.981Z</time></trkpt><trkpt lat="46.07236404261953" lon="12.123260132936759"><ele>334.0</ele><time>2026-04-05T06:27:11.981Z</time></trkpt><trkpt lat="46.07226192606915" lon="12.123311227132993"><ele>334.0</ele><time>2026-04-05T06:27:13.981Z</time></trkpt><trkpt lat="46.07219391418977" lon="12.123335353918963"><ele>334.0</ele><time>2026-04-05T06:27:15.981Z</time></trkpt><trkpt lat="46.072118191368084" lon="12.12330882682108"><ele>334.0</ele><time>2026-04-05T06:27:20.98Z</time></trkpt><trkpt lat="46.072046299976634" lon="12.123218294225374"><ele>334.0</ele><time>2026-04-05T06:27:22.98Z</time></trkpt><trkpt lat="46.071970468321965" lon="12.123079002385287"><ele>334.0</ele><time>2026-04-05T06:27:24.98Z</time></trkpt><trkpt lat="46.07191337055057" lon="12.122988508471881"><ele>334.0</ele><time>2026-04-05T06:27:25.98Z</time></trkpt><trkpt lat="46.071859960239514" lon="12.122908324193219"><ele>334.0</ele><time>2026-04-05T06:27:26.98Z</time></trkpt><trkpt lat="46.07178198519283" lon="12.12285227626127"><ele>334.0</ele><time>2026-04-05T06:27:27.98Z</time></trkpt><trkpt lat="46.071742194230055" lon="12.122716590116028"><ele>334.0</ele><time>2026-04-05T06:27:28.98Z</time></trkpt><trkpt lat="46.07167806239811" lon="12.122600628371355"><ele>334.0</ele><time>2026-04-05T06:27:29.98Z</time></trkpt><trkpt lat="46.07160752642034" lon="12.122480234174038"><ele>334.0</ele><time>2026-04-05T06:27:30.98Z</time></trkpt><trkpt lat="46.07153953730977" lon="12.12235855759431"><ele>334.0</ele><time>2026-04-05T06:27:31.98Z</time></trkpt><trkpt lat="46.07146742084369" lon="12.1222271367787"><ele>335.6</ele><time>2026-04-05T06:27:32.98Z</time></trkpt><trkpt lat="46.07140015098944" lon="12.122104813203487"><ele>337.2</ele><time>2026-04-05T06:27:33.98Z</time></trkpt><trkpt lat="46.071344568830895" lon="12.12197468424341"><ele>338.8</ele><time>2026-04-05T06:27:34.98Z</time></trkpt><trkpt lat="46.071291377436935" lon="12.121853003902187"><ele>340.40000000000003</ele><time>2026-04-05T06:27:35.98Z</time></trkpt><trkpt lat="46.071232982656504" lon="12.121737107075694"><ele>342.0</ele><time>2026-04-05T06:27:36.98Z</time></trkpt><trkpt lat="46.0711662885292" lon="12.121648927448238"><ele>341.6666666666667</ele><time>2026-04-05T06:27:37.98Z</time></trkpt><trkpt lat="46.07111675459531" lon="12.121535241339"><ele>341.3333333333333</ele><time>2026-04-05T06:27:38.98Z</time></trkpt><trkpt lat="46.07109206188791" lon="12.121436498897614"><ele>341.0</ele><time>2026-04-05T06:27:39.98Z</time></trkpt><trkpt lat="46.071022553201345" lon="12.121317630033275"><ele>340.66666666666663</ele><time>2026-04-05T06:27:41.98Z</time></trkpt><trkpt lat="46.07095053254593" lon="12.121242620270532"><ele>340.3333333333333</ele><time>2026-04-05T06:27:43.98Z</time></trkpt><trkpt lat="46.07090744963154" lon="12.121170935693987"><ele>340.0</ele><time>2026-04-05T06:27:44.98Z</time></trkpt><trkpt lat="46.07085772787576" lon="12.12108143577551"><ele>340.0</ele><time>2026-04-05T06:27:45.98Z</time></trkpt><trkpt lat="46.07081124298819" lon="12.120961775188334"><ele>340.0</ele><time>2026-04-05T06:27:46.98Z</time></trkpt><trkpt lat="46.07075164482302" lon="12.12079239538765"><ele>340.0</ele><time>2026-04-05T06:27:47.98Z</time></trkpt><trkpt lat="46.070673000636944" lon="12.12060945188028"><ele>340.0</ele><time>2026-04-05T06:27:48.98Z</time></trkpt><trkpt lat="46.07061025449284" lon="12.120452944764814"><ele>341.0</ele><time>2026-04-05T06:27:49.98Z</time></trkpt><trkpt lat="46.07053517523244" lon="12.120280728965854"><ele>342.0</ele><time>2026-04-05T06:27:50.98Z</time></trkpt><trkpt lat="46.07045834468809" lon="12.120092939734"><ele>343.0</ele><time>2026-04-05T06:27:51.98Z</time></trkpt><trkpt lat="46.07036359163441" lon="12.119890534021705"><ele>343.0</ele><time>2026-04-05T06:27:52.98Z</time></trkpt><trkpt lat="46.07028762801467" lon="12.119699618609205"><ele>343.0</ele><time>2026-04-05T06:27:53.98Z</time></trkpt><trkpt lat="46.07021388715239" lon="12.11950687639543"><ele>343.0</ele><time>2026-04-05T06:27:54.98Z</time></trkpt><trkpt lat="46.070140402326466" lon="12.119304307033968"><ele>343.0</ele><time>2026-04-05T06:27:55.98Z</time></trkpt><trkpt lat="46.07006154869889" lon="12.119102677059626"><ele>343.0</ele><time>2026-04-05T06:27:56.98Z</time></trkpt><trkpt lat="46.06997783893574" lon="12.118885491009182"><ele>343.0</ele><time>2026-04-05T06:27:57.98Z</time></trkpt><trkpt lat="46.06988942884096" lon="12.118678161962661"><ele>344.0</ele><time>2026-04-05T06:27:58.98Z</time></trkpt><trkpt lat="46.06981070663316" lon="12.118477476586728"><ele>345.0</ele><time>2026-04-05T06:27:59.98Z</time></trkpt><trkpt lat="46.0697343598363" lon="12.118278804564543"><ele>346.0</ele><time>2026-04-05T06:28:00.98Z</time></trkpt><trkpt lat="46.06965066567486" lon="12.11806919585974"><ele>344.0</ele><time>2026-04-05T06:28:01.98Z</time></trkpt><trkpt lat="46.069575926135705" lon="12.117857930196735"><ele>342.0</ele><time>2026-04-05T06:28:02.98Z</time></trkpt><trkpt lat="46.06950284986927" lon="12.117626391172703"><ele>340.0</ele><time>2026-04-05T06:28:03.98Z</time></trkpt><trkpt lat="46.06945028000395" lon="12.117385042361928"><ele>337.3333333333333</ele><time>2026-04-05T06:28:04.98Z</time></trkpt><trkpt lat="46.06939637223343" lon="12.117133835702388"><ele>334.6666666666667</ele><time>2026-04-05T06:28:05.98Z</time></trkpt><trkpt lat="46.06934571701994" lon="12.116883443735468"><ele>332.0</ele><time>2026-04-05T06:28:06.98Z</time></trkpt><trkpt lat="46.06930234975863" lon="12.116616838375364"><ele>332.33333333333337</ele><time>2026-04-05T06:28:07.98Z</time></trkpt><trkpt lat="46.0692619314912" lon="12.116355964204365"><ele>332.6666666666667</ele><time>2026-04-05T06:28:08.98Z</time></trkpt><trkpt lat="46.06923062428996" lon="12.116091762516268"><ele>333.0</ele><time>2026-04-05T06:28:09.98Z</time></trkpt><trkpt lat="46.069204883937665" lon="12.11581104025399"><ele>335.3333333333333</ele><time>2026-04-05T06:28:10.98Z</time></trkpt><trkpt lat="46.06918265699669" lon="12.115528323487476"><ele>337.66666666666663</ele><time>2026-04-05T06:28:11.98Z</time></trkpt><trkpt lat="46.06916304407482" lon="12.11524820789899"><ele>340.0</ele><time>2026-04-05T06:28:12.98Z</time></trkpt><trkpt lat="46.06914352554783" lon="12.114965611866467"><ele>341.0</ele><time>2026-04-05T06:28:13.979Z</time></trkpt><trkpt lat="46.06912382864908" lon="12.114680295958365"><ele>342.0</ele><time>2026-04-05T06:28:14.979Z</time></trkpt><trkpt lat="46.06910281866759" lon="12.114397018467958"><ele>343.0</ele><time>2026-04-05T06:28:15.979Z</time></trkpt><trkpt lat="46.06908156803059" lon="12.11411146447399"><ele>346.0</ele><time>2026-04-05T06:28:16.979Z</time></trkpt><trkpt lat="46.06905802360515" lon="12.11382439595097"><ele>349.0</ele><time>2026-04-05T06:28:17.979Z</time></trkpt><trkpt lat="46.06903799747693" lon="12.113552217757613"><ele>352.0</ele><time>2026-04-05T06:28:18.979Z</time></trkpt><trkpt lat="46.06901419937273" lon="12.11329312161528"><ele>351.3333333333333</ele><time>2026-04-05T06:28:19.979Z</time></trkpt><trkpt lat="46.06899699520073" lon="12.113055782569115"><ele>350.6666666666667</ele><time>2026-04-05T06:28:20.979Z</time></trkpt><trkpt lat="46.068989227774026" lon="12.112827145430442"><ele>350.0</ele><time>2026-04-05T06:28:21.979Z</time></trkpt><trkpt lat="46.06897866488313" lon="12.112614336389425"><ele>350.0</ele><time>2026-04-05T06:28:22.979Z</time></trkpt><trkpt lat="46.068970219723006" lon="12.112418296111192"><ele>350.0</ele><time>2026-04-05T06:28:23.979Z</time></trkpt><trkpt lat="46.06896010983205" lon="12.1122316927712"><ele>350.0</ele><time>2026-04-05T06:28:24.979Z</time></trkpt><trkpt lat="46.06894830689955" lon="12.112064327074851"><ele>350.0</ele><time>2026-04-05T06:28:25.979Z</time></trkpt><trkpt lat="46.06894315797893" lon="12.111932706487824"><ele>349.2</ele><time>2026-04-05T06:28:26.979Z</time></trkpt><trkpt lat="46.06895095928586" lon="12.111831318236922"><ele>348.4</ele><time>2026-04-05T06:28:27.979Z</time></trkpt><trkpt lat="46.068974608292436" lon="12.111739266455839"><ele>347.6</ele><time>2026-04-05T06:28:28.979Z</time></trkpt><trkpt lat="46.06905497585488" lon="12.111653975752013"><ele>346.8</ele><time>2026-04-05T06:28:30.979Z</time></trkpt><trkpt lat="46.0691709436146" lon="12.111577516759517"><ele>346.0</ele><time>2026-04-05T06:28:32.979Z</time></trkpt><trkpt lat="46.06921160712455" lon="12.111806707501469"><ele>344.8</ele><time>2026-04-05T06:28:33.979Z</time></trkpt><trkpt lat="46.06925513561142" lon="12.111918585329162"><ele>343.6</ele><time>2026-04-05T06:28:34.979Z</time></trkpt><trkpt lat="46.069302152682496" lon="12.112071103652129"><ele>342.4</ele><time>2026-04-05T06:28:35.979Z</time></trkpt><trkpt lat="46.06934255496977" lon="12.112224371456826"><ele>341.2</ele><time>2026-04-05T06:28:36.979Z</time></trkpt><trkpt lat="46.06937881392326" lon="12.112369982372858"><ele>340.0</ele><time>2026-04-05T06:28:37.979Z</time></trkpt><trkpt lat="46.069410991263695" lon="12.112521337262768"><ele>340.0</ele><time>2026-04-05T06:28:38.979Z</time></trkpt><trkpt lat="46.06944544757767" lon="12.112652641611207"><ele>340.0</ele><time>2026-04-05T06:28:39.979Z</time></trkpt><trkpt lat="46.0694748713369" lon="12.112768117493918"><ele>340.0</ele><time>2026-04-05T06:28:40.979Z</time></trkpt><trkpt lat="46.06949560917873" lon="12.11287427280702"><ele>340.0</ele><time>2026-04-05T06:28:41.979Z</time></trkpt><trkpt lat="46.06950954683875" lon="12.112977837135485"><ele>340.0</ele><time>2026-04-05T06:28:42.979Z</time></trkpt><trkpt lat="46.069527630106585" lon="12.113098475836694"><ele>340.0</ele><time>2026-04-05T06:28:43.979Z</time></trkpt><trkpt lat="46.06953812861114" lon="12.113234378295159"><ele>340.5</ele><time>2026-04-05T06:28:44.979Z</time></trkpt><trkpt lat="46.069548592812566" lon="12.113361138109761"><ele>341.0</ele><time>2026-04-05T06:28:45.979Z</time></trkpt><trkpt lat="46.06953959977211" lon="12.11346849996036"><ele>341.5</ele><time>2026-04-05T06:28:46.979Z</time></trkpt><trkpt lat="46.06951071153927" lon="12.113550935775253"><ele>342.0</ele><time>2026-04-05T06:28:48.979Z</time></trkpt><trkpt lat="46.06944461785179" lon="12.113590948232291"><ele>342.5</ele><time>2026-04-05T06:28:50.979Z</time></trkpt><trkpt lat="46.0693734612642" lon="12.113625007087325"><ele>343.0</ele><time>2026-04-05T06:28:51.979Z</time></trkpt><trkpt lat="46.06929260087915" lon="12.113667381625795"><ele>343.0</ele><time>2026-04-05T06:28:52.979Z</time></trkpt><trkpt lat="46.06920565246602" lon="12.113707875253224"><ele>343.0</ele><time>2026-04-05T06:28:53.979Z</time></trkpt><trkpt lat="46.06911156005389" lon="12.113757373905457"><ele>343.0</ele><time>2026-04-05T06:28:54.979Z</time></trkpt><trkpt lat="46.06898220787681" lon="12.113834426740608"><ele>343.0</ele><time>2026-04-05T06:28:55.979Z</time></trkpt><trkpt lat="46.06886028712102" lon="12.113914006104524"><ele>344.5</ele><time>2026-04-05T06:28:56.979Z</time></trkpt><trkpt lat="46.06876468119452" lon="12.11401640347002"><ele>346.0</ele><time>2026-04-05T06:28:57.979Z</time></trkpt><trkpt lat="46.06865845867988" lon="12.114148426670715"><ele>347.5</ele><time>2026-04-05T06:28:58.979Z</time></trkpt><trkpt lat="46.06854281692525" lon="12.114282970727132"><ele>349.0</ele><time>2026-04-05T06:28:59.979Z</time></trkpt><trkpt lat="46.06841092942811" lon="12.1144101538355"><ele>349.0</ele><time>2026-04-05T06:29:00.979Z</time></trkpt><trkpt lat="46.068277709821686" lon="12.114514461499489"><ele>349.0</ele><time>2026-04-05T06:29:01.979Z</time></trkpt><trkpt lat="46.06815865649017" lon="12.114610284088782"><ele>349.0</ele><time>2026-04-05T06:29:02.979Z</time></trkpt><trkpt lat="46.06804091610916" lon="12.114715936011041"><ele>349.0</ele><time>2026-04-05T06:29:03.979Z</time></trkpt><trkpt lat="46.067921681003384" lon="12.114780921097669"><ele>349.5</ele><time>2026-04-05T06:29:04.979Z</time></trkpt><trkpt lat="46.06780676565014" lon="12.114879032789068"><ele>350.0</ele><time>2026-04-05T06:29:05.979Z</time></trkpt><trkpt lat="46.067685111186286" lon="12.114946484629476"><ele>350.5</ele><time>2026-04-05T06:29:06.979Z</time></trkpt><trkpt lat="46.06755445927327" lon="12.115006293631202"><ele>351.0</ele><time>2026-04-05T06:29:07.979Z</time></trkpt><trkpt lat="46.06741031368053" lon="12.115030186418663"><ele>349.3333333333333</ele><time>2026-04-05T06:29:08.978Z</time></trkpt><trkpt lat="46.06725349238994" lon="12.115091791261095"><ele>347.66666666666663</ele><time>2026-04-05T06:29:09.978Z</time></trkpt><trkpt lat="46.06708837656593" lon="12.115137949245174"><ele>346.0</ele><time>2026-04-05T06:29:10.978Z</time></trkpt><trkpt lat="46.06692002711988" lon="12.115184897364323"><ele>346.0</ele><time>2026-04-05T06:29:11.978Z</time></trkpt><trkpt lat="46.06674518310216" lon="12.115236906412395"><ele>346.0</ele><time>2026-04-05T06:29:12.978Z</time></trkpt><trkpt lat="46.06656862167113" lon="12.115292307498924"><ele>346.0</ele><time>2026-04-05T06:29:13.978Z</time></trkpt><trkpt lat="46.066402087931486" lon="12.115347010686198"><ele>345.66666666666663</ele><time>2026-04-05T06:29:14.978Z</time></trkpt><trkpt lat="46.06625046516103" lon="12.115399271251917"><ele>345.3333333333333</ele><time>2026-04-05T06:29:15.978Z</time></trkpt><trkpt lat="46.065993684065226" lon="12.11546755608983"><ele>345.0</ele><time>2026-04-05T06:29:17.978Z</time></trkpt><trkpt lat="46.065856967086134" lon="12.115492598779786"><ele>346.5</ele><time>2026-04-05T06:29:18.978Z</time></trkpt><trkpt lat="46.065716090847914" lon="12.115499100093363"><ele>348.0</ele><time>2026-04-05T06:29:19.978Z</time></trkpt><trkpt lat="46.06556975345492" lon="12.115492679546856"><ele>349.5</ele><time>2026-04-05T06:29:20.978Z</time></trkpt><trkpt lat="46.06542275191773" lon="12.11548871704317"><ele>351.0</ele><time>2026-04-05T06:29:21.978Z</time></trkpt><trkpt lat="46.0652870104132" lon="12.11548808915681"><ele>351.0</ele><time>2026-04-05T06:29:22.978Z</time></trkpt><trkpt lat="46.06516541791998" lon="12.115453586611164"><ele>351.0</ele><time>2026-04-05T06:29:23.978Z</time></trkpt><trkpt lat="46.065055582844344" lon="12.115425899934621"><ele>351.0</ele><time>2026-04-05T06:29:24.978Z</time></trkpt><trkpt lat="46.06495743014172" lon="12.115376592101368"><ele>351.0</ele><time>2026-04-05T06:29:25.978Z</time></trkpt><trkpt lat="46.06487393345659" lon="12.115286005557905"><ele>351.0</ele><time>2026-04-05T06:29:26.978Z</time></trkpt><trkpt lat="46.064812378793164" lon="12.115156739658167"><ele>352.0</ele><time>2026-04-05T06:29:27.978Z</time></trkpt><trkpt lat="46.0647525487785" lon="12.115015664865123"><ele>353.0</ele><time>2026-04-05T06:29:28.978Z</time></trkpt><trkpt lat="46.06468360155118" lon="12.114906310997409"><ele>354.0</ele><time>2026-04-05T06:29:29.978Z</time></trkpt><trkpt lat="46.06462997244151" lon="12.114795391684751"><ele>355.0</ele><time>2026-04-05T06:29:30.978Z</time></trkpt><trkpt lat="46.06456498475501" lon="12.114676486774432"><ele>356.0</ele><time>2026-04-05T06:29:31.978Z</time></trkpt><trkpt lat="46.0644822421247" lon="12.114563926226854"><ele>357.0</ele><time>2026-04-05T06:29:32.978Z</time></trkpt><trkpt lat="46.06438456490441" lon="12.11443606147342"><ele>358.0</ele><time>2026-04-05T06:29:33.978Z</time></trkpt><trkpt lat="46.06429197925151" lon="12.114308497647425"><ele>359.0</ele><time>2026-04-05T06:29:34.978Z</time></trkpt><trkpt lat="46.064188954091904" lon="12.114172375954908"><ele>360.0</ele><time>2026-04-05T06:29:35.978Z</time></trkpt><trkpt lat="46.064085953918706" lon="12.114041514082334"><ele>360.4</ele><time>2026-04-05T06:29:36.978Z</time></trkpt><trkpt lat="46.06400918238885" lon="12.113909578272063"><ele>360.8</ele><time>2026-04-05T06:29:37.978Z</time></trkpt><trkpt lat="46.063938426422595" lon="12.113816591133453"><ele>361.20000000000005</ele><time>2026-04-05T06:29:38.978Z</time></trkpt><trkpt lat="46.06386852748478" lon="12.11375460979232"><ele>361.6</ele><time>2026-04-05T06:29:39.978Z</time></trkpt><trkpt lat="46.06381267784" lon="12.113688564887097"><ele>362.0</ele><time>2026-04-05T06:29:40.978Z</time></trkpt><trkpt lat="46.063745300988295" lon="12.113602305105127"><ele>362.0</ele><time>2026-04-05T06:29:42.978Z</time></trkpt><trkpt lat="46.063682810914685" lon="12.113613446563269"><ele>362.0</ele><time>2026-04-05T06:29:45.997Z</time></trkpt><trkpt lat="46.0636092551039" lon="12.113627613252158"><ele>362.0</ele><time>2026-04-05T06:29:47.997Z</time></trkpt><trkpt lat="46.063513046256006" lon="12.113633002642933"><ele>362.0</ele><time>2026-04-05T06:29:49.997Z</time></trkpt><trkpt lat="46.063438950182295" lon="12.113623060237995"><ele>362.0</ele><time>2026-04-05T06:29:50.997Z</time></trkpt><trkpt lat="46.06337394679265" lon="12.113617348638492"><ele>362.0</ele><time>2026-04-05T06:29:51.997Z</time></trkpt><trkpt lat="46.06330918657015" lon="12.113613724677641"><ele>362.0</ele><time>2026-04-05T06:29:52.997Z</time></trkpt><trkpt lat="46.06323274599347" lon="12.113611599831264"><ele>363.6</ele><time>2026-04-05T06:29:53.997Z</time></trkpt><trkpt lat="46.0631445051211" lon="12.113613738460035"><ele>365.20000000000005</ele><time>2026-04-05T06:29:54.997Z</time></trkpt><trkpt lat="46.06304594692462" lon="12.113609389148742"><ele>366.8</ele><time>2026-04-05T06:29:55.997Z</time></trkpt><trkpt lat="46.06294290122196" lon="12.113604786572783"><ele>368.4</ele><time>2026-04-05T06:29:56.997Z</time></trkpt><trkpt lat="46.06284689319475" lon="12.113600735720551"><ele>370.0</ele><time>2026-04-05T06:29:57.997Z</time></trkpt><trkpt lat="46.06275730112253" lon="12.113598033429417"><ele>370.0</ele><time>2026-04-05T06:29:58.997Z</time></trkpt><trkpt lat="46.0626665080883" lon="12.113594219387561"><ele>370.0</ele><time>2026-04-05T06:29:59.997Z</time></trkpt><trkpt lat="46.062582158826125" lon="12.113597343408221"><ele>370.0</ele><time>2026-04-05T06:30:00.997Z</time></trkpt><trkpt lat="46.06250540924344" lon="12.113595346112426"><ele>370.0</ele><time>2026-04-05T06:30:01.997Z</time></trkpt><trkpt lat="46.06243763185775" lon="12.113590042447315"><ele>370.0</ele><time>2026-04-05T06:30:02.997Z</time></trkpt><trkpt lat="46.062375857219344" lon="12.113567419127774"><ele>370.0</ele><time>2026-04-05T06:30:03.997Z</time></trkpt><trkpt lat="46.06231186933661" lon="12.113528700242847"><ele>372.8</ele><time>2026-04-05T06:30:04.997Z</time></trkpt><trkpt lat="46.06224679945896" lon="12.11340374192172"><ele>375.6</ele><time>2026-04-05T06:30:06.997Z</time></trkpt><trkpt lat="46.062214287595545" lon="12.113237167752464"><ele>378.4</ele><time>2026-04-05T06:30:08.997Z</time></trkpt><trkpt lat="46.06217943586718" lon="12.113064837510601"><ele>381.2</ele><time>2026-04-05T06:30:10.997Z</time></trkpt><trkpt lat="46.06215421027472" lon="12.112979126584388"><ele>384.0</ele><time>2026-04-05T06:30:11.997Z</time></trkpt><trkpt lat="46.06212680504721" lon="12.11289223913519"><ele>384.2</ele><time>2026-04-05T06:30:12.997Z</time></trkpt><trkpt lat="46.06204735904894" lon="12.112774452958167"><ele>384.4</ele><time>2026-04-05T06:30:14.997Z</time></trkpt><trkpt lat="46.061978902830454" lon="12.11272025541081"><ele>384.6</ele><time>2026-04-05T06:30:15.997Z</time></trkpt><trkpt lat="46.06190565577265" lon="12.112654504301828"><ele>384.8</ele><time>2026-04-05T06:30:16.997Z</time></trkpt><trkpt lat="46.06183529065918" lon="12.112572375467172"><ele>385.0</ele><time>2026-04-05T06:30:17.997Z</time></trkpt><trkpt lat="46.06176080393995" lon="12.1124925611521"><ele>385.0</ele><time>2026-04-05T06:30:18.997Z</time></trkpt><trkpt lat="46.06169446704434" lon="12.112417341926074"><ele>385.0</ele><time>2026-04-05T06:30:19.997Z</time></trkpt><trkpt lat="46.06162235340216" lon="12.112344351033618"><ele>385.0</ele><time>2026-04-05T06:30:20.997Z</time></trkpt><trkpt lat="46.061565515573186" lon="12.112262179359305"><ele>385.0</ele><time>2026-04-05T06:30:21.997Z</time></trkpt><trkpt lat="46.06149060646071" lon="12.112112498259904"><ele>385.0</ele><time>2026-04-05T06:30:23.997Z</time></trkpt><trkpt lat="46.061430125412464" lon="12.112018498859891"><ele>384.33333333333337</ele><time>2026-04-05T06:30:25.997Z</time></trkpt><trkpt lat="46.06134489199675" lon="12.111948643469248"><ele>383.6666666666667</ele><time>2026-04-05T06:30:27.997Z</time></trkpt><trkpt lat="46.06128756848343" lon="12.11188561933519"><ele>383.0</ele><time>2026-04-05T06:30:28.997Z</time></trkpt><trkpt lat="46.06122533988047" lon="12.111837946467977"><ele>382.33333333333337</ele><time>2026-04-05T06:30:29.997Z</time></trkpt><trkpt lat="46.061137663663175" lon="12.111773071020968"><ele>381.6666666666667</ele><time>2026-04-05T06:30:30.997Z</time></trkpt><trkpt lat="46.06105781196123" lon="12.111721563368816"><ele>381.0</ele><time>2026-04-05T06:30:31.997Z</time></trkpt><trkpt lat="46.0609851688424" lon="12.111664126676162"><ele>381.0</ele><time>2026-04-05T06:30:32.998Z</time></trkpt><trkpt lat="46.06090853421365" lon="12.11161008394326"><ele>381.0</ele><time>2026-04-05T06:30:33.998Z</time></trkpt><trkpt lat="46.060837318428455" lon="12.11156617700953"><ele>381.0</ele><time>2026-04-05T06:30:34.998Z</time></trkpt><trkpt lat="46.06077192611014" lon="12.111533576859197"><ele>381.0</ele><time>2026-04-05T06:30:35.999Z</time></trkpt><trkpt lat="46.060702094938605" lon="12.111513912922637"><ele>381.0</ele><time>2026-04-05T06:30:36.999Z</time></trkpt><trkpt lat="46.06060442152124" lon="12.111467762052444"><ele>381.0</ele><time>2026-04-05T06:30:38.998Z</time></trkpt><trkpt lat="46.06055304305025" lon="12.111358997360172"><ele>382.3333333333333</ele><time>2026-04-05T06:30:40.998Z</time></trkpt><trkpt lat="46.060513658335076" lon="12.111181796562068"><ele>383.66666666666663</ele><time>2026-04-05T06:30:42.999Z</time></trkpt><trkpt lat="46.06048698317544" lon="12.111085843732255"><ele>385.0</ele><time>2026-04-05T06:30:43.999Z</time></trkpt><trkpt lat="46.06045430326339" lon="12.110995779195951"><ele>386.3333333333333</ele><time>2026-04-05T06:30:44.998Z</time></trkpt><trkpt lat="46.060406399068206" lon="12.110926688789887"><ele>387.66666666666663</ele><time>2026-04-05T06:30:45.998Z</time></trkpt><trkpt lat="46.060351066982136" lon="12.11087673043383"><ele>389.0</ele><time>2026-04-05T06:30:46.998Z</time></trkpt><trkpt lat="46.0602802096302" lon="12.110841874017812"><ele>389.0</ele><time>2026-04-05T06:30:47.998Z</time></trkpt><trkpt lat="46.06019627695809" lon="12.11080395549082"><ele>389.0</ele><time>2026-04-05T06:30:48.998Z</time></trkpt><trkpt lat="46.06011126256101" lon="12.110748929635225"><ele>389.0</ele><time>2026-04-05T06:30:49.998Z</time></trkpt><trkpt lat="46.06000932897445" lon="12.110695413576625"><ele>389.0</ele><time>2026-04-05T06:30:50.998Z</time></trkpt><trkpt lat="46.059904615250794" lon="12.11063478176752"><ele>389.0</ele><time>2026-04-05T06:30:51.998Z</time></trkpt><trkpt lat="46.05981044681526" lon="12.11057544393556"><ele>391.4</ele><time>2026-04-05T06:30:52.998Z</time></trkpt><trkpt lat="46.05972055365981" lon="12.110520466732991"><ele>393.79999999999995</ele><time>2026-04-05T06:30:53.998Z</time></trkpt><trkpt lat="46.059633960370206" lon="12.11046843330146"><ele>396.20000000000005</ele><time>2026-04-05T06:30:54.998Z</time></trkpt><trkpt lat="46.05956834548116" lon="12.11043325122457"><ele>398.6</ele><time>2026-04-05T06:30:55.998Z</time></trkpt><trkpt lat="46.05947869577444" lon="12.110418342060523"><ele>401.0</ele><time>2026-04-05T06:30:57.998Z</time></trkpt><trkpt lat="46.05933449311412" lon="12.110444950173852"><ele>401.0</ele><time>2026-04-05T06:30:59.998Z</time></trkpt><trkpt lat="46.059228719102016" lon="12.110469558769049"><ele>401.0</ele><time>2026-04-05T06:31:00.998Z</time></trkpt><trkpt lat="46.05911653826979" lon="12.11051789712421"><ele>401.0</ele><time>2026-04-05T06:31:01.998Z</time></trkpt><trkpt lat="46.059021843022194" lon="12.110585749939512"><ele>401.0</ele><time>2026-04-05T06:31:02.998Z</time></trkpt><trkpt lat="46.05893587688923" lon="12.110690110434211"><ele>401.0</ele><time>2026-04-05T06:31:03.997Z</time></trkpt><trkpt lat="46.058834020585245" lon="12.110798030410008"><ele>404.25</ele><time>2026-04-05T06:31:04.997Z</time></trkpt><trkpt lat="46.05873489422613" lon="12.110946287812524"><ele>407.5</ele><time>2026-04-05T06:31:05.997Z</time></trkpt><trkpt lat="46.05862219301695" lon="12.111072622140245"><ele>410.75</ele><time>2026-04-05T06:31:06.997Z</time></trkpt><trkpt lat="46.05850120558314" lon="12.11114873193592"><ele>414.0</ele><time>2026-04-05T06:31:07.997Z</time></trkpt><trkpt lat="46.05837947484836" lon="12.111216365573032"><ele>415.5</ele><time>2026-04-05T06:31:08.997Z</time></trkpt><trkpt lat="46.05825238366178" lon="12.111277112920028"><ele>417.0</ele><time>2026-04-05T06:31:09.997Z</time></trkpt><trkpt lat="46.058133633049835" lon="12.1113391282988"><ele>418.5</ele><time>2026-04-05T06:31:10.997Z</time></trkpt><trkpt lat="46.058028743394985" lon="12.111377138105345"><ele>420.0</ele><time>2026-04-05T06:31:11.997Z</time></trkpt><trkpt lat="46.05794577173713" lon="12.111441500027995"><ele>420.0</ele><time>2026-04-05T06:31:12.997Z</time></trkpt><trkpt lat="46.05787257179705" lon="12.111559266087648"><ele>420.0</ele><time>2026-04-05T06:31:13.997Z</time></trkpt><trkpt lat="46.05781809570325" lon="12.111737687604535"><ele>420.0</ele><time>2026-04-05T06:31:14.997Z</time></trkpt><trkpt lat="46.05774967282655" lon="12.111925291225237"><ele>420.0</ele><time>2026-04-05T06:31:15.997Z</time></trkpt><trkpt lat="46.057651010022965" lon="12.112121297939188"><ele>420.75</ele><time>2026-04-05T06:31:16.997Z</time></trkpt><trkpt lat="46.05756620124392" lon="12.112327410996402"><ele>421.5</ele><time>2026-04-05T06:31:17.997Z</time></trkpt><trkpt lat="46.05749468357099" lon="12.112506987769383"><ele>422.25</ele><time>2026-04-05T06:31:18.997Z</time></trkpt><trkpt lat="46.057411536305686" lon="12.112654743480332"><ele>423.0</ele><time>2026-04-05T06:31:19.997Z</time></trkpt><trkpt lat="46.05730420243647" lon="12.112756081554622"><ele>425.0</ele><time>2026-04-05T06:31:20.997Z</time></trkpt><trkpt lat="46.057206613744526" lon="12.112887556854377"><ele>427.0</ele><time>2026-04-05T06:31:21.997Z</time></trkpt><trkpt lat="46.057090852023684" lon="12.112998897626687"><ele>429.0</ele><time>2026-04-05T06:31:22.997Z</time></trkpt><trkpt lat="46.05697489553952" lon="12.113115818204676"><ele>431.0</ele><time>2026-04-05T06:31:23.997Z</time></trkpt><trkpt lat="46.05685782940984" lon="12.113246124856502"><ele>431.66666666666663</ele><time>2026-04-05T06:31:24.997Z</time></trkpt><trkpt lat="46.0567283634918" lon="12.113382981386438"><ele>432.33333333333337</ele><time>2026-04-05T06:31:25.997Z</time></trkpt><trkpt lat="46.056596827624894" lon="12.113527821343618"><ele>433.0</ele><time>2026-04-05T06:31:26.997Z</time></trkpt><trkpt lat="46.056466036049876" lon="12.113677334325812"><ele>437.6666666666667</ele><time>2026-04-05T06:31:27.997Z</time></trkpt><trkpt lat="46.056343522817386" lon="12.11382302227085"><ele>442.33333333333337</ele><time>2026-04-05T06:31:28.997Z</time></trkpt><trkpt lat="46.056230576270394" lon="12.113973108597515"><ele>447.0</ele><time>2026-04-05T06:31:29.997Z</time></trkpt><trkpt lat="46.0561356566647" lon="12.114117370802925"><ele>447.5</ele><time>2026-04-05T06:31:30.997Z</time></trkpt><trkpt lat="46.05604512310444" lon="12.114244134259161"><ele>448.0</ele><time>2026-04-05T06:31:31.997Z</time></trkpt><trkpt lat="46.05595189738099" lon="12.114341764973553"><ele>448.5</ele><time>2026-04-05T06:31:32.997Z</time></trkpt><trkpt lat="46.05584248799961" lon="12.114405893233593"><ele>449.0</ele><time>2026-04-05T06:31:33.997Z</time></trkpt><trkpt lat="46.0557274526587" lon="12.11444686911535"><ele>451.4</ele><time>2026-04-05T06:31:34.997Z</time></trkpt><trkpt lat="46.05560821247177" lon="12.114456868173002"><ele>453.79999999999995</ele><time>2026-04-05T06:31:35.997Z</time></trkpt><trkpt lat="46.05548941873608" lon="12.114445981774379"><ele>456.20000000000005</ele><time>2026-04-05T06:31:36.997Z</time></trkpt><trkpt lat="46.05538471206295" lon="12.114390405072658"><ele>458.6</ele><time>2026-04-05T06:31:37.997Z</time></trkpt><trkpt lat="46.05529793723543" lon="12.114396676498295"><ele>461.0</ele><time>2026-04-05T06:31:38.997Z</time></trkpt><trkpt lat="46.05521834536117" lon="12.114420798469045"><ele>461.0</ele><time>2026-04-05T06:31:39.997Z</time></trkpt><trkpt lat="46.05513479669957" lon="12.114495647926855"><ele>461.0</ele><time>2026-04-05T06:31:40.997Z</time></trkpt><trkpt lat="46.055061979064625" lon="12.114597014609641"><ele>461.0</ele><time>2026-04-05T06:31:41.997Z</time></trkpt><trkpt lat="46.05498504467823" lon="12.114709023194719"><ele>461.0</ele><time>2026-04-05T06:31:42.997Z</time></trkpt><trkpt lat="46.05490810734745" lon="12.114824995382277"><ele>461.0</ele><time>2026-04-05T06:31:43.997Z</time></trkpt><trkpt lat="46.05482617636512" lon="12.114950013171857"><ele>464.0</ele><time>2026-04-05T06:31:44.997Z</time></trkpt><trkpt lat="46.054746690378806" lon="12.115080902171897"><ele>467.0</ele><time>2026-04-05T06:31:45.997Z</time></trkpt><trkpt lat="46.05464149077566" lon="12.115214979038536"><ele>470.0</ele><time>2026-04-05T06:31:46.997Z</time></trkpt><trkpt lat="46.05456074238104" lon="12.11534769045244"><ele>473.0</ele><time>2026-04-05T06:31:47.997Z</time></trkpt><trkpt lat="46.05449467582845" lon="12.115468230649341"><ele>472.99999999999994</ele><time>2026-04-05T06:31:48.997Z</time></trkpt><trkpt lat="46.054437162952354" lon="12.1155767595695"><ele>473.0</ele><time>2026-04-05T06:31:49.997Z</time></trkpt><trkpt lat="46.05438411841023" lon="12.115677722963794"><ele>473.0</ele><time>2026-04-05T06:31:50.997Z</time></trkpt><trkpt lat="46.05434988789233" lon="12.11576592912931"><ele>473.0</ele><time>2026-04-05T06:31:51.997Z</time></trkpt><trkpt lat="46.05427109305213" lon="12.115840906403545"><ele>472.99999999999994</ele><time>2026-04-05T06:31:53.997Z</time></trkpt><trkpt lat="46.05419688245028" lon="12.115748902768123"><ele>473.0</ele><time>2026-04-05T06:31:56.997Z</time></trkpt><trkpt lat="46.05416255940453" lon="12.115573764806033"><ele>473.0</ele><time>2026-04-05T06:31:58.996Z</time></trkpt><trkpt lat="46.05414940400632" lon="12.115466843394051"><ele>472.99999999999994</ele><time>2026-04-05T06:31:59.996Z</time></trkpt><trkpt lat="46.05412799952598" lon="12.115344386862033"><ele>472.99999999999994</ele><time>2026-04-05T06:32:00.996Z</time></trkpt><trkpt lat="46.0541110215249" lon="12.115184209951968"><ele>473.0</ele><time>2026-04-05T06:32:01.996Z</time></trkpt><trkpt lat="46.0540860660051" lon="12.1150331224525"><ele>473.0</ele><time>2026-04-05T06:32:02.996Z</time></trkpt><trkpt lat="46.0540508235617" lon="12.114876346008378"><ele>474.5</ele><time>2026-04-05T06:32:03.996Z</time></trkpt><trkpt lat="46.054038747753864" lon="12.114702312978872"><ele>476.0</ele><time>2026-04-05T06:32:04.996Z</time></trkpt><trkpt lat="46.05403076109761" lon="12.114507140605424"><ele>477.5</ele><time>2026-04-05T06:32:05.996Z</time></trkpt><trkpt lat="46.05401473385064" lon="12.114334085175374"><ele>479.0</ele><time>2026-04-05T06:32:06.996Z</time></trkpt><trkpt lat="46.053990579857" lon="12.114175150806313"><ele>479.0</ele><time>2026-04-05T06:32:07.996Z</time></trkpt><trkpt lat="46.05397708915089" lon="12.1140212004244"><ele>479.0</ele><time>2026-04-05T06:32:08.996Z</time></trkpt><trkpt lat="46.053951620544105" lon="12.11386254880205"><ele>479.0</ele><time>2026-04-05T06:32:09.996Z</time></trkpt><trkpt lat="46.053920249171654" lon="12.113718957600906"><ele>479.0</ele><time>2026-04-05T06:32:10.996Z</time></trkpt><trkpt lat="46.05387602610377" lon="12.113575315227644"><ele>479.0</ele><time>2026-04-05T06:32:11.996Z</time></trkpt><trkpt lat="46.05381753154371" lon="12.113444077507742"><ele>479.0</ele><time>2026-04-05T06:32:12.996Z</time></trkpt><trkpt lat="46.053757885768455" lon="12.113317954743998"><ele>479.0</ele><time>2026-04-05T06:32:13.996Z</time></trkpt><trkpt lat="46.05369521113914" lon="12.113192572720608"><ele>479.0</ele><time>2026-04-05T06:32:14.996Z</time></trkpt><trkpt lat="46.053622580292384" lon="12.113055646668203"><ele>479.0</ele><time>2026-04-05T06:32:15.996Z</time></trkpt><trkpt lat="46.05354755203992" lon="12.112903844183952"><ele>478.5</ele><time>2026-04-05T06:32:16.996Z</time></trkpt><trkpt lat="46.05347943791827" lon="12.112739733882787"><ele>478.0</ele><time>2026-04-05T06:32:17.996Z</time></trkpt><trkpt lat="46.05340591843919" lon="12.112582300196076"><ele>477.5</ele><time>2026-04-05T06:32:18.996Z</time></trkpt><trkpt lat="46.05334410010705" lon="12.112420309287836"><ele>477.0</ele><time>2026-04-05T06:32:19.996Z</time></trkpt><trkpt lat="46.05328903955086" lon="12.112246225306697"><ele>475.0</ele><time>2026-04-05T06:32:20.996Z</time></trkpt><trkpt lat="46.053254459273056" lon="12.112059815695952"><ele>473.0</ele><time>2026-04-05T06:32:21.996Z</time></trkpt><trkpt lat="46.053213739351044" lon="12.111874441160698"><ele>471.0</ele><time>2026-04-05T06:32:22.996Z</time></trkpt><trkpt lat="46.05318022476033" lon="12.111728611187417"><ele>469.0</ele><time>2026-04-05T06:32:23.996Z</time></trkpt><trkpt lat="46.05315206187948" lon="12.111594534730903"><ele>468.00000000000006</ele><time>2026-04-05T06:32:24.996Z</time></trkpt><trkpt lat="46.053113334462" lon="12.111477973112244"><ele>467.0</ele><time>2026-04-05T06:32:25.996Z</time></trkpt><trkpt lat="46.053071419910864" lon="12.111374918406927"><ele>466.0</ele><time>2026-04-05T06:32:26.996Z</time></trkpt><trkpt lat="46.05302651008082" lon="12.111282714269255"><ele>465.0</ele><time>2026-04-05T06:32:27.996Z</time></trkpt><trkpt lat="46.05295789249545" lon="12.111251611019565"><ele>464.00000000000006</ele><time>2026-04-05T06:32:28.996Z</time></trkpt><trkpt lat="46.05288569062772" lon="12.111186388801105"><ele>463.0</ele><time>2026-04-05T06:32:29.996Z</time></trkpt><trkpt lat="46.05281439058074" lon="12.111158597682396"><ele>463.0</ele><time>2026-04-05T06:32:30.996Z</time></trkpt><trkpt lat="46.05272561724737" lon="12.111186902859636"><ele>462.99999999999994</ele><time>2026-04-05T06:32:31.996Z</time></trkpt><trkpt lat="46.05263984253023" lon="12.11125997174803"><ele>462.99999999999994</ele><time>2026-04-05T06:32:32.996Z</time></trkpt><trkpt lat="46.05257438026797" lon="12.111337180214965"><ele>463.0</ele><time>2026-04-05T06:32:33.996Z</time></trkpt><trkpt lat="46.05250841327825" lon="12.111432193141063"><ele>463.0</ele><time>2026-04-05T06:32:34.996Z</time></trkpt><trkpt lat="46.052446204059535" lon="12.111544179471927"><ele>465.0</ele><time>2026-04-05T06:32:35.996Z</time></trkpt><trkpt lat="46.052377462693826" lon="12.111675603791761"><ele>467.0</ele><time>2026-04-05T06:32:36.996Z</time></trkpt><trkpt lat="46.052289198397474" lon="12.111751685215307"><ele>469.0</ele><time>2026-04-05T06:32:37.996Z</time></trkpt><trkpt lat="46.052175110889664" lon="12.111795131043817"><ele>471.0</ele><time>2026-04-05T06:32:38.999Z</time></trkpt><trkpt lat="46.05205472397086" lon="12.11179285631636"><ele>471.0</ele><time>2026-04-05T06:32:39.998Z</time></trkpt><trkpt lat="46.05194058575994" lon="12.111755958392706"><ele>471.0</ele><time>2026-04-05T06:32:40.998Z</time></trkpt><trkpt lat="46.05183372598496" lon="12.111668392338242"><ele>471.0</ele><time>2026-04-05T06:32:41.999Z</time></trkpt><trkpt lat="46.05174484717221" lon="12.111578509673686"><ele>471.0</ele><time>2026-04-05T06:32:42.998Z</time></trkpt><trkpt lat="46.05166649068906" lon="12.11145826191733"><ele>472.5</ele><time>2026-04-05T06:32:43.998Z</time></trkpt><trkpt lat="46.05161120611359" lon="12.111329802622102"><ele>474.0</ele><time>2026-04-05T06:32:44.998Z</time></trkpt><trkpt lat="46.051578742452705" lon="12.111195791547908"><ele>475.5</ele><time>2026-04-05T06:32:45.998Z</time></trkpt><trkpt lat="46.05156739108738" lon="12.111064621525243"><ele>477.0</ele><time>2026-04-05T06:32:46.998Z</time></trkpt><trkpt lat="46.05153230542296" lon="12.110952969150896"><ele>478.5</ele><time>2026-04-05T06:32:47.999Z</time></trkpt><trkpt lat="46.05152540685072" lon="12.110855497482547"><ele>480.0</ele><time>2026-04-05T06:32:48.998Z</time></trkpt><trkpt lat="46.05152473747836" lon="12.11070621930056"><ele>480.8333333333333</ele><time>2026-04-05T06:32:50.998Z</time></trkpt><trkpt lat="46.051489776709616" lon="12.11061933022351"><ele>481.66666666666663</ele><time>2026-04-05T06:32:52.999Z</time></trkpt><trkpt lat="46.05159117398212" lon="12.11052043482846"><ele>482.5</ele><time>2026-04-05T06:32:53.999Z</time></trkpt><trkpt lat="46.05161418809299" lon="12.110401496425192"><ele>483.3333333333333</ele><time>2026-04-05T06:32:55.999Z</time></trkpt><trkpt lat="46.05163285131379" lon="12.110298678936333"><ele>484.16666666666663</ele><time>2026-04-05T06:32:56.999Z</time></trkpt><trkpt lat="46.05165750805325" lon="12.110181666639148"><ele>485.0</ele><time>2026-04-05T06:32:57.999Z</time></trkpt><trkpt lat="46.05169040447085" lon="12.11006617544134"><ele>482.66666666666663</ele><time>2026-04-05T06:32:58.999Z</time></trkpt><trkpt lat="46.05173090982792" lon="12.109964713885823"><ele>480.3333333333333</ele><time>2026-04-05T06:32:59.999Z</time></trkpt><trkpt lat="46.0517605523795" lon="12.109862060828224"><ele>478.0</ele><time>2026-04-05T06:33:00.999Z</time></trkpt><trkpt lat="46.051795735513444" lon="12.109770892987692"><ele>475.66666666666663</ele><time>2026-04-05T06:33:01.999Z</time></trkpt><trkpt lat="46.051828343755034" lon="12.109687363446126"><ele>473.3333333333333</ele><time>2026-04-05T06:33:02.999Z</time></trkpt><trkpt lat="46.051870757987714" lon="12.109591903959195"><ele>471.0</ele><time>2026-04-05T06:33:03.999Z</time></trkpt><trkpt lat="46.051923296300096" lon="12.109477221171712"><ele>470.5</ele><time>2026-04-05T06:33:05.999Z</time></trkpt><trkpt lat="46.051961163368475" lon="12.109356691346955"><ele>470.0</ele><time>2026-04-05T06:33:08.999Z</time></trkpt><trkpt lat="46.051946004323106" lon="12.109234706404674"><ele>469.5</ele><time>2026-04-05T06:33:10.999Z</time></trkpt><trkpt lat="46.051925566313194" lon="12.10911830227629"><ele>469.0</ele><time>2026-04-05T06:33:12.999Z</time></trkpt><trkpt lat="46.05192800186778" lon="12.1089535789106"><ele>468.5</ele><time>2026-04-05T06:33:14.999Z</time></trkpt><trkpt lat="46.051924731787295" lon="12.108854294686273"><ele>468.0</ele><time>2026-04-05T06:33:15.999Z</time></trkpt><trkpt lat="46.05192976748559" lon="12.108763543734955"><ele>466.79999999999995</ele><time>2026-04-05T06:33:16.999Z</time></trkpt><trkpt lat="46.05188504954583" lon="12.10859121113845"><ele>465.59999999999997</ele><time>2026-04-05T06:33:18.999Z</time></trkpt><trkpt lat="46.05184132645507" lon="12.108473554906109"><ele>464.40000000000003</ele><time>2026-04-05T06:33:19.999Z</time></trkpt><trkpt lat="46.051794225921974" lon="12.108350859269496"><ele>463.20000000000005</ele><time>2026-04-05T06:33:20.998Z</time></trkpt><trkpt lat="46.05175735500995" lon="12.108237361222242"><ele>462.0</ele><time>2026-04-05T06:33:21.998Z</time></trkpt><trkpt lat="46.051722256306135" lon="12.108147672668355"><ele>462.0</ele><time>2026-04-05T06:33:22.998Z</time></trkpt><trkpt lat="46.05169772585624" lon="12.10805920135992"><ele>462.0</ele><time>2026-04-05T06:33:23.998Z</time></trkpt><trkpt lat="46.051685464259464" lon="12.107897143046321"><ele>462.0</ele><time>2026-04-05T06:33:25.998Z</time></trkpt><trkpt lat="46.051662594452765" lon="12.107800732156115"><ele>462.0</ele><time>2026-04-05T06:33:26.998Z</time></trkpt><trkpt lat="46.051644188940514" lon="12.107709655372494"><ele>462.0</ele><time>2026-04-05T06:33:27.998Z</time></trkpt><trkpt lat="46.05162208113893" lon="12.107608672902712"><ele>462.0</ele><time>2026-04-05T06:33:28.998Z</time></trkpt><trkpt lat="46.05157786173412" lon="12.107448412738098"><ele>460.40000000000003</ele><time>2026-04-05T06:33:30.998Z</time></trkpt><trkpt lat="46.051509996163" lon="12.107314499750355"><ele>458.80000000000007</ele><time>2026-04-05T06:33:32.998Z</time></trkpt><trkpt lat="46.05147658726013" lon="12.107196931391353"><ele>457.2</ele><time>2026-04-05T06:33:34.998Z</time></trkpt><trkpt lat="46.05144886984223" lon="12.107076736958316"><ele>455.6</ele><time>2026-04-05T06:33:36.998Z</time></trkpt><trkpt lat="46.05138798236344" lon="12.106959223932128"><ele>454.0</ele><time>2026-04-05T06:33:38.998Z</time></trkpt><trkpt lat="46.05132005005686" lon="12.106956179227064"><ele>454.0</ele><time>2026-04-05T06:33:40.998Z</time></trkpt><trkpt lat="46.05123915609492" lon="12.106998354616428"><ele>454.0</ele><time>2026-04-05T06:33:42.998Z</time></trkpt><trkpt lat="46.05114312695417" lon="12.106972520765112"><ele>454.0</ele><time>2026-04-05T06:33:44.998Z</time></trkpt><trkpt lat="46.051080470957565" lon="12.106854091614782"><ele>454.0</ele><time>2026-04-05T06:33:46.998Z</time></trkpt><trkpt lat="46.05104643110419" lon="12.106702778110483"><ele>454.0</ele><time>2026-04-05T06:33:48.998Z</time></trkpt><trkpt lat="46.05103702705005" lon="12.106605477483905"><ele>453.6666666666667</ele><time>2026-04-05T06:33:49.998Z</time></trkpt><trkpt lat="46.05107246737852" lon="12.106522507740738"><ele>453.33333333333337</ele><time>2026-04-05T06:33:50.998Z</time></trkpt><trkpt lat="46.051077371687064" lon="12.106404701617015"><ele>453.0</ele><time>2026-04-05T06:33:51.998Z</time></trkpt><trkpt lat="46.051064534503226" lon="12.106303842892336"><ele>452.66666666666663</ele><time>2026-04-05T06:33:52.998Z</time></trkpt><trkpt lat="46.05103391449532" lon="12.10621239014733"><ele>452.3333333333333</ele><time>2026-04-05T06:33:53.998Z</time></trkpt><trkpt lat="46.05099879266395" lon="12.106129431700035"><ele>452.0</ele><time>2026-04-05T06:33:54.998Z</time></trkpt><trkpt lat="46.05087828203918" lon="12.106007930477055"><ele>451.99999999999994</ele><time>2026-04-05T06:33:56.998Z</time></trkpt><trkpt lat="46.05079579066525" lon="12.105963956964825"><ele>452.0</ele><time>2026-04-05T06:33:57.998Z</time></trkpt><trkpt lat="46.05071994316237" lon="12.105916805885649"><ele>452.0</ele><time>2026-04-05T06:33:58.998Z</time></trkpt><trkpt lat="46.05065339958968" lon="12.105848230498633"><ele>452.0</ele><time>2026-04-05T06:33:59.998Z</time></trkpt><trkpt lat="46.05059232593305" lon="12.105782825295154"><ele>451.99999999999994</ele><time>2026-04-05T06:34:00.998Z</time></trkpt><trkpt lat="46.05051182033646" lon="12.105654761739824"><ele>452.0</ele><time>2026-04-05T06:34:02.998Z</time></trkpt><trkpt lat="46.05047539175093" lon="12.105567257657533"><ele>454.28571428571433</ele><time>2026-04-05T06:34:03.998Z</time></trkpt><trkpt lat="46.05044764182674" lon="12.10547675501699"><ele>456.57142857142856</ele><time>2026-04-05T06:34:04.998Z</time></trkpt><trkpt lat="46.05043378607054" lon="12.105377887885812"><ele>458.8571428571429</ele><time>2026-04-05T06:34:05.998Z</time></trkpt><trkpt lat="46.05042789297504" lon="12.105279048089852"><ele>461.14285714285717</ele><time>2026-04-05T06:34:06.998Z</time></trkpt><trkpt lat="46.0504215108582" lon="12.105166128203791"><ele>463.42857142857144</ele><time>2026-04-05T06:34:07.998Z</time></trkpt><trkpt lat="46.05041146102888" lon="12.105067360512939"><ele>465.7142857142857</ele><time>2026-04-05T06:34:08.998Z</time></trkpt><trkpt lat="46.050399171377876" lon="12.104951729678385"><ele>468.0</ele><time>2026-04-05T06:34:09.998Z</time></trkpt><trkpt lat="46.050388277826436" lon="12.10482865228034"><ele>468.0</ele><time>2026-04-05T06:34:10.998Z</time></trkpt><trkpt lat="46.050380772539654" lon="12.104721291023786"><ele>468.0</ele><time>2026-04-05T06:34:11.998Z</time></trkpt><trkpt lat="46.05036705131823" lon="12.104604668127743"><ele>468.0</ele><time>2026-04-05T06:34:12.998Z</time></trkpt><trkpt lat="46.05035982867" lon="12.104498732787844"><ele>468.0</ele><time>2026-04-05T06:34:13.998Z</time></trkpt><trkpt lat="46.05034660981414" lon="12.104395729031332"><ele>468.0</ele><time>2026-04-05T06:34:14.997Z</time></trkpt><trkpt lat="46.050327871042626" lon="12.104301796911695"><ele>468.0</ele><time>2026-04-05T06:34:15.997Z</time></trkpt><trkpt lat="46.05029263652956" lon="12.10420083889414"><ele>468.0</ele><time>2026-04-05T06:34:16.997Z</time></trkpt><trkpt lat="46.050254991854445" lon="12.104081758855976"><ele>467.99999999999994</ele><time>2026-04-05T06:34:17.997Z</time></trkpt><trkpt lat="46.05022558087405" lon="12.103973257955522"><ele>467.99999999999994</ele><time>2026-04-05T06:34:18.997Z</time></trkpt><trkpt lat="46.05020170734557" lon="12.103884675397742"><ele>468.0</ele><time>2026-04-05T06:34:19.997Z</time></trkpt><trkpt lat="46.05013437176796" lon="12.103747321646015"><ele>468.0</ele><time>2026-04-05T06:34:21.997Z</time></trkpt><trkpt lat="46.05011470207919" lon="12.103609402694708"><ele>467.59999999999997</ele><time>2026-04-05T06:34:23.997Z</time></trkpt><trkpt lat="46.05014763280448" lon="12.103453437240859"><ele>467.19999999999993</ele><time>2026-04-05T06:34:25.997Z</time></trkpt><trkpt lat="46.05016550195596" lon="12.103349743962337"><ele>466.8</ele><time>2026-04-05T06:34:26.997Z</time></trkpt><trkpt lat="46.05019722669728" lon="12.103206661513065"><ele>466.4</ele><time>2026-04-05T06:34:27.997Z</time></trkpt><trkpt lat="46.05020356066448" lon="12.103078923204368"><ele>466.0</ele><time>2026-04-05T06:34:28.997Z</time></trkpt><trkpt lat="46.050202749383196" lon="12.102952558103732"><ele>465.0</ele><time>2026-04-05T06:34:29.997Z</time></trkpt><trkpt lat="46.05018128709014" lon="12.102844776859463"><ele>464.0</ele><time>2026-04-05T06:34:30.997Z</time></trkpt><trkpt lat="46.050160133038204" lon="12.10271836818872"><ele>463.0</ele><time>2026-04-05T06:34:31.997Z</time></trkpt><trkpt lat="46.0501382717901" lon="12.102561233449654"><ele>462.0</ele><time>2026-04-05T06:34:32.997Z</time></trkpt><trkpt lat="46.05010668504732" lon="12.102386876363575"><ele>461.0</ele><time>2026-04-05T06:34:33.997Z</time></trkpt><trkpt lat="46.05006869769516" lon="12.10221395989093"><ele>460.8</ele><time>2026-04-05T06:34:34.997Z</time></trkpt><trkpt lat="46.05003276078682" lon="12.102058864049079"><ele>460.6</ele><time>2026-04-05T06:34:35.997Z</time></trkpt><trkpt lat="46.04999949729183" lon="12.101910720332308"><ele>460.4</ele><time>2026-04-05T06:34:36.997Z</time></trkpt><trkpt lat="46.049968960915635" lon="12.101767921485036"><ele>460.2</ele><time>2026-04-05T06:34:37.997Z</time></trkpt><trkpt lat="46.049957687519154" lon="12.101625473872836"><ele>460.0</ele><time>2026-04-05T06:34:38.997Z</time></trkpt><trkpt lat="46.049941887728714" lon="12.10147857934546"><ele>462.0</ele><time>2026-04-05T06:34:39.997Z</time></trkpt><trkpt lat="46.04992950395777" lon="12.101332446716635"><ele>464.0</ele><time>2026-04-05T06:34:40.997Z</time></trkpt><trkpt lat="46.049915146278394" lon="12.101199171059843"><ele>466.0</ele><time>2026-04-05T06:34:41.997Z</time></trkpt><trkpt lat="46.04990662994796" lon="12.101056392391458"><ele>468.0</ele><time>2026-04-05T06:34:42.997Z</time></trkpt><trkpt lat="46.04990112738478" lon="12.10090990538302"><ele>470.0</ele><time>2026-04-05T06:34:43.999Z</time></trkpt><trkpt lat="46.04990119659398" lon="12.100741042876855"><ele>470.4</ele><time>2026-04-05T06:34:44.998Z</time></trkpt><trkpt lat="46.04991344272007" lon="12.100576788017394"><ele>470.8</ele><time>2026-04-05T06:34:45.998Z</time></trkpt><trkpt lat="46.04991705728547" lon="12.100431127377988"><ele>471.20000000000005</ele><time>2026-04-05T06:34:46.998Z</time></trkpt><trkpt lat="46.04992921035611" lon="12.100287595314615"><ele>471.6</ele><time>2026-04-05T06:34:47.999Z</time></trkpt><trkpt lat="46.049911582823306" lon="12.100171900556958"><ele>472.0</ele><time>2026-04-05T06:34:48.999Z</time></trkpt><trkpt lat="46.04989617053495" lon="12.100035991385058"><ele>471.83333333333337</ele><time>2026-04-05T06:34:49.998Z</time></trkpt><trkpt lat="46.04987495266077" lon="12.099916421576829"><ele>471.6666666666667</ele><time>2026-04-05T06:34:50.999Z</time></trkpt><trkpt lat="46.04984071049421" lon="12.099760985472043"><ele>471.5</ele><time>2026-04-05T06:34:52.999Z</time></trkpt><trkpt lat="46.04979597723157" lon="12.099684631146916"><ele>471.33333333333337</ele><time>2026-04-05T06:34:53.999Z</time></trkpt><trkpt lat="46.04974089862256" lon="12.099611083876722"><ele>471.1666666666667</ele><time>2026-04-05T06:34:54.999Z</time></trkpt><trkpt lat="46.04968769837861" lon="12.099535602602321"><ele>471.0</ele><time>2026-04-05T06:34:55.999Z</time></trkpt><trkpt lat="46.049618787680274" lon="12.099424743757254"><ele>471.0</ele><time>2026-04-05T06:34:57.998Z</time></trkpt><trkpt lat="46.04957494745538" lon="12.09930796148486"><ele>471.0</ele><time>2026-04-05T06:34:58.998Z</time></trkpt><trkpt lat="46.04955463274172" lon="12.09917825787118"><ele>471.0</ele><time>2026-04-05T06:34:59.998Z</time></trkpt><trkpt lat="46.04952616937303" lon="12.099043068549753"><ele>471.0</ele><time>2026-04-05T06:35:00.998Z</time></trkpt><trkpt lat="46.04950035145872" lon="12.098941762625968"><ele>471.0</ele><time>2026-04-05T06:35:01.998Z</time></trkpt><trkpt lat="46.04946226853786" lon="12.098803573553774"><ele>470.8</ele><time>2026-04-05T06:35:02.998Z</time></trkpt><trkpt lat="46.04941235565476" lon="12.098661890632663"><ele>470.6</ele><time>2026-04-05T06:35:03.998Z</time></trkpt><trkpt lat="46.0493704853994" lon="12.098513869051748"><ele>470.4</ele><time>2026-04-05T06:35:04.998Z</time></trkpt><trkpt lat="46.04933009954882" lon="12.098386243431191"><ele>470.2</ele><time>2026-04-05T06:35:05.998Z</time></trkpt><trkpt lat="46.04929438426237" lon="12.09827877475941"><ele>470.0</ele><time>2026-04-05T06:35:06.998Z</time></trkpt><trkpt lat="46.04926986717641" lon="12.098184577926892"><ele>469.6</ele><time>2026-04-05T06:35:07.998Z</time></trkpt><trkpt lat="46.04921797926456" lon="12.09812017766206"><ele>469.2</ele><time>2026-04-05T06:35:08.998Z</time></trkpt><trkpt lat="46.04916747447939" lon="12.097973779170024"><ele>468.79999999999995</ele><time>2026-04-05T06:35:10.998Z</time></trkpt><trkpt lat="46.049203295369246" lon="12.097794774393105"><ele>468.4</ele><time>2026-04-05T06:35:12.998Z</time></trkpt><trkpt lat="46.04922836139611" lon="12.097677290056353"><ele>468.0</ele><time>2026-04-05T06:35:13.998Z</time></trkpt><trkpt lat="46.049249743407316" lon="12.097570967057726"><ele>468.0</ele><time>2026-04-05T06:35:14.998Z</time></trkpt><trkpt lat="46.049267944672344" lon="12.09742838866333"><ele>467.99999999999994</ele><time>2026-04-05T06:35:15.998Z</time></trkpt><trkpt lat="46.049280465594116" lon="12.09729117812236"><ele>467.99999999999994</ele><time>2026-04-05T06:35:16.998Z</time></trkpt><trkpt lat="46.049282214628526" lon="12.097142593879354"><ele>468.0</ele><time>2026-04-05T06:35:17.998Z</time></trkpt><trkpt lat="46.0492872221504" lon="12.096976632838452"><ele>468.0</ele><time>2026-04-05T06:35:18.998Z</time></trkpt><trkpt lat="46.04928629476667" lon="12.096828236951794"><ele>467.0</ele><time>2026-04-05T06:35:19.998Z</time></trkpt><trkpt lat="46.04929865828336" lon="12.096665622158987"><ele>465.99999999999994</ele><time>2026-04-05T06:35:20.998Z</time></trkpt><trkpt lat="46.049307784744656" lon="12.096512774461932"><ele>464.99999999999994</ele><time>2026-04-05T06:35:21.998Z</time></trkpt><trkpt lat="46.04932014294749" lon="12.096387620397246"><ele>464.0</ele><time>2026-04-05T06:35:22.998Z</time></trkpt><trkpt lat="46.04932576544134" lon="12.096247236176895"><ele>463.0</ele><time>2026-04-05T06:35:23.998Z</time></trkpt><trkpt lat="46.049325140424955" lon="12.096118771410069"><ele>462.2</ele><time>2026-04-05T06:35:24.998Z</time></trkpt><trkpt lat="46.0493317308684" lon="12.095984443080443"><ele>461.4</ele><time>2026-04-05T06:35:25.998Z</time></trkpt><trkpt lat="46.04934770347425" lon="12.095832418915801"><ele>460.59999999999997</ele><time>2026-04-05T06:35:26.998Z</time></trkpt><trkpt lat="46.04936910954387" lon="12.095697328221563"><ele>459.79999999999995</ele><time>2026-04-05T06:35:27.998Z</time></trkpt><trkpt lat="46.04939322057206" lon="12.095574095693502"><ele>459.0</ele><time>2026-04-05T06:35:28.998Z</time></trkpt><trkpt lat="46.04941451911473" lon="12.095444382269587"><ele>458.6666666666667</ele><time>2026-04-05T06:35:29.998Z</time></trkpt><trkpt lat="46.04942058117568" lon="12.09533459620119"><ele>458.33333333333337</ele><time>2026-04-05T06:35:30.998Z</time></trkpt><trkpt lat="46.04943515209194" lon="12.09522468082542"><ele>458.0</ele><time>2026-04-05T06:35:31.998Z</time></trkpt><trkpt lat="46.049461062975354" lon="12.095120241152745"><ele>457.6666666666667</ele><time>2026-04-05T06:35:32.998Z</time></trkpt><trkpt lat="46.04951002335261" lon="12.095023623706272"><ele>457.33333333333337</ele><time>2026-04-05T06:35:33.998Z</time></trkpt><trkpt lat="46.04955526597541" lon="12.09494187910598"><ele>457.0</ele><time>2026-04-05T06:35:34.998Z</time></trkpt><trkpt lat="46.04960852207294" lon="12.094841638716357"><ele>456.50000000000006</ele><time>2026-04-05T06:35:35.998Z</time></trkpt><trkpt lat="46.049661910683895" lon="12.094744163315134"><ele>456.0</ele><time>2026-04-05T06:35:36.998Z</time></trkpt><trkpt lat="46.049702353892556" lon="12.094637766801695"><ele>455.5</ele><time>2026-04-05T06:35:37.998Z</time></trkpt><trkpt lat="46.049758489883324" lon="12.094540457557498"><ele>455.0</ele><time>2026-04-05T06:35:38.998Z</time></trkpt><trkpt lat="46.04979392191052" lon="12.094440614254772"><ele>454.50000000000006</ele><time>2026-04-05T06:35:39.998Z</time></trkpt><trkpt lat="46.04981954929879" lon="12.094332673564937"><ele>454.0</ele><time>2026-04-05T06:35:40.998Z</time></trkpt><trkpt lat="46.04983213828744" lon="12.094215193904072"><ele>454.00000000000006</ele><time>2026-04-05T06:35:41.998Z</time></trkpt><trkpt lat="46.04984710307095" lon="12.094100991540875"><ele>454.0</ele><time>2026-04-05T06:35:42.998Z</time></trkpt><trkpt lat="46.04985126345691" lon="12.093977978447423"><ele>454.0</ele><time>2026-04-05T06:35:43.998Z</time></trkpt><trkpt lat="46.04984926788789" lon="12.09386755278404"><ele>454.0</ele><time>2026-04-05T06:35:44.998Z</time></trkpt><trkpt lat="46.04985389030365" lon="12.093755856117163"><ele>454.00000000000006</ele><time>2026-04-05T06:35:45.998Z</time></trkpt><trkpt lat="46.049873983730215" lon="12.09360424305528"><ele>454.0</ele><time>2026-04-05T06:35:47.998Z</time></trkpt><trkpt lat="46.04992911578143" lon="12.093480838792857"><ele>453.6</ele><time>2026-04-05T06:35:49.997Z</time></trkpt><trkpt lat="46.05000779833571" lon="12.093348128648381"><ele>453.2</ele><time>2026-04-05T06:35:51.997Z</time></trkpt><trkpt lat="46.0500527687095" lon="12.093258097698694"><ele>452.80000000000007</ele><time>2026-04-05T06:35:52.997Z</time></trkpt><trkpt lat="46.05009047154464" lon="12.093153509210962"><ele>452.40000000000003</ele><time>2026-04-05T06:35:53.997Z</time></trkpt><trkpt lat="46.05012481982234" lon="12.093048776857323"><ele>452.0</ele><time>2026-04-05T06:35:54.997Z</time></trkpt><trkpt lat="46.05021037822815" lon="12.09292299990283"><ele>452.0</ele><time>2026-04-05T06:35:56.997Z</time></trkpt><trkpt lat="46.05031296397943" lon="12.092808823919055"><ele>452.00000000000006</ele><time>2026-04-05T06:35:58.997Z</time></trkpt><trkpt lat="46.05039661781162" lon="12.092717061119636"><ele>452.00000000000006</ele><time>2026-04-05T06:36:00.997Z</time></trkpt><trkpt lat="46.05045626140467" lon="12.092574138224776"><ele>452.0</ele><time>2026-04-05T06:36:02.997Z</time></trkpt><trkpt lat="46.050474350429766" lon="12.092467265581591"><ele>452.0</ele><time>2026-04-05T06:36:03.997Z</time></trkpt><trkpt lat="46.050490656805955" lon="12.09235112224775"><ele>451.8</ele><time>2026-04-05T06:36:04.997Z</time></trkpt><trkpt lat="46.05050046947878" lon="12.092230018311923"><ele>451.6</ele><time>2026-04-05T06:36:05.997Z</time></trkpt><trkpt lat="46.05051803606467" lon="12.092123352173001"><ele>451.40000000000003</ele><time>2026-04-05T06:36:06.997Z</time></trkpt><trkpt lat="46.05053911996547" lon="12.091952568094506"><ele>451.20000000000005</ele><time>2026-04-05T06:36:08.997Z</time></trkpt><trkpt lat="46.05054085715222" lon="12.091859508423047"><ele>451.0</ele><time>2026-04-05T06:36:09.997Z</time></trkpt><trkpt lat="46.05052543090725" lon="12.091696192901292"><ele>451.00000000000006</ele><time>2026-04-05T06:36:11.997Z</time></trkpt><trkpt lat="46.05051031129991" lon="12.091538916806394"><ele>451.0</ele><time>2026-04-05T06:36:13.997Z</time></trkpt><trkpt lat="46.05049649349638" lon="12.09140383933201"><ele>451.0</ele><time>2026-04-05T06:36:15.997Z</time></trkpt><trkpt lat="46.05051413264214" lon="12.091296463422815"><ele>451.0</ele><time>2026-04-05T06:36:18.997Z</time></trkpt><trkpt lat="46.050525402483856" lon="12.09116802149103"><ele>451.00000000000006</ele><time>2026-04-05T06:36:21.997Z</time></trkpt><trkpt lat="46.050476208852864" lon="12.091108930322928"><ele>451.0</ele><time>2026-04-05T06:36:25.997Z</time></trkpt><trkpt lat="46.0504915270028" lon="12.091220149385558"><ele>451.00000000000006</ele><time>2026-04-05T06:36:29.997Z</time></trkpt><trkpt lat="46.05050774400128" lon="12.091384052001908"><ele>451.0</ele><time>2026-04-05T06:36:31.997Z</time></trkpt><trkpt lat="46.05052355773797" lon="12.091490254859059"><ele>451.0</ele><time>2026-04-05T06:36:32.997Z</time></trkpt><trkpt lat="46.05051616170591" lon="12.091595142586778"><ele>451.0</ele><time>2026-04-05T06:36:33.997Z</time></trkpt><trkpt lat="46.050531807642784" lon="12.091749049912922"><ele>451.00000000000006</ele><time>2026-04-05T06:36:35.997Z</time></trkpt><trkpt lat="46.05055468322299" lon="12.091840746347694"><ele>451.0</ele><time>2026-04-05T06:36:36.997Z</time></trkpt><trkpt lat="46.050554885756036" lon="12.091941953100042"><ele>451.00000000000006</ele><time>2026-04-05T06:36:37.997Z</time></trkpt><trkpt lat="46.05055107125229" lon="12.092055100731779"><ele>451.0</ele><time>2026-04-05T06:36:38.997Z</time></trkpt><trkpt lat="46.05053232395282" lon="12.092161443443974"><ele>451.0</ele><time>2026-04-05T06:36:39.997Z</time></trkpt><trkpt lat="46.05052448054575" lon="12.092282780910626"><ele>451.0</ele><time>2026-04-05T06:36:40.997Z</time></trkpt><trkpt lat="46.050513042947806" lon="12.092407920372187"><ele>451.00000000000006</ele><time>2026-04-05T06:36:41.997Z</time></trkpt><trkpt lat="46.05050016431065" lon="12.092503342848586"><ele>451.0</ele><time>2026-04-05T06:36:42.997Z</time></trkpt><trkpt lat="46.050471695424235" lon="12.09259706656663"><ele>451.20000000000005</ele><time>2026-04-05T06:36:43.996Z</time></trkpt><trkpt lat="46.05040041494874" lon="12.092719256189403"><ele>451.40000000000003</ele><time>2026-04-05T06:36:45.996Z</time></trkpt><trkpt lat="46.050314151833255" lon="12.092786929669138"><ele>451.6</ele><time>2026-04-05T06:36:47.996Z</time></trkpt><trkpt lat="46.05023393140038" lon="12.092850685288845"><ele>451.8</ele><time>2026-04-05T06:36:56.998Z</time></trkpt><trkpt lat="46.05016719517585" lon="12.092962578705102"><ele>452.0</ele><time>2026-04-05T06:36:58.998Z</time></trkpt><trkpt lat="46.050113509199136" lon="12.093109087370689"><ele>451.99999999999994</ele><time>2026-04-05T06:37:00.998Z</time></trkpt><trkpt lat="46.05006264964495" lon="12.093191079517995"><ele>452.0</ele><time>2026-04-05T06:37:02.998Z</time></trkpt><trkpt lat="46.05000003648895" lon="12.093294428217613"><ele>452.0</ele><time>2026-04-05T06:37:05.998Z</time></trkpt><trkpt lat="46.04995690517544" lon="12.093377372032359"><ele>452.0</ele><time>2026-04-05T06:37:07.998Z</time></trkpt><trkpt lat="46.04991884304777" lon="12.093490949622739"><ele>451.99999999999994</ele><time>2026-04-05T06:37:09.998Z</time></trkpt><trkpt lat="46.04989580281694" lon="12.093621319815659"><ele>452.0</ele><time>2026-04-05T06:37:11.998Z</time></trkpt><trkpt lat="46.04989384068967" lon="12.093754622109776"><ele>451.99999999999994</ele><time>2026-04-05T06:37:13.998Z</time></trkpt><trkpt lat="46.049889910569334" lon="12.093872778660074"><ele>452.0</ele><time>2026-04-05T06:37:15.998Z</time></trkpt><trkpt lat="46.04986980010788" lon="12.093972368319726"><ele>452.0</ele><time>2026-04-05T06:37:21.998Z</time></trkpt><trkpt lat="46.049836428221525" lon="12.094081547023636"><ele>452.0</ele><time>2026-04-05T06:37:29.998Z</time></trkpt><trkpt lat="46.04982494492179" lon="12.094209626179017"><ele>451.99999999999994</ele><time>2026-04-05T06:37:31.997Z</time></trkpt><trkpt lat="46.04981017756921" lon="12.09431568256492"><ele>452.0</ele><time>2026-04-05T06:37:33.997Z</time></trkpt><trkpt lat="46.04978681688354" lon="12.094415517727743"><ele>451.99999999999994</ele><time>2026-04-05T06:37:35.997Z</time></trkpt><trkpt lat="46.04979299795002" lon="12.094518150815535"><ele>452.0</ele><time>2026-04-05T06:37:38.997Z</time></trkpt><trkpt lat="46.04981284081708" lon="12.094387494047815"><ele>452.0</ele><time>2026-04-05T06:37:43.997Z</time></trkpt><trkpt lat="46.04980398348583" lon="12.094297055263242"><ele>452.0</ele><time>2026-04-05T06:37:45.997Z</time></trkpt><trkpt lat="46.0497985079744" lon="12.094171609300632"><ele>451.99999999999994</ele><time>2026-04-05T06:37:47.997Z</time></trkpt><trkpt lat="46.04977882073788" lon="12.094031216802339"><ele>452.0</ele><time>2026-04-05T06:37:50.997Z</time></trkpt><trkpt lat="46.04974609260992" lon="12.093872108487464"><ele>452.0</ele><time>2026-04-05T06:37:52.997Z</time></trkpt><trkpt lat="46.049756128267795" lon="12.093697383759574"><ele>452.00000000000006</ele><time>2026-04-05T06:37:54.997Z</time></trkpt><trkpt lat="46.04972071817146" lon="12.093599195297827"><ele>452.00000000000006</ele><time>2026-04-05T06:37:55.997Z</time></trkpt><trkpt lat="46.049742280611305" lon="12.093408490515673"><ele>452.0</ele><time>2026-04-05T06:37:57.997Z</time></trkpt><trkpt lat="46.04976206385931" lon="12.09330308217554"><ele>452.0</ele><time>2026-04-05T06:37:58.997Z</time></trkpt><trkpt lat="46.049779683296926" lon="12.093166692601844"><ele>451.3333333333333</ele><time>2026-04-05T06:37:59.997Z</time></trkpt><trkpt lat="46.049790020360696" lon="12.093050222754906"><ele>450.66666666666663</ele><time>2026-04-05T06:38:00.997Z</time></trkpt><trkpt lat="46.0497903992519" lon="12.092937663947668"><ele>450.0</ele><time>2026-04-05T06:38:01.997Z</time></trkpt><trkpt lat="46.04980241671021" lon="12.09282805620129"><ele>449.33333333333337</ele><time>2026-04-05T06:38:02.997Z</time></trkpt><trkpt lat="46.04981585866744" lon="12.092730050489008"><ele>448.6666666666667</ele><time>2026-04-05T06:38:03.997Z</time></trkpt><trkpt lat="46.049806358400375" lon="12.09261691186447"><ele>448.0</ele><time>2026-04-05T06:38:05.997Z</time></trkpt><trkpt lat="46.04975265389624" lon="12.09250590422337"><ele>447.4</ele><time>2026-04-05T06:38:07.997Z</time></trkpt><trkpt lat="46.049733171629704" lon="12.092370718441103"><ele>446.79999999999995</ele><time>2026-04-05T06:38:09.997Z</time></trkpt><trkpt lat="46.04971412160027" lon="12.092185761022831"><ele>446.2</ele><time>2026-04-05T06:38:11.997Z</time></trkpt><trkpt lat="46.04970439894308" lon="12.0920221930035"><ele>445.6</ele><time>2026-04-05T06:38:12.997Z</time></trkpt><trkpt lat="46.049678358097374" lon="12.091882000732394"><ele>445.0</ele><time>2026-04-05T06:38:13.997Z</time></trkpt><trkpt lat="46.04965566829036" lon="12.091728116801884"><ele>444.4</ele><time>2026-04-05T06:38:14.997Z</time></trkpt><trkpt lat="46.04962149180081" lon="12.091565911699542"><ele>443.8</ele><time>2026-04-05T06:38:15.997Z</time></trkpt><trkpt lat="46.04958623895491" lon="12.091415763862676"><ele>443.20000000000005</ele><time>2026-04-05T06:38:16.997Z</time></trkpt><trkpt lat="46.04955017749238" lon="12.091278802088468"><ele>442.6</ele><time>2026-04-05T06:38:17.997Z</time></trkpt><trkpt lat="46.0495200252511" lon="12.091163833440465"><ele>442.0</ele><time>2026-04-05T06:38:18.997Z</time></trkpt><trkpt lat="46.04947615432661" lon="12.091034443258495"><ele>442.0</ele><time>2026-04-05T06:38:19.997Z</time></trkpt><trkpt lat="46.04944841336349" lon="12.090916848706353"><ele>442.00000000000006</ele><time>2026-04-05T06:38:20.997Z</time></trkpt><trkpt lat="46.04941063976391" lon="12.090828162523628"><ele>442.00000000000006</ele><time>2026-04-05T06:38:21.997Z</time></trkpt><trkpt lat="46.049365813301485" lon="12.090674597174145"><ele>442.0</ele><time>2026-04-05T06:38:23.997Z</time></trkpt><trkpt lat="46.049317182732175" lon="12.09050749028379"><ele>442.0</ele><time>2026-04-05T06:38:25.997Z</time></trkpt><trkpt lat="46.049323479970646" lon="12.09039085135341"><ele>441.6666666666667</ele><time>2026-04-05T06:38:26.997Z</time></trkpt><trkpt lat="46.04930867578973" lon="12.090233657516418"><ele>441.33333333333337</ele><time>2026-04-05T06:38:27.997Z</time></trkpt><trkpt lat="46.04930232545134" lon="12.090101846157463"><ele>441.0</ele><time>2026-04-05T06:38:28.996Z</time></trkpt><trkpt lat="46.049293914077644" lon="12.089967839416262"><ele>440.66666666666663</ele><time>2026-04-05T06:38:29.996Z</time></trkpt><trkpt lat="46.04928808240111" lon="12.089860069288934"><ele>440.3333333333333</ele><time>2026-04-05T06:38:30.996Z</time></trkpt><trkpt lat="46.04927054936421" lon="12.089749099859619"><ele>440.0</ele><time>2026-04-05T06:38:31.996Z</time></trkpt><trkpt lat="46.049274164446516" lon="12.089631892670614"><ele>439.2</ele><time>2026-04-05T06:38:32.996Z</time></trkpt><trkpt lat="46.049257703829284" lon="12.089535980904827"><ele>438.4</ele><time>2026-04-05T06:38:33.996Z</time></trkpt><trkpt lat="46.04923670707786" lon="12.08942599231817"><ele>437.6</ele><time>2026-04-05T06:38:34.996Z</time></trkpt><trkpt lat="46.04920851132067" lon="12.089303503625494"><ele>436.8</ele><time>2026-04-05T06:38:35.996Z</time></trkpt><trkpt lat="46.04917313601677" lon="12.089186154442524"><ele>436.0</ele><time>2026-04-05T06:38:36.996Z</time></trkpt><trkpt lat="46.04914484792273" lon="12.089003786950686"><ele>436.33333333333337</ele><time>2026-04-05T06:38:38.996Z</time></trkpt><trkpt lat="46.04910717692792" lon="12.08892371508162"><ele>436.6666666666667</ele><time>2026-04-05T06:38:39.996Z</time></trkpt><trkpt lat="46.04906718138932" lon="12.088830809799719"><ele>437.0</ele><time>2026-04-05T06:38:40.996Z</time></trkpt><trkpt lat="46.04903904510052" lon="12.088729906473464"><ele>437.33333333333337</ele><time>2026-04-05T06:38:41.996Z</time></trkpt><trkpt lat="46.04901735166729" lon="12.08854698151428"><ele>437.6666666666667</ele><time>2026-04-05T06:38:43.996Z</time></trkpt><trkpt lat="46.04902551799028" lon="12.088415425454281"><ele>438.0</ele><time>2026-04-05T06:38:45.996Z</time></trkpt><trkpt lat="46.04902620887445" lon="12.088297628657902"><ele>437.8333333333333</ele><time>2026-04-05T06:38:46.996Z</time></trkpt><trkpt lat="46.04903110371376" lon="12.088205237106386"><ele>437.66666666666663</ele><time>2026-04-05T06:38:47.996Z</time></trkpt><trkpt lat="46.0490272037414" lon="12.08805941638978"><ele>437.5</ele><time>2026-04-05T06:38:49.996Z</time></trkpt><trkpt lat="46.04904234931689" lon="12.087944301022466"><ele>437.3333333333333</ele><time>2026-04-05T06:38:50.996Z</time></trkpt><trkpt lat="46.04906732291601" lon="12.087833066023178"><ele>437.16666666666663</ele><time>2026-04-05T06:38:51.996Z</time></trkpt><trkpt lat="46.04911149341385" lon="12.087731286834986"><ele>437.0</ele><time>2026-04-05T06:38:52.996Z</time></trkpt><trkpt lat="46.04916921071641" lon="12.087596300579843"><ele>435.49999999999994</ele><time>2026-04-05T06:38:54.998Z</time></trkpt><trkpt lat="46.04920229714575" lon="12.087515030816844"><ele>434.0</ele><time>2026-04-05T06:38:55.998Z</time></trkpt><trkpt lat="46.049240343410546" lon="12.087440398768354"><ele>432.5</ele><time>2026-04-05T06:38:56.998Z</time></trkpt><trkpt lat="46.04928864299554" lon="12.087362056288338"><ele>431.0</ele><time>2026-04-05T06:38:58.998Z</time></trkpt><trkpt lat="46.04934100102782" lon="12.087293721664748"><ele>429.49999999999994</ele><time>2026-04-05T06:39:02.999Z</time></trkpt><trkpt lat="46.04941329968227" lon="12.087134772461594"><ele>428.0</ele><time>2026-04-05T06:39:04.999Z</time></trkpt><trkpt lat="46.04945331833903" lon="12.08703855918275"><ele>427.66666666666663</ele><time>2026-04-05T06:39:05.999Z</time></trkpt><trkpt lat="46.04948409833086" lon="12.086931824021919"><ele>427.3333333333333</ele><time>2026-04-05T06:39:06.998Z</time></trkpt><trkpt lat="46.04951291697674" lon="12.08680258988953"><ele>427.0</ele><time>2026-04-05T06:39:07.999Z</time></trkpt><trkpt lat="46.04954706250704" lon="12.086678479048915"><ele>426.66666666666663</ele><time>2026-04-05T06:39:08.999Z</time></trkpt><trkpt lat="46.04957587412046" lon="12.086560224910993"><ele>426.3333333333333</ele><time>2026-04-05T06:39:09.999Z</time></trkpt><trkpt lat="46.04959195379922" lon="12.086444525624726"><ele>426.0</ele><time>2026-04-05T06:39:10.999Z</time></trkpt><trkpt lat="46.04961528342953" lon="12.08633807573796"><ele>425.6</ele><time>2026-04-05T06:39:11.999Z</time></trkpt><trkpt lat="46.04964872075119" lon="12.086233915608847"><ele>425.20000000000005</ele><time>2026-04-05T06:39:12.999Z</time></trkpt><trkpt lat="46.04969557306129" lon="12.086163655558545"><ele>424.79999999999995</ele><time>2026-04-05T06:39:13.999Z</time></trkpt><trkpt lat="46.04972983237901" lon="12.08603976450003"><ele>424.4</ele><time>2026-04-05T06:39:14.999Z</time></trkpt><trkpt lat="46.0497491917186" lon="12.085884822649476"><ele>424.0</ele><time>2026-04-05T06:39:15.999Z</time></trkpt><trkpt lat="46.049763876305455" lon="12.085726723503"><ele>423.4</ele><time>2026-04-05T06:39:16.999Z</time></trkpt><trkpt lat="46.04978300218954" lon="12.08557011923483"><ele>422.79999999999995</ele><time>2026-04-05T06:39:17.999Z</time></trkpt><trkpt lat="46.04980817451065" lon="12.085432550779185"><ele>422.20000000000005</ele><time>2026-04-05T06:39:18.999Z</time></trkpt><trkpt lat="46.049831333528644" lon="12.085286200666754"><ele>421.6</ele><time>2026-04-05T06:39:19.999Z</time></trkpt><trkpt lat="46.049855183230065" lon="12.085153071419553"><ele>421.0</ele><time>2026-04-05T06:39:20.999Z</time></trkpt><trkpt lat="46.049873945178234" lon="12.085022116097269"><ele>420.0</ele><time>2026-04-05T06:39:21.999Z</time></trkpt><trkpt lat="46.049886660904434" lon="12.084881233636468"><ele>419.0</ele><time>2026-04-05T06:39:22.999Z</time></trkpt><trkpt lat="46.04989881942905" lon="12.084735636327547"><ele>418.0</ele><time>2026-04-05T06:39:23.999Z</time></trkpt><trkpt lat="46.049906376165126" lon="12.084584469145039"><ele>417.0</ele><time>2026-04-05T06:39:24.999Z</time></trkpt><trkpt lat="46.04989855912956" lon="12.084433071601973"><ele>416.0</ele><time>2026-04-05T06:39:25.999Z</time></trkpt><trkpt lat="46.04990697593091" lon="12.084266343946702"><ele>416.25</ele><time>2026-04-05T06:39:26.999Z</time></trkpt><trkpt lat="46.04989908153037" lon="12.084088447618251"><ele>416.5</ele><time>2026-04-05T06:39:27.999Z</time></trkpt><trkpt lat="46.04989349740595" lon="12.083924220812316"><ele>416.75</ele><time>2026-04-05T06:39:28.999Z</time></trkpt><trkpt lat="46.04988859215583" lon="12.083758340039982"><ele>417.0</ele><time>2026-04-05T06:39:29.999Z</time></trkpt><trkpt lat="46.04989267852689" lon="12.083594317515507"><ele>417.0</ele><time>2026-04-05T06:39:30.999Z</time></trkpt><trkpt lat="46.04990033634665" lon="12.083411365994154"><ele>417.0</ele><time>2026-04-05T06:39:31.999Z</time></trkpt><trkpt lat="46.04992695029382" lon="12.083221711544404"><ele>417.0</ele><time>2026-04-05T06:39:32.999Z</time></trkpt><trkpt lat="46.04994720824413" lon="12.083011873756542"><ele>417.0</ele><time>2026-04-05T06:39:33.999Z</time></trkpt><trkpt lat="46.049962164632326" lon="12.082804197688526"><ele>413.66666666666663</ele><time>2026-04-05T06:39:34.998Z</time></trkpt><trkpt lat="46.04997823879653" lon="12.082588459114428"><ele>410.3333333333333</ele><time>2026-04-05T06:39:35.998Z</time></trkpt><trkpt lat="46.04998839236626" lon="12.082366440396534"><ele>407.0</ele><time>2026-04-05T06:39:36.998Z</time></trkpt><trkpt lat="46.05002146310422" lon="12.082145853895925"><ele>405.25</ele><time>2026-04-05T06:39:37.998Z</time></trkpt><trkpt lat="46.050025854944096" lon="12.081927261202138"><ele>403.5</ele><time>2026-04-05T06:39:38.998Z</time></trkpt><trkpt lat="46.05003364212279" lon="12.081715303628867"><ele>401.75</ele><time>2026-04-05T06:39:39.998Z</time></trkpt><trkpt lat="46.05004750663938" lon="12.081522729095257"><ele>400.0</ele><time>2026-04-05T06:39:40.998Z</time></trkpt><trkpt lat="46.05005906387557" lon="12.081324415943806"><ele>399.5</ele><time>2026-04-05T06:39:41.998Z</time></trkpt><trkpt lat="46.05007503977435" lon="12.081129889830589"><ele>399.0</ele><time>2026-04-05T06:39:42.998Z</time></trkpt><trkpt lat="46.05009689519677" lon="12.080968273183014"><ele>398.5</ele><time>2026-04-05T06:39:43.998Z</time></trkpt><trkpt lat="46.05015634518664" lon="12.080814004708662"><ele>398.0</ele><time>2026-04-05T06:39:44.998Z</time></trkpt><trkpt lat="46.05023280239285" lon="12.080682989443805"><ele>397.79999999999995</ele><time>2026-04-05T06:39:45.998Z</time></trkpt><trkpt lat="46.05031609580412" lon="12.08057053385268"><ele>397.6</ele><time>2026-04-05T06:39:46.998Z</time></trkpt><trkpt lat="46.050394290733124" lon="12.080445972139573"><ele>397.4</ele><time>2026-04-05T06:39:47.998Z</time></trkpt><trkpt lat="46.050449147971335" lon="12.080313255556225"><ele>397.20000000000005</ele><time>2026-04-05T06:39:48.998Z</time></trkpt><trkpt lat="46.05051277771475" lon="12.08020044822973"><ele>397.0</ele><time>2026-04-05T06:39:49.998Z</time></trkpt><trkpt lat="46.05056011653775" lon="12.080056644381017"><ele>396.20000000000005</ele><time>2026-04-05T06:39:50.998Z</time></trkpt><trkpt lat="46.050607842176106" lon="12.07991870811719"><ele>395.4</ele><time>2026-04-05T06:39:51.998Z</time></trkpt><trkpt lat="46.05068114317997" lon="12.079810478506166"><ele>394.6</ele><time>2026-04-05T06:39:52.998Z</time></trkpt><trkpt lat="46.05077048778232" lon="12.07974481062642"><ele>393.79999999999995</ele><time>2026-04-05T06:39:53.998Z</time></trkpt><trkpt lat="46.05087153013559" lon="12.079709146325541"><ele>393.0</ele><time>2026-04-05T06:39:54.998Z</time></trkpt><trkpt lat="46.050962725673195" lon="12.079680602251285"><ele>392.6666666666667</ele><time>2026-04-05T06:39:55.998Z</time></trkpt><trkpt lat="46.05102549801689" lon="12.079618748184432"><ele>392.33333333333337</ele><time>2026-04-05T06:39:56.998Z</time></trkpt><trkpt lat="46.05106801155089" lon="12.079505841729388"><ele>392.0</ele><time>2026-04-05T06:39:57.998Z</time></trkpt><trkpt lat="46.051084023614834" lon="12.079389665813004"><ele>391.6666666666667</ele><time>2026-04-05T06:39:58.998Z</time></trkpt><trkpt lat="46.05106158849171" lon="12.079246221507356"><ele>391.33333333333337</ele><time>2026-04-05T06:39:59.998Z</time></trkpt><trkpt lat="46.05105194807917" lon="12.079103855245545"><ele>391.0</ele><time>2026-04-05T06:40:00.998Z</time></trkpt><trkpt lat="46.05105544032879" lon="12.078968623822005"><ele>390.20000000000005</ele><time>2026-04-05T06:40:01.998Z</time></trkpt><trkpt lat="46.05103330775502" lon="12.078814630988834"><ele>389.40000000000003</ele><time>2026-04-05T06:40:02.998Z</time></trkpt><trkpt lat="46.05103621848259" lon="12.07867568403971"><ele>388.6</ele><time>2026-04-05T06:40:03.998Z</time></trkpt><trkpt lat="46.051072446799516" lon="12.078548925838012"><ele>387.8</ele><time>2026-04-05T06:40:04.998Z</time></trkpt><trkpt lat="46.051129199051125" lon="12.078447180188903"><ele>387.0</ele><time>2026-04-05T06:40:05.998Z</time></trkpt><trkpt lat="46.05120835595669" lon="12.078372634110092"><ele>387.0</ele><time>2026-04-05T06:40:06.998Z</time></trkpt><trkpt lat="46.05129784100407" lon="12.078305945299922"><ele>387.0</ele><time>2026-04-05T06:40:07.998Z</time></trkpt><trkpt lat="46.05138566731382" lon="12.078242667972482"><ele>387.0</ele><time>2026-04-05T06:40:08.998Z</time></trkpt><trkpt lat="46.05146652564334" lon="12.078175546547737"><ele>387.0</ele><time>2026-04-05T06:40:09.998Z</time></trkpt><trkpt lat="46.05154774677362" lon="12.078126795071222"><ele>387.0</ele><time>2026-04-05T06:40:10.998Z</time></trkpt><trkpt lat="46.051628126109016" lon="12.07807778550189"><ele>385.20000000000005</ele><time>2026-04-05T06:40:11.998Z</time></trkpt><trkpt lat="46.051718000297576" lon="12.07804059413166"><ele>383.4</ele><time>2026-04-05T06:40:12.998Z</time></trkpt><trkpt lat="46.051812383129764" lon="12.078002297300692"><ele>381.6</ele><time>2026-04-05T06:40:13.998Z</time></trkpt><trkpt lat="46.05190433462503" lon="12.077988222184977"><ele>379.79999999999995</ele><time>2026-04-05T06:40:14.998Z</time></trkpt><trkpt lat="46.05199824994001" lon="12.077992826187016"><ele>378.0</ele><time>2026-04-05T06:40:15.998Z</time></trkpt><trkpt lat="46.05210202954402" lon="12.078033396734831"><ele>378.0</ele><time>2026-04-05T06:40:16.998Z</time></trkpt><trkpt lat="46.052209493521794" lon="12.078090384344144"><ele>378.0</ele><time>2026-04-05T06:40:17.998Z</time></trkpt><trkpt lat="46.05231351164305" lon="12.078152472681689"><ele>378.0</ele><time>2026-04-05T06:40:18.998Z</time></trkpt><trkpt lat="46.05240878484496" lon="12.078222273794381"><ele>378.0</ele><time>2026-04-05T06:40:19.998Z</time></trkpt><trkpt lat="46.05250090815497" lon="12.078292071731806"><ele>378.0</ele><time>2026-04-05T06:40:20.998Z</time></trkpt><trkpt lat="46.05261252249943" lon="12.078312966574"><ele>376.79999999999995</ele><time>2026-04-05T06:40:21.998Z</time></trkpt><trkpt lat="46.05271473847133" lon="12.078297901319193"><ele>375.6</ele><time>2026-04-05T06:40:22.998Z</time></trkpt><trkpt lat="46.05282015668802" lon="12.078260225205884"><ele>374.4</ele><time>2026-04-05T06:40:23.998Z</time></trkpt><trkpt lat="46.05292428476482" lon="12.078225160174107"><ele>373.20000000000005</ele><time>2026-04-05T06:40:24.998Z</time></trkpt><trkpt lat="46.05303290176702" lon="12.078191754200162"><ele>372.0</ele><time>2026-04-05T06:40:25.998Z</time></trkpt><trkpt lat="46.05313892575983" lon="12.078162636210005"><ele>370.8</ele><time>2026-04-05T06:40:26.998Z</time></trkpt><trkpt lat="46.05324350774936" lon="12.078142121166424"><ele>369.6</ele><time>2026-04-05T06:40:27.998Z</time></trkpt><trkpt lat="46.053336247106465" lon="12.07814052082326"><ele>368.40000000000003</ele><time>2026-04-05T06:40:28.997Z</time></trkpt><trkpt lat="46.05341588837387" lon="12.078182047625708"><ele>367.20000000000005</ele><time>2026-04-05T06:40:29.997Z</time></trkpt><trkpt lat="46.05350094018894" lon="12.078270607476059"><ele>366.0</ele><time>2026-04-05T06:40:30.997Z</time></trkpt><trkpt lat="46.05358258185587" lon="12.078352371711668"><ele>365.4</ele><time>2026-04-05T06:40:31.997Z</time></trkpt><trkpt lat="46.0536739271435" lon="12.078412814077018"><ele>364.8</ele><time>2026-04-05T06:40:32.997Z</time></trkpt><trkpt lat="46.05377345798188" lon="12.078450744776626"><ele>364.2</ele><time>2026-04-05T06:40:33.997Z</time></trkpt><trkpt lat="46.0538727937078" lon="12.078468746457842"><ele>363.59999999999997</ele><time>2026-04-05T06:40:34.997Z</time></trkpt><trkpt lat="46.053977003641016" lon="12.078474659883728"><ele>363.0</ele><time>2026-04-05T06:40:35.997Z</time></trkpt><trkpt lat="46.05407348050837" lon="12.078488317344446"><ele>360.2</ele><time>2026-04-05T06:40:36.997Z</time></trkpt><trkpt lat="46.05416846976127" lon="12.07852435048589"><ele>357.4</ele><time>2026-04-05T06:40:37.997Z</time></trkpt><trkpt lat="46.05426196338059" lon="12.078586367736088"><ele>354.59999999999997</ele><time>2026-04-05T06:40:38.997Z</time></trkpt><trkpt lat="46.05435441801207" lon="12.078649727673886"><ele>351.79999999999995</ele><time>2026-04-05T06:40:39.997Z</time></trkpt><trkpt lat="46.05445662590109" lon="12.078712072909635"><ele>349.0</ele><time>2026-04-05T06:40:40.997Z</time></trkpt><trkpt lat="46.054555445306335" lon="12.078755324741831"><ele>349.0</ele><time>2026-04-05T06:40:41.997Z</time></trkpt><trkpt lat="46.05466664967798" lon="12.078774227895904"><ele>349.0</ele><time>2026-04-05T06:40:42.997Z</time></trkpt><trkpt lat="46.05477325174636" lon="12.078791452544335"><ele>349.0</ele><time>2026-04-05T06:40:43.997Z</time></trkpt><trkpt lat="46.05487915017469" lon="12.078796498037255"><ele>349.0</ele><time>2026-04-05T06:40:44.997Z</time></trkpt><trkpt lat="46.05498354832376" lon="12.078783244027978"><ele>349.0</ele><time>2026-04-05T06:40:45.997Z</time></trkpt><trkpt lat="46.055093100720164" lon="12.078744976866693"><ele>346.4</ele><time>2026-04-05T06:40:46.997Z</time></trkpt><trkpt lat="46.05519196277788" lon="12.078683312365929"><ele>343.79999999999995</ele><time>2026-04-05T06:40:47.997Z</time></trkpt><trkpt lat="46.05528180588438" lon="12.078612867264352"><ele>341.20000000000005</ele><time>2026-04-05T06:40:48.997Z</time></trkpt><trkpt lat="46.05537398458794" lon="12.078540223380147"><ele>338.6</ele><time>2026-04-05T06:40:49.997Z</time></trkpt><trkpt lat="46.05545596162149" lon="12.078445003271844"><ele>336.0</ele><time>2026-04-05T06:40:50.997Z</time></trkpt><trkpt lat="46.05553365366688" lon="12.078328653706935"><ele>334.8</ele><time>2026-04-05T06:40:51.997Z</time></trkpt><trkpt lat="46.0555989544171" lon="12.078205786601856"><ele>333.6</ele><time>2026-04-05T06:40:52.997Z</time></trkpt><trkpt lat="46.055651314790374" lon="12.078072728218034"><ele>332.4</ele><time>2026-04-05T06:40:53.997Z</time></trkpt><trkpt lat="46.05568797854505" lon="12.077930711739523"><ele>331.2</ele><time>2026-04-05T06:40:54.997Z</time></trkpt><trkpt lat="46.05573434625666" lon="12.077768505472978"><ele>330.0</ele><time>2026-04-05T06:40:55.997Z</time></trkpt><trkpt lat="46.0557895659911" lon="12.077615071277583"><ele>326.6666666666667</ele><time>2026-04-05T06:40:56.997Z</time></trkpt><trkpt lat="46.055845958880255" lon="12.077420877977822"><ele>323.33333333333337</ele><time>2026-04-05T06:40:57.997Z</time></trkpt><trkpt lat="46.05590405483782" lon="12.077219418469758"><ele>320.0</ele><time>2026-04-05T06:40:58.997Z</time></trkpt><trkpt lat="46.05597087825528" lon="12.077004709078095"><ele>320.0</ele><time>2026-04-05T06:40:59.997Z</time></trkpt><trkpt lat="46.05603145546493" lon="12.076790378729362"><ele>320.0</ele><time>2026-04-05T06:41:00.999Z</time></trkpt><trkpt lat="46.05609638532061" lon="12.076579548193065"><ele>320.0</ele><time>2026-04-05T06:41:01.998Z</time></trkpt><trkpt lat="46.0561606021637" lon="12.07637389330127"><ele>319.0</ele><time>2026-04-05T06:41:02.998Z</time></trkpt><trkpt lat="46.05621867627852" lon="12.076169466435713"><ele>318.0</ele><time>2026-04-05T06:41:03.998Z</time></trkpt><trkpt lat="46.05628150314735" lon="12.075981542920804"><ele>317.0</ele><time>2026-04-05T06:41:04.998Z</time></trkpt><trkpt lat="46.056336398093684" lon="12.075796542799905"><ele>316.0</ele><time>2026-04-05T06:41:05.998Z</time></trkpt><trkpt lat="46.05638865871996" lon="12.075622269367987"><ele>315.5</ele><time>2026-04-05T06:41:06.998Z</time></trkpt><trkpt lat="46.056429267409406" lon="12.075499480655203"><ele>315.0</ele><time>2026-04-05T06:41:07.998Z</time></trkpt><trkpt lat="46.05647093534908" lon="12.075367251872615"><ele>314.5</ele><time>2026-04-05T06:41:09.998Z</time></trkpt><trkpt lat="46.05649740066607" lon="12.075264563809686"><ele>314.0</ele><time>2026-04-05T06:41:13.998Z</time></trkpt><trkpt lat="46.05652246193087" lon="12.07517467992275"><ele>313.5</ele><time>2026-04-05T06:41:16.998Z</time></trkpt><trkpt lat="46.05654995374765" lon="12.07506511697214"><ele>313.0</ele><time>2026-04-05T06:41:18.998Z</time></trkpt><trkpt lat="46.05659471777569" lon="12.074886716247414"><ele>312.0</ele><time>2026-04-05T06:41:20.998Z</time></trkpt><trkpt lat="46.05662477509504" lon="12.074802591349265"><ele>311.0</ele><time>2026-04-05T06:41:21.998Z</time></trkpt><trkpt lat="46.05665639668294" lon="12.074704211935964"><ele>310.0</ele><time>2026-04-05T06:41:22.998Z</time></trkpt><trkpt lat="46.056697027934945" lon="12.074553622020714"><ele>309.0</ele><time>2026-04-05T06:41:24.998Z</time></trkpt><trkpt lat="46.05667903787578" lon="12.074437343399826"><ele>308.0</ele><time>2026-04-05T06:41:27.998Z</time></trkpt><trkpt lat="46.056605161956064" lon="12.074324483435412"><ele>307.0</ele><time>2026-04-05T06:41:29.998Z</time></trkpt><trkpt lat="46.05647626328361" lon="12.074255652570026"><ele>307.0</ele><time>2026-04-05T06:41:31.998Z</time></trkpt><trkpt lat="46.05640116386851" lon="12.074227339783889"><ele>307.0</ele><time>2026-04-05T06:41:32.998Z</time></trkpt><trkpt lat="46.05633123794321" lon="12.074200291760556"><ele>307.0</ele><time>2026-04-05T06:41:33.998Z</time></trkpt><trkpt lat="46.05625961513994" lon="12.074174285278524"><ele>307.0</ele><time>2026-04-05T06:41:34.998Z</time></trkpt><trkpt lat="46.05618490846701" lon="12.074148012840224"><ele>307.0</ele><time>2026-04-05T06:41:35.998Z</time></trkpt><trkpt lat="46.05610377680319" lon="12.074120058226322"><ele>307.0</ele><time>2026-04-05T06:41:36.998Z</time></trkpt><trkpt lat="46.05601544533737" lon="12.074087524694681"><ele>306.4</ele><time>2026-04-05T06:41:37.998Z</time></trkpt><trkpt lat="46.05592785039103" lon="12.074055384168005"><ele>305.79999999999995</ele><time>2026-04-05T06:41:38.998Z</time></trkpt><trkpt lat="46.05582323662204" lon="12.074012380325053"><ele>305.2</ele><time>2026-04-05T06:41:39.998Z</time></trkpt><trkpt lat="46.055709744827844" lon="12.073963639423305"><ele>304.59999999999997</ele><time>2026-04-05T06:41:40.997Z</time></trkpt><trkpt lat="46.055603544271854" lon="12.07392146202098"><ele>304.0</ele><time>2026-04-05T06:41:41.997Z</time></trkpt><trkpt lat="46.055508603376204" lon="12.073872566458741"><ele>303.8</ele><time>2026-04-05T06:41:42.997Z</time></trkpt><trkpt lat="46.05540715773641" lon="12.073824630267314"><ele>303.59999999999997</ele><time>2026-04-05T06:41:43.997Z</time></trkpt><trkpt lat="46.05530481122894" lon="12.073766474934281"><ele>303.4</ele><time>2026-04-05T06:41:44.997Z</time></trkpt><trkpt lat="46.0551968804634" lon="12.07370104261632"><ele>303.2</ele><time>2026-04-05T06:41:45.997Z</time></trkpt><trkpt lat="46.05509749095146" lon="12.073639443194775"><ele>303.0</ele><time>2026-04-05T06:41:46.997Z</time></trkpt><trkpt lat="46.055000220449244" lon="12.073584630639292"><ele>303.1666666666667</ele><time>2026-04-05T06:41:47.997Z</time></trkpt><trkpt lat="46.05491830191169" lon="12.073528334440578"><ele>303.3333333333333</ele><time>2026-04-05T06:41:48.997Z</time></trkpt><trkpt lat="46.05483935125938" lon="12.073467992327723"><ele>303.5</ele><time>2026-04-05T06:41:49.997Z</time></trkpt><trkpt lat="46.05476079249521" lon="12.07341288873899"><ele>303.66666666666663</ele><time>2026-04-05T06:41:50.997Z</time></trkpt><trkpt lat="46.05469769233585" lon="12.073362601658832"><ele>303.8333333333333</ele><time>2026-04-05T06:41:51.997Z</time></trkpt><trkpt lat="46.0546326572567" lon="12.073311208380188"><ele>304.0</ele><time>2026-04-05T06:41:52.997Z</time></trkpt><trkpt lat="46.05456838240813" lon="12.073264068612934"><ele>304.0</ele><time>2026-04-05T06:41:53.997Z</time></trkpt><trkpt lat="46.054501543797976" lon="12.073213117608793"><ele>304.0</ele><time>2026-04-05T06:41:54.997Z</time></trkpt><trkpt lat="46.05443735102205" lon="12.073154345788597"><ele>304.0</ele><time>2026-04-05T06:41:55.997Z</time></trkpt><trkpt lat="46.05437534064969" lon="12.073098390740016"><ele>304.0</ele><time>2026-04-05T06:41:56.997Z</time></trkpt><trkpt lat="46.054301390629654" lon="12.072986024179116"><ele>304.0</ele><time>2026-04-05T06:41:58.997Z</time></trkpt><trkpt lat="46.05427716140612" lon="12.072846505127051"><ele>304.0</ele><time>2026-04-05T06:42:00.997Z</time></trkpt><trkpt lat="46.054270152755386" lon="12.072687498980603"><ele>304.0</ele><time>2026-04-05T06:42:02.997Z</time></trkpt><trkpt lat="46.05420921610764" lon="12.072549639352168"><ele>304.0</ele><time>2026-04-05T06:42:04.997Z</time></trkpt><trkpt lat="46.054104485772626" lon="12.072467090927015"><ele>304.0</ele><time>2026-04-05T06:42:06.997Z</time></trkpt><trkpt lat="46.0540451281451" lon="12.072420990442977"><ele>304.0</ele><time>2026-04-05T06:42:07.997Z</time></trkpt><trkpt lat="46.05398672326336" lon="12.072369072351915"><ele>304.0</ele><time>2026-04-05T06:42:08.997Z</time></trkpt><trkpt lat="46.05392165222085" lon="12.072306849814103"><ele>304.0</ele><time>2026-04-05T06:42:09.997Z</time></trkpt><trkpt lat="46.05385972959954" lon="12.072231838322084"><ele>304.0</ele><time>2026-04-05T06:42:10.997Z</time></trkpt><trkpt lat="46.05379050006537" lon="12.07215149363544"><ele>304.0</ele><time>2026-04-05T06:42:11.997Z</time></trkpt><trkpt lat="46.0537479095474" lon="12.072072723039312"><ele>304.0</ele><time>2026-04-05T06:42:12.997Z</time></trkpt><trkpt lat="46.053679685896405" lon="12.072004280904707"><ele>304.0</ele><time>2026-04-05T06:42:13.997Z</time></trkpt><trkpt lat="46.05361409571302" lon="12.07192647777551"><ele>304.0</ele><time>2026-04-05T06:42:14.997Z</time></trkpt><trkpt lat="46.05356044927646" lon="12.071870053627544"><ele>304.0</ele><time>2026-04-05T06:42:15.997Z</time></trkpt><trkpt lat="46.05350987961835" lon="12.071805902480161"><ele>304.0</ele><time>2026-04-05T06:42:16.997Z</time></trkpt><trkpt lat="46.053463762736015" lon="12.07173417134191"><ele>304.0</ele><time>2026-04-05T06:42:17.997Z</time></trkpt><trkpt lat="46.05337188617749" lon="12.071616615132063"><ele>304.0</ele><time>2026-04-05T06:42:19.997Z</time></trkpt><trkpt lat="46.05334887741969" lon="12.071527520245333"><ele>304.0</ele><time>2026-04-05T06:42:20.997Z</time></trkpt><trkpt lat="46.05333697234166" lon="12.071410394330663"><ele>304.0</ele><time>2026-04-05T06:42:21.997Z</time></trkpt><trkpt lat="46.053338670520645" lon="12.071298771249644"><ele>304.0</ele><time>2026-04-05T06:42:22.997Z</time></trkpt><trkpt lat="46.053312496460876" lon="12.071207502248917"><ele>304.3333333333333</ele><time>2026-04-05T06:42:23.997Z</time></trkpt><trkpt lat="46.053252338597694" lon="12.07109250304452"><ele>304.66666666666663</ele><time>2026-04-05T06:42:25.997Z</time></trkpt><trkpt lat="46.05320810334422" lon="12.071016533198035"><ele>305.0</ele><time>2026-04-05T06:42:27.997Z</time></trkpt><trkpt lat="46.053139780208554" lon="12.070936377229181"><ele>305.3333333333333</ele><time>2026-04-05T06:42:29.997Z</time></trkpt><trkpt lat="46.05307489051154" lon="12.07089854683941"><ele>305.6666666666667</ele><time>2026-04-05T06:42:30.997Z</time></trkpt><trkpt lat="46.05300970519293" lon="12.070853115063022"><ele>306.0</ele><time>2026-04-05T06:42:31.997Z</time></trkpt><trkpt lat="46.05292438197714" lon="12.070799243856516"><ele>305.0</ele><time>2026-04-05T06:42:32.997Z</time></trkpt><trkpt lat="46.05285467756545" lon="12.070763775106874"><ele>304.0</ele><time>2026-04-05T06:42:33.997Z</time></trkpt><trkpt lat="46.05279188405256" lon="12.070726643456164"><ele>303.0</ele><time>2026-04-05T06:42:34.996Z</time></trkpt><trkpt lat="46.052689906420994" lon="12.070617097650603"><ele>302.0</ele><time>2026-04-05T06:42:36.996Z</time></trkpt><trkpt lat="46.05263609655256" lon="12.070534769090004"><ele>301.0</ele><time>2026-04-05T06:42:37.996Z</time></trkpt><trkpt lat="46.052566701744844" lon="12.070457036676451"><ele>300.0</ele><time>2026-04-05T06:42:38.996Z</time></trkpt><trkpt lat="46.05251100441631" lon="12.070373773414612"><ele>300.0</ele><time>2026-04-05T06:42:39.996Z</time></trkpt><trkpt lat="46.05247252279732" lon="12.070292975676773"><ele>300.0</ele><time>2026-04-05T06:42:40.996Z</time></trkpt><trkpt lat="46.052414787237616" lon="12.070225019847488"><ele>300.0</ele><time>2026-04-05T06:42:41.996Z</time></trkpt><trkpt lat="46.05235189218609" lon="12.070160228218237"><ele>300.0</ele><time>2026-04-05T06:42:42.996Z</time></trkpt><trkpt lat="46.05229474764243" lon="12.07009266766226"><ele>300.0</ele><time>2026-04-05T06:42:43.996Z</time></trkpt><trkpt lat="46.05224490236384" lon="12.070012761999626"><ele>300.0</ele><time>2026-04-05T06:42:44.996Z</time></trkpt><trkpt lat="46.05214313965385" lon="12.069892201854678"><ele>300.5</ele><time>2026-04-05T06:42:46.996Z</time></trkpt><trkpt lat="46.0520900498328" lon="12.069831964955176"><ele>301.0</ele><time>2026-04-05T06:42:47.996Z</time></trkpt><trkpt lat="46.05203312962792" lon="12.069781115906675"><ele>301.5</ele><time>2026-04-05T06:42:48.996Z</time></trkpt><trkpt lat="46.05196897937792" lon="12.06970934929004"><ele>302.0</ele><time>2026-04-05T06:42:49.996Z</time></trkpt><trkpt lat="46.051867901433326" lon="12.069631590889053"><ele>302.5</ele><time>2026-04-05T06:42:51.996Z</time></trkpt><trkpt lat="46.051794910227336" lon="12.069592278976069"><ele>303.0</ele><time>2026-04-05T06:42:54.996Z</time></trkpt><trkpt lat="46.05170273687329" lon="12.069577668634054"><ele>303.0</ele><time>2026-04-05T06:42:56.996Z</time></trkpt><trkpt lat="46.051639747814335" lon="12.069567307092507"><ele>303.0</ele><time>2026-04-05T06:42:57.996Z</time></trkpt><trkpt lat="46.05157082709066" lon="12.0695702225096"><ele>303.0</ele><time>2026-04-05T06:42:58.996Z</time></trkpt><trkpt lat="46.051468995158544" lon="12.069601579490591"><ele>303.0</ele><time>2026-04-05T06:43:00.996Z</time></trkpt><trkpt lat="46.05141568751613" lon="12.06965476627172"><ele>303.0</ele><time>2026-04-05T06:43:01.996Z</time></trkpt><trkpt lat="46.05136047993215" lon="12.06970755722366"><ele>303.0</ele><time>2026-04-05T06:43:02.996Z</time></trkpt><trkpt lat="46.051317653265045" lon="12.069778071681075"><ele>303.0</ele><time>2026-04-05T06:43:03.996Z</time></trkpt><trkpt lat="46.05127423889365" lon="12.069856875903245"><ele>304.8333333333333</ele><time>2026-04-05T06:43:06.998Z</time></trkpt><trkpt lat="46.05118636630637" lon="12.06984833733967"><ele>306.6666666666667</ele><time>2026-04-05T06:43:25.998Z</time></trkpt><trkpt lat="46.051134060754386" lon="12.069787944922952"><ele>308.5</ele><time>2026-04-05T06:43:26.998Z</time></trkpt><trkpt lat="46.051072297561475" lon="12.0697085003744"><ele>310.33333333333337</ele><time>2026-04-05T06:43:27.998Z</time></trkpt><trkpt lat="46.05099659376145" lon="12.069629779771327"><ele>312.1666666666667</ele><time>2026-04-05T06:43:28.998Z</time></trkpt><trkpt lat="46.05090850024021" lon="12.069537922442924"><ele>314.0</ele><time>2026-04-05T06:43:29.998Z</time></trkpt><trkpt lat="46.05081300265478" lon="12.069436295785744"><ele>315.0</ele><time>2026-04-05T06:43:30.998Z</time></trkpt><trkpt lat="46.05072116436609" lon="12.069342750885882"><ele>316.0</ele><time>2026-04-05T06:43:31.998Z</time></trkpt><trkpt lat="46.050621434957996" lon="12.06923718207263"><ele>317.0</ele><time>2026-04-05T06:43:32.998Z</time></trkpt><trkpt lat="46.0505066627426" lon="12.069118385692873"><ele>318.0</ele><time>2026-04-05T06:43:33.998Z</time></trkpt><trkpt lat="46.050368301721775" lon="12.068970090475297"><ele>316.0</ele><time>2026-04-05T06:43:34.998Z</time></trkpt><trkpt lat="46.05020257100167" lon="12.06879962243345"><ele>314.0</ele><time>2026-04-05T06:43:35.998Z</time></trkpt><trkpt lat="46.05004739469343" lon="12.068643921482279"><ele>312.0</ele><time>2026-04-05T06:43:36.998Z</time></trkpt><trkpt lat="46.049908443138584" lon="12.068506743586026"><ele>312.0</ele><time>2026-04-05T06:43:37.998Z</time></trkpt><trkpt lat="46.04977191299299" lon="12.068370437616851"><ele>312.0</ele><time>2026-04-05T06:43:38.998Z</time></trkpt><trkpt lat="46.04963124534604" lon="12.06822873453495"><ele>312.0</ele><time>2026-04-05T06:43:39.998Z</time></trkpt><trkpt lat="46.049494016463214" lon="12.068085693036592"><ele>311.0</ele><time>2026-04-05T06:43:40.998Z</time></trkpt><trkpt lat="46.04935959827684" lon="12.06794530191162"><ele>310.0</ele><time>2026-04-05T06:43:41.998Z</time></trkpt><trkpt lat="46.04921791882568" lon="12.067797793727266"><ele>309.0</ele><time>2026-04-05T06:43:42.998Z</time></trkpt><trkpt lat="46.049081769630895" lon="12.067651201115723"><ele>309.0</ele><time>2026-04-05T06:43:43.998Z</time></trkpt><trkpt lat="46.04895017546985" lon="12.06749864669296"><ele>309.0</ele><time>2026-04-05T06:43:44.998Z</time></trkpt><trkpt lat="46.04883505976445" lon="12.06735100164774"><ele>309.0</ele><time>2026-04-05T06:43:45.998Z</time></trkpt><trkpt lat="46.04872886529708" lon="12.067187082441357"><ele>310.0</ele><time>2026-04-05T06:43:46.998Z</time></trkpt><trkpt lat="46.04862416497017" lon="12.067006866588432"><ele>311.0</ele><time>2026-04-05T06:43:47.998Z</time></trkpt><trkpt lat="46.048529312664826" lon="12.066823599016395"><ele>312.0</ele><time>2026-04-05T06:43:48.998Z</time></trkpt><trkpt lat="46.048439641360815" lon="12.066631483189857"><ele>312.0</ele><time>2026-04-05T06:43:49.998Z</time></trkpt><trkpt lat="46.04835318102489" lon="12.066422861832587"><ele>312.0</ele><time>2026-04-05T06:43:50.997Z</time></trkpt><trkpt lat="46.04827557383544" lon="12.066203786195253"><ele>312.0</ele><time>2026-04-05T06:43:51.997Z</time></trkpt><trkpt lat="46.04821641959375" lon="12.066007087104419"><ele>312.4</ele><time>2026-04-05T06:43:52.997Z</time></trkpt><trkpt lat="46.04817055801843" lon="12.065830086856973"><ele>312.79999999999995</ele><time>2026-04-05T06:43:53.997Z</time></trkpt><trkpt lat="46.04814126823733" lon="12.065693521435753"><ele>313.2</ele><time>2026-04-05T06:43:54.997Z</time></trkpt><trkpt lat="46.048115852255926" lon="12.065546413796238"><ele>313.59999999999997</ele><time>2026-04-05T06:43:56.997Z</time></trkpt><trkpt lat="46.048093750620865" lon="12.06545753113431"><ele>314.0</ele><time>2026-04-05T06:43:58.997Z</time></trkpt><trkpt lat="46.04798012522921" lon="12.065619409166429"><ele>314.0</ele><time>2026-04-05T06:44:01.997Z</time></trkpt><trkpt lat="46.04797100768061" lon="12.06572328788543"><ele>314.0</ele><time>2026-04-05T06:44:02.997Z</time></trkpt><trkpt lat="46.04796876988025" lon="12.065842489116635"><ele>314.0</ele><time>2026-04-05T06:44:03.997Z</time></trkpt><trkpt lat="46.04796890831741" lon="12.065965379242405"><ele>314.0</ele><time>2026-04-05T06:44:04.997Z</time></trkpt><trkpt lat="46.04796525204599" lon="12.066092622420065"><ele>314.0</ele><time>2026-04-05T06:44:05.997Z</time></trkpt><trkpt lat="46.04796643178785" lon="12.066214949541237"><ele>314.0</ele><time>2026-04-05T06:44:06.997Z</time></trkpt><trkpt lat="46.04796766646838" lon="12.066344368847023"><ele>314.0</ele><time>2026-04-05T06:44:07.997Z</time></trkpt><trkpt lat="46.04797949350374" lon="12.066451626483465"><ele>314.0</ele><time>2026-04-05T06:44:08.997Z</time></trkpt><trkpt lat="46.04798473039438" lon="12.066550432324172"><ele>314.0</ele><time>2026-04-05T06:44:09.997Z</time></trkpt><trkpt lat="46.047942743621554" lon="12.066634389526884"><ele>314.0</ele><time>2026-04-05T06:44:11.997Z</time></trkpt><trkpt lat="46.0478686651997" lon="12.066638926998445"><ele>314.0</ele><time>2026-04-05T06:44:13.997Z</time></trkpt><trkpt lat="46.04774592539641" lon="12.066642490670661"><ele>314.0</ele><time>2026-04-05T06:44:15.997Z</time></trkpt><trkpt lat="46.047672974338326" lon="12.066658009954336"><ele>313.6666666666667</ele><time>2026-04-05T06:44:16.997Z</time></trkpt><trkpt lat="46.04760758516953" lon="12.066680592316537"><ele>313.33333333333337</ele><time>2026-04-05T06:44:17.997Z</time></trkpt><trkpt lat="46.04753354038662" lon="12.066709941478656"><ele>313.0</ele><time>2026-04-05T06:44:18.997Z</time></trkpt><trkpt lat="46.0474592982785" lon="12.066752499730535"><ele>312.6666666666667</ele><time>2026-04-05T06:44:19.997Z</time></trkpt><trkpt lat="46.047382414815345" lon="12.06679403037261"><ele>312.3333333333333</ele><time>2026-04-05T06:44:20.997Z</time></trkpt><trkpt lat="46.04729220328332" lon="12.066843321643173"><ele>312.0</ele><time>2026-04-05T06:44:21.997Z</time></trkpt><trkpt lat="46.04720663615676" lon="12.066904586543245"><ele>312.8333333333333</ele><time>2026-04-05T06:44:22.997Z</time></trkpt><trkpt lat="46.047129932518864" lon="12.066958937822745"><ele>313.6666666666667</ele><time>2026-04-05T06:44:23.997Z</time></trkpt><trkpt lat="46.04706277330563" lon="12.067010945764594"><ele>314.5</ele><time>2026-04-05T06:44:24.997Z</time></trkpt><trkpt lat="46.04698644919102" lon="12.06707263782253"><ele>315.33333333333337</ele><time>2026-04-05T06:44:25.997Z</time></trkpt><trkpt lat="46.04691209247903" lon="12.067138893216285"><ele>316.1666666666667</ele><time>2026-04-05T06:44:26.997Z</time></trkpt><trkpt lat="46.04684355252375" lon="12.067192031515301"><ele>317.0</ele><time>2026-04-05T06:44:27.997Z</time></trkpt><trkpt lat="46.046772449192716" lon="12.067250153617245"><ele>317.0</ele><time>2026-04-05T06:44:28.997Z</time></trkpt><trkpt lat="46.04669768948353" lon="12.067304926644704"><ele>317.0</ele><time>2026-04-05T06:44:29.997Z</time></trkpt><trkpt lat="46.046629628764656" lon="12.067356847582046"><ele>317.0</ele><time>2026-04-05T06:44:30.997Z</time></trkpt><trkpt lat="46.0465621453306" lon="12.067425695693352"><ele>317.0</ele><time>2026-04-05T06:44:31.997Z</time></trkpt><trkpt lat="46.04649872413343" lon="12.067516426912015"><ele>317.0</ele><time>2026-04-05T06:44:32.997Z</time></trkpt><trkpt lat="46.04643054446234" lon="12.06760715440795"><ele>317.0</ele><time>2026-04-05T06:44:33.997Z</time></trkpt><trkpt lat="46.04636876954588" lon="12.067678017639135"><ele>317.2</ele><time>2026-04-05T06:44:34.997Z</time></trkpt><trkpt lat="46.046284201318855" lon="12.067754683563251"><ele>317.4</ele><time>2026-04-05T06:44:35.997Z</time></trkpt><trkpt lat="46.04619826868946" lon="12.067833432468285"><ele>317.6</ele><time>2026-04-05T06:44:36.997Z</time></trkpt><trkpt lat="46.04611403585263" lon="12.067891162765438"><ele>317.8</ele><time>2026-04-05T06:44:37.997Z</time></trkpt><trkpt lat="46.04603287545604" lon="12.06795251126993"><ele>318.0</ele><time>2026-04-05T06:44:38.997Z</time></trkpt><trkpt lat="46.04594770105143" lon="12.068008716764707"><ele>318.0</ele><time>2026-04-05T06:44:39.997Z</time></trkpt><trkpt lat="46.04586909708893" lon="12.068054053312236"><ele>318.0</ele><time>2026-04-05T06:44:40.997Z</time></trkpt><trkpt lat="46.04580636557482" lon="12.068109783672883"><ele>318.0</ele><time>2026-04-05T06:44:41.997Z</time></trkpt><trkpt lat="46.045738922144636" lon="12.068152262881657"><ele>318.0</ele><time>2026-04-05T06:44:42.997Z</time></trkpt><trkpt lat="46.045658679782655" lon="12.068175833601611"><ele>318.0</ele><time>2026-04-05T06:44:43.997Z</time></trkpt><trkpt lat="46.04558774187576" lon="12.068177312474567"><ele>318.0</ele><time>2026-04-05T06:44:44.996Z</time></trkpt><trkpt lat="46.04552409095116" lon="12.068167779140234"><ele>318.0</ele><time>2026-04-05T06:44:45.996Z</time></trkpt><trkpt lat="46.04546758025687" lon="12.068123010502097"><ele>318.3333333333333</ele><time>2026-04-05T06:44:46.996Z</time></trkpt><trkpt lat="46.04540532277563" lon="12.068105980082978"><ele>318.6666666666667</ele><time>2026-04-05T06:44:47.996Z</time></trkpt><trkpt lat="46.0453214916934" lon="12.06809409693916"><ele>319.0</ele><time>2026-04-05T06:44:48.996Z</time></trkpt><trkpt lat="46.04523476722833" lon="12.068104598890558"><ele>319.33333333333337</ele><time>2026-04-05T06:44:49.996Z</time></trkpt><trkpt lat="46.045162567852685" lon="12.068117426873982"><ele>319.6666666666667</ele><time>2026-04-05T06:44:50.996Z</time></trkpt><trkpt lat="46.04507636621549" lon="12.068136397066061"><ele>320.0</ele><time>2026-04-05T06:44:51.996Z</time></trkpt><trkpt lat="46.04499123234645" lon="12.068147789755798"><ele>323.83333333333337</ele><time>2026-04-05T06:44:52.996Z</time></trkpt><trkpt lat="46.04490614743564" lon="12.068155425482843"><ele>327.6666666666667</ele><time>2026-04-05T06:44:53.996Z</time></trkpt><trkpt lat="46.04481975013549" lon="12.068163948577247"><ele>331.5</ele><time>2026-04-05T06:44:54.996Z</time></trkpt><trkpt lat="46.04473913871722" lon="12.068166760584369"><ele>335.3333333333333</ele><time>2026-04-05T06:44:55.996Z</time></trkpt><trkpt lat="46.044665335221" lon="12.068157973520028"><ele>339.16666666666663</ele><time>2026-04-05T06:44:56.996Z</time></trkpt><trkpt lat="46.04459388204154" lon="12.068137287106046"><ele>343.0</ele><time>2026-04-05T06:44:57.996Z</time></trkpt><trkpt lat="46.04451666488741" lon="12.068107778773033"><ele>343.0</ele><time>2026-04-05T06:44:58.996Z</time></trkpt><trkpt lat="46.04443708210758" lon="12.068059255349139"><ele>343.0</ele><time>2026-04-05T06:44:59.996Z</time></trkpt><trkpt lat="46.04436356830629" lon="12.068017488470783"><ele>343.0</ele><time>2026-04-05T06:45:00.996Z</time></trkpt><trkpt lat="46.04428963684314" lon="12.067991808271795"><ele>343.0</ele><time>2026-04-05T06:45:01.996Z</time></trkpt><trkpt lat="46.04421985430656" lon="12.067998825367525"><ele>343.0</ele><time>2026-04-05T06:45:02.996Z</time></trkpt><trkpt lat="46.04410991783961" lon="12.068032734908508"><ele>343.0</ele><time>2026-04-05T06:45:04.996Z</time></trkpt><trkpt lat="46.04404509538736" lon="12.068115920033229"><ele>348.2</ele><time>2026-04-05T06:45:07.996Z</time></trkpt><trkpt lat="46.04398931139913" lon="12.068309236141646"><ele>353.4</ele><time>2026-04-05T06:45:09.996Z</time></trkpt><trkpt lat="46.04394019822739" lon="12.068414333853339"><ele>358.59999999999997</ele><time>2026-04-05T06:45:10.996Z</time></trkpt><trkpt lat="46.04390551377607" lon="12.068511157080604"><ele>363.79999999999995</ele><time>2026-04-05T06:45:11.998Z</time></trkpt><trkpt lat="46.04384370964694" lon="12.068618652510645"><ele>369.0</ele><time>2026-04-05T06:45:13.997Z</time></trkpt><trkpt lat="46.04378944605213" lon="12.06869378762502"><ele>369.0</ele><time>2026-04-05T06:45:34.997Z</time></trkpt><trkpt lat="46.04368447498378" lon="12.068792729502883"><ele>369.0</ele><time>2026-04-05T06:45:36.997Z</time></trkpt><trkpt lat="46.043623706928855" lon="12.068911887590486"><ele>369.0</ele><time>2026-04-05T06:45:38.997Z</time></trkpt><trkpt lat="46.043570700018954" lon="12.069033844195074"><ele>369.0</ele><time>2026-04-05T06:45:40.997Z</time></trkpt><trkpt lat="46.04353189688681" lon="12.069105508155923"><ele>369.0</ele><time>2026-04-05T06:45:41.997Z</time></trkpt><trkpt lat="46.04347769507178" lon="12.06921934428181"><ele>367.4</ele><time>2026-04-05T06:45:43.997Z</time></trkpt><trkpt lat="46.0434152828372" lon="12.069326163752605"><ele>365.79999999999995</ele><time>2026-04-05T06:45:45.997Z</time></trkpt><trkpt lat="46.043331297453356" lon="12.069399199990455"><ele>364.20000000000005</ele><time>2026-04-05T06:45:47.997Z</time></trkpt><trkpt lat="46.043263719312286" lon="12.069439683076347"><ele>362.6</ele><time>2026-04-05T06:45:49.997Z</time></trkpt><trkpt lat="46.043175732615374" lon="12.06952789398506"><ele>361.0</ele><time>2026-04-05T06:45:51.997Z</time></trkpt><trkpt lat="46.043116973732786" lon="12.06961758743521"><ele>364.4</ele><time>2026-04-05T06:45:53.997Z</time></trkpt><trkpt lat="46.04303702534688" lon="12.06972753346569"><ele>367.8</ele><time>2026-04-05T06:45:55.996Z</time></trkpt><trkpt lat="46.0429909823351" lon="12.069807919303953"><ele>371.2</ele><time>2026-04-05T06:45:56.996Z</time></trkpt><trkpt lat="46.04292809151345" lon="12.0699575499085"><ele>374.59999999999997</ele><time>2026-04-05T06:45:58.996Z</time></trkpt><trkpt lat="46.04284859192781" lon="12.070085720466993"><ele>378.0</ele><time>2026-04-05T06:46:00.996Z</time></trkpt><trkpt lat="46.04275633998738" lon="12.070216607136373"><ele>378.0</ele><time>2026-04-05T06:46:02.996Z</time></trkpt><trkpt lat="46.042664320933206" lon="12.070366657416587"><ele>378.0</ele><time>2026-04-05T06:46:04.996Z</time></trkpt><trkpt lat="46.04260687306754" lon="12.070430492863698"><ele>378.0</ele><time>2026-04-05T06:46:05.996Z</time></trkpt><trkpt lat="46.042524583994684" lon="12.070527480551384"><ele>378.0</ele><time>2026-04-05T06:46:07.996Z</time></trkpt><trkpt lat="46.04248012180938" lon="12.070601772851505"><ele>378.0</ele><time>2026-04-05T06:46:08.996Z</time></trkpt><trkpt lat="46.04243532311612" lon="12.070683704434986"><ele>379.2</ele><time>2026-04-05T06:46:09.996Z</time></trkpt><trkpt lat="46.04237351230392" lon="12.070765775239591"><ele>380.4</ele><time>2026-04-05T06:46:10.996Z</time></trkpt><trkpt lat="46.042298167117806" lon="12.070857736943395"><ele>381.59999999999997</ele><time>2026-04-05T06:46:11.996Z</time></trkpt><trkpt lat="46.04224578391361" lon="12.070923092502541"><ele>382.79999999999995</ele><time>2026-04-05T06:46:12.996Z</time></trkpt><trkpt lat="46.0421566980717" lon="12.071017075113078"><ele>384.0</ele><time>2026-04-05T06:46:14.996Z</time></trkpt><trkpt lat="46.042054592155964" lon="12.071120500287137"><ele>384.5</ele><time>2026-04-05T06:46:16.996Z</time></trkpt><trkpt lat="46.041979363889496" lon="12.071159439174291"><ele>385.0</ele><time>2026-04-05T06:46:17.996Z</time></trkpt><trkpt lat="46.04190351859445" lon="12.071207507725429"><ele>385.5</ele><time>2026-04-05T06:46:18.996Z</time></trkpt><trkpt lat="46.04184901838967" lon="12.071268560977416"><ele>386.0</ele><time>2026-04-05T06:46:19.996Z</time></trkpt><trkpt lat="46.0417699760228" lon="12.07131509317477"><ele>386.5</ele><time>2026-04-05T06:46:20.996Z</time></trkpt><trkpt lat="46.04170917784494" lon="12.071356243751035"><ele>387.0</ele><time>2026-04-05T06:46:21.996Z</time></trkpt><trkpt lat="46.041622908288076" lon="12.071413184294011"><ele>387.0</ele><time>2026-04-05T06:46:22.996Z</time></trkpt><trkpt lat="46.04153258203034" lon="12.071468219868397"><ele>387.0</ele><time>2026-04-05T06:46:24.996Z</time></trkpt><trkpt lat="46.041439923122184" lon="12.071530584703778"><ele>387.0</ele><time>2026-04-05T06:46:26.996Z</time></trkpt><trkpt lat="46.04137565497073" lon="12.071603402780468"><ele>387.0</ele><time>2026-04-05T06:46:28.996Z</time></trkpt><trkpt lat="46.041314583819506" lon="12.071665886965551"><ele>387.0</ele><time>2026-04-05T06:46:31.996Z</time></trkpt><trkpt lat="46.04126423305565" lon="12.071744359568223"><ele>387.0</ele><time>2026-04-05T06:46:33.996Z</time></trkpt><trkpt lat="46.04119182147932" lon="12.071857326404013"><ele>387.6666666666667</ele><time>2026-04-05T06:46:35.996Z</time></trkpt><trkpt lat="46.041139666445325" lon="12.071988656601132"><ele>388.33333333333337</ele><time>2026-04-05T06:46:37.996Z</time></trkpt><trkpt lat="46.04111366464951" lon="12.072129781389012"><ele>389.0</ele><time>2026-04-05T06:46:39.996Z</time></trkpt><trkpt lat="46.04111531766152" lon="12.072223989728407"><ele>389.6666666666667</ele><time>2026-04-05T06:46:41.996Z</time></trkpt><trkpt lat="46.04106996209029" lon="12.072333607578186"><ele>390.33333333333337</ele><time>2026-04-05T06:46:43.996Z</time></trkpt><trkpt lat="46.0410112984079" lon="12.072410359099457"><ele>391.0</ele><time>2026-04-05T06:46:45.996Z</time></trkpt><trkpt lat="46.04094696902198" lon="12.072443664055747"><ele>391.00000000000006</ele><time>2026-04-05T06:46:47.996Z</time></trkpt><trkpt lat="46.04086381007193" lon="12.07245192940818"><ele>391.0</ele><time>2026-04-05T06:46:49.995Z</time></trkpt><trkpt lat="46.04081859014255" lon="12.072379902557227"><ele>391.0</ele><time>2026-04-05T06:46:52.995Z</time></trkpt><trkpt lat="46.04084243461248" lon="12.072254825762442"><ele>391.0</ele><time>2026-04-05T06:46:54.995Z</time></trkpt><trkpt lat="46.04090222548926" lon="12.072095854417388"><ele>391.00000000000006</ele><time>2026-04-05T06:46:56.995Z</time></trkpt><trkpt lat="46.040930912009145" lon="12.071989735124586"><ele>391.0</ele><time>2026-04-05T06:46:57.995Z</time></trkpt><trkpt lat="46.040967376118225" lon="12.071853312974184"><ele>391.0</ele><time>2026-04-05T06:46:58.995Z</time></trkpt><trkpt lat="46.041001821945954" lon="12.071717323907912"><ele>391.0</ele><time>2026-04-05T06:46:59.995Z</time></trkpt><trkpt lat="46.04103756436609" lon="12.07158897281705"><ele>391.0</ele><time>2026-04-05T06:47:00.995Z</time></trkpt><trkpt lat="46.04107593216545" lon="12.071450604484498"><ele>391.0</ele><time>2026-04-05T06:47:01.995Z</time></trkpt><trkpt lat="46.04111803466683" lon="12.071291353318705"><ele>391.0</ele><time>2026-04-05T06:47:02.995Z</time></trkpt><trkpt lat="46.04116218515212" lon="12.071124603246266"><ele>390.0</ele><time>2026-04-05T06:47:03.995Z</time></trkpt><trkpt lat="46.04120846540326" lon="12.070955555532949"><ele>389.0</ele><time>2026-04-05T06:47:04.995Z</time></trkpt><trkpt lat="46.04124812508196" lon="12.070787872810202"><ele>388.0</ele><time>2026-04-05T06:47:05.995Z</time></trkpt><trkpt lat="46.04128526771194" lon="12.070619743387448"><ele>387.0</ele><time>2026-04-05T06:47:06.995Z</time></trkpt><trkpt lat="46.041313660672905" lon="12.070414965521536"><ele>386.0</ele><time>2026-04-05T06:47:07.995Z</time></trkpt><trkpt lat="46.04135992870578" lon="12.07019777125107"><ele>385.0</ele><time>2026-04-05T06:47:08.995Z</time></trkpt><trkpt lat="46.041405459325105" lon="12.069970540474054"><ele>384.0</ele><time>2026-04-05T06:47:09.995Z</time></trkpt><trkpt lat="46.04144384747782" lon="12.06972291923469"><ele>383.0</ele><time>2026-04-05T06:47:10.995Z</time></trkpt><trkpt lat="46.04149026362989" lon="12.069470945109087"><ele>382.0</ele><time>2026-04-05T06:47:11.995Z</time></trkpt><trkpt lat="46.041538040404156" lon="12.069210833721893"><ele>381.0</ele><time>2026-04-05T06:47:12.995Z</time></trkpt><trkpt lat="46.04157979108422" lon="12.068958569678491"><ele>380.3333333333333</ele><time>2026-04-05T06:47:13.995Z</time></trkpt><trkpt lat="46.041618317364964" lon="12.06872499951093"><ele>379.66666666666663</ele><time>2026-04-05T06:47:14.995Z</time></trkpt><trkpt lat="46.04166047107941" lon="12.068484511520866"><ele>379.0</ele><time>2026-04-05T06:47:15.995Z</time></trkpt><trkpt lat="46.04172036753353" lon="12.068242494283238"><ele>377.66666666666663</ele><time>2026-04-05T06:47:16.997Z</time></trkpt><trkpt lat="46.0417523418643" lon="12.067991994129846"><ele>376.3333333333333</ele><time>2026-04-05T06:47:17.997Z</time></trkpt><trkpt lat="46.041799932376975" lon="12.067744508265196"><ele>375.0</ele><time>2026-04-05T06:47:18.997Z</time></trkpt><trkpt lat="46.041850588343834" lon="12.067483892856066"><ele>374.6666666666667</ele><time>2026-04-05T06:47:19.997Z</time></trkpt><trkpt lat="46.04189750286713" lon="12.067251126933062"><ele>374.33333333333337</ele><time>2026-04-05T06:47:20.997Z</time></trkpt><trkpt lat="46.04195047498687" lon="12.067025602560694"><ele>374.0</ele><time>2026-04-05T06:47:21.997Z</time></trkpt><trkpt lat="46.042000969974865" lon="12.066811844705313"><ele>374.0</ele><time>2026-04-05T06:47:22.997Z</time></trkpt><trkpt lat="46.04205096771596" lon="12.066629807466047"><ele>374.0</ele><time>2026-04-05T06:47:23.997Z</time></trkpt><trkpt lat="46.04208689889691" lon="12.066485104956753"><ele>374.0</ele><time>2026-04-05T06:47:24.997Z</time></trkpt><trkpt lat="46.04211165578623" lon="12.066389239899442"><ele>374.0</ele><time>2026-04-05T06:47:25.997Z</time></trkpt><trkpt lat="46.04214417237293" lon="12.066271588961811"><ele>374.0</ele><time>2026-04-05T06:47:27.998Z</time></trkpt><trkpt lat="46.0420411055555" lon="12.06617056377558"><ele>373.6666666666667</ele><time>2026-04-05T06:47:29.998Z</time></trkpt><trkpt lat="46.04198387338524" lon="12.066122175355746"><ele>373.33333333333337</ele><time>2026-04-05T06:47:30.998Z</time></trkpt><trkpt lat="46.04191786549006" lon="12.066073689679524"><ele>373.0</ele><time>2026-04-05T06:47:31.998Z</time></trkpt><trkpt lat="46.04184705703879" lon="12.0660097622467"><ele>372.6666666666667</ele><time>2026-04-05T06:47:32.998Z</time></trkpt><trkpt lat="46.041770897962934" lon="12.065953443820742"><ele>372.3333333333333</ele><time>2026-04-05T06:47:33.998Z</time></trkpt><trkpt lat="46.041685168207316" lon="12.065871572709552"><ele>372.0</ele><time>2026-04-05T06:47:34.998Z</time></trkpt><trkpt lat="46.041588369751935" lon="12.065796769471481"><ele>371.3333333333333</ele><time>2026-04-05T06:47:35.998Z</time></trkpt><trkpt lat="46.04151223476215" lon="12.065738963669752"><ele>370.6666666666667</ele><time>2026-04-05T06:47:36.998Z</time></trkpt><trkpt lat="46.041426961248234" lon="12.065688447549242"><ele>370.0</ele><time>2026-04-05T06:47:37.998Z</time></trkpt><trkpt lat="46.04133910732509" lon="12.065686679071568"><ele>369.33333333333337</ele><time>2026-04-05T06:47:38.998Z</time></trkpt><trkpt lat="46.041265197238154" lon="12.06572204016262"><ele>368.6666666666667</ele><time>2026-04-05T06:47:39.998Z</time></trkpt><trkpt lat="46.04120399490505" lon="12.065745564961894"><ele>368.0</ele><time>2026-04-05T06:47:40.998Z</time></trkpt><trkpt lat="46.04112867858052" lon="12.065728512729507"><ele>368.0</ele><time>2026-04-05T06:47:41.998Z</time></trkpt><trkpt lat="46.041005814547745" lon="12.065664364419568"><ele>368.0</ele><time>2026-04-05T06:47:43.998Z</time></trkpt><trkpt lat="46.04091681040621" lon="12.065581316413118"><ele>368.0</ele><time>2026-04-05T06:47:45.998Z</time></trkpt><trkpt lat="46.04090479812096" lon="12.065479543569017"><ele>368.0</ele><time>2026-04-05T06:47:46.998Z</time></trkpt><trkpt lat="46.04088682295471" lon="12.065380266271076"><ele>368.0</ele><time>2026-04-05T06:47:47.998Z</time></trkpt><trkpt lat="46.04086238780054" lon="12.065281844679653"><ele>368.0</ele><time>2026-04-05T06:47:48.997Z</time></trkpt><trkpt lat="46.04082909236751" lon="12.065171584899748"><ele>368.0</ele><time>2026-04-05T06:47:49.997Z</time></trkpt><trkpt lat="46.04079929576883" lon="12.065058046790634"><ele>368.0</ele><time>2026-04-05T06:47:50.997Z</time></trkpt><trkpt lat="46.040764678882326" lon="12.064940220708209"><ele>368.0</ele><time>2026-04-05T06:47:51.997Z</time></trkpt><trkpt lat="46.04074612522552" lon="12.06482507901735"><ele>368.0</ele><time>2026-04-05T06:47:52.997Z</time></trkpt><trkpt lat="46.04071845571789" lon="12.06473173527489"><ele>368.0</ele><time>2026-04-05T06:47:53.997Z</time></trkpt><trkpt lat="46.0407260128632" lon="12.064581617301362"><ele>367.33333333333337</ele><time>2026-04-05T06:47:55.997Z</time></trkpt><trkpt lat="46.04074892040059" lon="12.064418103170807"><ele>366.6666666666667</ele><time>2026-04-05T06:47:57.997Z</time></trkpt><trkpt lat="46.040757945718916" lon="12.064313167564196"><ele>366.0</ele><time>2026-04-05T06:47:58.997Z</time></trkpt><trkpt lat="46.040774231987754" lon="12.064216969240709"><ele>365.3333333333333</ele><time>2026-04-05T06:47:59.997Z</time></trkpt><trkpt lat="46.040807980583935" lon="12.064122786335439"><ele>364.66666666666663</ele><time>2026-04-05T06:48:00.997Z</time></trkpt><trkpt lat="46.040855341647465" lon="12.064037029580202"><ele>364.0</ele><time>2026-04-05T06:48:01.997Z</time></trkpt><trkpt lat="46.04091006314908" lon="12.063966750703118"><ele>364.0</ele><time>2026-04-05T06:48:02.997Z</time></trkpt><trkpt lat="46.04096367719255" lon="12.063893442314445"><ele>364.0</ele><time>2026-04-05T06:48:04.997Z</time></trkpt><trkpt lat="46.04101722208542" lon="12.063816230927847"><ele>364.0</ele><time>2026-04-05T06:48:13.997Z</time></trkpt><trkpt lat="46.04109215704362" lon="12.063786353245286"><ele>364.0</ele><time>2026-04-05T06:48:15.997Z</time></trkpt><trkpt lat="46.04115737317654" lon="12.063768663176957"><ele>364.0</ele><time>2026-04-05T06:48:16.997Z</time></trkpt><trkpt lat="46.04125722772477" lon="12.063690325004986"><ele>364.0</ele><time>2026-04-05T06:48:18.997Z</time></trkpt><trkpt lat="46.041192120625375" lon="12.063497205771627"><ele>364.0</ele><time>2026-04-05T06:48:28.997Z</time></trkpt><trkpt lat="46.041130638908335" lon="12.063475433909481"><ele>364.0</ele><time>2026-04-05T06:48:29.997Z</time></trkpt><trkpt lat="46.041065763745" lon="12.063452460353583"><ele>364.0</ele><time>2026-04-05T06:48:30.997Z</time></trkpt><trkpt lat="46.04099206548858" lon="12.063426362437735"><ele>364.0</ele><time>2026-04-05T06:48:31.997Z</time></trkpt><trkpt lat="46.04090698094247" lon="12.063396232460413"><ele>364.0</ele><time>2026-04-05T06:48:32.997Z</time></trkpt><trkpt lat="46.04079901293392" lon="12.063362679383635"><ele>364.0</ele><time>2026-04-05T06:48:33.997Z</time></trkpt><trkpt lat="46.04069369915414" lon="12.063380976766645"><ele>366.8333333333333</ele><time>2026-04-05T06:48:34.997Z</time></trkpt><trkpt lat="46.04061428545251" lon="12.063344811536696"><ele>369.66666666666663</ele><time>2026-04-05T06:48:35.997Z</time></trkpt><trkpt lat="46.04055379109725" lon="12.063277253791602"><ele>372.5</ele><time>2026-04-05T06:48:36.997Z</time></trkpt><trkpt lat="46.04052230666988" lon="12.06318004590971"><ele>375.3333333333333</ele><time>2026-04-05T06:48:37.997Z</time></trkpt><trkpt lat="46.04051177052262" lon="12.063048772991683"><ele>378.1666666666667</ele><time>2026-04-05T06:48:38.997Z</time></trkpt><trkpt lat="46.04052812819556" lon="12.06292117714974"><ele>381.0</ele><time>2026-04-05T06:48:39.997Z</time></trkpt><trkpt lat="46.040556986994446" lon="12.062800995615778"><ele>381.3333333333333</ele><time>2026-04-05T06:48:40.997Z</time></trkpt><trkpt lat="46.04057839979331" lon="12.06270317055601"><ele>381.6666666666667</ele><time>2026-04-05T06:48:41.997Z</time></trkpt><trkpt lat="46.04057336381403" lon="12.062607764783412"><ele>382.0</ele><time>2026-04-05T06:48:42.996Z</time></trkpt><trkpt lat="46.04056187950038" lon="12.062503185612481"><ele>382.33333333333337</ele><time>2026-04-05T06:48:43.996Z</time></trkpt><trkpt lat="46.04054809354055" lon="12.062386698175397"><ele>382.6666666666667</ele><time>2026-04-05T06:48:44.996Z</time></trkpt><trkpt lat="46.0405268148529" lon="12.062266137674913"><ele>383.0</ele><time>2026-04-05T06:48:45.996Z</time></trkpt><trkpt lat="46.04048419120575" lon="12.062146254473015"><ele>383.33333333333337</ele><time>2026-04-05T06:48:46.996Z</time></trkpt><trkpt lat="46.04042684972708" lon="12.062026950136003"><ele>383.6666666666667</ele><time>2026-04-05T06:48:47.996Z</time></trkpt><trkpt lat="46.04037094786938" lon="12.06192822861274"><ele>384.0</ele><time>2026-04-05T06:48:48.996Z</time></trkpt><trkpt lat="46.040317287600686" lon="12.061863727405871"><ele>384.33333333333337</ele><time>2026-04-05T06:48:49.996Z</time></trkpt><trkpt lat="46.04025740600166" lon="12.061824161596618"><ele>384.6666666666667</ele><time>2026-04-05T06:48:50.996Z</time></trkpt><trkpt lat="46.040189758839176" lon="12.061834541504723"><ele>385.0</ele><time>2026-04-05T06:48:51.996Z</time></trkpt><trkpt lat="46.04012166906302" lon="12.061878751816145"><ele>385.00000000000006</ele><time>2026-04-05T06:48:52.996Z</time></trkpt><trkpt lat="46.04004705989374" lon="12.061940723837562"><ele>385.0</ele><time>2026-04-05T06:48:53.996Z</time></trkpt><trkpt lat="46.03997639644952" lon="12.062024716035445"><ele>385.0</ele><time>2026-04-05T06:48:54.996Z</time></trkpt><trkpt lat="46.039926654909664" lon="12.062132229633544"><ele>385.0</ele><time>2026-04-05T06:48:55.996Z</time></trkpt><trkpt lat="46.039895277477925" lon="12.062220105597873"><ele>385.00000000000006</ele><time>2026-04-05T06:48:56.996Z</time></trkpt><trkpt lat="46.03980599927032" lon="12.062260699967247"><ele>385.0</ele><time>2026-04-05T06:48:58.996Z</time></trkpt><trkpt lat="46.039742228925554" lon="12.06212635355511"><ele>389.00000000000006</ele><time>2026-04-05T06:49:00.996Z</time></trkpt><trkpt lat="46.039710461032605" lon="12.062013762696155"><ele>393.0</ele><time>2026-04-05T06:49:01.996Z</time></trkpt><trkpt lat="46.03968146997316" lon="12.061899004106397"><ele>397.0</ele><time>2026-04-05T06:49:02.996Z</time></trkpt><trkpt lat="46.03965339727993" lon="12.061790692294137"><ele>401.0</ele><time>2026-04-05T06:49:03.996Z</time></trkpt><trkpt lat="46.03962676033495" lon="12.061670855203365"><ele>405.00000000000006</ele><time>2026-04-05T06:49:04.996Z</time></trkpt><trkpt lat="46.0395993147171" lon="12.061571720642295"><ele>409.0</ele><time>2026-04-05T06:49:05.996Z</time></trkpt><trkpt lat="46.039561747577764" lon="12.061492465780779"><ele>409.00000000000006</ele><time>2026-04-05T06:49:06.996Z</time></trkpt><trkpt lat="46.03949696422915" lon="12.061410440216964"><ele>409.0</ele><time>2026-04-05T06:49:07.996Z</time></trkpt><trkpt lat="46.0394236322424" lon="12.061346582850522"><ele>409.0</ele><time>2026-04-05T06:49:08.996Z</time></trkpt><trkpt lat="46.03935179645559" lon="12.061299967167072"><ele>409.0</ele><time>2026-04-05T06:49:09.996Z</time></trkpt><trkpt lat="46.03926141632404" lon="12.06127615200336"><ele>409.00000000000006</ele><time>2026-04-05T06:49:10.996Z</time></trkpt><trkpt lat="46.039164807111824" lon="12.061269866738993"><ele>409.0</ele><time>2026-04-05T06:49:11.996Z</time></trkpt><trkpt lat="46.039066365831054" lon="12.06125514231832"><ele>412.33333333333337</ele><time>2026-04-05T06:49:12.996Z</time></trkpt><trkpt lat="46.03899611492437" lon="12.061247688581236"><ele>415.6666666666667</ele><time>2026-04-05T06:49:13.996Z</time></trkpt><trkpt lat="46.038932429906325" lon="12.061377116276738"><ele>419.0</ele><time>2026-04-05T06:49:17.996Z</time></trkpt><trkpt lat="46.0389059092223" lon="12.061483223974799"><ele>422.33333333333337</ele><time>2026-04-05T06:49:18.996Z</time></trkpt><trkpt lat="46.038872063220126" lon="12.061577808278358"><ele>425.6666666666667</ele><time>2026-04-05T06:49:19.996Z</time></trkpt><trkpt lat="46.03882944426202" lon="12.061671372759037"><ele>429.0</ele><time>2026-04-05T06:49:20.996Z</time></trkpt><trkpt lat="46.03879492508342" lon="12.06177289806651"><ele>429.0</ele><time>2026-04-05T06:49:21.996Z</time></trkpt><trkpt lat="46.0387768489946" lon="12.061879929197069"><ele>429.0</ele><time>2026-04-05T06:49:22.997Z</time></trkpt><trkpt lat="46.03874296630358" lon="12.061990927934595"><ele>429.0</ele><time>2026-04-05T06:49:23.997Z</time></trkpt><trkpt lat="46.038710908252256" lon="12.062077520623921"><ele>429.0</ele><time>2026-04-05T06:49:24.997Z</time></trkpt><trkpt lat="46.0386595810777" lon="12.062144198777304"><ele>429.0</ele><time>2026-04-05T06:49:25.997Z</time></trkpt><trkpt lat="46.03859231114461" lon="12.062192004841272"><ele>429.0</ele><time>2026-04-05T06:49:26.997Z</time></trkpt><trkpt lat="46.03850573867841" lon="12.062209381845326"><ele>429.0</ele><time>2026-04-05T06:49:27.997Z</time></trkpt><trkpt lat="46.038417456292855" lon="12.062207191493039"><ele>429.0</ele><time>2026-04-05T06:49:28.997Z</time></trkpt><trkpt lat="46.03834207911473" lon="12.06218952068725"><ele>429.0</ele><time>2026-04-05T06:49:29.997Z</time></trkpt><trkpt lat="46.03828195595688" lon="12.0621469897959"><ele>429.0</ele><time>2026-04-05T06:49:30.997Z</time></trkpt><trkpt lat="46.03821119499894" lon="12.062071940867547"><ele>429.0</ele><time>2026-04-05T06:49:31.997Z</time></trkpt><trkpt lat="46.03812152478397" lon="12.062039757006314"><ele>429.0</ele><time>2026-04-05T06:49:32.997Z</time></trkpt><trkpt lat="46.03801049888673" lon="12.062051584607792"><ele>431.6</ele><time>2026-04-05T06:49:33.997Z</time></trkpt><trkpt lat="46.037910558006665" lon="12.062103026242848"><ele>434.2</ele><time>2026-04-05T06:49:34.997Z</time></trkpt><trkpt lat="46.03780456130612" lon="12.062163868393421"><ele>436.80000000000007</ele><time>2026-04-05T06:49:35.997Z</time></trkpt><trkpt lat="46.03769867089831" lon="12.062230076453657"><ele>439.40000000000003</ele><time>2026-04-05T06:49:36.997Z</time></trkpt><trkpt lat="46.037603338047376" lon="12.062281259088412"><ele>442.0</ele><time>2026-04-05T06:49:37.997Z</time></trkpt><trkpt lat="46.037514207974624" lon="12.062321555444758"><ele>445.50000000000006</ele><time>2026-04-05T06:49:38.997Z</time></trkpt><trkpt lat="46.037435302636986" lon="12.062373365056477"><ele>449.0</ele><time>2026-04-05T06:49:39.997Z</time></trkpt><trkpt lat="46.03736776271196" lon="12.062409948041777"><ele>452.5</ele><time>2026-04-05T06:49:40.997Z</time></trkpt><trkpt lat="46.03730231222906" lon="12.06241457484669"><ele>456.0</ele><time>2026-04-05T06:49:41.997Z</time></trkpt><trkpt lat="46.03718220032832" lon="12.062342660961615"><ele>459.50000000000006</ele><time>2026-04-05T06:49:43.997Z</time></trkpt><trkpt lat="46.03712034427754" lon="12.062281689878645"><ele>463.0</ele><time>2026-04-05T06:49:44.997Z</time></trkpt><trkpt lat="46.03706226974328" lon="12.062162182658696"><ele>463.00000000000006</ele><time>2026-04-05T06:49:46.997Z</time></trkpt><trkpt lat="46.03706180924896" lon="12.061998241126668"><ele>463.0</ele><time>2026-04-05T06:49:48.997Z</time></trkpt><trkpt lat="46.03706482697174" lon="12.061904522637304"><ele>463.0</ele><time>2026-04-05T06:49:49.997Z</time></trkpt><trkpt lat="46.037074567616266" lon="12.06178640985302"><ele>463.0</ele><time>2026-04-05T06:49:50.997Z</time></trkpt><trkpt lat="46.03707479058831" lon="12.061645224523735"><ele>463.00000000000006</ele><time>2026-04-05T06:49:51.997Z</time></trkpt><trkpt lat="46.03708892473099" lon="12.061517231287443"><ele>463.0</ele><time>2026-04-05T06:49:52.997Z</time></trkpt><trkpt lat="46.03709655750988" lon="12.06138543912269"><ele>463.00000000000006</ele><time>2026-04-05T06:49:53.997Z</time></trkpt><trkpt lat="46.037106794399826" lon="12.061243444186829"><ele>463.0</ele><time>2026-04-05T06:49:54.997Z</time></trkpt><trkpt lat="46.03711603321592" lon="12.061114534827515"><ele>463.0</ele><time>2026-04-05T06:49:55.997Z</time></trkpt><trkpt lat="46.037128394031306" lon="12.06100917634916"><ele>463.0</ele><time>2026-04-05T06:49:56.997Z</time></trkpt><trkpt lat="46.03712479366983" lon="12.060913865999208"><ele>463.00000000000006</ele><time>2026-04-05T06:49:57.997Z</time></trkpt><trkpt lat="46.037123967558415" lon="12.060801004212927"><ele>463.0</ele><time>2026-04-05T06:49:58.997Z</time></trkpt><trkpt lat="46.03710858075793" lon="12.060681205710383"><ele>462.6666666666667</ele><time>2026-04-05T06:49:59.997Z</time></trkpt><trkpt lat="46.0370941032179" lon="12.060566378328113"><ele>462.33333333333337</ele><time>2026-04-05T06:50:00.996Z</time></trkpt><trkpt lat="46.03707199791648" lon="12.060443530913302"><ele>462.0</ele><time>2026-04-05T06:50:01.996Z</time></trkpt><trkpt lat="46.037056449878534" lon="12.060316181065287"><ele>461.66666666666663</ele><time>2026-04-05T06:50:02.996Z</time></trkpt><trkpt lat="46.037039437160615" lon="12.060184657500576"><ele>461.3333333333333</ele><time>2026-04-05T06:50:03.996Z</time></trkpt><trkpt lat="46.037014385639104" lon="12.060064977879149"><ele>461.0</ele><time>2026-04-05T06:50:04.996Z</time></trkpt><trkpt lat="46.03698742946813" lon="12.059931759132187"><ele>461.0</ele><time>2026-04-05T06:50:05.996Z</time></trkpt><trkpt lat="46.0369585422628" lon="12.059789565400656"><ele>461.0</ele><time>2026-04-05T06:50:06.996Z</time></trkpt><trkpt lat="46.036925060035465" lon="12.059663685038487"><ele>461.0</ele><time>2026-04-05T06:50:07.996Z</time></trkpt><trkpt lat="46.03688323209982" lon="12.059558436583272"><ele>461.0</ele><time>2026-04-05T06:50:08.996Z</time></trkpt><trkpt lat="46.036809800355186" lon="12.059465300280703"><ele>461.0</ele><time>2026-04-05T06:50:10.996Z</time></trkpt><trkpt lat="46.036717222164306" lon="12.059451343988533"><ele>464.49999999999994</ele><time>2026-04-05T06:50:13.996Z</time></trkpt><trkpt lat="46.036620254297695" lon="12.059477805325626"><ele>468.0</ele><time>2026-04-05T06:50:15.996Z</time></trkpt><trkpt lat="46.03654794521128" lon="12.059507617985522"><ele>471.5</ele><time>2026-04-05T06:50:16.996Z</time></trkpt><trkpt lat="46.036472768706545" lon="12.059539359818368"><ele>475.0</ele><time>2026-04-05T06:50:17.996Z</time></trkpt><trkpt lat="46.03639353858963" lon="12.059577356548175"><ele>478.49999999999994</ele><time>2026-04-05T06:50:18.996Z</time></trkpt><trkpt lat="46.036285813543216" lon="12.059610032232685"><ele>482.0</ele><time>2026-04-05T06:50:19.996Z</time></trkpt><trkpt lat="46.03618445071828" lon="12.059622372097575"><ele>481.99999999999994</ele><time>2026-04-05T06:50:20.996Z</time></trkpt><trkpt lat="46.036090233958504" lon="12.059597749474568"><ele>482.0</ele><time>2026-04-05T06:50:21.996Z</time></trkpt><trkpt lat="46.0360189494816" lon="12.059573361970898"><ele>482.0</ele><time>2026-04-05T06:50:22.996Z</time></trkpt><trkpt lat="46.03593025988393" lon="12.05954348272566"><ele>482.0</ele><time>2026-04-05T06:50:24.996Z</time></trkpt><trkpt lat="46.03585602461598" lon="12.059512792658532"><ele>481.99999999999994</ele><time>2026-04-05T06:50:26.996Z</time></trkpt><trkpt lat="46.03578074866679" lon="12.059478190156602"><ele>482.0</ele><time>2026-04-05T06:50:28.996Z</time></trkpt><trkpt lat="46.035660667243086" lon="12.059522510199331"><ele>485.66666666666663</ele><time>2026-04-05T06:50:30.996Z</time></trkpt><trkpt lat="46.03559590177584" lon="12.059549885979768"><ele>489.3333333333333</ele><time>2026-04-05T06:50:31.996Z</time></trkpt><trkpt lat="46.03552139033215" lon="12.05961151765911"><ele>493.0</ele><time>2026-04-05T06:50:32.996Z</time></trkpt><trkpt lat="46.03545695325498" lon="12.059655961823045"><ele>496.66666666666663</ele><time>2026-04-05T06:50:33.996Z</time></trkpt><trkpt lat="46.03539351525905" lon="12.059697489262959"><ele>500.3333333333333</ele><time>2026-04-05T06:50:34.996Z</time></trkpt><trkpt lat="46.035322684435485" lon="12.059744967946287"><ele>504.0</ele><time>2026-04-05T06:50:35.996Z</time></trkpt><trkpt lat="46.03524209059035" lon="12.059796416477731"><ele>504.0</ele><time>2026-04-05T06:50:36.996Z</time></trkpt><trkpt lat="46.035174112110106" lon="12.059839794737412"><ele>504.0</ele><time>2026-04-05T06:50:37.996Z</time></trkpt><trkpt lat="46.03511428269157" lon="12.059884543292334"><ele>504.0</ele><time>2026-04-05T06:50:38.996Z</time></trkpt><trkpt lat="46.03504968688614" lon="12.059973742462837"><ele>504.0</ele><time>2026-04-05T06:50:40.996Z</time></trkpt><trkpt lat="46.035008148730846" lon="12.060045181583165"><ele>504.0</ele><time>2026-04-05T06:50:42.996Z</time></trkpt><trkpt lat="46.034944630946725" lon="12.060212443900411"><ele>504.0</ele><time>2026-04-05T06:50:44.996Z</time></trkpt><trkpt lat="46.03491842078919" lon="12.060334109589121"><ele>507.6</ele><time>2026-04-05T06:50:45.996Z</time></trkpt><trkpt lat="46.03490064462158" lon="12.060471219671836"><ele>511.2</ele><time>2026-04-05T06:50:46.996Z</time></trkpt><trkpt lat="46.03487536729706" lon="12.060632548866069"><ele>514.8000000000001</ele><time>2026-04-05T06:50:47.996Z</time></trkpt><trkpt lat="46.034859136933186" lon="12.060797320625133"><ele>518.4</ele><time>2026-04-05T06:50:48.996Z</time></trkpt><trkpt lat="46.03485220459282" lon="12.060934765635217"><ele>522.0</ele><time>2026-04-05T06:50:49.996Z</time></trkpt><trkpt lat="46.034841347049344" lon="12.061087425570216"><ele>522.4</ele><time>2026-04-05T06:50:50.996Z</time></trkpt><trkpt lat="46.034840819895045" lon="12.061244962452713"><ele>522.8000000000001</ele><time>2026-04-05T06:50:51.996Z</time></trkpt><trkpt lat="46.034842330677954" lon="12.061399234571455"><ele>523.2</ele><time>2026-04-05T06:50:52.996Z</time></trkpt><trkpt lat="46.03483021038088" lon="12.061539534067306"><ele>523.6</ele><time>2026-04-05T06:50:53.996Z</time></trkpt><trkpt lat="46.0348261471652" lon="12.061662296351022"><ele>524.0</ele><time>2026-04-05T06:50:54.995Z</time></trkpt><trkpt lat="46.03478999206269" lon="12.061790014686837"><ele>524.0</ele><time>2026-04-05T06:50:55.995Z</time></trkpt><trkpt lat="46.03473216313995" lon="12.06189643971544"><ele>524.0</ele><time>2026-04-05T06:50:56.995Z</time></trkpt><trkpt lat="46.03466447346055" lon="12.061978966878351"><ele>524.0</ele><time>2026-04-05T06:50:57.995Z</time></trkpt><trkpt lat="46.0345832403594" lon="12.062048892172015"><ele>524.0</ele><time>2026-04-05T06:50:58.995Z</time></trkpt><trkpt lat="46.034486568047704" lon="12.062095724477567"><ele>524.0</ele><time>2026-04-05T06:50:59.995Z</time></trkpt><trkpt lat="46.034386323370725" lon="12.062114967345071"><ele>524.0</ele><time>2026-04-05T06:51:00.995Z</time></trkpt><trkpt lat="46.03428671679714" lon="12.062151631300956"><ele>524.0</ele><time>2026-04-05T06:51:01.995Z</time></trkpt><trkpt lat="46.034206803878384" lon="12.062176904034033"><ele>524.0</ele><time>2026-04-05T06:51:02.995Z</time></trkpt><trkpt lat="46.034135049076596" lon="12.06219659936669"><ele>524.0</ele><time>2026-04-05T06:51:03.995Z</time></trkpt><trkpt lat="46.03407000665991" lon="12.062221782110786"><ele>524.0</ele><time>2026-04-05T06:51:04.995Z</time></trkpt><trkpt lat="46.0339984260374" lon="12.06216562941895"><ele>524.0</ele><time>2026-04-05T06:51:05.995Z</time></trkpt><trkpt lat="46.0339197017699" lon="12.062107184624494"><ele>525.8</ele><time>2026-04-05T06:51:06.995Z</time></trkpt><trkpt lat="46.03382540533439" lon="12.062062683242617"><ele>527.5999999999999</ele><time>2026-04-05T06:51:07.995Z</time></trkpt><trkpt lat="46.03374233055612" lon="12.061997057335201"><ele>529.4</ele><time>2026-04-05T06:51:08.995Z</time></trkpt><trkpt lat="46.03365594198146" lon="12.061938148694056"><ele>531.1999999999999</ele><time>2026-04-05T06:51:09.995Z</time></trkpt><trkpt lat="46.03356826604601" lon="12.061897006796565"><ele>533.0</ele><time>2026-04-05T06:51:10.995Z</time></trkpt><trkpt lat="46.03346039343209" lon="12.06184947822572"><ele>533.0</ele><time>2026-04-05T06:51:11.995Z</time></trkpt><trkpt lat="46.03332244733803" lon="12.061792840477048"><ele>533.0</ele><time>2026-04-05T06:51:12.995Z</time></trkpt><trkpt lat="46.033151292153164" lon="12.061725572803025"><ele>533.0</ele><time>2026-04-05T06:51:13.995Z</time></trkpt><trkpt lat="46.03297913280858" lon="12.061663548584551"><ele>535.3333333333333</ele><time>2026-04-05T06:51:14.995Z</time></trkpt><trkpt lat="46.03281474600855" lon="12.06161135917829"><ele>537.6666666666666</ele><time>2026-04-05T06:51:15.995Z</time></trkpt><trkpt lat="46.0326610305985" lon="12.061554222353706"><ele>540.0</ele><time>2026-04-05T06:51:16.995Z</time></trkpt><trkpt lat="46.03250090738684" lon="12.061495595790882"><ele>539.0</ele><time>2026-04-05T06:51:17.995Z</time></trkpt><trkpt lat="46.03235678080698" lon="12.061433049505279"><ele>538.0</ele><time>2026-04-05T06:51:18.995Z</time></trkpt><trkpt lat="46.03222499308255" lon="12.061384244494434"><ele>537.0</ele><time>2026-04-05T06:51:19.995Z</time></trkpt><trkpt lat="46.032111146635145" lon="12.06135158927835"><ele>536.0</ele><time>2026-04-05T06:51:20.995Z</time></trkpt><trkpt lat="46.03200828247632" lon="12.06134543599108"><ele>536.0</ele><time>2026-04-05T06:51:21.995Z</time></trkpt><trkpt lat="46.03191626834138" lon="12.06135620450869"><ele>536.0</ele><time>2026-04-05T06:51:22.995Z</time></trkpt><trkpt lat="46.031832922558905" lon="12.061377168183457"><ele>536.0</ele><time>2026-04-05T06:51:23.995Z</time></trkpt><trkpt lat="46.03175152371497" lon="12.061412165219766"><ele>536.0</ele><time>2026-04-05T06:51:24.995Z</time></trkpt><trkpt lat="46.031697070227374" lon="12.061461738164303"><ele>536.0</ele><time>2026-04-05T06:51:25.995Z</time></trkpt><trkpt lat="46.03164688345497" lon="12.061523578226167"><ele>536.0</ele><time>2026-04-05T06:51:26.995Z</time></trkpt><trkpt lat="46.03156315351034" lon="12.061594426223934"><ele>537.4</ele><time>2026-04-05T06:51:28.997Z</time></trkpt><trkpt lat="46.03149844878146" lon="12.06157533170227"><ele>538.8</ele><time>2026-04-05T06:51:29.996Z</time></trkpt><trkpt lat="46.03136289858034" lon="12.061594278438934"><ele>540.1999999999999</ele><time>2026-04-05T06:51:31.997Z</time></trkpt><trkpt lat="46.03129344857942" lon="12.061530388030448"><ele>541.6</ele><time>2026-04-05T06:51:32.997Z</time></trkpt><trkpt lat="46.031225208228456" lon="12.061468087463693"><ele>543.0</ele><time>2026-04-05T06:51:33.997Z</time></trkpt><trkpt lat="46.03114736189859" lon="12.061410328796976"><ele>543.0</ele><time>2026-04-05T06:51:34.996Z</time></trkpt><trkpt lat="46.0310726816453" lon="12.061321455403665"><ele>543.0</ele><time>2026-04-05T06:51:35.997Z</time></trkpt><trkpt lat="46.03098744938982" lon="12.06121968392104"><ele>543.0</ele><time>2026-04-05T06:51:36.997Z</time></trkpt><trkpt lat="46.03088978331498" lon="12.06109161665634"><ele>543.0</ele><time>2026-04-05T06:51:37.997Z</time></trkpt><trkpt lat="46.03079338249742" lon="12.060958752158959"><ele>547.0</ele><time>2026-04-05T06:51:38.997Z</time></trkpt><trkpt lat="46.030712078474615" lon="12.060832260802755"><ele>551.0</ele><time>2026-04-05T06:51:39.997Z</time></trkpt><trkpt lat="46.03063828095158" lon="12.060699986571029"><ele>555.0</ele><time>2026-04-05T06:51:40.997Z</time></trkpt><trkpt lat="46.03055061276776" lon="12.060570558823777"><ele>559.0</ele><time>2026-04-05T06:51:41.996Z</time></trkpt><trkpt lat="46.03046796397791" lon="12.060454996225355"><ele>559.0</ele><time>2026-04-05T06:51:42.996Z</time></trkpt><trkpt lat="46.03038995306658" lon="12.060320155372374"><ele>559.0</ele><time>2026-04-05T06:51:43.996Z</time></trkpt><trkpt lat="46.03029225726942" lon="12.0602026043169"><ele>559.0</ele><time>2026-04-05T06:51:44.996Z</time></trkpt><trkpt lat="46.03017673902825" lon="12.060100014023638"><ele>559.0</ele><time>2026-04-05T06:51:45.996Z</time></trkpt><trkpt lat="46.030093754266595" lon="12.059959973608091"><ele>558.0</ele><time>2026-04-05T06:51:46.996Z</time></trkpt><trkpt lat="46.02999902452318" lon="12.059809835753947"><ele>557.0</ele><time>2026-04-05T06:51:47.996Z</time></trkpt><trkpt lat="46.029901709052126" lon="12.059640261670213"><ele>556.0</ele><time>2026-04-05T06:51:48.996Z</time></trkpt><trkpt lat="46.0297987389896" lon="12.059460340817582"><ele>561.5</ele><time>2026-04-05T06:51:49.996Z</time></trkpt><trkpt lat="46.02969198777958" lon="12.059312026656954"><ele>567.0</ele><time>2026-04-05T06:51:50.996Z</time></trkpt><trkpt lat="46.029628232294165" lon="12.059138261993246"><ele>572.5</ele><time>2026-04-05T06:51:51.996Z</time></trkpt><trkpt lat="46.02955957041218" lon="12.058995897847181"><ele>578.0</ele><time>2026-04-05T06:51:52.996Z</time></trkpt><trkpt lat="46.02948720264019" lon="12.058869700884907"><ele>578.0</ele><time>2026-04-05T06:51:53.996Z</time></trkpt><trkpt lat="46.029423803359144" lon="12.058733988125438"><ele>578.0</ele><time>2026-04-05T06:51:54.996Z</time></trkpt><trkpt lat="46.02935922623488" lon="12.058606855246286"><ele>578.0</ele><time>2026-04-05T06:51:55.996Z</time></trkpt><trkpt lat="46.029313044745265" lon="12.0584836799288"><ele>578.0</ele><time>2026-04-05T06:51:56.996Z</time></trkpt><trkpt lat="46.029295028439236" lon="12.058360165084604"><ele>578.0</ele><time>2026-04-05T06:51:57.996Z</time></trkpt><trkpt lat="46.02925362718786" lon="12.058233055643385"><ele>577.1999999999999</ele><time>2026-04-05T06:51:58.996Z</time></trkpt><trkpt lat="46.02921973957942" lon="12.05810135787424"><ele>576.4</ele><time>2026-04-05T06:51:59.996Z</time></trkpt><trkpt lat="46.029189063432824" lon="12.057960924237527"><ele>575.5999999999999</ele><time>2026-04-05T06:52:00.996Z</time></trkpt><trkpt lat="46.02915651560266" lon="12.05782347933575"><ele>574.8</ele><time>2026-04-05T06:52:01.996Z</time></trkpt><trkpt lat="46.02909788456721" lon="12.05768958497918"><ele>574.0</ele><time>2026-04-05T06:52:02.996Z</time></trkpt><trkpt lat="46.02904338279905" lon="12.057541141963622"><ele>575.0</ele><time>2026-04-05T06:52:03.996Z</time></trkpt><trkpt lat="46.02897984446088" lon="12.057407443013513"><ele>576.0</ele><time>2026-04-05T06:52:04.996Z</time></trkpt><trkpt lat="46.028902179771634" lon="12.057265661455247"><ele>577.0</ele><time>2026-04-05T06:52:05.996Z</time></trkpt><trkpt lat="46.02882057497311" lon="12.057128494320235"><ele>578.0</ele><time>2026-04-05T06:52:06.996Z</time></trkpt><trkpt lat="46.028750933768805" lon="12.057016197865366"><ele>578.0</ele><time>2026-04-05T06:52:07.996Z</time></trkpt><trkpt lat="46.02868377819653" lon="12.056933012916275"><ele>578.0</ele><time>2026-04-05T06:52:08.996Z</time></trkpt><trkpt lat="46.02862990672241" lon="12.056861644060715"><ele>578.0</ele><time>2026-04-05T06:52:09.996Z</time></trkpt><trkpt lat="46.028553884143975" lon="12.056798701088292"><ele>578.0</ele><time>2026-04-05T06:52:11.996Z</time></trkpt><trkpt lat="46.02848372420344" lon="12.056783440668529"><ele>578.0</ele><time>2026-04-05T06:52:13.996Z</time></trkpt><trkpt lat="46.02841792715245" lon="12.056818337778765"><ele>578.0</ele><time>2026-04-05T06:52:43.995Z</time></trkpt><trkpt lat="46.02842447690273" lon="12.056952138857573"><ele>578.0</ele><time>2026-04-05T06:52:44.995Z</time></trkpt><trkpt lat="46.02847189174683" lon="12.057103447811114"><ele>578.0</ele><time>2026-04-05T06:52:46.995Z</time></trkpt><trkpt lat="46.02847490995308" lon="12.057195591024907"><ele>578.0</ele><time>2026-04-05T06:52:49.995Z</time></trkpt><trkpt lat="46.02848366585186" lon="12.057312579227032"><ele>578.0</ele><time>2026-04-05T06:52:52.995Z</time></trkpt><trkpt lat="46.02849147058192" lon="12.057403038517982"><ele>578.0</ele><time>2026-04-05T06:52:54.995Z</time></trkpt><trkpt lat="46.02849712682212" lon="12.057536836863951"><ele>578.0</ele><time>2026-04-05T06:52:57.995Z</time></trkpt><trkpt lat="46.02851385413177" lon="12.057629399759282"><ele>580.6</ele><time>2026-04-05T06:52:59.995Z</time></trkpt><trkpt lat="46.028526638795974" lon="12.05777499280451"><ele>583.1999999999999</ele><time>2026-04-05T06:53:02.995Z</time></trkpt><trkpt lat="46.02854780797079" lon="12.057880654040128"><ele>585.8</ele><time>2026-04-05T06:53:04.995Z</time></trkpt><trkpt lat="46.028570517012724" lon="12.058007036877207"><ele>588.4</ele><time>2026-04-05T06:53:07.995Z</time></trkpt><trkpt lat="46.02857587211423" lon="12.058154638730723"><ele>591.0</ele><time>2026-04-05T06:53:09.995Z</time></trkpt><trkpt lat="46.028582192392946" lon="12.058282183696091"><ele>592.0</ele><time>2026-04-05T06:53:11.995Z</time></trkpt><trkpt lat="46.028616333149216" lon="12.058391693329371"><ele>593.0</ele><time>2026-04-05T06:53:13.995Z</time></trkpt><trkpt lat="46.02864173363842" lon="12.058490359318816"><ele>594.0</ele><time>2026-04-05T06:53:14.995Z</time></trkpt><trkpt lat="46.028668855428364" lon="12.058589115840565"><ele>595.0</ele><time>2026-04-05T06:53:15.995Z</time></trkpt><trkpt lat="46.02869833384318" lon="12.058684014147797"><ele>596.0</ele><time>2026-04-05T06:53:16.995Z</time></trkpt><trkpt lat="46.02872057544736" lon="12.05877284059695"><ele>597.0</ele><time>2026-04-05T06:53:17.995Z</time></trkpt><trkpt lat="46.02875837255061" lon="12.058905542162092"><ele>597.0</ele><time>2026-04-05T06:53:19.995Z</time></trkpt><trkpt lat="46.02880881196422" lon="12.059025686642183"><ele>597.0</ele><time>2026-04-05T06:53:21.995Z</time></trkpt><trkpt lat="46.028818179548416" lon="12.05912090184256"><ele>597.0</ele><time>2026-04-05T06:53:23.995Z</time></trkpt><trkpt lat="46.028824116909284" lon="12.059230700810108"><ele>597.0</ele><time>2026-04-05T06:57:00.995Z</time></trkpt><trkpt lat="46.02881208151006" lon="12.059127693718276"><ele>597.0</ele><time>2026-04-05T06:57:37.994Z</time></trkpt><trkpt lat="46.02877150421258" lon="12.058993757086625"><ele>597.0</ele><time>2026-04-05T06:57:39.994Z</time></trkpt><trkpt lat="46.028742182422555" lon="12.058904920920963"><ele>597.0</ele><time>2026-04-05T06:57:40.994Z</time></trkpt><trkpt lat="46.02868403169544" lon="12.05873618328131"><ele>597.0</ele><time>2026-04-05T06:57:42.994Z</time></trkpt><trkpt lat="46.028660751799414" lon="12.058622564318334"><ele>597.0</ele><time>2026-04-05T06:57:43.994Z</time></trkpt><trkpt lat="46.02863646337514" lon="12.058533898101537"><ele>597.0</ele><time>2026-04-05T06:57:44.996Z</time></trkpt><trkpt lat="46.02858289538643" lon="12.058349606437144"><ele>597.0</ele><time>2026-04-05T06:57:46.997Z</time></trkpt><trkpt lat="46.02858196474053" lon="12.05816774310707"><ele>596.0</ele><time>2026-04-05T06:57:48.996Z</time></trkpt><trkpt lat="46.02857906651137" lon="12.058075657477852"><ele>595.0</ele><time>2026-04-05T06:57:49.996Z</time></trkpt><trkpt lat="46.02857336525541" lon="12.057979878842318"><ele>594.0</ele><time>2026-04-05T06:57:50.996Z</time></trkpt><trkpt lat="46.02855272293787" lon="12.057807615403458"><ele>593.0</ele><time>2026-04-05T06:57:52.996Z</time></trkpt><trkpt lat="46.028528357663824" lon="12.057680836685464"><ele>592.0</ele><time>2026-04-05T06:57:53.997Z</time></trkpt><trkpt lat="46.02851748412962" lon="12.057566116580832"><ele>591.0</ele><time>2026-04-05T06:57:54.997Z</time></trkpt><trkpt lat="46.02850878217606" lon="12.057465206194935"><ele>588.8333333333334</ele><time>2026-04-05T06:57:55.997Z</time></trkpt><trkpt lat="46.02849397899126" lon="12.057321295823154"><ele>586.6666666666666</ele><time>2026-04-05T06:57:57.996Z</time></trkpt><trkpt lat="46.02850365340347" lon="12.057209844104435"><ele>584.5</ele><time>2026-04-05T06:57:59.996Z</time></trkpt><trkpt lat="46.02847985520482" lon="12.057098872412341"><ele>582.3333333333333</ele><time>2026-04-05T06:58:01.996Z</time></trkpt><trkpt lat="46.0284689686137" lon="12.056979771066118"><ele>580.1666666666666</ele><time>2026-04-05T06:58:04.996Z</time></trkpt><trkpt lat="46.02839276711681" lon="12.056937221330806"><ele>578.0</ele><time>2026-04-05T06:58:10.996Z</time></trkpt><trkpt lat="46.028316928109774" lon="12.05700409933266"><ele>581.0</ele><time>2026-04-05T06:58:12.996Z</time></trkpt><trkpt lat="46.02826170683055" lon="12.057047860907646"><ele>584.0</ele><time>2026-04-05T06:58:13.996Z</time></trkpt><trkpt lat="46.02820610887017" lon="12.05709633202584"><ele>587.0</ele><time>2026-04-05T06:58:14.996Z</time></trkpt><trkpt lat="46.02813102147331" lon="12.05708057221053"><ele>590.0</ele><time>2026-04-05T06:58:15.996Z</time></trkpt><trkpt lat="46.028022756539976" lon="12.05712944196326"><ele>593.0</ele><time>2026-04-05T06:58:17.995Z</time></trkpt><trkpt lat="46.02798777542994" lon="12.05720601752837"><ele>596.0</ele><time>2026-04-05T06:58:18.995Z</time></trkpt><trkpt lat="46.02791986299933" lon="12.057253654347386"><ele>596.0</ele><time>2026-04-05T06:58:20.995Z</time></trkpt><trkpt lat="46.02782710120101" lon="12.057199718265773"><ele>596.0</ele><time>2026-04-05T06:58:23.995Z</time></trkpt><trkpt lat="46.027776867642224" lon="12.05706193930938"><ele>596.0</ele><time>2026-04-05T06:58:25.995Z</time></trkpt><trkpt lat="46.02776806425666" lon="12.056855884454698"><ele>596.0</ele><time>2026-04-05T06:58:27.995Z</time></trkpt><trkpt lat="46.02775433198687" lon="12.056731011769738"><ele>596.0</ele><time>2026-04-05T06:58:28.995Z</time></trkpt><trkpt lat="46.027740605094685" lon="12.056632359498675"><ele>591.8</ele><time>2026-04-05T06:58:29.995Z</time></trkpt><trkpt lat="46.0276916545024" lon="12.056477824919414"><ele>587.6</ele><time>2026-04-05T06:58:31.995Z</time></trkpt><trkpt lat="46.02764277665035" lon="12.056372975285601"><ele>583.4</ele><time>2026-04-05T06:58:32.995Z</time></trkpt><trkpt lat="46.02758666125638" lon="12.056287246454437"><ele>579.2</ele><time>2026-04-05T06:58:33.995Z</time></trkpt><trkpt lat="46.027473230568596" lon="12.056196461773423"><ele>575.0</ele><time>2026-04-05T06:58:35.995Z</time></trkpt><trkpt lat="46.02739641585921" lon="12.056146970114279"><ele>574.6666666666666</ele><time>2026-04-05T06:58:36.995Z</time></trkpt><trkpt lat="46.027303360340454" lon="12.056084711302248"><ele>574.3333333333333</ele><time>2026-04-05T06:58:37.995Z</time></trkpt><trkpt lat="46.02720860328363" lon="12.05605485010451"><ele>574.0</ele><time>2026-04-05T06:58:38.995Z</time></trkpt><trkpt lat="46.02713091654278" lon="12.056023086067603"><ele>573.6666666666666</ele><time>2026-04-05T06:58:39.995Z</time></trkpt><trkpt lat="46.02706549089673" lon="12.056011902206063"><ele>573.3333333333334</ele><time>2026-04-05T06:58:40.995Z</time></trkpt><trkpt lat="46.02698078202134" lon="12.055992681488764"><ele>573.0</ele><time>2026-04-05T06:58:41.995Z</time></trkpt><trkpt lat="46.02689869793417" lon="12.056025301923416"><ele>573.0</ele><time>2026-04-05T06:58:42.995Z</time></trkpt><trkpt lat="46.026820821169544" lon="12.056045766247333"><ele>573.0</ele><time>2026-04-05T06:58:43.995Z</time></trkpt><trkpt lat="46.0266936230738" lon="12.056091968759223"><ele>573.0</ele><time>2026-04-05T06:58:45.995Z</time></trkpt><trkpt lat="46.02663636612281" lon="12.05616045069758"><ele>573.0</ele><time>2026-04-05T06:58:46.995Z</time></trkpt><trkpt lat="46.02657488186298" lon="12.056226194799477"><ele>573.0</ele><time>2026-04-05T06:58:47.995Z</time></trkpt><trkpt lat="46.02651533869362" lon="12.05632146109087"><ele>576.0</ele><time>2026-04-05T06:58:48.995Z</time></trkpt><trkpt lat="46.02647155726069" lon="12.056403841881897"><ele>579.0</ele><time>2026-04-05T06:58:49.995Z</time></trkpt><trkpt lat="46.026419651260134" lon="12.056471081085773"><ele>582.0</ele><time>2026-04-05T06:58:50.995Z</time></trkpt><trkpt lat="46.026359960118654" lon="12.056533351788811"><ele>585.0</ele><time>2026-04-05T06:58:51.995Z</time></trkpt><trkpt lat="46.02629730716266" lon="12.056581080180022"><ele>588.0</ele><time>2026-04-05T06:58:52.995Z</time></trkpt><trkpt lat="46.02621787963112" lon="12.056622239595951"><ele>591.0</ele><time>2026-04-05T06:58:53.995Z</time></trkpt><trkpt lat="46.026137134553196" lon="12.056668390871462"><ele>591.0</ele><time>2026-04-05T06:58:54.995Z</time></trkpt><trkpt lat="46.026052478716096" lon="12.056700923145753"><ele>591.0</ele><time>2026-04-05T06:58:55.995Z</time></trkpt><trkpt lat="46.02596998362618" lon="12.056720268808593"><ele>591.0</ele><time>2026-04-05T06:58:56.995Z</time></trkpt><trkpt lat="46.0258802146508" lon="12.056728550012853"><ele>591.0</ele><time>2026-04-05T06:58:57.995Z</time></trkpt><trkpt lat="46.025764733492586" lon="12.056740592168929"><ele>591.0</ele><time>2026-04-05T06:58:58.995Z</time></trkpt><trkpt lat="46.025647858294455" lon="12.056763779822548"><ele>586.6</ele><time>2026-04-05T06:58:59.995Z</time></trkpt><trkpt lat="46.025562620963804" lon="12.05678909285679"><ele>582.2</ele><time>2026-04-05T06:59:00.995Z</time></trkpt><trkpt lat="46.02547149330534" lon="12.056828442143365"><ele>577.8</ele><time>2026-04-05T06:59:01.995Z</time></trkpt><trkpt lat="46.025375110179304" lon="12.056885658393819"><ele>573.4</ele><time>2026-04-05T06:59:02.995Z</time></trkpt><trkpt lat="46.025274253584676" lon="12.056939098435828"><ele>569.0</ele><time>2026-04-05T06:59:03.995Z</time></trkpt><trkpt lat="46.025187785153065" lon="12.056994809721365"><ele>569.0</ele><time>2026-04-05T06:59:04.995Z</time></trkpt><trkpt lat="46.02512361262274" lon="12.057060168163078"><ele>569.0</ele><time>2026-04-05T06:59:05.995Z</time></trkpt><trkpt lat="46.025060352493895" lon="12.05711464131474"><ele>569.0</ele><time>2026-04-05T06:59:06.995Z</time></trkpt><trkpt lat="46.025010088143226" lon="12.05719786006817"><ele>569.0</ele><time>2026-04-05T06:59:07.995Z</time></trkpt><trkpt lat="46.02494369841587" lon="12.057277828159817"><ele>569.0</ele><time>2026-04-05T06:59:08.995Z</time></trkpt><trkpt lat="46.02486453087644" lon="12.057366810173216"><ele>569.0</ele><time>2026-04-05T06:59:09.995Z</time></trkpt><trkpt lat="46.02479868115047" lon="12.057462585581543"><ele>570.6</ele><time>2026-04-05T06:59:10.995Z</time></trkpt><trkpt lat="46.02472334798541" lon="12.057527661613566"><ele>572.2</ele><time>2026-04-05T06:59:11.994Z</time></trkpt><trkpt lat="46.024650712120994" lon="12.05757793555122"><ele>573.8000000000001</ele><time>2026-04-05T06:59:12.994Z</time></trkpt><trkpt lat="46.02454841998516" lon="12.057637095149072"><ele>575.4</ele><time>2026-04-05T06:59:13.994Z</time></trkpt><trkpt lat="46.02443111590349" lon="12.057712858383942"><ele>577.0</ele><time>2026-04-05T06:59:14.994Z</time></trkpt><trkpt lat="46.02431045659553" lon="12.057789546850925"><ele>577.0</ele><time>2026-04-05T06:59:15.994Z</time></trkpt><trkpt lat="46.02421185749942" lon="12.057852560000402"><ele>577.0</ele><time>2026-04-05T06:59:16.994Z</time></trkpt><trkpt lat="46.02411274867855" lon="12.05789420532384"><ele>577.0</ele><time>2026-04-05T06:59:17.994Z</time></trkpt><trkpt lat="46.02401498946406" lon="12.057960133885809"><ele>577.0</ele><time>2026-04-05T06:59:18.994Z</time></trkpt><trkpt lat="46.023915045438976" lon="12.057946940726278"><ele>577.0</ele><time>2026-04-05T06:59:19.994Z</time></trkpt><trkpt lat="46.02381453771745" lon="12.057987387428314"><ele>575.4</ele><time>2026-04-05T06:59:20.994Z</time></trkpt><trkpt lat="46.02370662202309" lon="12.058030174318661"><ele>573.8000000000001</ele><time>2026-04-05T06:59:21.994Z</time></trkpt><trkpt lat="46.023601168679214" lon="12.05808439694866"><ele>572.2</ele><time>2026-04-05T06:59:22.994Z</time></trkpt><trkpt lat="46.02350326878125" lon="12.058119973215977"><ele>570.6</ele><time>2026-04-05T06:59:23.994Z</time></trkpt><trkpt lat="46.02339433597601" lon="12.05814693474906"><ele>569.0</ele><time>2026-04-05T06:59:24.994Z</time></trkpt><trkpt lat="46.023270448584604" lon="12.05818296829846"><ele>568.6</ele><time>2026-04-05T06:59:25.994Z</time></trkpt><trkpt lat="46.02317241698778" lon="12.05822811859381"><ele>568.2</ele><time>2026-04-05T06:59:26.994Z</time></trkpt><trkpt lat="46.02307489772797" lon="12.058248669163202"><ele>567.8000000000001</ele><time>2026-04-05T06:59:27.994Z</time></trkpt><trkpt lat="46.022974569904655" lon="12.058296847692008"><ele>567.4</ele><time>2026-04-05T06:59:28.994Z</time></trkpt><trkpt lat="46.02289866916032" lon="12.058355524506338"><ele>567.0</ele><time>2026-04-05T06:59:29.994Z</time></trkpt><trkpt lat="46.022808255371466" lon="12.058385153624231"><ele>573.2</ele><time>2026-04-05T06:59:30.994Z</time></trkpt><trkpt lat="46.022717534454934" lon="12.05843276271883"><ele>579.4000000000001</ele><time>2026-04-05T06:59:31.994Z</time></trkpt><trkpt lat="46.02262446037015" lon="12.058507902109602"><ele>585.5999999999999</ele><time>2026-04-05T06:59:32.994Z</time></trkpt><trkpt lat="46.02252265792034" lon="12.058553351442002"><ele>591.8</ele><time>2026-04-05T06:59:33.994Z</time></trkpt><trkpt lat="46.02242672037993" lon="12.058597829154312"><ele>598.0</ele><time>2026-04-05T06:59:34.994Z</time></trkpt><trkpt lat="46.022324782898394" lon="12.058630718318541"><ele>598.0</ele><time>2026-04-05T06:59:35.994Z</time></trkpt><trkpt lat="46.02222665181212" lon="12.058661385224582"><ele>598.0</ele><time>2026-04-05T06:59:36.994Z</time></trkpt><trkpt lat="46.02212675294687" lon="12.05867475817141"><ele>598.0</ele><time>2026-04-05T06:59:37.994Z</time></trkpt><trkpt lat="46.022033205842504" lon="12.058723707384715"><ele>598.0</ele><time>2026-04-05T06:59:38.994Z</time></trkpt><trkpt lat="46.02192879614821" lon="12.058776725511454"><ele>598.0</ele><time>2026-04-05T06:59:39.994Z</time></trkpt><trkpt lat="46.02185543404281" lon="12.058835357369087"><ele>598.0</ele><time>2026-04-05T06:59:40.994Z</time></trkpt><trkpt lat="46.02177962417127" lon="12.05887788088782"><ele>598.0</ele><time>2026-04-05T06:59:41.994Z</time></trkpt><trkpt lat="46.02170769394014" lon="12.058926397422534"><ele>598.0</ele><time>2026-04-05T06:59:42.994Z</time></trkpt><trkpt lat="46.021640270847676" lon="12.058972323780955"><ele>598.0</ele><time>2026-04-05T06:59:43.994Z</time></trkpt><trkpt lat="46.02156982336918" lon="12.058976611724486"><ele>598.0</ele><time>2026-04-05T06:59:44.994Z</time></trkpt><trkpt lat="46.021507604008264" lon="12.058995268712303"><ele>598.0</ele><time>2026-04-05T06:59:45.994Z</time></trkpt><trkpt lat="46.02137658527048" lon="12.059019479109743"><ele>596.1666666666667</ele><time>2026-04-05T06:59:47.994Z</time></trkpt><trkpt lat="46.02129982007227" lon="12.059012663176812"><ele>594.3333333333334</ele><time>2026-04-05T06:59:48.994Z</time></trkpt><trkpt lat="46.02122744702984" lon="12.059034603093444"><ele>592.5</ele><time>2026-04-05T06:59:49.994Z</time></trkpt><trkpt lat="46.021143242642495" lon="12.059055594689841"><ele>590.6666666666666</ele><time>2026-04-05T06:59:50.996Z</time></trkpt><trkpt lat="46.02105778261071" lon="12.059079396447462"><ele>588.8333333333333</ele><time>2026-04-05T06:59:51.996Z</time></trkpt><trkpt lat="46.0209892386503" lon="12.059089951855778"><ele>587.0</ele><time>2026-04-05T06:59:52.996Z</time></trkpt><trkpt lat="46.02090092201962" lon="12.059116475134534"><ele>590.0</ele><time>2026-04-05T06:59:53.996Z</time></trkpt><trkpt lat="46.02082317945987" lon="12.059130635936608"><ele>593.0</ele><time>2026-04-05T06:59:54.996Z</time></trkpt><trkpt lat="46.02073845860177" lon="12.0591772400847"><ele>596.0</ele><time>2026-04-05T06:59:55.996Z</time></trkpt><trkpt lat="46.02065636418672" lon="12.059224438759436"><ele>599.0</ele><time>2026-04-05T06:59:56.996Z</time></trkpt><trkpt lat="46.02058771251219" lon="12.059264872177833"><ele>602.0</ele><time>2026-04-05T06:59:57.996Z</time></trkpt><trkpt lat="46.020504902776025" lon="12.059286578771435"><ele>605.0</ele><time>2026-04-05T06:59:58.996Z</time></trkpt><trkpt lat="46.02042928995523" lon="12.059342418899329"><ele>605.0</ele><time>2026-04-05T06:59:59.996Z</time></trkpt><trkpt lat="46.020360762032674" lon="12.059366434217331"><ele>605.0</ele><time>2026-04-05T07:00:00.996Z</time></trkpt><trkpt lat="46.020270483354125" lon="12.059391784190622"><ele>605.0</ele><time>2026-04-05T07:00:01.996Z</time></trkpt><trkpt lat="46.02015353577514" lon="12.059407791317623"><ele>605.0</ele><time>2026-04-05T07:00:02.996Z</time></trkpt><trkpt lat="46.020024784055494" lon="12.059440235979373"><ele>605.0</ele><time>2026-04-05T07:00:03.996Z</time></trkpt><trkpt lat="46.019923773795895" lon="12.059447787090997"><ele>601.8333333333333</ele><time>2026-04-05T07:00:04.996Z</time></trkpt><trkpt lat="46.01983424311214" lon="12.05945692796312"><ele>598.6666666666666</ele><time>2026-04-05T07:00:05.996Z</time></trkpt><trkpt lat="46.01975235382863" lon="12.059469408613117"><ele>595.5</ele><time>2026-04-05T07:00:06.996Z</time></trkpt><trkpt lat="46.0196515457965" lon="12.059528520563253"><ele>592.3333333333334</ele><time>2026-04-05T07:00:08.995Z</time></trkpt><trkpt lat="46.01959831910009" lon="12.059594587361042"><ele>589.1666666666667</ele><time>2026-04-05T07:00:10.995Z</time></trkpt><trkpt lat="46.01958067377365" lon="12.059682848313473"><ele>586.0</ele><time>2026-04-05T07:00:11.995Z</time></trkpt><trkpt lat="46.01953824881486" lon="12.059779111659797"><ele>593.6</ele><time>2026-04-05T07:00:12.995Z</time></trkpt><trkpt lat="46.019483598804456" lon="12.059953379795257"><ele>601.2</ele><time>2026-04-05T07:00:14.995Z</time></trkpt><trkpt lat="46.01943807799582" lon="12.060072262559565"><ele>608.8</ele><time>2026-04-05T07:00:16.995Z</time></trkpt><trkpt lat="46.01934592754251" lon="12.060104886905483"><ele>616.4</ele><time>2026-04-05T07:00:19.995Z</time></trkpt><trkpt lat="46.019251276151486" lon="12.060095922926296"><ele>624.0</ele><time>2026-04-05T07:00:20.995Z</time></trkpt><trkpt lat="46.01916519678253" lon="12.06003985029923"><ele>623.1666666666666</ele><time>2026-04-05T07:00:21.995Z</time></trkpt><trkpt lat="46.019096030134264" lon="12.060017276142489"><ele>622.3333333333334</ele><time>2026-04-05T07:00:22.995Z</time></trkpt><trkpt lat="46.01898906508095" lon="12.06000575436995"><ele>621.5</ele><time>2026-04-05T07:00:23.995Z</time></trkpt><trkpt lat="46.01890731231413" lon="12.059990168571028"><ele>620.6666666666667</ele><time>2026-04-05T07:00:24.995Z</time></trkpt><trkpt lat="46.01882826256216" lon="12.059977603372479"><ele>619.8333333333334</ele><time>2026-04-05T07:00:25.995Z</time></trkpt><trkpt lat="46.01875075308963" lon="12.059998112954462"><ele>619.0</ele><time>2026-04-05T07:00:26.995Z</time></trkpt><trkpt lat="46.0186703122047" lon="12.060013254019816"><ele>619.0</ele><time>2026-04-05T07:00:27.995Z</time></trkpt><trkpt lat="46.018564068765556" lon="12.060036764884188"><ele>619.0</ele><time>2026-04-05T07:00:29.995Z</time></trkpt><trkpt lat="46.01844447701778" lon="12.060114627735457"><ele>619.0</ele><time>2026-04-05T07:00:31.995Z</time></trkpt><trkpt lat="46.01836676171684" lon="12.06019409673508"><ele>619.0</ele><time>2026-04-05T07:00:32.995Z</time></trkpt><trkpt lat="46.018295574853326" lon="12.060254635863666"><ele>619.0</ele><time>2026-04-05T07:00:33.995Z</time></trkpt><trkpt lat="46.018226191509974" lon="12.060302489734932"><ele>616.1666666666667</ele><time>2026-04-05T07:00:34.995Z</time></trkpt><trkpt lat="46.01815121817692" lon="12.060330207199115"><ele>613.3333333333334</ele><time>2026-04-05T07:00:35.995Z</time></trkpt><trkpt lat="46.01808030111581" lon="12.060371840791317"><ele>610.5</ele><time>2026-04-05T07:00:36.995Z</time></trkpt><trkpt lat="46.018001169579584" lon="12.06039659642148"><ele>607.6666666666666</ele><time>2026-04-05T07:00:37.995Z</time></trkpt><trkpt lat="46.01793436654244" lon="12.060429325528261"><ele>604.8333333333333</ele><time>2026-04-05T07:00:38.995Z</time></trkpt><trkpt lat="46.017859743346335" lon="12.060462942953102"><ele>602.0</ele><time>2026-04-05T07:00:39.995Z</time></trkpt><trkpt lat="46.01778992968324" lon="12.0605040322102"><ele>602.0</ele><time>2026-04-05T07:00:40.995Z</time></trkpt><trkpt lat="46.0177232139353" lon="12.060550032373978"><ele>602.0</ele><time>2026-04-05T07:00:41.995Z</time></trkpt><trkpt lat="46.01765243671316" lon="12.060606582285805"><ele>602.0</ele><time>2026-04-05T07:00:42.995Z</time></trkpt><trkpt lat="46.0175939809194" lon="12.060662538732847"><ele>602.0</ele><time>2026-04-05T07:00:43.995Z</time></trkpt><trkpt lat="46.01752894787938" lon="12.060697029467127"><ele>602.0</ele><time>2026-04-05T07:00:44.995Z</time></trkpt><trkpt lat="46.01745173213903" lon="12.06080023699959"><ele>602.0</ele><time>2026-04-05T07:00:46.995Z</time></trkpt><trkpt lat="46.01740378756046" lon="12.060953453520044"><ele>600.5</ele><time>2026-04-05T07:00:48.995Z</time></trkpt><trkpt lat="46.01740119816597" lon="12.061052702755262"><ele>599.0</ele><time>2026-04-05T07:00:49.995Z</time></trkpt><trkpt lat="46.017393793257654" lon="12.061229228850033"><ele>597.5</ele><time>2026-04-05T07:00:51.995Z</time></trkpt><trkpt lat="46.01738008033811" lon="12.061318152813799"><ele>596.0</ele><time>2026-04-05T07:00:52.995Z</time></trkpt><trkpt lat="46.01739927386496" lon="12.061438228550248"><ele>594.5</ele><time>2026-04-05T07:00:54.995Z</time></trkpt><trkpt lat="46.017387366996246" lon="12.06155888888779"><ele>593.0</ele><time>2026-04-05T07:00:56.995Z</time></trkpt><trkpt lat="46.01740396447071" lon="12.06165702671141"><ele>593.0</ele><time>2026-04-05T07:00:57.995Z</time></trkpt><trkpt lat="46.01741933563571" lon="12.061752274064112"><ele>593.0</ele><time>2026-04-05T07:00:58.995Z</time></trkpt><trkpt lat="46.017431880177405" lon="12.06184738179334"><ele>593.0</ele><time>2026-04-05T07:00:59.995Z</time></trkpt><trkpt lat="46.01741302292229" lon="12.061960576085884"><ele>593.0</ele><time>2026-04-05T07:01:00.995Z</time></trkpt><trkpt lat="46.017390217766305" lon="12.062128833171846"><ele>593.0</ele><time>2026-04-05T07:01:02.994Z</time></trkpt><trkpt lat="46.01737087678225" lon="12.062229190274746"><ele>593.0</ele><time>2026-04-05T07:01:03.994Z</time></trkpt><trkpt lat="46.017349467028666" lon="12.062329644488932"><ele>593.0</ele><time>2026-04-05T07:01:04.994Z</time></trkpt><trkpt lat="46.0173301927316" lon="12.062437019421367"><ele>593.0</ele><time>2026-04-05T07:01:05.994Z</time></trkpt><trkpt lat="46.017309134916495" lon="12.062595423950034"><ele>593.0</ele><time>2026-04-05T07:01:07.994Z</time></trkpt><trkpt lat="46.0172939897214" lon="12.06269081518919"><ele>593.0</ele><time>2026-04-05T07:01:09.994Z</time></trkpt><trkpt lat="46.017227075245714" lon="12.062699476869197"><ele>593.0</ele><time>2026-04-05T07:01:11.994Z</time></trkpt><trkpt lat="46.01713596128205" lon="12.062643035695197"><ele>593.0</ele><time>2026-04-05T07:01:13.994Z</time></trkpt><trkpt lat="46.017060502782286" lon="12.062627170723987"><ele>597.8</ele><time>2026-04-05T07:01:14.994Z</time></trkpt><trkpt lat="46.01697889388135" lon="12.062629843569672"><ele>602.5999999999999</ele><time>2026-04-05T07:01:15.994Z</time></trkpt><trkpt lat="46.01689909066132" lon="12.062568507780723"><ele>607.4000000000001</ele><time>2026-04-05T07:01:16.994Z</time></trkpt><trkpt lat="46.01679277263386" lon="12.062560192805812"><ele>612.2</ele><time>2026-04-05T07:01:17.994Z</time></trkpt><trkpt lat="46.01669935340095" lon="12.062533380375243"><ele>617.0</ele><time>2026-04-05T07:01:18.994Z</time></trkpt><trkpt lat="46.01661630862444" lon="12.062509720061167"><ele>618.5</ele><time>2026-04-05T07:01:19.994Z</time></trkpt><trkpt lat="46.01655261863152" lon="12.06250812913416"><ele>620.0</ele><time>2026-04-05T07:01:20.994Z</time></trkpt><trkpt lat="46.01646225027093" lon="12.062515307385139"><ele>621.5</ele><time>2026-04-05T07:01:22.994Z</time></trkpt><trkpt lat="46.01639496910969" lon="12.062509099783062"><ele>623.0</ele><time>2026-04-05T07:01:23.994Z</time></trkpt><trkpt lat="46.01632476888174" lon="12.062502460341316"><ele>624.5</ele><time>2026-04-05T07:01:24.994Z</time></trkpt><trkpt lat="46.016256172590104" lon="12.062519985832427"><ele>626.0</ele><time>2026-04-05T07:01:25.994Z</time></trkpt><trkpt lat="46.01616181980814" lon="12.062502154222937"><ele>619.2</ele><time>2026-04-05T07:01:27.994Z</time></trkpt><trkpt lat="46.01601635126305" lon="12.062422522063084"><ele>612.4000000000001</ele><time>2026-04-05T07:01:29.994Z</time></trkpt><trkpt lat="46.01594387620632" lon="12.062357223007806"><ele>605.6</ele><time>2026-04-05T07:01:30.994Z</time></trkpt><trkpt lat="46.01587069401477" lon="12.06231032652409"><ele>598.8000000000001</ele><time>2026-04-05T07:01:31.994Z</time></trkpt><trkpt lat="46.015797972687714" lon="12.06225072562914"><ele>592.0</ele><time>2026-04-05T07:01:32.994Z</time></trkpt><trkpt lat="46.015718773566796" lon="12.062201916877733"><ele>592.0</ele><time>2026-04-05T07:01:33.994Z</time></trkpt><trkpt lat="46.01564803137153" lon="12.062164108828364"><ele>592.0</ele><time>2026-04-05T07:01:34.994Z</time></trkpt><trkpt lat="46.01558187422112" lon="12.062149890403651"><ele>592.0</ele><time>2026-04-05T07:01:35.994Z</time></trkpt><trkpt lat="46.01550602526344" lon="12.0621215745529"><ele>592.0</ele><time>2026-04-05T07:01:36.994Z</time></trkpt><trkpt lat="46.01544307678813" lon="12.062096333416191"><ele>592.0</ele><time>2026-04-05T07:01:37.994Z</time></trkpt><trkpt lat="46.01537188654939" lon="12.062067988753435"><ele>592.0</ele><time>2026-04-05T07:01:38.994Z</time></trkpt><trkpt lat="46.015248269731984" lon="12.062058485775278"><ele>592.0</ele><time>2026-04-05T07:01:40.994Z</time></trkpt><trkpt lat="46.015146804303974" lon="12.062059124335827"><ele>592.0</ele><time>2026-04-05T07:01:41.994Z</time></trkpt><trkpt lat="46.015059535474585" lon="12.06206403352249"><ele>592.0</ele><time>2026-04-05T07:01:42.994Z</time></trkpt><trkpt lat="46.01498625230608" lon="12.062058038587363"><ele>592.0</ele><time>2026-04-05T07:01:43.994Z</time></trkpt><trkpt lat="46.01486748380466" lon="12.062056232992253"><ele>592.0</ele><time>2026-04-05T07:01:45.994Z</time></trkpt><trkpt lat="46.01476895834821" lon="12.062070320653095"><ele>591.0</ele><time>2026-04-05T07:01:46.994Z</time></trkpt><trkpt lat="46.01468682662626" lon="12.062091302479967"><ele>590.0</ele><time>2026-04-05T07:01:47.994Z</time></trkpt><trkpt lat="46.01462001851024" lon="12.062105225344878"><ele>589.0</ele><time>2026-04-05T07:01:48.994Z</time></trkpt><trkpt lat="46.01450171252423" lon="12.062130663950391"><ele>588.0</ele><time>2026-04-05T07:01:50.994Z</time></trkpt><trkpt lat="46.014416065745614" lon="12.062155592799712"><ele>587.0</ele><time>2026-04-05T07:01:52.994Z</time></trkpt><trkpt lat="46.01432924827912" lon="12.062178087135916"><ele>586.0</ele><time>2026-04-05T07:01:54.994Z</time></trkpt><trkpt lat="46.01421850535964" lon="12.062195161160039"><ele>589.2</ele><time>2026-04-05T07:01:56.996Z</time></trkpt><trkpt lat="46.014116134470584" lon="12.062251407922037"><ele>592.4000000000001</ele><time>2026-04-05T07:01:58.995Z</time></trkpt><trkpt lat="46.01401075033447" lon="12.062261486536054"><ele>595.6</ele><time>2026-04-05T07:02:00.996Z</time></trkpt><trkpt lat="46.01389547540846" lon="12.062309968239274"><ele>598.8000000000001</ele><time>2026-04-05T07:02:02.996Z</time></trkpt><trkpt lat="46.01382597587648" lon="12.062382225462716"><ele>602.0</ele><time>2026-04-05T07:02:04.996Z</time></trkpt><trkpt lat="46.013773157739074" lon="12.062454725128848"><ele>602.0</ele><time>2026-04-05T07:02:05.995Z</time></trkpt><trkpt lat="46.01370647283052" lon="12.062512933916727"><ele>602.0</ele><time>2026-04-05T07:02:06.995Z</time></trkpt><trkpt lat="46.013635281056935" lon="12.062533415587493"><ele>602.0</ele><time>2026-04-05T07:02:07.995Z</time></trkpt><trkpt lat="46.013522276596994" lon="12.062580032684393"><ele>602.0</ele><time>2026-04-05T07:02:09.996Z</time></trkpt><trkpt lat="46.01341933775572" lon="12.06262681603337"><ele>602.0</ele><time>2026-04-05T07:02:11.996Z</time></trkpt><trkpt lat="46.01329636746219" lon="12.062720498450162"><ele>596.2</ele><time>2026-04-05T07:02:13.996Z</time></trkpt><trkpt lat="46.01322476100335" lon="12.062752789542255"><ele>590.4000000000001</ele><time>2026-04-05T07:02:14.996Z</time></trkpt><trkpt lat="46.01316762612044" lon="12.062802187861799"><ele>584.5999999999999</ele><time>2026-04-05T07:02:15.996Z</time></trkpt><trkpt lat="46.01310080273523" lon="12.062927105795236"><ele>578.8</ele><time>2026-04-05T07:02:17.996Z</time></trkpt><trkpt lat="46.013046663432426" lon="12.063064643794073"><ele>573.0</ele><time>2026-04-05T07:02:19.996Z</time></trkpt><trkpt lat="46.01300247475339" lon="12.063230308778182"><ele>579.8</ele><time>2026-04-05T07:02:21.996Z</time></trkpt><trkpt lat="46.012954349454645" lon="12.06339759790366"><ele>586.5999999999999</ele><time>2026-04-05T07:02:23.996Z</time></trkpt><trkpt lat="46.01292508560993" lon="12.063490189510091"><ele>593.4000000000001</ele><time>2026-04-05T07:02:24.996Z</time></trkpt><trkpt lat="46.01289890485593" lon="12.063615137199267"><ele>600.2</ele><time>2026-04-05T07:02:25.996Z</time></trkpt><trkpt lat="46.01284826734015" lon="12.063749996238066"><ele>607.0</ele><time>2026-04-05T07:02:27.996Z</time></trkpt><trkpt lat="46.01281530058103" lon="12.063846086025908"><ele>607.0</ele><time>2026-04-05T07:02:28.996Z</time></trkpt><trkpt lat="46.01280120274794" lon="12.063982229327815"><ele>607.0</ele><time>2026-04-05T07:02:30.996Z</time></trkpt><trkpt lat="46.012715691587616" lon="12.064050495704828"><ele>607.0</ele><time>2026-04-05T07:02:33.996Z</time></trkpt><trkpt lat="46.012658814954335" lon="12.064004004351506"><ele>607.0</ele><time>2026-04-05T07:02:35.996Z</time></trkpt><trkpt lat="46.012581943860646" lon="12.06390983678655"><ele>607.0</ele><time>2026-04-05T07:02:37.996Z</time></trkpt><trkpt lat="46.01248878585628" lon="12.063831109984847"><ele>605.8571428571428</ele><time>2026-04-05T07:02:39.996Z</time></trkpt><trkpt lat="46.01242685314923" lon="12.06380740306347"><ele>604.7142857142857</ele><time>2026-04-05T07:02:40.996Z</time></trkpt><trkpt lat="46.01234988964726" lon="12.06375942344385"><ele>603.5714285714286</ele><time>2026-04-05T07:02:41.996Z</time></trkpt><trkpt lat="46.012289956661334" lon="12.063718240479922"><ele>602.4285714285713</ele><time>2026-04-05T07:02:42.996Z</time></trkpt><trkpt lat="46.012221035580176" lon="12.06366349991897"><ele>601.2857142857142</ele><time>2026-04-05T07:02:43.996Z</time></trkpt><trkpt lat="46.012159259828515" lon="12.063644202306062"><ele>600.1428571428571</ele><time>2026-04-05T07:02:44.996Z</time></trkpt><trkpt lat="46.01210079199756" lon="12.063591784898401"><ele>599.0</ele><time>2026-04-05T07:02:45.996Z</time></trkpt><trkpt lat="46.01199494494953" lon="12.063524538111002"><ele>599.0</ele><time>2026-04-05T07:02:47.996Z</time></trkpt><trkpt lat="46.01186784511276" lon="12.063517202346826"><ele>599.0</ele><time>2026-04-05T07:02:49.995Z</time></trkpt><trkpt lat="46.0117873066631" lon="12.063523908861274"><ele>599.0</ele><time>2026-04-05T07:02:50.995Z</time></trkpt><trkpt lat="46.01171751358545" lon="12.063565930900001"><ele>599.0</ele><time>2026-04-05T07:02:51.995Z</time></trkpt><trkpt lat="46.011635990473785" lon="12.063619372119076"><ele>599.0</ele><time>2026-04-05T07:02:52.995Z</time></trkpt><trkpt lat="46.011562306321075" lon="12.063660814671643"><ele>596.0</ele><time>2026-04-05T07:02:53.995Z</time></trkpt><trkpt lat="46.01149594033474" lon="12.063696678200403"><ele>593.0</ele><time>2026-04-05T07:02:54.995Z</time></trkpt><trkpt lat="46.01142041159505" lon="12.063712212089603"><ele>590.0</ele><time>2026-04-05T07:02:55.995Z</time></trkpt><trkpt lat="46.01134818927802" lon="12.063747673428232"><ele>587.0</ele><time>2026-04-05T07:02:56.995Z</time></trkpt><trkpt lat="46.01122155981124" lon="12.063840115370008"><ele>584.0</ele><time>2026-04-05T07:02:58.995Z</time></trkpt><trkpt lat="46.01116730617808" lon="12.063900380728144"><ele>581.0</ele><time>2026-04-05T07:02:59.995Z</time></trkpt><trkpt lat="46.01111217401417" lon="12.06398097233713"><ele>581.0</ele><time>2026-04-05T07:03:00.995Z</time></trkpt><trkpt lat="46.011065723401344" lon="12.06409138758932"><ele>581.0</ele><time>2026-04-05T07:03:01.995Z</time></trkpt><trkpt lat="46.01101897504839" lon="12.064204262487467"><ele>581.0</ele><time>2026-04-05T07:03:02.995Z</time></trkpt><trkpt lat="46.01096081531029" lon="12.064307688816847"><ele>581.0</ele><time>2026-04-05T07:03:03.995Z</time></trkpt><trkpt lat="46.010929567480645" lon="12.06438933408026"><ele>581.0</ele><time>2026-04-05T07:03:04.995Z</time></trkpt><trkpt lat="46.010897880139936" lon="12.064485131347864"><ele>581.0</ele><time>2026-04-05T07:03:05.995Z</time></trkpt><trkpt lat="46.010874484964674" lon="12.064582906096536"><ele>580.4</ele><time>2026-04-05T07:03:06.995Z</time></trkpt><trkpt lat="46.01083359773987" lon="12.064698420255478"><ele>579.8</ele><time>2026-04-05T07:03:08.995Z</time></trkpt><trkpt lat="46.01075249113877" lon="12.064808618789053"><ele>579.1999999999999</ele><time>2026-04-05T07:03:11.995Z</time></trkpt><trkpt lat="46.0106277395679" lon="12.064906058484672"><ele>578.6</ele><time>2026-04-05T07:03:13.995Z</time></trkpt><trkpt lat="46.01055631118903" lon="12.064986730257411"><ele>578.0</ele><time>2026-04-05T07:03:14.995Z</time></trkpt><trkpt lat="46.010498068054" lon="12.065056774022429"><ele>578.0</ele><time>2026-04-05T07:03:15.995Z</time></trkpt><trkpt lat="46.01044751580637" lon="12.065159552867918"><ele>578.0</ele><time>2026-04-05T07:03:17.995Z</time></trkpt><trkpt lat="46.010410075354955" lon="12.065324043407369"><ele>578.0</ele><time>2026-04-05T07:03:19.995Z</time></trkpt><trkpt lat="46.01037636687155" lon="12.065406841558953"><ele>578.0</ele><time>2026-04-05T07:03:20.995Z</time></trkpt><trkpt lat="46.01033239375258" lon="12.0654812031723"><ele>578.0</ele><time>2026-04-05T07:03:21.995Z</time></trkpt><trkpt lat="46.01027692733215" lon="12.065529051982628"><ele>578.0</ele><time>2026-04-05T07:03:22.995Z</time></trkpt><trkpt lat="46.01020629598625" lon="12.065580461354234"><ele>578.0</ele><time>2026-04-05T07:03:23.995Z</time></trkpt><trkpt lat="46.0101159884633" lon="12.065689872804624"><ele>578.0</ele><time>2026-04-05T07:03:24.995Z</time></trkpt><trkpt lat="46.01005550135333" lon="12.065807671326167"><ele>578.0</ele><time>2026-04-05T07:03:25.995Z</time></trkpt><trkpt lat="46.00997349690167" lon="12.065891622726214"><ele>578.0</ele><time>2026-04-05T07:03:26.995Z</time></trkpt><trkpt lat="46.009907805472125" lon="12.066012121025965"><ele>578.0</ele><time>2026-04-05T07:03:28.995Z</time></trkpt><trkpt lat="46.00987361366689" lon="12.066165688584752"><ele>574.0</ele><time>2026-04-05T07:03:30.995Z</time></trkpt><trkpt lat="46.009891040159" lon="12.066349896571335"><ele>570.0</ele><time>2026-04-05T07:03:32.995Z</time></trkpt><trkpt lat="46.00991008485103" lon="12.066444042343452"><ele>566.0</ele><time>2026-04-05T07:03:33.995Z</time></trkpt><trkpt lat="46.00993461097607" lon="12.06653365868235"><ele>562.0</ele><time>2026-04-05T07:03:34.995Z</time></trkpt><trkpt lat="46.00995784009328" lon="12.06662742984873"><ele>558.0</ele><time>2026-04-05T07:03:35.995Z</time></trkpt><trkpt lat="46.00997832758127" lon="12.066730716452701"><ele>554.0</ele><time>2026-04-05T07:03:36.995Z</time></trkpt><trkpt lat="46.009998706943215" lon="12.06682771812089"><ele>565.6</ele><time>2026-04-05T07:03:37.995Z</time></trkpt><trkpt lat="46.01005659436482" lon="12.066960277448572"><ele>577.2</ele><time>2026-04-05T07:03:39.994Z</time></trkpt><trkpt lat="46.010103739933584" lon="12.067083460225756"><ele>588.8000000000001</ele><time>2026-04-05T07:03:41.994Z</time></trkpt><trkpt lat="46.01012799141704" lon="12.067176876917015"><ele>600.4</ele><time>2026-04-05T07:03:43.994Z</time></trkpt><trkpt lat="46.01006162957095" lon="12.067302884505596"><ele>612.0</ele><time>2026-04-05T07:03:46.994Z</time></trkpt><trkpt lat="46.01001110559096" lon="12.067403288644371"><ele>611.8333333333334</ele><time>2026-04-05T07:03:48.994Z</time></trkpt><trkpt lat="46.01002193405436" lon="12.067545376348153"><ele>611.6666666666666</ele><time>2026-04-05T07:03:50.994Z</time></trkpt><trkpt lat="46.01004455303682" lon="12.067663644434926"><ele>611.5</ele><time>2026-04-05T07:03:51.994Z</time></trkpt><trkpt lat="46.01007804888066" lon="12.067779223579512"><ele>611.3333333333333</ele><time>2026-04-05T07:03:52.994Z</time></trkpt><trkpt lat="46.01011306321927" lon="12.067880026013178"><ele>611.1666666666666</ele><time>2026-04-05T07:03:53.994Z</time></trkpt><trkpt lat="46.01013862433046" lon="12.068011140685254"><ele>611.0</ele><time>2026-04-05T07:03:54.994Z</time></trkpt><trkpt lat="46.01019147673718" lon="12.068136231351804"><ele>611.0</ele><time>2026-04-05T07:03:55.994Z</time></trkpt><trkpt lat="46.01023644701961" lon="12.068249033250058"><ele>611.0</ele><time>2026-04-05T07:03:56.994Z</time></trkpt><trkpt lat="46.01025659131321" lon="12.068350066496755"><ele>611.0</ele><time>2026-04-05T07:03:57.994Z</time></trkpt><trkpt lat="46.01029013330006" lon="12.068493441734676"><ele>611.0</ele><time>2026-04-05T07:03:59.994Z</time></trkpt><trkpt lat="46.010335919009144" lon="12.068600254306185"><ele>611.0</ele><time>2026-04-05T07:04:01.994Z</time></trkpt><trkpt lat="46.01030775529273" lon="12.06870590454175"><ele>611.0</ele><time>2026-04-05T07:04:03.996Z</time></trkpt><trkpt lat="46.01023814140509" lon="12.068763631356234"><ele>612.6666666666666</ele><time>2026-04-05T07:04:05.996Z</time></trkpt><trkpt lat="46.01014703505923" lon="12.068814111940913"><ele>614.3333333333333</ele><time>2026-04-05T07:04:07.996Z</time></trkpt><trkpt lat="46.01010567791578" lon="12.068940601098213"><ele>616.0</ele><time>2026-04-05T07:04:10.996Z</time></trkpt><trkpt lat="46.010135001109525" lon="12.069086024404537"><ele>617.6666666666666</ele><time>2026-04-05T07:04:12.996Z</time></trkpt><trkpt lat="46.01014431354468" lon="12.069189520061526"><ele>619.3333333333334</ele><time>2026-04-05T07:04:14.996Z</time></trkpt><trkpt lat="46.01011402212169" lon="12.069269392068117"><ele>621.0</ele><time>2026-04-05T07:04:17.996Z</time></trkpt><trkpt lat="46.01002826541354" lon="12.069329381559207"><ele>618.0</ele><time>2026-04-05T07:04:19.996Z</time></trkpt><trkpt lat="46.009949291743794" lon="12.069284906637584"><ele>615.0</ele><time>2026-04-05T07:04:21.996Z</time></trkpt><trkpt lat="46.00987065224386" lon="12.069193192339641"><ele>612.0</ele><time>2026-04-05T07:04:23.996Z</time></trkpt><trkpt lat="46.0098179994352" lon="12.069141868196093"><ele>609.0</ele><time>2026-04-05T07:04:24.996Z</time></trkpt><trkpt lat="46.00972259758761" lon="12.069060213191793"><ele>606.0</ele><time>2026-04-05T07:04:26.996Z</time></trkpt><trkpt lat="46.00961211075256" lon="12.069039410679647"><ele>606.0</ele><time>2026-04-05T07:04:28.996Z</time></trkpt><trkpt lat="46.009511949542826" lon="12.069006972991131"><ele>606.0</ele><time>2026-04-05T07:04:30.996Z</time></trkpt><trkpt lat="46.00945001356161" lon="12.068970153982907"><ele>606.0</ele><time>2026-04-05T07:04:31.996Z</time></trkpt><trkpt lat="46.00938869446707" lon="12.068939778095713"><ele>606.0</ele><time>2026-04-05T07:04:32.996Z</time></trkpt><trkpt lat="46.009326467834036" lon="12.068925135071442"><ele>606.0</ele><time>2026-04-05T07:04:33.996Z</time></trkpt><trkpt lat="46.00926058904007" lon="12.068890159736437"><ele>606.0</ele><time>2026-04-05T07:04:34.996Z</time></trkpt><trkpt lat="46.00919635486794" lon="12.068868874463009"><ele>606.0</ele><time>2026-04-05T07:04:35.996Z</time></trkpt><trkpt lat="46.0091151187547" lon="12.068863518920677"><ele>606.8333333333334</ele><time>2026-04-05T07:04:36.996Z</time></trkpt><trkpt lat="46.00903968159105" lon="12.068843473608261"><ele>607.6666666666666</ele><time>2026-04-05T07:04:37.996Z</time></trkpt><trkpt lat="46.00897491430937" lon="12.068821272961687"><ele>608.5</ele><time>2026-04-05T07:04:38.996Z</time></trkpt><trkpt lat="46.008893785737584" lon="12.068811009637429"><ele>609.3333333333333</ele><time>2026-04-05T07:04:40.996Z</time></trkpt><trkpt lat="46.008806375881306" lon="12.068880200543807"><ele>610.1666666666666</ele><time>2026-04-05T07:04:42.996Z</time></trkpt><trkpt lat="46.0086919041355" lon="12.068935986051955"><ele>611.0</ele><time>2026-04-05T07:04:44.996Z</time></trkpt><trkpt lat="46.00862365361486" lon="12.068958311729007"><ele>611.0</ele><time>2026-04-05T07:04:45.996Z</time></trkpt><trkpt lat="46.00853668753948" lon="12.069035449346904"><ele>611.0</ele><time>2026-04-05T07:04:47.996Z</time></trkpt><trkpt lat="46.00848081942616" lon="12.069140346192459"><ele>611.0</ele><time>2026-04-05T07:04:49.995Z</time></trkpt><trkpt lat="46.00846965151597" lon="12.069247863334658"><ele>611.0</ele><time>2026-04-05T07:04:51.995Z</time></trkpt><trkpt lat="46.00840241015446" lon="12.069298084817277"><ele>611.0</ele><time>2026-04-05T07:04:54.995Z</time></trkpt><trkpt lat="46.0083270795573" lon="12.06929685416162"><ele>611.0</ele><time>2026-04-05T07:04:57.995Z</time></trkpt><trkpt lat="46.008246322961526" lon="12.069254280927412"><ele>613.0</ele><time>2026-04-05T07:04:59.995Z</time></trkpt><trkpt lat="46.00818731994856" lon="12.069195718619682"><ele>615.0</ele><time>2026-04-05T07:05:01.995Z</time></trkpt><trkpt lat="46.0081258718565" lon="12.069077969300322"><ele>617.0</ele><time>2026-04-05T07:05:03.995Z</time></trkpt><trkpt lat="46.0080596854593" lon="12.069005146692941"><ele>619.0</ele><time>2026-04-05T07:05:05.995Z</time></trkpt><trkpt lat="46.00798225212923" lon="12.068926359631709"><ele>621.0</ele><time>2026-04-05T07:05:07.995Z</time></trkpt><trkpt lat="46.0079091857576" lon="12.068892276798588"><ele>623.0</ele><time>2026-04-05T07:05:08.995Z</time></trkpt><trkpt lat="46.0078397240312" lon="12.068874379380212"><ele>623.0</ele><time>2026-04-05T07:05:09.995Z</time></trkpt><trkpt lat="46.00776470138096" lon="12.06884571885398"><ele>623.0</ele><time>2026-04-05T07:05:10.995Z</time></trkpt><trkpt lat="46.00768900576327" lon="12.068818347562486"><ele>623.0</ele><time>2026-04-05T07:05:11.995Z</time></trkpt><trkpt lat="46.007612037125554" lon="12.06879681568587"><ele>623.0</ele><time>2026-04-05T07:05:13.995Z</time></trkpt><trkpt lat="46.007502162354015" lon="12.068779376171166"><ele>623.0</ele><time>2026-04-05T07:05:15.995Z</time></trkpt><trkpt lat="46.00737962210324" lon="12.068827818323156"><ele>622.1999999999999</ele><time>2026-04-05T07:05:17.995Z</time></trkpt><trkpt lat="46.007276775232185" lon="12.06889199222799"><ele>621.4</ele><time>2026-04-05T07:05:19.995Z</time></trkpt><trkpt lat="46.00716256467029" lon="12.068951003140102"><ele>620.5999999999999</ele><time>2026-04-05T07:05:21.995Z</time></trkpt><trkpt lat="46.00705061927346" lon="12.069033006266812"><ele>619.8</ele><time>2026-04-05T07:05:23.995Z</time></trkpt><trkpt lat="46.00697032413519" lon="12.06908610629021"><ele>619.0</ele><time>2026-04-05T07:05:24.995Z</time></trkpt><trkpt lat="46.006895236567104" lon="12.069128748097379"><ele>619.6</ele><time>2026-04-05T07:05:25.995Z</time></trkpt><trkpt lat="46.006781364178075" lon="12.069208343459009"><ele>620.2</ele><time>2026-04-05T07:05:27.995Z</time></trkpt><trkpt lat="46.00672097228699" lon="12.069238799889819"><ele>620.8000000000001</ele><time>2026-04-05T07:05:28.995Z</time></trkpt><trkpt lat="46.006643533875376" lon="12.069276882703896"><ele>621.4</ele><time>2026-04-05T07:05:29.995Z</time></trkpt><trkpt lat="46.00653483234707" lon="12.069325163869541"><ele>622.0</ele><time>2026-04-05T07:05:31.995Z</time></trkpt><trkpt lat="46.00647038746173" lon="12.069351073497401"><ele>622.0</ele><time>2026-04-05T07:05:32.995Z</time></trkpt><trkpt lat="46.00642105884445" lon="12.0694085850706"><ele>622.0</ele><time>2026-04-05T07:05:36.995Z</time></trkpt><trkpt lat="46.0063583961169" lon="12.06947189187411"><ele>622.0</ele><time>2026-04-05T07:05:46.994Z</time></trkpt><trkpt lat="46.006331104721056" lon="12.069594365830136"><ele>622.0</ele><time>2026-04-05T07:05:49.994Z</time></trkpt><trkpt lat="46.00632544119533" lon="12.06973222415277"><ele>622.0</ele><time>2026-04-05T07:05:51.994Z</time></trkpt><trkpt lat="46.006334106680875" lon="12.06986539496452"><ele>622.0</ele><time>2026-04-05T07:05:53.994Z</time></trkpt><trkpt lat="46.00631890302779" lon="12.069973538360145"><ele>628.6</ele><time>2026-04-05T07:05:55.994Z</time></trkpt><trkpt lat="46.006281947525636" lon="12.070060222840793"><ele>635.2</ele><time>2026-04-05T07:05:57.994Z</time></trkpt><trkpt lat="46.00618082813425" lon="12.07003752971036"><ele>641.8</ele><time>2026-04-05T07:06:00.994Z</time></trkpt><trkpt lat="46.0060670138969" lon="12.07005754312975"><ele>648.4</ele><time>2026-04-05T07:06:02.994Z</time></trkpt><trkpt lat="46.00596979768984" lon="12.070121190672461"><ele>655.0</ele><time>2026-04-05T07:06:04.994Z</time></trkpt><trkpt lat="46.005884698598074" lon="12.070126299024288"><ele>651.8</ele><time>2026-04-05T07:06:06.994Z</time></trkpt><trkpt lat="46.005809830527966" lon="12.070125125712348"><ele>648.6</ele><time>2026-04-05T07:06:08.996Z</time></trkpt><trkpt lat="46.005729024955905" lon="12.070090084818686"><ele>645.4</ele><time>2026-04-05T07:06:10.996Z</time></trkpt><trkpt lat="46.0056276021113" lon="12.070095447311639"><ele>642.2</ele><time>2026-04-05T07:06:12.996Z</time></trkpt><trkpt lat="46.00551005919642" lon="12.070114940656547"><ele>639.0</ele><time>2026-04-05T07:06:14.996Z</time></trkpt><trkpt lat="46.005373906624854" lon="12.070143640967895"><ele>639.0</ele><time>2026-04-05T07:06:16.996Z</time></trkpt><trkpt lat="46.00525770616373" lon="12.070164551832946"><ele>639.0</ele><time>2026-04-05T07:06:18.996Z</time></trkpt><trkpt lat="46.005191094398725" lon="12.070187935290216"><ele>639.0</ele><time>2026-04-05T07:06:19.996Z</time></trkpt><trkpt lat="46.00508761872724" lon="12.070227999172667"><ele>639.0</ele><time>2026-04-05T07:06:21.996Z</time></trkpt><trkpt lat="46.00503635025426" lon="12.070287115415688"><ele>639.0</ele><time>2026-04-05T07:06:22.996Z</time></trkpt><trkpt lat="46.004981435434395" lon="12.070372907807995"><ele>639.0</ele><time>2026-04-05T07:06:24.996Z</time></trkpt><trkpt lat="46.004918640049745" lon="12.070428616756793"><ele>637.8333333333334</ele><time>2026-04-05T07:06:26.996Z</time></trkpt><trkpt lat="46.00491720270985" lon="12.070532476029852"><ele>636.6666666666666</ele><time>2026-04-05T07:06:28.996Z</time></trkpt><trkpt lat="46.004876736664656" lon="12.070658676591894"><ele>635.5</ele><time>2026-04-05T07:06:30.996Z</time></trkpt><trkpt lat="46.00482639100017" lon="12.070720731762892"><ele>634.3333333333333</ele><time>2026-04-05T07:06:32.996Z</time></trkpt><trkpt lat="46.00479236960776" lon="12.070835229298583"><ele>633.1666666666666</ele><time>2026-04-05T07:06:35.996Z</time></trkpt><trkpt lat="46.004716977833105" lon="12.070910112987027"><ele>632.0</ele><time>2026-04-05T07:06:38.996Z</time></trkpt><trkpt lat="46.004621335771525" lon="12.070863740740204"><ele>632.0</ele><time>2026-04-05T07:06:40.996Z</time></trkpt><trkpt lat="46.00451615839434" lon="12.070820438673266"><ele>632.0</ele><time>2026-04-05T07:06:42.995Z</time></trkpt><trkpt lat="46.004424018496465" lon="12.07077584991328"><ele>632.0</ele><time>2026-04-05T07:06:44.995Z</time></trkpt><trkpt lat="46.00437468843297" lon="12.070704563062836"><ele>632.0</ele><time>2026-04-05T07:06:46.995Z</time></trkpt><trkpt lat="46.00432044663027" lon="12.070601058926668"><ele>632.0</ele><time>2026-04-05T07:06:48.995Z</time></trkpt><trkpt lat="46.00424765104295" lon="12.070527319655397"><ele>630.2</ele><time>2026-04-05T07:06:50.995Z</time></trkpt><trkpt lat="46.004141643331735" lon="12.07046745033213"><ele>628.4000000000001</ele><time>2026-04-05T07:06:52.995Z</time></trkpt><trkpt lat="46.0040791254838" lon="12.070427354315143"><ele>626.5999999999999</ele><time>2026-04-05T07:06:53.995Z</time></trkpt><trkpt lat="46.00398152870028" lon="12.070414537034242"><ele>624.8</ele><time>2026-04-05T07:06:55.995Z</time></trkpt><trkpt lat="46.00387845646964" lon="12.070430418626893"><ele>623.0</ele><time>2026-04-05T07:06:57.995Z</time></trkpt><trkpt lat="46.003756438790326" lon="12.070466171725938"><ele>623.0</ele><time>2026-04-05T07:06:59.995Z</time></trkpt><trkpt lat="46.00363651717015" lon="12.070483184609992"><ele>623.0</ele><time>2026-04-05T07:07:01.995Z</time></trkpt><trkpt lat="46.00353752413698" lon="12.07047433902325"><ele>623.0</ele><time>2026-04-05T07:07:04.995Z</time></trkpt><trkpt lat="46.00345648666436" lon="12.07047595798282"><ele>623.0</ele><time>2026-04-05T07:07:07.995Z</time></trkpt><trkpt lat="46.00338890778179" lon="12.070501121163973"><ele>623.0</ele><time>2026-04-05T07:07:09.995Z</time></trkpt><trkpt lat="46.00331395277226" lon="12.070533974270425"><ele>623.0</ele><time>2026-04-05T07:07:12.995Z</time></trkpt><trkpt lat="46.00325775396024" lon="12.070590236271647"><ele>622.4</ele><time>2026-04-05T07:07:20.995Z</time></trkpt><trkpt lat="46.00316235884329" lon="12.070625834369288"><ele>621.8</ele><time>2026-04-05T07:08:44.995Z</time></trkpt><trkpt lat="46.00310910136924" lon="12.07072195844379"><ele>621.2</ele><time>2026-04-05T07:08:46.995Z</time></trkpt><trkpt lat="46.0030832281734" lon="12.070828926791751"><ele>620.6</ele><time>2026-04-05T07:08:48.995Z</time></trkpt><trkpt lat="46.003040157087945" lon="12.070967182608575"><ele>620.0</ele><time>2026-04-05T07:08:50.995Z</time></trkpt><trkpt lat="46.00299903597615" lon="12.07109431622613"><ele>620.0</ele><time>2026-04-05T07:08:52.995Z</time></trkpt><trkpt lat="46.00293524323219" lon="12.071308590956098"><ele>620.0</ele><time>2026-04-05T07:09:28.995Z</time></trkpt><trkpt lat="46.002952965577066" lon="12.071212250632007"><ele>620.0</ele><time>2026-04-05T07:10:06.994Z</time></trkpt><trkpt lat="46.00299149012783" lon="12.071076082476091"><ele>620.0</ele><time>2026-04-05T07:10:09.994Z</time></trkpt><trkpt lat="46.00301786814631" lon="12.070984654820062"><ele>620.0</ele><time>2026-04-05T07:10:10.994Z</time></trkpt><trkpt lat="46.00303906150225" lon="12.070882152072343"><ele>620.5</ele><time>2026-04-05T07:10:11.994Z</time></trkpt><trkpt lat="46.00309815584758" lon="12.070756055790657"><ele>621.0</ele><time>2026-04-05T07:10:13.994Z</time></trkpt><trkpt lat="46.00314002139812" lon="12.0706537262685"><ele>621.5</ele><time>2026-04-05T07:10:15.994Z</time></trkpt><trkpt lat="46.00321205269648" lon="12.070562055250921"><ele>622.0</ele><time>2026-04-05T07:10:17.994Z</time></trkpt><trkpt lat="46.003281074551964" lon="12.070511164702678"><ele>622.5</ele><time>2026-04-05T07:10:19.994Z</time></trkpt><trkpt lat="46.003348382717945" lon="12.070480453444352"><ele>623.0</ele><time>2026-04-05T07:10:21.996Z</time></trkpt><trkpt lat="46.00345116165911" lon="12.07046908366076"><ele>623.0</ele><time>2026-04-05T07:10:23.997Z</time></trkpt><trkpt lat="46.003548187608224" lon="12.070431447141411"><ele>623.0</ele><time>2026-04-05T07:10:25.996Z</time></trkpt><trkpt lat="46.00366913350433" lon="12.070426921300138"><ele>623.0</ele><time>2026-04-05T07:10:27.996Z</time></trkpt><trkpt lat="46.0037771983456" lon="12.070384702940665"><ele>623.0</ele><time>2026-04-05T07:10:29.996Z</time></trkpt><trkpt lat="46.00387688407655" lon="12.070369465000443"><ele>623.0</ele><time>2026-04-05T07:10:31.996Z</time></trkpt><trkpt lat="46.00395985297069" lon="12.070388464481026"><ele>623.0</ele><time>2026-04-05T07:10:33.996Z</time></trkpt><trkpt lat="46.00406463423347" lon="12.070449476263938"><ele>623.0</ele><time>2026-04-05T07:10:35.996Z</time></trkpt><trkpt lat="46.00414885403805" lon="12.070535374716657"><ele>623.0</ele><time>2026-04-05T07:10:37.996Z</time></trkpt><trkpt lat="46.00423413880202" lon="12.070608890892474"><ele>623.0</ele><time>2026-04-05T07:10:39.996Z</time></trkpt><trkpt lat="46.004286989435016" lon="12.070714523763705"><ele>623.0</ele><time>2026-04-05T07:10:41.996Z</time></trkpt><trkpt lat="46.00433737352258" lon="12.07081068392438"><ele>624.5</ele><time>2026-04-05T07:10:43.995Z</time></trkpt><trkpt lat="46.0044146357483" lon="12.070864992695302"><ele>626.0</ele><time>2026-04-05T07:10:45.995Z</time></trkpt><trkpt lat="46.004471559726774" lon="12.070905441602163"><ele>627.5</ele><time>2026-04-05T07:10:47.995Z</time></trkpt><trkpt lat="46.00453721146166" lon="12.070940009701074"><ele>629.0</ele><time>2026-04-05T07:10:49.995Z</time></trkpt><trkpt lat="46.004620837800154" lon="12.070922516563487"><ele>630.5</ele><time>2026-04-05T07:10:53.995Z</time></trkpt><trkpt lat="46.004675759773825" lon="12.070812731160101"><ele>632.0</ele><time>2026-04-05T07:10:56.995Z</time></trkpt><trkpt lat="46.004720584954384" lon="12.070710224329943"><ele>632.0</ele><time>2026-04-05T07:10:58.995Z</time></trkpt><trkpt lat="46.00477492459423" lon="12.07059854764813"><ele>632.0</ele><time>2026-04-05T07:11:00.995Z</time></trkpt><trkpt lat="46.0047979222517" lon="12.070501864677276"><ele>632.0</ele><time>2026-04-05T07:11:02.995Z</time></trkpt><trkpt lat="46.0048866435385" lon="12.070458811630033"><ele>632.0</ele><time>2026-04-05T07:11:04.995Z</time></trkpt><trkpt lat="46.00497646688549" lon="12.070360201149917"><ele>632.0</ele><time>2026-04-05T07:11:06.995Z</time></trkpt><trkpt lat="46.005067424031374" lon="12.070283943294502"><ele>633.75</ele><time>2026-04-05T07:11:08.995Z</time></trkpt><trkpt lat="46.005178886584346" lon="12.070266618879222"><ele>635.5</ele><time>2026-04-05T07:11:10.995Z</time></trkpt><trkpt lat="46.00530056372338" lon="12.0702261984149"><ele>637.25</ele><time>2026-04-05T07:11:12.995Z</time></trkpt><trkpt lat="46.005413912918065" lon="12.070207373685637"><ele>639.0</ele><time>2026-04-05T07:11:14.995Z</time></trkpt><trkpt lat="46.005524610961075" lon="12.070181695067651"><ele>639.0</ele><time>2026-04-05T07:11:16.995Z</time></trkpt><trkpt lat="46.005597334790735" lon="12.070174710206981"><ele>639.0</ele><time>2026-04-05T07:11:18.995Z</time></trkpt><trkpt lat="46.00566981794865" lon="12.070201298200397"><ele>639.0</ele><time>2026-04-05T07:11:20.995Z</time></trkpt><trkpt lat="46.005735619469085" lon="12.070219974284917"><ele>639.0</ele><time>2026-04-05T07:11:22.995Z</time></trkpt><trkpt lat="46.00584076493099" lon="12.070201378300006"><ele>639.0</ele><time>2026-04-05T07:11:24.995Z</time></trkpt><trkpt lat="46.00593615653478" lon="12.070158103413945"><ele>639.0</ele><time>2026-04-05T07:11:26.995Z</time></trkpt><trkpt lat="46.006034751406865" lon="12.070163139265004"><ele>641.6666666666666</ele><time>2026-04-05T07:11:29.995Z</time></trkpt><trkpt lat="46.00610219311" lon="12.070163023565527"><ele>644.3333333333334</ele><time>2026-04-05T07:11:31.995Z</time></trkpt><trkpt lat="46.006167741529836" lon="12.070112358999237"><ele>647.0</ele><time>2026-04-05T07:11:33.995Z</time></trkpt><trkpt lat="46.00618900474576" lon="12.070002817112186"><ele>649.6666666666667</ele><time>2026-04-05T07:11:35.995Z</time></trkpt><trkpt lat="46.006199474455144" lon="12.069849751724952"><ele>652.3333333333334</ele><time>2026-04-05T07:11:37.994Z</time></trkpt><trkpt lat="46.00620588608982" lon="12.069677345292355"><ele>655.0</ele><time>2026-04-05T07:11:39.994Z</time></trkpt><trkpt lat="46.00621030343932" lon="12.06954583023346"><ele>649.5</ele><time>2026-04-05T07:11:41.994Z</time></trkpt><trkpt lat="46.00626840598991" lon="12.069473671282223"><ele>644.0</ele><time>2026-04-05T07:11:45.994Z</time></trkpt><trkpt lat="46.00633627622564" lon="12.069413551788148"><ele>638.5</ele><time>2026-04-05T07:12:06.994Z</time></trkpt><trkpt lat="46.0063643534942" lon="12.069518847137196"><ele>633.0</ele><time>2026-04-05T07:12:52.996Z</time></trkpt><trkpt lat="46.00637381819438" lon="12.069623186675543"><ele>627.5</ele><time>2026-04-05T07:12:54.996Z</time></trkpt><trkpt lat="46.00639382059371" lon="12.069733336060986"><ele>622.0</ele><time>2026-04-05T07:12:56.996Z</time></trkpt><trkpt lat="46.006396775350574" lon="12.069871752730535"><ele>628.6</ele><time>2026-04-05T07:12:58.996Z</time></trkpt><trkpt lat="46.006435081430354" lon="12.07000858784278"><ele>635.2</ele><time>2026-04-05T07:13:00.996Z</time></trkpt><trkpt lat="46.0064663757795" lon="12.070130421482464"><ele>641.8</ele><time>2026-04-05T07:13:02.996Z</time></trkpt><trkpt lat="46.00649761959726" lon="12.07024815924535"><ele>648.4</ele><time>2026-04-05T07:13:05.996Z</time></trkpt><trkpt lat="46.006475984621346" lon="12.070405612197046"><ele>655.0</ele><time>2026-04-05T07:13:54.995Z</time></trkpt><trkpt lat="46.00640903392209" lon="12.070428619833224"><ele>655.0</ele><time>2026-04-05T07:14:01.995Z</time></trkpt><trkpt lat="46.00634122405536" lon="12.070359556859868"><ele>655.0</ele><time>2026-04-05T07:14:18.995Z</time></trkpt><trkpt lat="46.00626097008228" lon="12.070419116556096"><ele>655.0</ele><time>2026-04-05T07:14:20.995Z</time></trkpt><trkpt lat="46.006178340698085" lon="12.070447038381815"><ele>655.0</ele><time>2026-04-05T07:14:22.995Z</time></trkpt><trkpt lat="46.006114040695095" lon="12.07050801827793"><ele>655.0</ele><time>2026-04-05T07:14:24.995Z</time></trkpt><trkpt lat="46.006061215762216" lon="12.07060803458351"><ele>655.0</ele><time>2026-04-05T07:14:26.994Z</time></trkpt><trkpt lat="46.00599173954136" lon="12.070698706452413"><ele>655.0</ele><time>2026-04-05T07:14:28.994Z</time></trkpt><trkpt lat="46.00593927809583" lon="12.070763082657894"><ele>655.0</ele><time>2026-04-05T07:14:30.994Z</time></trkpt><trkpt lat="46.00587631797882" lon="12.070877433384211"><ele>655.0</ele><time>2026-04-05T07:14:32.997Z</time></trkpt><trkpt lat="46.00578960766229" lon="12.070943958162008"><ele>655.0</ele><time>2026-04-05T07:14:34.996Z</time></trkpt><trkpt lat="46.00569812475337" lon="12.071000083868686"><ele>655.0</ele><time>2026-04-05T07:14:36.996Z</time></trkpt><trkpt lat="46.005627951269176" lon="12.071114144706234"><ele>657.6666666666667</ele><time>2026-04-05T07:14:38.997Z</time></trkpt><trkpt lat="46.005572783533744" lon="12.071241783537815"><ele>660.3333333333334</ele><time>2026-04-05T07:14:40.997Z</time></trkpt><trkpt lat="46.00554139068362" lon="12.07137423101815"><ele>663.0</ele><time>2026-04-05T07:14:42.997Z</time></trkpt><trkpt lat="46.005504320106525" lon="12.07147035814309"><ele>665.6666666666666</ele><time>2026-04-05T07:14:44.996Z</time></trkpt><trkpt lat="46.005435836047155" lon="12.071528202806679"><ele>668.3333333333333</ele><time>2026-04-05T07:14:46.996Z</time></trkpt><trkpt lat="46.00540505965589" lon="12.07164879810544"><ele>671.0</ele><time>2026-04-05T07:14:49.996Z</time></trkpt><trkpt lat="46.00541175722784" lon="12.071817389266876"><ele>676.6666666666666</ele><time>2026-04-05T07:14:52.996Z</time></trkpt><trkpt lat="46.00539249145926" lon="12.071925650864381"><ele>682.3333333333333</ele><time>2026-04-05T07:14:55.996Z</time></trkpt><trkpt lat="46.00533921729206" lon="12.071995004146908"><ele>688.0</ele><time>2026-04-05T07:14:58.996Z</time></trkpt><trkpt lat="46.00527270485435" lon="12.072098945042391"><ele>693.6666666666666</ele><time>2026-04-05T07:15:00.996Z</time></trkpt><trkpt lat="46.00521661400688" lon="12.072143244927911"><ele>699.3333333333334</ele><time>2026-04-05T07:15:02.996Z</time></trkpt><trkpt lat="46.005171995077234" lon="12.072274685004517"><ele>705.0</ele><time>2026-04-05T07:15:05.996Z</time></trkpt><trkpt lat="46.00514094165663" lon="12.07236219823858"><ele>705.0</ele><time>2026-04-05T07:15:08.996Z</time></trkpt><trkpt lat="46.005080178722295" lon="12.072390907416121"><ele>705.0</ele><time>2026-04-05T07:15:10.996Z</time></trkpt><trkpt lat="46.004998235472264" lon="12.072373313090287"><ele>705.0</ele><time>2026-04-05T07:15:12.996Z</time></trkpt><trkpt lat="46.004881429127316" lon="12.072366894996382"><ele>705.0</ele><time>2026-04-05T07:15:14.996Z</time></trkpt><trkpt lat="46.00481762722306" lon="12.072331807038578"><ele>705.0</ele><time>2026-04-05T07:15:15.996Z</time></trkpt><trkpt lat="46.00475065562316" lon="12.07231440921362"><ele>705.0</ele><time>2026-04-05T07:15:17.996Z</time></trkpt><trkpt lat="46.00465399061307" lon="12.072349469722791"><ele>706.0</ele><time>2026-04-05T07:15:19.996Z</time></trkpt><trkpt lat="46.004546672054694" lon="12.072400306316792"><ele>707.0</ele><time>2026-04-05T07:15:21.996Z</time></trkpt><trkpt lat="46.004483567064824" lon="12.072429211501788"><ele>708.0</ele><time>2026-04-05T07:15:22.996Z</time></trkpt><trkpt lat="46.00437957540397" lon="12.072407882586184"><ele>709.0</ele><time>2026-04-05T07:15:24.996Z</time></trkpt><trkpt lat="46.00432124655883" lon="12.072445933540724"><ele>710.0</ele><time>2026-04-05T07:15:26.996Z</time></trkpt><trkpt lat="46.00426288920049" lon="12.072499273812443"><ele>711.0</ele><time>2026-04-05T07:15:37.996Z</time></trkpt><trkpt lat="46.00419870564954" lon="12.072508240612635"><ele>713.1666666666666</ele><time>2026-04-05T07:16:37.997Z</time></trkpt><trkpt lat="46.00414080977971" lon="12.072575295973483"><ele>715.3333333333334</ele><time>2026-04-05T07:16:58.996Z</time></trkpt><trkpt lat="46.004079349833816" lon="12.072664408648137"><ele>717.5</ele><time>2026-04-05T07:17:02.996Z</time></trkpt><trkpt lat="46.00401900258839" lon="12.072741470033971"><ele>719.6666666666667</ele><time>2026-04-05T07:17:04.996Z</time></trkpt><trkpt lat="46.003977118531964" lon="12.072861765920454"><ele>721.8333333333334</ele><time>2026-04-05T07:17:06.996Z</time></trkpt><trkpt lat="46.00391929586309" lon="12.07295578349604"><ele>724.0</ele><time>2026-04-05T07:17:08.996Z</time></trkpt><trkpt lat="46.00386033181889" lon="12.07302358769924"><ele>724.0</ele><time>2026-04-05T07:17:10.996Z</time></trkpt><trkpt lat="46.003795367027514" lon="12.073113159123215"><ele>724.0</ele><time>2026-04-05T07:17:13.996Z</time></trkpt><trkpt lat="46.00372072098347" lon="12.07322002239784"><ele>724.0</ele><time>2026-04-05T07:17:15.996Z</time></trkpt><trkpt lat="46.003649313367845" lon="12.073312433992685"><ele>724.0</ele><time>2026-04-05T07:17:17.996Z</time></trkpt><trkpt lat="46.003576015393975" lon="12.07339605595824"><ele>724.0</ele><time>2026-04-05T07:17:19.996Z</time></trkpt><trkpt lat="46.00348898904334" lon="12.073477044899429"><ele>725.4000000000001</ele><time>2026-04-05T07:17:21.996Z</time></trkpt><trkpt lat="46.003407268120334" lon="12.073536073526203"><ele>726.8</ele><time>2026-04-05T07:17:23.996Z</time></trkpt><trkpt lat="46.00332715152246" lon="12.073612491233442"><ele>728.2</ele><time>2026-04-05T07:17:25.996Z</time></trkpt><trkpt lat="46.00325800800191" lon="12.073702131594576"><ele>729.5999999999999</ele><time>2026-04-05T07:17:27.996Z</time></trkpt><trkpt lat="46.00318600713896" lon="12.073769462932447"><ele>731.0</ele><time>2026-04-05T07:17:29.996Z</time></trkpt><trkpt lat="46.003121258828955" lon="12.0738550246114"><ele>731.0</ele><time>2026-04-05T07:17:31.996Z</time></trkpt><trkpt lat="46.00304824233058" lon="12.073989076025553"><ele>731.0</ele><time>2026-04-05T07:17:33.996Z</time></trkpt><trkpt lat="46.00297661744572" lon="12.074102818725244"><ele>731.0</ele><time>2026-04-05T07:17:35.996Z</time></trkpt><trkpt lat="46.00291111662608" lon="12.07421639713805"><ele>731.0</ele><time>2026-04-05T07:17:37.996Z</time></trkpt><trkpt lat="46.00284684675508" lon="12.074328498309802"><ele>731.0</ele><time>2026-04-05T07:17:39.995Z</time></trkpt><trkpt lat="46.00278645529426" lon="12.074441861166676"><ele>736.3333333333333</ele><time>2026-04-05T07:17:41.995Z</time></trkpt><trkpt lat="46.0027480276876" lon="12.07455015424104"><ele>741.6666666666666</ele><time>2026-04-05T07:17:43.995Z</time></trkpt><trkpt lat="46.00273561171854" lon="12.07470838965166"><ele>747.0</ele><time>2026-04-05T07:17:45.995Z</time></trkpt><trkpt lat="46.002716737160014" lon="12.074797903890893"><ele>752.3333333333334</ele><time>2026-04-05T07:17:46.995Z</time></trkpt><trkpt lat="46.002665269864615" lon="12.074875947273233"><ele>757.6666666666667</ele><time>2026-04-05T07:17:48.995Z</time></trkpt><trkpt lat="46.00258558526572" lon="12.074961752267553"><ele>763.0</ele><time>2026-04-05T07:17:50.995Z</time></trkpt><trkpt lat="46.00251036701616" lon="12.075000919415798"><ele>768.4</ele><time>2026-04-05T07:17:52.995Z</time></trkpt><trkpt lat="46.00240506885926" lon="12.075051990244678"><ele>773.8</ele><time>2026-04-05T07:17:54.995Z</time></trkpt><trkpt lat="46.002315489926204" lon="12.07505571835468"><ele>779.2</ele><time>2026-04-05T07:17:56.995Z</time></trkpt><trkpt lat="46.00224336760817" lon="12.07504896360348"><ele>784.6</ele><time>2026-04-05T07:17:57.995Z</time></trkpt><trkpt lat="46.0021389275633" lon="12.07506886950953"><ele>790.0</ele><time>2026-04-05T07:17:59.995Z</time></trkpt><trkpt lat="46.00203112791371" lon="12.075052504634924"><ele>790.0</ele><time>2026-04-05T07:18:01.995Z</time></trkpt><trkpt lat="46.001926254441294" lon="12.075060905798454"><ele>790.0</ele><time>2026-04-05T07:18:03.995Z</time></trkpt><trkpt lat="46.001814876715855" lon="12.075077163524893"><ele>790.0</ele><time>2026-04-05T07:18:05.995Z</time></trkpt><trkpt lat="46.00174334367883" lon="12.07508026538173"><ele>790.0</ele><time>2026-04-05T07:18:06.995Z</time></trkpt><trkpt lat="46.001634397658506" lon="12.075056779886744"><ele>790.0</ele><time>2026-04-05T07:18:08.995Z</time></trkpt><trkpt lat="46.00154503209297" lon="12.075016874778681"><ele>792.4999999999999</ele><time>2026-04-05T07:18:10.995Z</time></trkpt><trkpt lat="46.00144324351507" lon="12.074996992770968"><ele>795.0</ele><time>2026-04-05T07:18:12.995Z</time></trkpt><trkpt lat="46.001362893530526" lon="12.07497139073565"><ele>797.5</ele><time>2026-04-05T07:18:14.995Z</time></trkpt><trkpt lat="46.00126806878866" lon="12.074943896337674"><ele>800.0</ele><time>2026-04-05T07:18:16.995Z</time></trkpt><trkpt lat="46.00118242922485" lon="12.074916207348588"><ele>802.4999999999999</ele><time>2026-04-05T07:18:18.995Z</time></trkpt><trkpt lat="46.001109402040264" lon="12.07490055356218"><ele>805.0</ele><time>2026-04-05T07:18:19.995Z</time></trkpt><trkpt lat="46.0010245538811" lon="12.074880202525554"><ele>797.0</ele><time>2026-04-05T07:18:21.995Z</time></trkpt><trkpt lat="46.00093700023031" lon="12.074856284015548"><ele>789.0</ele><time>2026-04-05T07:18:23.995Z</time></trkpt><trkpt lat="46.000812854678095" lon="12.074817698964075"><ele>781.0</ele><time>2026-04-05T07:18:25.995Z</time></trkpt><trkpt lat="46.000700283644015" lon="12.074817200806416"><ele>773.0</ele><time>2026-04-05T07:18:27.995Z</time></trkpt><trkpt lat="46.00057167729301" lon="12.074816753695044"><ele>773.0</ele><time>2026-04-05T07:18:29.995Z</time></trkpt><trkpt lat="46.00046838317669" lon="12.074774093352058"><ele>773.0</ele><time>2026-04-05T07:18:31.995Z</time></trkpt><trkpt lat="46.00040437171824" lon="12.074778137509542"><ele>773.0</ele><time>2026-04-05T07:18:33.994Z</time></trkpt><trkpt lat="46.00032424051141" lon="12.074833766998195"><ele>773.0</ele><time>2026-04-05T07:18:36.994Z</time></trkpt><trkpt lat="46.00022216142705" lon="12.074903724432689"><ele>773.0</ele><time>2026-04-05T07:18:38.994Z</time></trkpt><trkpt lat="46.00013274249505" lon="12.074932899992762"><ele>778.8</ele><time>2026-04-05T07:18:40.994Z</time></trkpt><trkpt lat="46.0000725978667" lon="12.074967037466605"><ele>784.5999999999999</ele><time>2026-04-05T07:18:41.994Z</time></trkpt><trkpt lat="45.999957937374596" lon="12.075009901504163"><ele>790.4000000000001</ele><time>2026-04-05T07:18:43.997Z</time></trkpt><trkpt lat="45.99986486979732" lon="12.075055818984676"><ele>796.2</ele><time>2026-04-05T07:18:45.997Z</time></trkpt><trkpt lat="45.999751195405686" lon="12.075105694979737"><ele>802.0</ele><time>2026-04-05T07:18:47.996Z</time></trkpt><trkpt lat="45.99965796922204" lon="12.075161463236972"><ele>801.9999999999999</ele><time>2026-04-05T07:18:49.997Z</time></trkpt><trkpt lat="45.99959966736546" lon="12.075218860240707"><ele>802.0</ele><time>2026-04-05T07:18:50.997Z</time></trkpt><trkpt lat="45.99954729834915" lon="12.075295538735018"><ele>802.0</ele><time>2026-04-05T07:18:51.997Z</time></trkpt><trkpt lat="45.999484109576606" lon="12.07535504689439"><ele>802.0</ele><time>2026-04-05T07:18:52.997Z</time></trkpt><trkpt lat="45.99941559139517" lon="12.075455357224133"><ele>801.9999999999999</ele><time>2026-04-05T07:18:54.997Z</time></trkpt><trkpt lat="45.999345999296345" lon="12.07554301578825"><ele>802.0</ele><time>2026-04-05T07:18:56.997Z</time></trkpt><trkpt lat="45.999315855276954" lon="12.075648426417374"><ele>801.9999999999999</ele><time>2026-04-05T07:18:58.997Z</time></trkpt><trkpt lat="45.99930500862093" lon="12.07574692013118"><ele>802.0</ele><time>2026-04-05T07:18:59.997Z</time></trkpt><trkpt lat="45.99926054409921" lon="12.075841916623991"><ele>802.0</ele><time>2026-04-05T07:19:00.997Z</time></trkpt><trkpt lat="45.999197678246134" lon="12.075972887336919"><ele>802.0</ele><time>2026-04-05T07:19:02.997Z</time></trkpt><trkpt lat="45.99916334826375" lon="12.076049049106311"><ele>801.9999999999999</ele><time>2026-04-05T07:19:03.997Z</time></trkpt><trkpt lat="45.99914678633428" lon="12.07615789199209"><ele>802.0</ele><time>2026-04-05T07:19:04.997Z</time></trkpt><trkpt lat="45.99914061598816" lon="12.076254461721064"><ele>803.6666666666666</ele><time>2026-04-05T07:19:05.997Z</time></trkpt><trkpt lat="45.999117006147785" lon="12.07640585573233"><ele>805.3333333333333</ele><time>2026-04-05T07:19:07.997Z</time></trkpt><trkpt lat="45.99911378259519" lon="12.076525806342632"><ele>807.0</ele><time>2026-04-05T07:19:08.997Z</time></trkpt><trkpt lat="45.99910853568662" lon="12.076641435151204"><ele>808.6666666666667</ele><time>2026-04-05T07:19:09.997Z</time></trkpt><trkpt lat="45.99911092701295" lon="12.076758809574777"><ele>810.3333333333334</ele><time>2026-04-05T07:19:10.997Z</time></trkpt><trkpt lat="45.999109305076985" lon="12.07685507733892"><ele>812.0</ele><time>2026-04-05T07:19:11.997Z</time></trkpt><trkpt lat="45.999082527018274" lon="12.076994218608267"><ele>816.4000000000001</ele><time>2026-04-05T07:19:13.996Z</time></trkpt><trkpt lat="45.99902230985296" lon="12.077136487199926"><ele>820.8000000000001</ele><time>2026-04-05T07:19:15.996Z</time></trkpt><trkpt lat="45.998947754263455" lon="12.077279133155292"><ele>825.2</ele><time>2026-04-05T07:19:17.996Z</time></trkpt><trkpt lat="45.99893793351033" lon="12.077414428115791"><ele>829.6</ele><time>2026-04-05T07:19:19.996Z</time></trkpt><trkpt lat="45.99894317373287" lon="12.077577295223966"><ele>834.0</ele><time>2026-04-05T07:19:21.996Z</time></trkpt><trkpt lat="45.998951136842585" lon="12.07767728752966"><ele>837.6666666666666</ele><time>2026-04-05T07:19:22.996Z</time></trkpt><trkpt lat="45.998962784280366" lon="12.077779463601008"><ele>841.3333333333333</ele><time>2026-04-05T07:19:23.996Z</time></trkpt><trkpt lat="45.99895606682968" lon="12.077893972815477"><ele>845.0</ele><time>2026-04-05T07:19:24.996Z</time></trkpt><trkpt lat="45.99897063477116" lon="12.078006020930824"><ele>848.6666666666666</ele><time>2026-04-05T07:19:25.996Z</time></trkpt><trkpt lat="45.998928035582296" lon="12.078132895174805"><ele>852.3333333333333</ele><time>2026-04-05T07:19:27.996Z</time></trkpt><trkpt lat="45.99888466727515" lon="12.078255816227491"><ele>856.0</ele><time>2026-04-05T07:19:29.996Z</time></trkpt><trkpt lat="45.998871979114185" lon="12.078348260365228"><ele>855.9999999999999</ele><time>2026-04-05T07:19:34.996Z</time></trkpt><trkpt lat="45.99894524706903" lon="12.078282155507216"><ele>856.0</ele><time>2026-04-05T07:19:54.996Z</time></trkpt><trkpt lat="45.998984143105965" lon="12.078206494166578"><ele>856.0</ele><time>2026-04-05T07:19:55.996Z</time></trkpt><trkpt lat="45.99901493417783" lon="12.078114139384777"><ele>856.0</ele><time>2026-04-05T07:19:56.996Z</time></trkpt><trkpt lat="45.999033736315795" lon="12.078007944317905"><ele>855.9999999999999</ele><time>2026-04-05T07:19:57.996Z</time></trkpt><trkpt lat="45.99909308169342" lon="12.077898101630073"><ele>856.0</ele><time>2026-04-05T07:19:59.996Z</time></trkpt><trkpt lat="45.999187390720536" lon="12.077803962712144"><ele>857.8</ele><time>2026-04-05T07:20:01.996Z</time></trkpt><trkpt lat="45.999244589083204" lon="12.077739383893965"><ele>859.5999999999999</ele><time>2026-04-05T07:20:02.996Z</time></trkpt><trkpt lat="45.999319577109475" lon="12.077653146141529"><ele>861.4</ele><time>2026-04-05T07:20:03.996Z</time></trkpt><trkpt lat="45.99939991046036" lon="12.077553060798774"><ele>863.2</ele><time>2026-04-05T07:20:04.996Z</time></trkpt><trkpt lat="45.99945571868861" lon="12.077438910245043"><ele>865.0</ele><time>2026-04-05T07:20:05.995Z</time></trkpt><trkpt lat="45.99952935556599" lon="12.077358492334593"><ele>864.9999999999999</ele><time>2026-04-05T07:20:06.995Z</time></trkpt><trkpt lat="45.99959771575432" lon="12.077272478354525"><ele>865.0</ele><time>2026-04-05T07:20:07.995Z</time></trkpt><trkpt lat="45.9996540857005" lon="12.077184806711523"><ele>865.0</ele><time>2026-04-05T07:20:08.995Z</time></trkpt><trkpt lat="45.99971141030215" lon="12.077112922184806"><ele>865.0</ele><time>2026-04-05T07:20:09.995Z</time></trkpt><trkpt lat="45.999764400376634" lon="12.077057337886561"><ele>864.9999999999999</ele><time>2026-04-05T07:20:10.995Z</time></trkpt><trkpt lat="45.99988132962066" lon="12.07696317056206"><ele>865.0</ele><time>2026-04-05T07:20:12.995Z</time></trkpt><trkpt lat="45.999947982920595" lon="12.076930721972484"><ele>865.0</ele><time>2026-04-05T07:20:13.995Z</time></trkpt><trkpt lat="46.00003171386186" lon="12.076874988634085"><ele>865.0</ele><time>2026-04-05T07:20:14.995Z</time></trkpt><trkpt lat="46.00012697102067" lon="12.076838601654622"><ele>865.0</ele><time>2026-04-05T07:20:15.995Z</time></trkpt><trkpt lat="46.00019617188508" lon="12.076835116082666"><ele>865.0</ele><time>2026-04-05T07:20:16.995Z</time></trkpt><trkpt lat="46.000314092440966" lon="12.076813136117138"><ele>865.0</ele><time>2026-04-05T07:20:18.995Z</time></trkpt><trkpt lat="46.00039882497439" lon="12.076828960339036"><ele>865.0</ele><time>2026-04-05T07:20:20.995Z</time></trkpt><trkpt lat="46.00050966509929" lon="12.076881185253523"><ele>865.0</ele><time>2026-04-05T07:20:22.995Z</time></trkpt><trkpt lat="46.00059243400714" lon="12.076951751032627"><ele>865.0</ele><time>2026-04-05T07:20:23.995Z</time></trkpt><trkpt lat="46.000724716537704" lon="12.077022427332922"><ele>865.0</ele><time>2026-04-05T07:20:24.995Z</time></trkpt><trkpt lat="46.000864119579255" lon="12.077092874471413"><ele>866.7142857142858</ele><time>2026-04-05T07:20:25.995Z</time></trkpt><trkpt lat="46.00093878731879" lon="12.077152758624653"><ele>868.4285714285714</ele><time>2026-04-05T07:20:26.995Z</time></trkpt><trkpt lat="46.00100590235015" lon="12.07720524454216"><ele>870.1428571428571</ele><time>2026-04-05T07:20:27.995Z</time></trkpt><trkpt lat="46.0010681671969" lon="12.077232957012322"><ele>871.8571428571429</ele><time>2026-04-05T07:20:28.995Z</time></trkpt><trkpt lat="46.00113754442713" lon="12.077277289264975"><ele>873.5714285714286</ele><time>2026-04-05T07:20:29.995Z</time></trkpt><trkpt lat="46.00120972668293" lon="12.077308026666522"><ele>875.2857142857143</ele><time>2026-04-05T07:20:30.995Z</time></trkpt><trkpt lat="46.001272091185875" lon="12.077327411581738"><ele>877.0</ele><time>2026-04-05T07:20:31.995Z</time></trkpt><trkpt lat="46.00137440297068" lon="12.077359888622844"><ele>876.9999999999999</ele><time>2026-04-05T07:20:33.995Z</time></trkpt><trkpt lat="46.00144079218801" lon="12.077393445489962"><ele>877.0</ele><time>2026-04-05T07:20:34.995Z</time></trkpt><trkpt lat="46.00150532678346" lon="12.077472195207717"><ele>877.0</ele><time>2026-04-05T07:20:35.995Z</time></trkpt><trkpt lat="46.00154805380321" lon="12.077560486823728"><ele>877.0</ele><time>2026-04-05T07:20:36.995Z</time></trkpt><trkpt lat="46.00160795162035" lon="12.077634252665096"><ele>876.9999999999999</ele><time>2026-04-05T07:20:37.995Z</time></trkpt><trkpt lat="46.001697280556" lon="12.077690345886445"><ele>877.0</ele><time>2026-04-05T07:20:38.995Z</time></trkpt><trkpt lat="46.00180668353546" lon="12.077732385568277"><ele>882.6</ele><time>2026-04-05T07:20:39.995Z</time></trkpt><trkpt lat="46.00190926930868" lon="12.077748691466331"><ele>888.2</ele><time>2026-04-05T07:20:40.995Z</time></trkpt><trkpt lat="46.00201494213203" lon="12.077743854441275"><ele>893.8</ele><time>2026-04-05T07:20:41.995Z</time></trkpt><trkpt lat="46.00212725876121" lon="12.077714282048603"><ele>899.4</ele><time>2026-04-05T07:20:42.995Z</time></trkpt><trkpt lat="46.00223992945393" lon="12.077666402496753"><ele>905.0</ele><time>2026-04-05T07:20:43.995Z</time></trkpt><trkpt lat="46.0023871997091" lon="12.077612986311816"><ele>906.25</ele><time>2026-04-05T07:20:44.995Z</time></trkpt><trkpt lat="46.00253212275284" lon="12.077579975214128"><ele>907.5</ele><time>2026-04-05T07:20:45.995Z</time></trkpt><trkpt lat="46.002638285480494" lon="12.077540228713561"><ele>908.75</ele><time>2026-04-05T07:20:46.995Z</time></trkpt><trkpt lat="46.00273924287863" lon="12.077494728941629"><ele>910.0</ele><time>2026-04-05T07:20:47.995Z</time></trkpt><trkpt lat="46.00282637037547" lon="12.07746589657869"><ele>910.0</ele><time>2026-04-05T07:20:48.995Z</time></trkpt><trkpt lat="46.00292334532462" lon="12.077441642557375"><ele>910.0</ele><time>2026-04-05T07:20:49.997Z</time></trkpt><trkpt lat="46.00301774631679" lon="12.077456863231875"><ele>910.0</ele><time>2026-04-05T07:20:50.997Z</time></trkpt><trkpt lat="46.00314547525809" lon="12.077443155241205"><ele>910.0</ele><time>2026-04-05T07:20:51.997Z</time></trkpt><trkpt lat="46.003249528988654" lon="12.077450494020576"><ele>910.0</ele><time>2026-04-05T07:20:52.997Z</time></trkpt><trkpt lat="46.003339254281315" lon="12.077447012488081"><ele>911.9999999999999</ele><time>2026-04-05T07:20:53.997Z</time></trkpt><trkpt lat="46.00342534382181" lon="12.077433317079588"><ele>914.0</ele><time>2026-04-05T07:20:54.997Z</time></trkpt><trkpt lat="46.0035079460164" lon="12.077397252158546"><ele>916.0</ele><time>2026-04-05T07:20:55.997Z</time></trkpt><trkpt lat="46.00357506991493" lon="12.077390983267655"><ele>918.0</ele><time>2026-04-05T07:20:56.998Z</time></trkpt><trkpt lat="46.003663342121534" lon="12.077357436943226"><ele>919.9999999999999</ele><time>2026-04-05T07:20:58.997Z</time></trkpt><trkpt lat="46.00372508459816" lon="12.0774060503892"><ele>922.0</ele><time>2026-04-05T07:21:09.996Z</time></trkpt><trkpt lat="46.00363841961231" lon="12.077491063601165"><ele>922.0</ele><time>2026-04-05T07:21:19.996Z</time></trkpt><trkpt lat="46.00353057052537" lon="12.077590131416294"><ele>922.0</ele><time>2026-04-05T07:21:21.996Z</time></trkpt><trkpt lat="46.00344357410983" lon="12.077675921870968"><ele>922.0</ele><time>2026-04-05T07:21:23.996Z</time></trkpt><trkpt lat="46.00338330914627" lon="12.077739927779582"><ele>922.0</ele><time>2026-04-05T07:21:24.996Z</time></trkpt><trkpt lat="46.00330842019688" lon="12.077835529369382"><ele>922.0</ele><time>2026-04-05T07:21:25.996Z</time></trkpt><trkpt lat="46.00320611607895" lon="12.077918680687105"><ele>924.0</ele><time>2026-04-05T07:21:26.996Z</time></trkpt><trkpt lat="46.00312411129414" lon="12.078019673200506"><ele>926.0</ele><time>2026-04-05T07:21:27.996Z</time></trkpt><trkpt lat="46.00303294645267" lon="12.078091125816998"><ele>928.0</ele><time>2026-04-05T07:21:28.996Z</time></trkpt><trkpt lat="46.00293753208335" lon="12.07816655723439"><ele>930.0</ele><time>2026-04-05T07:21:29.996Z</time></trkpt><trkpt lat="46.002848883787" lon="12.078235054861016"><ele>932.0</ele><time>2026-04-05T07:21:30.996Z</time></trkpt><trkpt lat="46.00277753289727" lon="12.0783032508057"><ele>932.0</ele><time>2026-04-05T07:21:31.996Z</time></trkpt><trkpt lat="46.00269951172738" lon="12.078378931333607"><ele>932.0</ele><time>2026-04-05T07:21:32.996Z</time></trkpt><trkpt lat="46.00261344700825" lon="12.078462020726517"><ele>932.0</ele><time>2026-04-05T07:21:33.996Z</time></trkpt><trkpt lat="46.002528566802305" lon="12.078528899577842"><ele>932.0</ele><time>2026-04-05T07:21:34.996Z</time></trkpt><trkpt lat="46.00244943802668" lon="12.07862032083848"><ele>932.0</ele><time>2026-04-05T07:21:35.996Z</time></trkpt><trkpt lat="46.002365067641925" lon="12.078693355220603"><ele>931.8</ele><time>2026-04-05T07:21:36.996Z</time></trkpt><trkpt lat="46.00226403325789" lon="12.078741627175766"><ele>931.6</ele><time>2026-04-05T07:21:37.996Z</time></trkpt><trkpt lat="46.00216829081403" lon="12.078836501332013"><ele>931.3999999999999</ele><time>2026-04-05T07:21:38.996Z</time></trkpt><trkpt lat="46.00208274737572" lon="12.078926134862062"><ele>931.1999999999999</ele><time>2026-04-05T07:21:39.996Z</time></trkpt><trkpt lat="46.00200098999909" lon="12.07901013318959"><ele>931.0</ele><time>2026-04-05T07:21:40.996Z</time></trkpt><trkpt lat="46.001921689399175" lon="12.07908259194957"><ele>936.4</ele><time>2026-04-05T07:21:41.996Z</time></trkpt><trkpt lat="46.001844599289434" lon="12.07916265321146"><ele>941.8</ele><time>2026-04-05T07:21:42.996Z</time></trkpt><trkpt lat="46.00174800165754" lon="12.079243656516292"><ele>947.1999999999999</ele><time>2026-04-05T07:21:43.996Z</time></trkpt><trkpt lat="46.001641718061634" lon="12.079301657771092"><ele>952.5999999999999</ele><time>2026-04-05T07:21:44.996Z</time></trkpt><trkpt lat="46.00154576838195" lon="12.07937414709661"><ele>958.0</ele><time>2026-04-05T07:21:45.996Z</time></trkpt><trkpt lat="46.00144610251668" lon="12.079434441714975"><ele>961.4</ele><time>2026-04-05T07:21:46.996Z</time></trkpt><trkpt lat="46.001347860321964" lon="12.079510106451055"><ele>964.8</ele><time>2026-04-05T07:21:47.996Z</time></trkpt><trkpt lat="46.00125460239133" lon="12.07959716652367"><ele>968.2</ele><time>2026-04-05T07:21:48.996Z</time></trkpt><trkpt lat="46.00115994507041" lon="12.079668282712007"><ele>971.6</ele><time>2026-04-05T07:21:49.996Z</time></trkpt><trkpt lat="46.00107591987615" lon="12.079774749614046"><ele>975.0</ele><time>2026-04-05T07:21:50.996Z</time></trkpt><trkpt lat="46.000989901012844" lon="12.07989189179004"><ele>975.2</ele><time>2026-04-05T07:21:51.996Z</time></trkpt><trkpt lat="46.000915756023666" lon="12.079960907185075"><ele>975.4</ele><time>2026-04-05T07:21:52.996Z</time></trkpt><trkpt lat="46.00084252874209" lon="12.080011016056066"><ele>975.5999999999999</ele><time>2026-04-05T07:21:53.995Z</time></trkpt><trkpt lat="46.000733830396776" lon="12.080070845642778"><ele>975.8</ele><time>2026-04-05T07:21:54.995Z</time></trkpt><trkpt lat="46.00062498862054" lon="12.080135631675905"><ele>976.0</ele><time>2026-04-05T07:21:55.995Z</time></trkpt><trkpt lat="46.0005304820959" lon="12.080183414159674"><ele>972.8</ele><time>2026-04-05T07:21:56.995Z</time></trkpt><trkpt lat="46.0004653302352" lon="12.080248229357966"><ele>969.5999999999999</ele><time>2026-04-05T07:21:57.995Z</time></trkpt><trkpt lat="46.00039428734031" lon="12.080369881308533"><ele>966.4</ele><time>2026-04-05T07:21:59.995Z</time></trkpt><trkpt lat="46.000292345092625" lon="12.080484219980017"><ele>963.2</ele><time>2026-04-05T07:22:01.995Z</time></trkpt><trkpt lat="46.00025761851208" lon="12.080591248599092"><ele>960.0</ele><time>2026-04-05T07:22:02.995Z</time></trkpt><trkpt lat="46.000200734531965" lon="12.080673488941402"><ele>962.2</ele><time>2026-04-05T07:22:03.995Z</time></trkpt><trkpt lat="46.000149770927905" lon="12.08078090950012"><ele>964.4</ele><time>2026-04-05T07:22:04.995Z</time></trkpt><trkpt lat="46.000126457075204" lon="12.08088091659603"><ele>966.5999999999999</ele><time>2026-04-05T07:22:05.995Z</time></trkpt><trkpt lat="46.000054523881545" lon="12.081031596778427"><ele>968.8</ele><time>2026-04-05T07:22:07.995Z</time></trkpt><trkpt lat="46.00000095819026" lon="12.081127627023024"><ele>971.0</ele><time>2026-04-05T07:22:08.995Z</time></trkpt><trkpt lat="45.999930588411296" lon="12.08122029736195"><ele>971.0</ele><time>2026-04-05T07:22:09.995Z</time></trkpt><trkpt lat="45.999842858510014" lon="12.081331475073688"><ele>970.9999999999999</ele><time>2026-04-05T07:22:10.995Z</time></trkpt><trkpt lat="45.99976058049769" lon="12.081425535034006"><ele>970.9999999999999</ele><time>2026-04-05T07:22:11.995Z</time></trkpt><trkpt lat="45.99968053173298" lon="12.08152659351955"><ele>971.0</ele><time>2026-04-05T07:22:12.995Z</time></trkpt><trkpt lat="45.99961367670984" lon="12.08160450863083"><ele>971.0</ele><time>2026-04-05T07:22:13.995Z</time></trkpt><trkpt lat="45.99955998665217" lon="12.081665360059223"><ele>970.1666666666667</ele><time>2026-04-05T07:22:14.995Z</time></trkpt><trkpt lat="45.99950701306764" lon="12.081726529959221"><ele>969.3333333333334</ele><time>2026-04-05T07:22:15.995Z</time></trkpt><trkpt lat="45.99944666138171" lon="12.081809557221012"><ele>968.5</ele><time>2026-04-05T07:22:16.995Z</time></trkpt><trkpt lat="45.999386433185315" lon="12.081892651045122"><ele>967.6666666666667</ele><time>2026-04-05T07:22:17.995Z</time></trkpt><trkpt lat="45.99932895398262" lon="12.081967273015543"><ele>966.8333333333334</ele><time>2026-04-05T07:22:18.995Z</time></trkpt><trkpt lat="45.999271881935556" lon="12.082041594456825"><ele>966.0</ele><time>2026-04-05T07:22:19.995Z</time></trkpt><trkpt lat="45.99920792997477" lon="12.082105127926038"><ele>966.3333333333334</ele><time>2026-04-05T07:22:20.995Z</time></trkpt><trkpt lat="45.999154575235224" lon="12.082159531675195"><ele>966.6666666666667</ele><time>2026-04-05T07:22:21.995Z</time></trkpt><trkpt lat="45.999085608660046" lon="12.082208213941646"><ele>967.0</ele><time>2026-04-05T07:22:22.995Z</time></trkpt><trkpt lat="45.9990163524533" lon="12.082246097346452"><ele>967.3333333333334</ele><time>2026-04-05T07:22:23.995Z</time></trkpt><trkpt lat="45.998951954358695" lon="12.082271394164174"><ele>967.6666666666667</ele><time>2026-04-05T07:22:24.995Z</time></trkpt><trkpt lat="45.99886456125741" lon="12.082366111900695"><ele>968.0</ele><time>2026-04-05T07:22:26.995Z</time></trkpt><trkpt lat="45.99878504826658" lon="12.082499948312549"><ele>968.3333333333334</ele><time>2026-04-05T07:22:28.995Z</time></trkpt><trkpt lat="45.998726021179706" lon="12.082583469680483"><ele>968.6666666666667</ele><time>2026-04-05T07:22:29.995Z</time></trkpt><trkpt lat="45.998661525230254" lon="12.082677359968866"><ele>969.0</ele><time>2026-04-05T07:22:30.995Z</time></trkpt><trkpt lat="45.99861324229873" lon="12.082745065978171"><ele>969.3333333333333</ele><time>2026-04-05T07:22:31.995Z</time></trkpt><trkpt lat="45.998560911644816" lon="12.082813483721063"><ele>969.6666666666666</ele><time>2026-04-05T07:22:32.995Z</time></trkpt><trkpt lat="45.99851058954983" lon="12.08289173549655"><ele>970.0</ele><time>2026-04-05T07:22:33.995Z</time></trkpt><trkpt lat="45.99842331280572" lon="12.08297079645899"><ele>970.0</ele><time>2026-04-05T07:22:35.995Z</time></trkpt><trkpt lat="45.99835540817265" lon="12.082992587349013"><ele>970.0</ele><time>2026-04-05T07:22:36.995Z</time></trkpt><trkpt lat="45.998268076614195" lon="12.082969241934508"><ele>970.0</ele><time>2026-04-05T07:22:38.995Z</time></trkpt><trkpt lat="45.99817874469493" lon="12.082950821281774"><ele>970.0</ele><time>2026-04-05T07:22:40.995Z</time></trkpt><trkpt lat="45.998063676487625" lon="12.082976524124028"><ele>970.0</ele><time>2026-04-05T07:22:42.995Z</time></trkpt><trkpt lat="45.99793392421202" lon="12.083013887073118"><ele>969.9999999999999</ele><time>2026-04-05T07:22:44.995Z</time></trkpt><trkpt lat="45.99785264044614" lon="12.0830635647178"><ele>970.0</ele><time>2026-04-05T07:22:45.995Z</time></trkpt><trkpt lat="45.99777111650608" lon="12.083118039631152"><ele>970.0</ele><time>2026-04-05T07:22:46.995Z</time></trkpt><trkpt lat="45.99768431293164" lon="12.08316475457238"><ele>970.0</ele><time>2026-04-05T07:22:47.994Z</time></trkpt><trkpt lat="45.99760223073961" lon="12.083211197110915"><ele>969.9999999999999</ele><time>2026-04-05T07:22:48.994Z</time></trkpt><trkpt lat="45.99754095009925" lon="12.083258905751956"><ele>970.0</ele><time>2026-04-05T07:22:49.994Z</time></trkpt><trkpt lat="45.997439006739505" lon="12.083363470073426"><ele>974.0</ele><time>2026-04-05T07:22:51.994Z</time></trkpt><trkpt lat="45.997356696318704" lon="12.083445576594256"><ele>978.0</ele><time>2026-04-05T07:22:52.994Z</time></trkpt><trkpt lat="45.997271143783024" lon="12.083530756729603"><ele>982.0</ele><time>2026-04-05T07:22:53.994Z</time></trkpt><trkpt lat="45.997180109007424" lon="12.083608984682247"><ele>986.0</ele><time>2026-04-05T07:22:54.994Z</time></trkpt><trkpt lat="45.997112386371214" lon="12.083674039824738"><ele>990.0</ele><time>2026-04-05T07:22:55.997Z</time></trkpt><trkpt lat="45.99704315461743" lon="12.083743140590077"><ele>990.0</ele><time>2026-04-05T07:22:56.997Z</time></trkpt><trkpt lat="45.996962720560205" lon="12.083791927466025"><ele>990.0</ele><time>2026-04-05T07:22:57.997Z</time></trkpt><trkpt lat="45.996891224804415" lon="12.08385010190014"><ele>990.0</ele><time>2026-04-05T07:22:58.997Z</time></trkpt><trkpt lat="45.99681248569198" lon="12.08387018834926"><ele>990.0</ele><time>2026-04-05T07:22:59.997Z</time></trkpt><trkpt lat="45.996730431918216" lon="12.083892146685823"><ele>990.0</ele><time>2026-04-05T07:23:00.997Z</time></trkpt><trkpt lat="45.99662689467583" lon="12.083901625698346"><ele>990.0</ele><time>2026-04-05T07:23:01.997Z</time></trkpt><trkpt lat="45.99653501925052" lon="12.083916695020939"><ele>989.2</ele><time>2026-04-05T07:23:02.998Z</time></trkpt><trkpt lat="45.99645543234046" lon="12.083933648388294"><ele>988.4</ele><time>2026-04-05T07:23:03.998Z</time></trkpt><trkpt lat="45.9963912591723" lon="12.08393969225514"><ele>987.5999999999999</ele><time>2026-04-05T07:23:04.997Z</time></trkpt><trkpt lat="45.996293649762386" lon="12.083936202764843"><ele>986.8</ele><time>2026-04-05T07:23:06.997Z</time></trkpt><trkpt lat="45.996170350439456" lon="12.083883093850789"><ele>986.0</ele><time>2026-04-05T07:23:08.997Z</time></trkpt><trkpt lat="45.99606341126567" lon="12.083855216984345"><ele>986.0000000000001</ele><time>2026-04-05T07:23:10.997Z</time></trkpt><trkpt lat="45.995955141300584" lon="12.083852840088175"><ele>986.0</ele><time>2026-04-05T07:23:12.997Z</time></trkpt><trkpt lat="45.99588010474609" lon="12.083868199721046"><ele>986.0</ele><time>2026-04-05T07:23:13.997Z</time></trkpt><trkpt lat="45.9957933734175" lon="12.083887004851997"><ele>986.0</ele><time>2026-04-05T07:23:14.997Z</time></trkpt><trkpt lat="45.995712481141005" lon="12.0838997203922"><ele>986.0000000000001</ele><time>2026-04-05T07:23:15.997Z</time></trkpt><trkpt lat="45.99564318736833" lon="12.083907428191255"><ele>986.0</ele><time>2026-04-05T07:23:16.997Z</time></trkpt><trkpt lat="45.99558033526908" lon="12.083901377427445"><ele>987.8333333333334</ele><time>2026-04-05T07:23:17.997Z</time></trkpt><trkpt lat="45.99550294055943" lon="12.083865659885653"><ele>989.6666666666667</ele><time>2026-04-05T07:23:18.997Z</time></trkpt><trkpt lat="45.99542264503969" lon="12.083843161451263"><ele>991.5</ele><time>2026-04-05T07:23:19.997Z</time></trkpt><trkpt lat="45.995351066746615" lon="12.08382365106132"><ele>993.3333333333333</ele><time>2026-04-05T07:23:20.997Z</time></trkpt><trkpt lat="45.99527340828872" lon="12.083791772279472"><ele>995.1666666666666</ele><time>2026-04-05T07:23:21.997Z</time></trkpt><trkpt lat="45.995196436769135" lon="12.083766724166507"><ele>997.0</ele><time>2026-04-05T07:23:22.997Z</time></trkpt><trkpt lat="45.995132306757455" lon="12.083749382400907"><ele>996.9999999999999</ele><time>2026-04-05T07:23:23.997Z</time></trkpt><trkpt lat="45.99506289726059" lon="12.083740963908303"><ele>997.0</ele><time>2026-04-05T07:23:24.997Z</time></trkpt><trkpt lat="45.994987427510566" lon="12.083716321359"><ele>997.0</ele><time>2026-04-05T07:23:25.997Z</time></trkpt><trkpt lat="45.994870950396155" lon="12.083687499745835"><ele>997.0</ele><time>2026-04-05T07:23:27.997Z</time></trkpt><trkpt lat="45.99476853981792" lon="12.083685480257888"><ele>996.9999999999999</ele><time>2026-04-05T07:23:29.997Z</time></trkpt><trkpt lat="45.9947003816381" lon="12.08369636692119"><ele>997.0</ele><time>2026-04-05T07:23:30.997Z</time></trkpt><trkpt lat="45.99462464272933" lon="12.08369605810724"><ele>997.8</ele><time>2026-04-05T07:23:31.997Z</time></trkpt><trkpt lat="45.9945088790463" lon="12.083723435743023"><ele>998.6</ele><time>2026-04-05T07:23:33.997Z</time></trkpt><trkpt lat="45.99439592599458" lon="12.083736483025541"><ele>999.3999999999999</ele><time>2026-04-05T07:23:35.997Z</time></trkpt><trkpt lat="45.99433269473875" lon="12.08374999573435"><ele>1000.1999999999999</ele><time>2026-04-05T07:23:36.997Z</time></trkpt><trkpt lat="45.99421272500439" lon="12.083794679537512"><ele>1001.0</ele><time>2026-04-05T07:23:38.997Z</time></trkpt><trkpt lat="45.994144997255816" lon="12.08380060179849"><ele>1003.8</ele><time>2026-04-05T07:23:39.997Z</time></trkpt><trkpt lat="45.994040535076905" lon="12.083788744011683"><ele>1006.5999999999999</ele><time>2026-04-05T07:23:41.997Z</time></trkpt><trkpt lat="45.99394824412819" lon="12.08377009041229"><ele>1009.4</ele><time>2026-04-05T07:23:43.997Z</time></trkpt><trkpt lat="45.99386935913261" lon="12.083821432867508"><ele>1012.2</ele><time>2026-04-05T07:23:45.997Z</time></trkpt><trkpt lat="45.99378198621018" lon="12.083867115025445"><ele>1015.0</ele><time>2026-04-05T07:23:47.997Z</time></trkpt><trkpt lat="45.993678603577415" lon="12.083894110327432"><ele>1015.0</ele><time>2026-04-05T07:23:49.997Z</time></trkpt><trkpt lat="45.993590105877736" lon="12.083871591413137"><ele>1015.0</ele><time>2026-04-05T07:23:51.997Z</time></trkpt><trkpt lat="45.99349761080968" lon="12.083860098889815"><ele>1015.0</ele><time>2026-04-05T07:23:53.997Z</time></trkpt><trkpt lat="45.99339010684067" lon="12.083892036168578"><ele>1015.0</ele><time>2026-04-05T07:23:55.997Z</time></trkpt><trkpt lat="45.99329639441519" lon="12.083913622674444"><ele>1015.0</ele><time>2026-04-05T07:23:57.997Z</time></trkpt><trkpt lat="45.99323987899618" lon="12.083872724421418"><ele>1014.6666666666666</ele><time>2026-04-05T07:23:59.996Z</time></trkpt><trkpt lat="45.99317399037629" lon="12.083832657766436"><ele>1014.3333333333333</ele><time>2026-04-05T07:24:00.996Z</time></trkpt><trkpt lat="45.99311719351478" lon="12.083764516022354"><ele>1014.0</ele><time>2026-04-05T07:24:01.996Z</time></trkpt><trkpt lat="45.993064322700036" lon="12.083701687534141"><ele>1013.6666666666667</ele><time>2026-04-05T07:24:02.996Z</time></trkpt><trkpt lat="45.992981073267885" lon="12.083636341275831"><ele>1013.3333333333334</ele><time>2026-04-05T07:24:04.996Z</time></trkpt><trkpt lat="45.99290272383898" lon="12.08365574381506"><ele>1013.0</ele><time>2026-04-05T07:24:06.996Z</time></trkpt><trkpt lat="45.9928080337465" lon="12.083737024434893"><ele>1013.0</ele><time>2026-04-05T07:24:08.996Z</time></trkpt><trkpt lat="45.9927164775887" lon="12.08377227913612"><ele>1013.0</ele><time>2026-04-05T07:24:10.996Z</time></trkpt><trkpt lat="45.992628825734144" lon="12.083761230935059"><ele>1013.0</ele><time>2026-04-05T07:24:12.996Z</time></trkpt><trkpt lat="45.99254556646871" lon="12.08366421695342"><ele>1013.0</ele><time>2026-04-05T07:24:14.996Z</time></trkpt><trkpt lat="45.99243580068948" lon="12.083632520228855"><ele>1013.0</ele><time>2026-04-05T07:24:16.996Z</time></trkpt><trkpt lat="45.99234110774928" lon="12.083600881651527"><ele>1011.1666666666667</ele><time>2026-04-05T07:24:18.996Z</time></trkpt><trkpt lat="45.99225275005825" lon="12.083539990183747"><ele>1009.3333333333334</ele><time>2026-04-05T07:24:20.996Z</time></trkpt><trkpt lat="45.99215560499891" lon="12.083473339684955"><ele>1007.5</ele><time>2026-04-05T07:24:22.996Z</time></trkpt><trkpt lat="45.99211187931933" lon="12.08340389407772"><ele>1005.6666666666667</ele><time>2026-04-05T07:24:23.996Z</time></trkpt><trkpt lat="45.9920658323697" lon="12.083338756607812"><ele>1003.8333333333334</ele><time>2026-04-05T07:24:24.996Z</time></trkpt><trkpt lat="45.99199307721273" lon="12.083229263932717"><ele>1002.0</ele><time>2026-04-05T07:24:26.996Z</time></trkpt><trkpt lat="45.99193588272488" lon="12.083185236707784"><ele>1002.0</ele><time>2026-04-05T07:24:28.996Z</time></trkpt><trkpt lat="45.991842985019176" lon="12.083225148685457"><ele>1002.0</ele><time>2026-04-05T07:24:30.996Z</time></trkpt><trkpt lat="45.991777137459906" lon="12.083272151624152"><ele>1002.0</ele><time>2026-04-05T07:24:31.996Z</time></trkpt><trkpt lat="45.991716855272294" lon="12.083325407687873"><ele>1002.0</ele><time>2026-04-05T07:24:32.996Z</time></trkpt><trkpt lat="45.99161512718416" lon="12.083411099463058"><ele>1002.0</ele><time>2026-04-05T07:24:34.996Z</time></trkpt><trkpt lat="45.99155129891746" lon="12.083442066407542"><ele>1002.0</ele><time>2026-04-05T07:24:35.996Z</time></trkpt><trkpt lat="45.99148468938502" lon="12.08347887380712"><ele>1010.6</ele><time>2026-04-05T07:24:36.996Z</time></trkpt><trkpt lat="45.99140368156343" lon="12.083541343067543"><ele>1019.2</ele><time>2026-04-05T07:24:38.996Z</time></trkpt><trkpt lat="45.99134468779424" lon="12.083607649537104"><ele>1027.8</ele><time>2026-04-05T07:24:40.996Z</time></trkpt><trkpt lat="45.99128961667043" lon="12.083723251499558"><ele>1036.4</ele><time>2026-04-05T07:24:42.996Z</time></trkpt><trkpt lat="45.991253106138785" lon="12.083919847226012"><ele>1045.0</ele><time>2026-04-05T07:24:44.996Z</time></trkpt><trkpt lat="45.99121203980784" lon="12.084010255595963"><ele>1051.0</ele><time>2026-04-05T07:24:45.996Z</time></trkpt><trkpt lat="45.99118865351458" lon="12.084187985667075"><ele>1057.0</ele><time>2026-04-05T07:24:47.996Z</time></trkpt><trkpt lat="45.99115865429601" lon="12.084362568873477"><ele>1063.0</ele><time>2026-04-05T07:24:49.996Z</time></trkpt><trkpt lat="45.991159700849614" lon="12.084466964555899"><ele>1069.0</ele><time>2026-04-05T07:24:50.996Z</time></trkpt><trkpt lat="45.99114431439148" lon="12.084629162143225"><ele>1075.0</ele><time>2026-04-05T07:24:52.995Z</time></trkpt><trkpt lat="45.991133402424275" lon="12.084723383848845"><ele>1075.0</ele><time>2026-04-05T07:24:53.995Z</time></trkpt><trkpt lat="45.99111565528932" lon="12.08483130393006"><ele>1075.0</ele><time>2026-04-05T07:24:54.995Z</time></trkpt><trkpt lat="45.991099731551685" lon="12.085016993754218"><ele>1075.0</ele><time>2026-04-05T07:24:56.995Z</time></trkpt><trkpt lat="45.991088231916024" lon="12.085144044498657"><ele>1075.0</ele><time>2026-04-05T07:24:57.995Z</time></trkpt><trkpt lat="45.99106712480058" lon="12.085258759576137"><ele>1075.0</ele><time>2026-04-05T07:24:58.995Z</time></trkpt><trkpt lat="45.9910206630533" lon="12.085357279545217"><ele>1075.0</ele><time>2026-04-05T07:24:59.995Z</time></trkpt><trkpt lat="45.99098809414117" lon="12.085495837636856"><ele>1075.0</ele><time>2026-04-05T07:25:01.997Z</time></trkpt><trkpt lat="45.990946711748926" lon="12.085626487606895"><ele>1075.0</ele><time>2026-04-05T07:25:03.997Z</time></trkpt><trkpt lat="45.990903092949154" lon="12.085731491840596"><ele>1075.0</ele><time>2026-04-05T07:25:05.997Z</time></trkpt><trkpt lat="45.99085717319439" lon="12.085885138225125"><ele>1075.0</ele><time>2026-04-05T07:25:07.997Z</time></trkpt><trkpt lat="45.990798566326795" lon="12.08604332754174"><ele>1075.0</ele><time>2026-04-05T07:25:09.997Z</time></trkpt><trkpt lat="45.990748051134545" lon="12.086126634338827"><ele>1075.0</ele><time>2026-04-05T07:25:10.997Z</time></trkpt><trkpt lat="45.99069841030431" lon="12.08618312314976"><ele>1075.0</ele><time>2026-04-05T07:25:11.998Z</time></trkpt><trkpt lat="45.9906186819599" lon="12.086276039158138"><ele>1075.0</ele><time>2026-04-05T07:25:13.997Z</time></trkpt><trkpt lat="45.99053381950268" lon="12.086295089157906"><ele>1075.0</ele><time>2026-04-05T07:25:15.997Z</time></trkpt><trkpt lat="45.99046469474417" lon="12.08629444282964"><ele>1075.0</ele><time>2026-04-05T07:25:16.997Z</time></trkpt><trkpt lat="45.99039240140979" lon="12.086295942892068"><ele>1075.0</ele><time>2026-04-05T07:25:17.997Z</time></trkpt><trkpt lat="45.99032854735327" lon="12.086322271077519"><ele>1075.0</ele><time>2026-04-05T07:25:18.997Z</time></trkpt><trkpt lat="45.99022437535409" lon="12.086352567489737"><ele>1075.0</ele><time>2026-04-05T07:25:20.997Z</time></trkpt><trkpt lat="45.990160085063806" lon="12.086428624803961"><ele>1075.0</ele><time>2026-04-05T07:25:22.997Z</time></trkpt><trkpt lat="45.99012237252271" lon="12.086516048831696"><ele>1075.0</ele><time>2026-04-05T07:25:24.997Z</time></trkpt><trkpt lat="45.990068206131085" lon="12.086622032689085"><ele>1075.0</ele><time>2026-04-05T07:25:26.997Z</time></trkpt><trkpt lat="45.99005089682024" lon="12.086717863628776"><ele>1074.8</ele><time>2026-04-05T07:25:27.997Z</time></trkpt><trkpt lat="45.99002983610163" lon="12.086877269807848"><ele>1074.6</ele><time>2026-04-05T07:25:29.997Z</time></trkpt><trkpt lat="45.9900025171908" lon="12.08696327265692"><ele>1074.4</ele><time>2026-04-05T07:25:30.997Z</time></trkpt><trkpt lat="45.989967326427404" lon="12.08710155671655"><ele>1074.2</ele><time>2026-04-05T07:25:32.997Z</time></trkpt><trkpt lat="45.98993121196765" lon="12.087219674006533"><ele>1074.0</ele><time>2026-04-05T07:25:34.997Z</time></trkpt><trkpt lat="45.98988704796855" lon="12.087338013218668"><ele>1079.2</ele><time>2026-04-05T07:25:36.997Z</time></trkpt><trkpt lat="45.98984204507364" lon="12.08747074282723"><ele>1084.4</ele><time>2026-04-05T07:25:38.997Z</time></trkpt><trkpt lat="45.98980626455504" lon="12.08757693916273"><ele>1089.6</ele><time>2026-04-05T07:25:40.997Z</time></trkpt><trkpt lat="45.98975839041449" lon="12.087691246732385"><ele>1094.8</ele><time>2026-04-05T07:25:42.997Z</time></trkpt><trkpt lat="45.9897136667925" lon="12.087808608894486"><ele>1100.0</ele><time>2026-04-05T07:25:44.997Z</time></trkpt><trkpt lat="45.9896822488069" lon="12.088010619951376"><ele>1100.0</ele><time>2026-04-05T07:25:46.997Z</time></trkpt><trkpt lat="45.989667106499816" lon="12.088110590800476"><ele>1100.0</ele><time>2026-04-05T07:25:47.997Z</time></trkpt><trkpt lat="45.989634827866595" lon="12.088250900645294"><ele>1100.0</ele><time>2026-04-05T07:25:49.997Z</time></trkpt><trkpt lat="45.989619663119576" lon="12.088423940356018"><ele>1100.0</ele><time>2026-04-05T07:25:51.997Z</time></trkpt><trkpt lat="45.989572865350134" lon="12.08850881154107"><ele>1100.0</ele><time>2026-04-05T07:25:55.996Z</time></trkpt><trkpt lat="45.9895143414507" lon="12.088549227761407"><ele>1100.0</ele><time>2026-04-05T07:26:02.996Z</time></trkpt><trkpt lat="45.98945300794601" lon="12.088582486166954"><ele>1099.1666666666667</ele><time>2026-04-05T07:26:08.996Z</time></trkpt><trkpt lat="45.98935473824125" lon="12.088538568830058"><ele>1098.3333333333335</ele><time>2026-04-05T07:26:10.996Z</time></trkpt><trkpt lat="45.98928862368768" lon="12.088497964235755"><ele>1097.5</ele><time>2026-04-05T07:26:11.996Z</time></trkpt><trkpt lat="45.98921293441141" lon="12.088490142820916"><ele>1096.6666666666667</ele><time>2026-04-05T07:26:13.996Z</time></trkpt><trkpt lat="45.989138719203076" lon="12.08851266237765"><ele>1095.8333333333333</ele><time>2026-04-05T07:26:15.996Z</time></trkpt><trkpt lat="45.98903740912379" lon="12.088552734258776"><ele>1095.0</ele><time>2026-04-05T07:26:17.996Z</time></trkpt><trkpt lat="45.98897453446889" lon="12.08858230266064"><ele>1095.0</ele><time>2026-04-05T07:26:18.996Z</time></trkpt><trkpt lat="45.988857143343004" lon="12.08863549511959"><ele>1095.0</ele><time>2026-04-05T07:26:20.996Z</time></trkpt><trkpt lat="45.9887666229069" lon="12.088633814891127"><ele>1095.0</ele><time>2026-04-05T07:26:22.996Z</time></trkpt><trkpt lat="45.98863049635675" lon="12.088665806797259"><ele>1095.0</ele><time>2026-04-05T07:26:24.996Z</time></trkpt><trkpt lat="45.988547803698225" lon="12.088641764280679"><ele>1095.0</ele><time>2026-04-05T07:26:25.996Z</time></trkpt><trkpt lat="45.98841957587915" lon="12.088617576696782"><ele>1095.0</ele><time>2026-04-05T07:26:27.996Z</time></trkpt><trkpt lat="45.988348472715955" lon="12.088597216459934"><ele>1095.0</ele><time>2026-04-05T07:26:28.996Z</time></trkpt><trkpt lat="45.98825031509521" lon="12.088519016329505"><ele>1095.0</ele><time>2026-04-05T07:26:30.996Z</time></trkpt><trkpt lat="45.988189648105134" lon="12.088477620176892"><ele>1095.0</ele><time>2026-04-05T07:26:31.996Z</time></trkpt><trkpt lat="45.988103323377295" lon="12.088459042381182"><ele>1095.0</ele><time>2026-04-05T07:26:33.996Z</time></trkpt><trkpt lat="45.98801484893372" lon="12.088475293347726"><ele>1095.0</ele><time>2026-04-05T07:26:35.996Z</time></trkpt><trkpt lat="45.98794427878298" lon="12.088559459763772"><ele>1093.2</ele><time>2026-04-05T07:26:37.996Z</time></trkpt><trkpt lat="45.98785734536056" lon="12.08868952118557"><ele>1091.4</ele><time>2026-04-05T07:26:39.996Z</time></trkpt><trkpt lat="45.98778259078379" lon="12.088807829292337"><ele>1089.6</ele><time>2026-04-05T07:26:41.996Z</time></trkpt><trkpt lat="45.98773091521912" lon="12.088884823700724"><ele>1087.8</ele><time>2026-04-05T07:26:42.996Z</time></trkpt><trkpt lat="45.987638923875544" lon="12.088985522593486"><ele>1086.0</ele><time>2026-04-05T07:26:44.996Z</time></trkpt><trkpt lat="45.98756832447317" lon="12.089003098131695"><ele>1084.8</ele><time>2026-04-05T07:26:45.996Z</time></trkpt><trkpt lat="45.98749087500944" lon="12.088994263009551"><ele>1083.6</ele><time>2026-04-05T07:26:46.996Z</time></trkpt><trkpt lat="45.987412399616254" lon="12.08898898328688"><ele>1082.4</ele><time>2026-04-05T07:26:47.996Z</time></trkpt><trkpt lat="45.98730190440475" lon="12.089020031966076"><ele>1081.2</ele><time>2026-04-05T07:26:49.996Z</time></trkpt><trkpt lat="45.987218097788" lon="12.089084126069679"><ele>1080.0</ele><time>2026-04-05T07:26:51.996Z</time></trkpt><trkpt lat="45.987151613003846" lon="12.08917658993266"><ele>1085.8333333333333</ele><time>2026-04-05T07:26:53.995Z</time></trkpt><trkpt lat="45.987112732778975" lon="12.089255240493628"><ele>1091.6666666666667</ele><time>2026-04-05T07:26:54.995Z</time></trkpt><trkpt lat="45.98705714700917" lon="12.089326963560465"><ele>1097.5</ele><time>2026-04-05T07:26:55.995Z</time></trkpt><trkpt lat="45.98695787109013" lon="12.089420905426605"><ele>1103.3333333333335</ele><time>2026-04-05T07:26:57.995Z</time></trkpt><trkpt lat="45.98689344509449" lon="12.089431559616546"><ele>1109.1666666666667</ele><time>2026-04-05T07:26:58.995Z</time></trkpt><trkpt lat="45.98680653570085" lon="12.089485787108778"><ele>1115.0</ele><time>2026-04-05T07:26:59.995Z</time></trkpt><trkpt lat="45.986732733092985" lon="12.089526234253803"><ele>1116.6666666666667</ele><time>2026-04-05T07:27:00.995Z</time></trkpt><trkpt lat="45.986662102013675" lon="12.08953012516265"><ele>1118.3333333333335</ele><time>2026-04-05T07:27:01.995Z</time></trkpt><trkpt lat="45.98656780692396" lon="12.089577803731505"><ele>1120.0</ele><time>2026-04-05T07:27:03.995Z</time></trkpt><trkpt lat="45.98651505676065" lon="12.089660645567475"><ele>1121.6666666666667</ele><time>2026-04-05T07:27:05.995Z</time></trkpt><trkpt lat="45.986484705242" lon="12.089776443996218"><ele>1123.3333333333333</ele><time>2026-04-05T07:27:07.998Z</time></trkpt><trkpt lat="45.986489437415386" lon="12.089903101003953"><ele>1125.0</ele><time>2026-04-05T07:27:09.998Z</time></trkpt><trkpt lat="45.98648705333748" lon="12.090016734636599"><ele>1125.0</ele><time>2026-04-05T07:27:10.997Z</time></trkpt><trkpt lat="45.98648874567017" lon="12.090109227441802"><ele>1125.0</ele><time>2026-04-05T07:27:11.998Z</time></trkpt><trkpt lat="45.986478886040835" lon="12.090206501347584"><ele>1125.0</ele><time>2026-04-05T07:27:12.998Z</time></trkpt><trkpt lat="45.98648614079229" lon="12.090317866656862"><ele>1125.0</ele><time>2026-04-05T07:27:13.998Z</time></trkpt><trkpt lat="45.98647795322389" lon="12.090500066878148"><ele>1125.0</ele><time>2026-04-05T07:27:15.998Z</time></trkpt><trkpt lat="45.98648264963818" lon="12.090622066063593"><ele>1125.0</ele><time>2026-04-05T07:27:17.998Z</time></trkpt><trkpt lat="45.98640292897631" lon="12.090695208011809"><ele>1125.0</ele><time>2026-04-05T07:27:20.997Z</time></trkpt><trkpt lat="45.98632704949259" lon="12.09069640153146"><ele>1125.0</ele><time>2026-04-05T07:27:22.997Z</time></trkpt><trkpt lat="45.98620481522478" lon="12.09065360005823"><ele>1125.0</ele><time>2026-04-05T07:27:24.997Z</time></trkpt><trkpt lat="45.98613050820413" lon="12.09062624107258"><ele>1125.0</ele><time>2026-04-05T07:27:25.997Z</time></trkpt><trkpt lat="45.986060312089464" lon="12.09059244701137"><ele>1125.0</ele><time>2026-04-05T07:27:26.997Z</time></trkpt><trkpt lat="45.98598531974675" lon="12.090569323871105"><ele>1125.0</ele><time>2026-04-05T07:27:27.997Z</time></trkpt><trkpt lat="45.985897172543886" lon="12.090541926580396"><ele>1126.1666666666667</ele><time>2026-04-05T07:27:29.997Z</time></trkpt><trkpt lat="45.985820035005595" lon="12.090546982876624"><ele>1127.3333333333333</ele><time>2026-04-05T07:27:31.997Z</time></trkpt><trkpt lat="45.98572747821574" lon="12.090623645489647"><ele>1128.5</ele><time>2026-04-05T07:27:33.997Z</time></trkpt><trkpt lat="45.98566939863602" lon="12.090674543096979"><ele>1129.6666666666665</ele><time>2026-04-05T07:27:34.997Z</time></trkpt><trkpt lat="45.985575755032876" lon="12.090739185999213"><ele>1130.8333333333333</ele><time>2026-04-05T07:27:36.997Z</time></trkpt><trkpt lat="45.98550185727507" lon="12.090766319498513"><ele>1132.0</ele><time>2026-04-05T07:27:38.997Z</time></trkpt><trkpt lat="45.98543904636192" lon="12.090693695820917"><ele>1125.6</ele><time>2026-04-05T07:27:40.997Z</time></trkpt><trkpt lat="45.985381900495796" lon="12.090654117698094"><ele>1119.2</ele><time>2026-04-05T07:27:41.997Z</time></trkpt><trkpt lat="45.98528229535423" lon="12.090609689126962"><ele>1112.8</ele><time>2026-04-05T07:27:43.997Z</time></trkpt><trkpt lat="45.985189634312974" lon="12.09057705942548"><ele>1106.4</ele><time>2026-04-05T07:27:45.997Z</time></trkpt><trkpt lat="45.985078711362725" lon="12.090482973844013"><ele>1100.0</ele><time>2026-04-05T07:27:47.997Z</time></trkpt><trkpt lat="45.98502007457388" lon="12.090449120418215"><ele>1100.6</ele><time>2026-04-05T07:27:48.997Z</time></trkpt><trkpt lat="45.984914196521565" lon="12.09047340834743"><ele>1101.2</ele><time>2026-04-05T07:27:50.997Z</time></trkpt><trkpt lat="45.98484018986814" lon="12.090558228987073"><ele>1101.8</ele><time>2026-04-05T07:27:52.997Z</time></trkpt><trkpt lat="45.984765057478505" lon="12.09065840411709"><ele>1102.4</ele><time>2026-04-05T07:27:54.997Z</time></trkpt><trkpt lat="45.984702042883534" lon="12.090810093105551"><ele>1103.0</ele><time>2026-04-05T07:27:56.997Z</time></trkpt><trkpt lat="45.984604883786325" lon="12.090947798125145"><ele>1109.4</ele><time>2026-04-05T07:27:58.996Z</time></trkpt><trkpt lat="45.984547849589426" lon="12.091099474891449"><ele>1115.8</ele><time>2026-04-05T07:28:00.996Z</time></trkpt><trkpt lat="45.984483089149144" lon="12.091212551095438"><ele>1122.2</ele><time>2026-04-05T07:28:02.996Z</time></trkpt><trkpt lat="45.98444746903914" lon="12.091289954103992"><ele>1128.6</ele><time>2026-04-05T07:28:03.996Z</time></trkpt><trkpt lat="45.98440371861865" lon="12.091449144116245"><ele>1135.0</ele><time>2026-04-05T07:28:05.996Z</time></trkpt><trkpt lat="45.98437881992056" lon="12.091598462381562"><ele>1136.4</ele><time>2026-04-05T07:28:07.996Z</time></trkpt><trkpt lat="45.984307623094764" lon="12.091688218244277"><ele>1137.8</ele><time>2026-04-05T07:28:10.996Z</time></trkpt><trkpt lat="45.98420608858196" lon="12.091743304947405"><ele>1139.2</ele><time>2026-04-05T07:28:12.996Z</time></trkpt><trkpt lat="45.98411706186629" lon="12.09173132515025"><ele>1140.6</ele><time>2026-04-05T07:28:14.996Z</time></trkpt><trkpt lat="45.984040253801666" lon="12.091794881936607"><ele>1142.0</ele><time>2026-04-05T07:28:16.996Z</time></trkpt><trkpt lat="45.9839322584084" lon="12.091859100679706"><ele>1142.0</ele><time>2026-04-05T07:28:18.996Z</time></trkpt><trkpt lat="45.983822726449624" lon="12.091925305667111"><ele>1142.0</ele><time>2026-04-05T07:28:20.996Z</time></trkpt><trkpt lat="45.983766045737504" lon="12.091974329775097"><ele>1142.0</ele><time>2026-04-05T07:28:21.996Z</time></trkpt><trkpt lat="45.98365327130008" lon="12.09204884183278"><ele>1142.0</ele><time>2026-04-05T07:28:23.996Z</time></trkpt><trkpt lat="45.983551363210985" lon="12.092152781905362"><ele>1142.0</ele><time>2026-04-05T07:28:25.996Z</time></trkpt><trkpt lat="45.98348297966952" lon="12.092245979277553"><ele>1142.0</ele><time>2026-04-05T07:28:27.996Z</time></trkpt><trkpt lat="45.98343884250289" lon="12.092330289893251"><ele>1142.0</ele><time>2026-04-05T07:28:29.996Z</time></trkpt><trkpt lat="45.98338697067877" lon="12.092440292121402"><ele>1142.0</ele><time>2026-04-05T07:28:31.996Z</time></trkpt><trkpt lat="45.983294693095424" lon="12.092466198256153"><ele>1142.0</ele><time>2026-04-05T07:28:34.996Z</time></trkpt><trkpt lat="45.983230221091524" lon="12.092406084667253"><ele>1142.0</ele><time>2026-04-05T07:28:36.996Z</time></trkpt><trkpt lat="45.98314221994619" lon="12.092356046605119"><ele>1142.0</ele><time>2026-04-05T07:28:38.996Z</time></trkpt><trkpt lat="45.983020704227535" lon="12.092240745281998"><ele>1140.3333333333335</ele><time>2026-04-05T07:28:40.996Z</time></trkpt><trkpt lat="45.98297173767515" lon="12.092174843224743"><ele>1138.6666666666667</ele><time>2026-04-05T07:28:41.996Z</time></trkpt><trkpt lat="45.98289960717644" lon="12.092059676146418"><ele>1137.0</ele><time>2026-04-05T07:28:43.996Z</time></trkpt><trkpt lat="45.9828258821601" lon="12.092012859866085"><ele>1135.3333333333333</ele><time>2026-04-05T07:28:44.996Z</time></trkpt><trkpt lat="45.98277511024351" lon="12.091916737101428"><ele>1133.6666666666665</ele><time>2026-04-05T07:28:46.996Z</time></trkpt><trkpt lat="45.982738668155264" lon="12.091776621418305"><ele>1132.0</ele><time>2026-04-05T07:28:48.996Z</time></trkpt><trkpt lat="45.98270942187016" lon="12.091694648701136"><ele>1133.0</ele><time>2026-04-05T07:28:49.995Z</time></trkpt><trkpt lat="45.982661876013154" lon="12.091552497134145"><ele>1134.0</ele><time>2026-04-05T07:28:51.995Z</time></trkpt><trkpt lat="45.982594878148035" lon="12.091447678093457"><ele>1135.0</ele><time>2026-04-05T07:28:53.995Z</time></trkpt><trkpt lat="45.98246865125367" lon="12.091402569000683"><ele>1136.0</ele><time>2026-04-05T07:28:55.995Z</time></trkpt><trkpt lat="45.98237873204332" lon="12.091399288028292"><ele>1137.0</ele><time>2026-04-05T07:28:56.995Z</time></trkpt><trkpt lat="45.98230395260729" lon="12.091418390428725"><ele>1137.0</ele><time>2026-04-05T07:28:57.995Z</time></trkpt><trkpt lat="45.982233927357186" lon="12.091424311888646"><ele>1137.0</ele><time>2026-04-05T07:28:58.995Z</time></trkpt><trkpt lat="45.98211542264607" lon="12.091450733058664"><ele>1137.0</ele><time>2026-04-05T07:29:00.995Z</time></trkpt><trkpt lat="45.98205132437632" lon="12.091462546609128"><ele>1137.0</ele><time>2026-04-05T07:29:01.995Z</time></trkpt><trkpt lat="45.98194422170324" lon="12.09148089395243"><ele>1137.0</ele><time>2026-04-05T07:29:03.995Z</time></trkpt><trkpt lat="45.981845462049456" lon="12.091534664238194"><ele>1137.0</ele><time>2026-04-05T07:29:05.995Z</time></trkpt><trkpt lat="45.98177701960927" lon="12.091557430271207"><ele>1137.0</ele><time>2026-04-05T07:29:06.995Z</time></trkpt><trkpt lat="45.98168412449572" lon="12.091643913445635"><ele>1137.0</ele><time>2026-04-05T07:29:08.995Z</time></trkpt><trkpt lat="45.98163144050924" lon="12.091696391484842"><ele>1137.0</ele><time>2026-04-05T07:29:11.995Z</time></trkpt><trkpt lat="45.98155143200592" lon="12.0917341363534"><ele>1137.0</ele><time>2026-04-05T07:29:19.997Z</time></trkpt><trkpt lat="45.98148498113768" lon="12.091763429853003"><ele>1137.0</ele><time>2026-04-05T07:29:22.997Z</time></trkpt><trkpt lat="45.98141054892109" lon="12.09177468469727"><ele>1138.8333333333333</ele><time>2026-04-05T07:29:25.997Z</time></trkpt><trkpt lat="45.98134198773884" lon="12.091759659763758"><ele>1140.6666666666667</ele><time>2026-04-05T07:29:28.998Z</time></trkpt><trkpt lat="45.981268324964155" lon="12.091749522519606"><ele>1142.5</ele><time>2026-04-05T07:29:31.998Z</time></trkpt><trkpt lat="45.98120015503971" lon="12.091730540994957"><ele>1144.3333333333335</ele><time>2026-04-05T07:29:33.998Z</time></trkpt><trkpt lat="45.98112026120737" lon="12.091650931098332"><ele>1146.1666666666667</ele><time>2026-04-05T07:29:37.997Z</time></trkpt><trkpt lat="45.98105767100719" lon="12.091557753763162"><ele>1148.0</ele><time>2026-04-05T07:29:40.997Z</time></trkpt><trkpt lat="45.98101540289048" lon="12.09143929965551"><ele>1148.0</ele><time>2026-04-05T07:29:43.997Z</time></trkpt><trkpt lat="45.98098673618773" lon="12.091287947757966"><ele>1148.0</ele><time>2026-04-05T07:29:45.997Z</time></trkpt><trkpt lat="45.98096984887958" lon="12.091158793383325"><ele>1148.0</ele><time>2026-04-05T07:29:47.997Z</time></trkpt><trkpt lat="45.9809409028455" lon="12.09106363424635"><ele>1148.0</ele><time>2026-04-05T07:29:49.997Z</time></trkpt><trkpt lat="45.98086636061339" lon="12.09098514257698"><ele>1148.0</ele><time>2026-04-05T07:29:52.997Z</time></trkpt><trkpt lat="45.980802667835306" lon="12.090929673129617"><ele>1148.0</ele><time>2026-04-05T07:29:54.997Z</time></trkpt><trkpt lat="45.980759014529866" lon="12.090854180198852"><ele>1150.3333333333335</ele><time>2026-04-05T07:29:59.997Z</time></trkpt><trkpt lat="45.980693470533325" lon="12.090778360897628"><ele>1152.6666666666667</ele><time>2026-04-05T07:31:00.996Z</time></trkpt><trkpt lat="45.98073791121015" lon="12.090880777151332"><ele>1155.0</ele><time>2026-04-05T07:31:25.997Z</time></trkpt><trkpt lat="45.98079713964676" lon="12.090938629419488"><ele>1157.3333333333333</ele><time>2026-04-05T07:31:29.998Z</time></trkpt><trkpt lat="45.980799297543705" lon="12.091059407690771"><ele>1159.6666666666665</ele><time>2026-04-05T07:31:32.998Z</time></trkpt><trkpt lat="45.98081169058357" lon="12.091182744361308"><ele>1162.0</ele><time>2026-04-05T07:31:34.998Z</time></trkpt><trkpt lat="45.98082385187654" lon="12.091288808609768"><ele>1159.6666666666665</ele><time>2026-04-05T07:31:37.998Z</time></trkpt><trkpt lat="45.98085812440557" lon="12.091415144907536"><ele>1157.3333333333333</ele><time>2026-04-05T07:31:41.998Z</time></trkpt><trkpt lat="45.98091496665538" lon="12.091488397937056"><ele>1155.0</ele><time>2026-04-05T07:31:45.998Z</time></trkpt><trkpt lat="45.981006443914886" lon="12.091512782751082"><ele>1152.6666666666667</ele><time>2026-04-05T07:31:48.998Z</time></trkpt><trkpt lat="45.98106988660505" lon="12.091502028168298"><ele>1150.3333333333335</ele><time>2026-04-05T07:31:50.998Z</time></trkpt><trkpt lat="45.981137835307955" lon="12.091492887762058"><ele>1148.0</ele><time>2026-04-05T07:31:52.998Z</time></trkpt><trkpt lat="45.981228946653616" lon="12.091520869836346"><ele>1148.0</ele><time>2026-04-05T07:31:54.998Z</time></trkpt><trkpt lat="45.981285020708846" lon="12.091587837485804"><ele>1148.0</ele><time>2026-04-05T07:31:56.998Z</time></trkpt><trkpt lat="45.98128862466075" lon="12.09168205081689"><ele>1148.0</ele><time>2026-04-05T07:31:58.998Z</time></trkpt><trkpt lat="45.98123521944637" lon="12.091736274951252"><ele>1148.0</ele><time>2026-04-05T07:32:00.998Z</time></trkpt><trkpt lat="45.9811776115854" lon="12.091790844806084"><ele>1148.0</ele><time>2026-04-05T07:32:02.997Z</time></trkpt><trkpt lat="45.98112035296097" lon="12.09184324714726"><ele>1148.0</ele><time>2026-04-05T07:32:04.997Z</time></trkpt><trkpt lat="45.98110114650131" lon="12.091938932801183"><ele>1148.0</ele><time>2026-04-05T07:32:24.997Z</time></trkpt><trkpt lat="45.98102356033094" lon="12.091970796132022"><ele>1153.0</ele><time>2026-04-05T07:32:27.997Z</time></trkpt><trkpt lat="45.98095495237707" lon="12.09192363702044"><ele>1158.0</ele><time>2026-04-05T07:32:29.997Z</time></trkpt><trkpt lat="45.980901474675115" lon="12.091872933279465"><ele>1163.0</ele><time>2026-04-05T07:32:31.997Z</time></trkpt><trkpt lat="45.980819758191686" lon="12.091836573342363"><ele>1168.0</ele><time>2026-04-05T07:32:33.997Z</time></trkpt><trkpt lat="45.98075919267994" lon="12.091791432659123"><ele>1173.0</ele><time>2026-04-05T07:32:34.997Z</time></trkpt><trkpt lat="45.98069855097849" lon="12.091754115050136"><ele>1178.0</ele><time>2026-04-05T07:32:35.997Z</time></trkpt><trkpt lat="45.98060888566128" lon="12.091657037322062"><ele>1178.8</ele><time>2026-04-05T07:32:37.997Z</time></trkpt><trkpt lat="45.98054751213634" lon="12.091608151636478"><ele>1179.6</ele><time>2026-04-05T07:32:39.997Z</time></trkpt><trkpt lat="45.980421438642864" lon="12.09154957308154"><ele>1180.4</ele><time>2026-04-05T07:32:41.997Z</time></trkpt><trkpt lat="45.98031452058803" lon="12.09149171814816"><ele>1181.2</ele><time>2026-04-05T07:32:43.997Z</time></trkpt><trkpt lat="45.98025293715613" lon="12.091412442760594"><ele>1182.0</ele><time>2026-04-05T07:32:45.997Z</time></trkpt><trkpt lat="45.980205820710765" lon="12.091310604215556"><ele>1181.3333333333333</ele><time>2026-04-05T07:32:47.997Z</time></trkpt><trkpt lat="45.98014566897199" lon="12.091213260641041"><ele>1180.6666666666667</ele><time>2026-04-05T07:32:49.997Z</time></trkpt><trkpt lat="45.980067715605585" lon="12.091174568565789"><ele>1180.0</ele><time>2026-04-05T07:32:51.997Z</time></trkpt><trkpt lat="45.97996793260714" lon="12.091221478644641"><ele>1179.3333333333335</ele><time>2026-04-05T07:32:54.997Z</time></trkpt><trkpt lat="45.97990114024328" lon="12.091269348355397"><ele>1178.6666666666667</ele><time>2026-04-05T07:32:55.997Z</time></trkpt><trkpt lat="45.97981565387444" lon="12.091313716890523"><ele>1178.0</ele><time>2026-04-05T07:32:56.996Z</time></trkpt><trkpt lat="45.979756821305585" lon="12.0913496254509"><ele>1178.0</ele><time>2026-04-05T07:32:57.996Z</time></trkpt><trkpt lat="45.97965890128066" lon="12.091405282631326"><ele>1178.0</ele><time>2026-04-05T07:32:59.996Z</time></trkpt><trkpt lat="45.97961367525476" lon="12.091470123851014"><ele>1178.0</ele><time>2026-04-05T07:33:00.996Z</time></trkpt><trkpt lat="45.97951852081387" lon="12.09152857539541"><ele>1178.0</ele><time>2026-04-05T07:33:02.996Z</time></trkpt><trkpt lat="45.97947429663749" lon="12.091594270609335"><ele>1178.0</ele><time>2026-04-05T07:33:03.996Z</time></trkpt><trkpt lat="45.979426480974205" lon="12.091653883050968"><ele>1178.0</ele><time>2026-04-05T07:33:04.996Z</time></trkpt><trkpt lat="45.979359083507056" lon="12.091693941975619"><ele>1182.0</ele><time>2026-04-05T07:33:05.996Z</time></trkpt><trkpt lat="45.979280943128806" lon="12.091713191372786"><ele>1186.0</ele><time>2026-04-05T07:33:06.996Z</time></trkpt><trkpt lat="45.97920884790089" lon="12.091723917391917"><ele>1190.0</ele><time>2026-04-05T07:33:07.996Z</time></trkpt><trkpt lat="45.97910942516424" lon="12.091742079304534"><ele>1194.0</ele><time>2026-04-05T07:33:08.996Z</time></trkpt><trkpt lat="45.97901942673836" lon="12.091763803106549"><ele>1198.0</ele><time>2026-04-05T07:33:09.996Z</time></trkpt><trkpt lat="45.978930546464746" lon="12.09177763879825"><ele>1202.0</ele><time>2026-04-05T07:33:10.996Z</time></trkpt><trkpt lat="45.97885054510758" lon="12.091797816249514"><ele>1202.0</ele><time>2026-04-05T07:33:11.996Z</time></trkpt><trkpt lat="45.9787890443111" lon="12.091824980706392"><ele>1202.0</ele><time>2026-04-05T07:33:12.996Z</time></trkpt><trkpt lat="45.97871495561665" lon="12.091831106260184"><ele>1202.0</ele><time>2026-04-05T07:33:13.996Z</time></trkpt><trkpt lat="45.97864223573055" lon="12.091842237591822"><ele>1202.0</ele><time>2026-04-05T07:33:14.996Z</time></trkpt><trkpt lat="45.97858029585297" lon="12.091819768514986"><ele>1202.0</ele><time>2026-04-05T07:33:15.996Z</time></trkpt><trkpt lat="45.97851693898161" lon="12.091816390067539"><ele>1202.0</ele><time>2026-04-05T07:33:16.996Z</time></trkpt><trkpt lat="45.97845020602838" lon="12.091807061769003"><ele>1202.0</ele><time>2026-04-05T07:33:19.996Z</time></trkpt><trkpt lat="45.97835102768322" lon="12.091801869031181"><ele>1202.0</ele><time>2026-04-05T07:33:46.998Z</time></trkpt><trkpt lat="45.97842472651406" lon="12.09185489218585"><ele>1202.0</ele><time>2026-04-05T07:33:57.998Z</time></trkpt><trkpt lat="45.978500178812084" lon="12.091887077023783"><ele>1202.0</ele><time>2026-04-05T07:34:00.998Z</time></trkpt><trkpt lat="45.978566609259055" lon="12.09193505698863"><ele>1202.0</ele><time>2026-04-05T07:34:07.997Z</time></trkpt><trkpt lat="45.97847992726182" lon="12.09199741565728"><ele>1202.0</ele><time>2026-04-05T07:35:57.998Z</time></trkpt><trkpt lat="45.978412241380596" lon="12.092010398285518"><ele>1202.0</ele><time>2026-04-05T07:35:59.998Z</time></trkpt><trkpt lat="45.978348674478724" lon="12.09200318786113"><ele>1203.0</ele><time>2026-04-05T07:36:01.998Z</time></trkpt><trkpt lat="45.978286857775686" lon="12.09202197921429"><ele>1204.0</ele><time>2026-04-05T07:36:03.998Z</time></trkpt><trkpt lat="45.97820288335572" lon="12.092041888073071"><ele>1205.0</ele><time>2026-04-05T07:36:05.998Z</time></trkpt><trkpt lat="45.9781392465304" lon="12.092072436211236"><ele>1206.0</ele><time>2026-04-05T07:36:07.998Z</time></trkpt><trkpt lat="45.97805314840641" lon="12.09211944034058"><ele>1207.0</ele><time>2026-04-05T07:36:09.998Z</time></trkpt><trkpt lat="45.97797756459527" lon="12.092131165330558"><ele>1208.0</ele><time>2026-04-05T07:36:11.998Z</time></trkpt><trkpt lat="45.97790557430086" lon="12.092223004935624"><ele>1208.0</ele><time>2026-04-05T07:36:14.997Z</time></trkpt><trkpt lat="45.97786959012497" lon="12.092299576253259"><ele>1208.0</ele><time>2026-04-05T07:36:16.997Z</time></trkpt><trkpt lat="45.977813208148646" lon="12.092429339224712"><ele>1208.0</ele><time>2026-04-05T07:36:18.997Z</time></trkpt><trkpt lat="45.97775862430503" lon="12.09253589054577"><ele>1208.0</ele><time>2026-04-05T07:36:20.997Z</time></trkpt><trkpt lat="45.9776967798352" lon="12.092622775476126"><ele>1208.0</ele><time>2026-04-05T07:36:22.997Z</time></trkpt><trkpt lat="45.97763038916576" lon="12.09269141470109"><ele>1208.0</ele><time>2026-04-05T07:36:24.997Z</time></trkpt><trkpt lat="45.97753792317745" lon="12.092711170910404"><ele>1205.8</ele><time>2026-04-05T07:36:26.997Z</time></trkpt><trkpt lat="45.977437636412304" lon="12.092746209212176"><ele>1203.6</ele><time>2026-04-05T07:36:28.997Z</time></trkpt><trkpt lat="45.97737835384472" lon="12.092786545235171"><ele>1201.4</ele><time>2026-04-05T07:36:29.997Z</time></trkpt><trkpt lat="45.97729728336903" lon="12.092838812356266"><ele>1199.2</ele><time>2026-04-05T07:36:31.997Z</time></trkpt><trkpt lat="45.977187387874885" lon="12.092884636920598"><ele>1197.0</ele><time>2026-04-05T07:36:33.997Z</time></trkpt><trkpt lat="45.97712288158039" lon="12.092950423612043"><ele>1197.0</ele><time>2026-04-05T07:36:35.997Z</time></trkpt><trkpt lat="45.9770316634428" lon="12.09298852864639"><ele>1197.0</ele><time>2026-04-05T07:36:37.997Z</time></trkpt><trkpt lat="45.976936916270674" lon="12.093037308783405"><ele>1197.0</ele><time>2026-04-05T07:36:39.997Z</time></trkpt><trkpt lat="45.97684986456877" lon="12.093071108554268"><ele>1197.0</ele><time>2026-04-05T07:36:41.997Z</time></trkpt><trkpt lat="45.97675173260397" lon="12.09303601184917"><ele>1197.0</ele><time>2026-04-05T07:36:43.997Z</time></trkpt><trkpt lat="45.97668563061481" lon="12.093035697614516"><ele>1199.5</ele><time>2026-04-05T07:36:44.997Z</time></trkpt><trkpt lat="45.97662716024125" lon="12.092998524516272"><ele>1202.0</ele><time>2026-04-05T07:36:45.997Z</time></trkpt><trkpt lat="45.976552256313674" lon="12.09297370644519"><ele>1204.5</ele><time>2026-04-05T07:36:46.997Z</time></trkpt><trkpt lat="45.97648219925011" lon="12.092955012367089"><ele>1207.0</ele><time>2026-04-05T07:36:47.997Z</time></trkpt><trkpt lat="45.976364692969916" lon="12.092961633230813"><ele>1209.5</ele><time>2026-04-05T07:36:49.997Z</time></trkpt><trkpt lat="45.976260968700466" lon="12.09298656733951"><ele>1212.0</ele><time>2026-04-05T07:36:51.997Z</time></trkpt><trkpt lat="45.976191311221896" lon="12.093071404762568"><ele>1212.0</ele><time>2026-04-05T07:36:53.997Z</time></trkpt><trkpt lat="45.97611660405005" lon="12.093086741704097"><ele>1212.0</ele><time>2026-04-05T07:36:55.997Z</time></trkpt><trkpt lat="45.976012959992666" lon="12.093244082703194"><ele>1212.0</ele><time>2026-04-05T07:36:57.997Z</time></trkpt><trkpt lat="45.97597066925522" lon="12.093338980009035"><ele>1212.0</ele><time>2026-04-05T07:36:58.997Z</time></trkpt><trkpt lat="45.97587568725504" lon="12.093476962673964"><ele>1212.0</ele><time>2026-04-05T07:37:00.997Z</time></trkpt><trkpt lat="45.97581673918946" lon="12.09354880974367"><ele>1207.857142857143</ele><time>2026-04-05T07:37:01.997Z</time></trkpt><trkpt lat="45.97576816914042" lon="12.093625111329889"><ele>1203.7142857142858</ele><time>2026-04-05T07:37:02.997Z</time></trkpt><trkpt lat="45.97571282334941" lon="12.09370625406734"><ele>1199.5714285714284</ele><time>2026-04-05T07:37:03.997Z</time></trkpt><trkpt lat="45.97564701190542" lon="12.093743478713229"><ele>1195.4285714285716</ele><time>2026-04-05T07:37:04.997Z</time></trkpt><trkpt lat="45.97558597102967" lon="12.09379212952366"><ele>1191.2857142857142</ele><time>2026-04-05T07:37:05.997Z</time></trkpt><trkpt lat="45.97552587267148" lon="12.093842845885984"><ele>1187.142857142857</ele><time>2026-04-05T07:37:06.997Z</time></trkpt><trkpt lat="45.97547488892105" lon="12.093896719788642"><ele>1183.0</ele><time>2026-04-05T07:37:07.996Z</time></trkpt><trkpt lat="45.975419417709595" lon="12.093950210279864"><ele>1183.0</ele><time>2026-04-05T07:37:08.996Z</time></trkpt><trkpt lat="45.9753450874252" lon="12.094078022410258"><ele>1183.0</ele><time>2026-04-05T07:37:10.996Z</time></trkpt><trkpt lat="45.975271057808584" lon="12.094152752761103"><ele>1183.0</ele><time>2026-04-05T07:37:12.996Z</time></trkpt><trkpt lat="45.97515266469003" lon="12.09417994270523"><ele>1183.0</ele><time>2026-04-05T07:37:14.996Z</time></trkpt><trkpt lat="45.97508140580016" lon="12.094184759102056"><ele>1183.0</ele><time>2026-04-05T07:37:15.996Z</time></trkpt><trkpt lat="45.97496352135252" lon="12.094265581911555"><ele>1182.3333333333333</ele><time>2026-04-05T07:37:17.996Z</time></trkpt><trkpt lat="45.97490386344638" lon="12.094379672707918"><ele>1181.6666666666665</ele><time>2026-04-05T07:37:18.996Z</time></trkpt><trkpt lat="45.974861357299154" lon="12.094495588998212"><ele>1181.0</ele><time>2026-04-05T07:37:19.996Z</time></trkpt><trkpt lat="45.974824652476784" lon="12.094575551200247"><ele>1180.3333333333333</ele><time>2026-04-05T07:37:20.996Z</time></trkpt><trkpt lat="45.974800470223144" lon="12.094660814746044"><ele>1179.6666666666667</ele><time>2026-04-05T07:37:21.996Z</time></trkpt><trkpt lat="45.974752546849516" lon="12.094729088522039"><ele>1179.0</ele><time>2026-04-05T07:37:22.996Z</time></trkpt><trkpt lat="45.97468494865068" lon="12.09477450773045"><ele>1179.0</ele><time>2026-04-05T07:37:24.996Z</time></trkpt><trkpt lat="45.97458719008645" lon="12.09478453508114"><ele>1179.0</ele><time>2026-04-05T07:37:27.996Z</time></trkpt><trkpt lat="45.9744907353202" lon="12.094742100991132"><ele>1179.0</ele><time>2026-04-05T07:37:29.996Z</time></trkpt><trkpt lat="45.97439746106885" lon="12.09469904663047"><ele>1179.0</ele><time>2026-04-05T07:37:31.996Z</time></trkpt><trkpt lat="45.97428308281728" lon="12.094656839529703"><ele>1179.0</ele><time>2026-04-05T07:37:33.996Z</time></trkpt><trkpt lat="45.974176723284074" lon="12.094644208199583"><ele>1179.2</ele><time>2026-04-05T07:37:35.998Z</time></trkpt><trkpt lat="45.974111748328404" lon="12.094645404113257"><ele>1179.4</ele><time>2026-04-05T07:37:36.998Z</time></trkpt><trkpt lat="45.9739996353495" lon="12.094645187386742"><ele>1179.6</ele><time>2026-04-05T07:37:38.998Z</time></trkpt><trkpt lat="45.973894613526966" lon="12.094625781585204"><ele>1179.8</ele><time>2026-04-05T07:37:40.998Z</time></trkpt><trkpt lat="45.97379901518324" lon="12.094539578098779"><ele>1180.0</ele><time>2026-04-05T07:37:42.998Z</time></trkpt><trkpt lat="45.9737277591749" lon="12.094429860651791"><ele>1180.0</ele><time>2026-04-05T07:37:44.998Z</time></trkpt><trkpt lat="45.97365603804098" lon="12.094316238254777"><ele>1180.0</ele><time>2026-04-05T07:37:46.998Z</time></trkpt><trkpt lat="45.9735750793984" lon="12.094227061378184"><ele>1180.0</ele><time>2026-04-05T07:37:48.998Z</time></trkpt><trkpt lat="45.973465592409724" lon="12.094201086113355"><ele>1180.0</ele><time>2026-04-05T07:37:50.998Z</time></trkpt><trkpt lat="45.97335715759971" lon="12.094201091332582"><ele>1180.0</ele><time>2026-04-05T07:37:52.998Z</time></trkpt><trkpt lat="45.973246280906466" lon="12.094190352768841"><ele>1174.8</ele><time>2026-04-05T07:37:54.998Z</time></trkpt><trkpt lat="45.97315323953436" lon="12.094181106654505"><ele>1169.6</ele><time>2026-04-05T07:37:56.998Z</time></trkpt><trkpt lat="45.97306294533744" lon="12.09424416394526"><ele>1164.4</ele><time>2026-04-05T07:37:58.998Z</time></trkpt><trkpt lat="45.97300184211577" lon="12.094343629958258"><ele>1159.2</ele><time>2026-04-05T07:38:00.997Z</time></trkpt><trkpt lat="45.97294076669636" lon="12.094418904897866"><ele>1154.0</ele><time>2026-04-05T07:38:02.997Z</time></trkpt><trkpt lat="45.97286294164833" lon="12.094501863897307"><ele>1154.0</ele><time>2026-04-05T07:38:05.997Z</time></trkpt><trkpt lat="45.972774476342195" lon="12.094550453298073"><ele>1154.0</ele><time>2026-04-05T07:38:07.997Z</time></trkpt><trkpt lat="45.97265600474471" lon="12.094540585541068"><ele>1154.0</ele><time>2026-04-05T07:38:09.997Z</time></trkpt><trkpt lat="45.97254891295084" lon="12.0945604615448"><ele>1154.0</ele><time>2026-04-05T07:38:11.997Z</time></trkpt><trkpt lat="45.972475818485044" lon="12.094641150126506"><ele>1154.0</ele><time>2026-04-05T07:38:13.997Z</time></trkpt><trkpt lat="45.972401245016286" lon="12.094751110282296"><ele>1154.3333333333335</ele><time>2026-04-05T07:38:15.997Z</time></trkpt><trkpt lat="45.972354697386024" lon="12.094822202951992"><ele>1154.6666666666667</ele><time>2026-04-05T07:38:16.997Z</time></trkpt><trkpt lat="45.97230099931788" lon="12.094879893491989"><ele>1155.0</ele><time>2026-04-05T07:38:17.997Z</time></trkpt><trkpt lat="45.97222293105705" lon="12.094984210675795"><ele>1155.3333333333333</ele><time>2026-04-05T07:38:19.997Z</time></trkpt><trkpt lat="45.97211103657851" lon="12.095060550963266"><ele>1155.6666666666665</ele><time>2026-04-05T07:38:21.997Z</time></trkpt><trkpt lat="45.97204178992806" lon="12.095100694226488"><ele>1156.0</ele><time>2026-04-05T07:38:23.997Z</time></trkpt><trkpt lat="45.97197673430812" lon="12.095124249418996"><ele>1150.6666666666665</ele><time>2026-04-05T07:38:25.997Z</time></trkpt><trkpt lat="45.97191005165974" lon="12.095184075400308"><ele>1145.3333333333333</ele><time>2026-04-05T07:38:27.997Z</time></trkpt><trkpt lat="45.971970658226184" lon="12.095240882954357"><ele>1140.0</ele><time>2026-04-05T07:38:34.997Z</time></trkpt><trkpt lat="45.97206641569147" lon="12.09519212868758"><ele>1134.6666666666667</ele><time>2026-04-05T07:38:37.997Z</time></trkpt><trkpt lat="45.97214925482057" lon="12.095154021486328"><ele>1129.3333333333335</ele><time>2026-04-05T07:38:39.997Z</time></trkpt><trkpt lat="45.972229069628476" lon="12.095119859122196"><ele>1124.0</ele><time>2026-04-05T07:38:41.997Z</time></trkpt><trkpt lat="45.97231029518789" lon="12.095089084143446"><ele>1124.0</ele><time>2026-04-05T07:38:43.997Z</time></trkpt><trkpt lat="45.97237323602827" lon="12.09505135226951"><ele>1124.0</ele><time>2026-04-05T07:38:45.997Z</time></trkpt><trkpt lat="45.972438504338086" lon="12.09500193922712"><ele>1124.0</ele><time>2026-04-05T07:38:47.997Z</time></trkpt><trkpt lat="45.97253308014895" lon="12.094999021243162"><ele>1124.0</ele><time>2026-04-05T07:38:49.997Z</time></trkpt><trkpt lat="45.97261886418889" lon="12.095051451943554"><ele>1124.0</ele><time>2026-04-05T07:38:51.997Z</time></trkpt><trkpt lat="45.97269344793824" lon="12.095080809943605"><ele>1124.0</ele><time>2026-04-05T07:38:53.996Z</time></trkpt><trkpt lat="45.972774712080366" lon="12.095092513479148"><ele>1123.1666666666667</ele><time>2026-04-05T07:38:55.996Z</time></trkpt><trkpt lat="45.97287142648712" lon="12.09508784791976"><ele>1122.3333333333335</ele><time>2026-04-05T07:38:57.996Z</time></trkpt><trkpt lat="45.97296476140477" lon="12.095100209147882"><ele>1121.5</ele><time>2026-04-05T07:38:59.996Z</time></trkpt><trkpt lat="45.97304435165001" lon="12.095123652955788"><ele>1120.6666666666667</ele><time>2026-04-05T07:39:01.996Z</time></trkpt><trkpt lat="45.97313073242062" lon="12.095188557436899"><ele>1119.8333333333333</ele><time>2026-04-05T07:39:03.996Z</time></trkpt><trkpt lat="45.97316415350673" lon="12.095274981684755"><ele>1119.0</ele><time>2026-04-05T07:39:05.996Z</time></trkpt><trkpt lat="45.97322174266774" lon="12.095408217617093"><ele>1119.0</ele><time>2026-04-05T07:39:07.996Z</time></trkpt><trkpt lat="45.973288443925526" lon="12.095543384496859"><ele>1119.0</ele><time>2026-04-05T07:39:09.996Z</time></trkpt><trkpt lat="45.973355301421655" lon="12.095670906110914"><ele>1119.0</ele><time>2026-04-05T07:39:11.996Z</time></trkpt><trkpt lat="45.973410289985175" lon="12.095794603509788"><ele>1119.0</ele><time>2026-04-05T07:39:13.996Z</time></trkpt><trkpt lat="45.97344594895821" lon="12.095880710684296"><ele>1119.0</ele><time>2026-04-05T07:39:15.996Z</time></trkpt><trkpt lat="45.97349979078459" lon="12.095948229611952"><ele>1118.5</ele><time>2026-04-05T07:39:17.996Z</time></trkpt><trkpt lat="45.97359462467258" lon="12.09603475735056"><ele>1118.0</ele><time>2026-04-05T07:39:19.996Z</time></trkpt><trkpt lat="45.97365936393899" lon="12.096093838248656"><ele>1117.5</ele><time>2026-04-05T07:39:21.996Z</time></trkpt><trkpt lat="45.973714921622324" lon="12.09617708729144"><ele>1117.0</ele><time>2026-04-05T07:39:24.996Z</time></trkpt><trkpt lat="45.97372685847802" lon="12.096273126841188"><ele>1116.5</ele><time>2026-04-05T07:39:27.996Z</time></trkpt><trkpt lat="45.97365702151561" lon="12.096232070098539"><ele>1116.0</ele><time>2026-04-05T07:39:33.996Z</time></trkpt><trkpt lat="45.97357673415175" lon="12.096167306537524"><ele>1116.0</ele><time>2026-04-05T07:39:35.996Z</time></trkpt><trkpt lat="45.97348056829669" lon="12.096140086059181"><ele>1116.0</ele><time>2026-04-05T07:39:37.996Z</time></trkpt><trkpt lat="45.97339441254659" lon="12.09609978659939"><ele>1116.0</ele><time>2026-04-05T07:39:39.996Z</time></trkpt><trkpt lat="45.9733207608866" lon="12.095997194286957"><ele>1116.0</ele><time>2026-04-05T07:39:41.998Z</time></trkpt><trkpt lat="45.97323253993693" lon="12.095923210440377"><ele>1116.0</ele><time>2026-04-05T07:39:43.997Z</time></trkpt><trkpt lat="45.973144871534934" lon="12.095821349231112"><ele>1116.5</ele><time>2026-04-05T07:39:45.998Z</time></trkpt><trkpt lat="45.973053016154665" lon="12.095754347218682"><ele>1117.0</ele><time>2026-04-05T07:39:47.999Z</time></trkpt><trkpt lat="45.972964456658815" lon="12.095751143592638"><ele>1117.5</ele><time>2026-04-05T07:39:49.998Z</time></trkpt><trkpt lat="45.97287277785809" lon="12.095829405906551"><ele>1118.0</ele><time>2026-04-05T07:39:51.998Z</time></trkpt><trkpt lat="45.972810998150194" lon="12.095863310550005"><ele>1118.5</ele><time>2026-04-05T07:39:52.998Z</time></trkpt><trkpt lat="45.97274431394129" lon="12.095870850572474"><ele>1119.0</ele><time>2026-04-05T07:39:54.998Z</time></trkpt><trkpt lat="45.97266376571662" lon="12.095914457564646"><ele>1113.0</ele><time>2026-04-05T07:39:56.998Z</time></trkpt><trkpt lat="45.97260635251127" lon="12.095956502930944"><ele>1107.0</ele><time>2026-04-05T07:39:57.998Z</time></trkpt><trkpt lat="45.97250644268677" lon="12.096052096110483"><ele>1101.0</ele><time>2026-04-05T07:39:59.998Z</time></trkpt><trkpt lat="45.97245012261331" lon="12.096113014144265"><ele>1095.0</ele><time>2026-04-05T07:40:00.997Z</time></trkpt><trkpt lat="45.9723937945207" lon="12.096167180680677"><ele>1089.0</ele><time>2026-04-05T07:40:01.997Z</time></trkpt><trkpt lat="45.97229917319203" lon="12.09624266958306"><ele>1083.0</ele><time>2026-04-05T07:40:03.997Z</time></trkpt><trkpt lat="45.9722313362434" lon="12.09636170412909"><ele>1083.0</ele><time>2026-04-05T07:40:05.997Z</time></trkpt><trkpt lat="45.97215464947526" lon="12.096446977076653"><ele>1083.0</ele><time>2026-04-05T07:40:07.997Z</time></trkpt><trkpt lat="45.97206965197242" lon="12.096527823461853"><ele>1083.0</ele><time>2026-04-05T07:40:09.997Z</time></trkpt><trkpt lat="45.971991447843735" lon="12.096518622586506"><ele>1083.0</ele><time>2026-04-05T07:40:11.997Z</time></trkpt><trkpt lat="45.97190841842888" lon="12.096509301547313"><ele>1083.0</ele><time>2026-04-05T07:40:13.997Z</time></trkpt><trkpt lat="45.971812050299526" lon="12.096499636563813"><ele>1083.0</ele><time>2026-04-05T07:40:15.997Z</time></trkpt><trkpt lat="45.97174662423128" lon="12.096487437663912"><ele>1083.0</ele><time>2026-04-05T07:40:17.997Z</time></trkpt><trkpt lat="45.97168683745754" lon="12.096534282879595"><ele>1083.0</ele><time>2026-04-05T07:40:18.997Z</time></trkpt><trkpt lat="45.97162137219154" lon="12.09653940446589"><ele>1083.0</ele><time>2026-04-05T07:40:19.997Z</time></trkpt><trkpt lat="45.97151872722627" lon="12.096610713764008"><ele>1083.0</ele><time>2026-04-05T07:40:21.997Z</time></trkpt><trkpt lat="45.97146048860894" lon="12.096649323990297"><ele>1083.0</ele><time>2026-04-05T07:40:22.997Z</time></trkpt><trkpt lat="45.97141155131996" lon="12.09670841593781"><ele>1083.0</ele><time>2026-04-05T07:40:23.997Z</time></trkpt><trkpt lat="45.97131088912796" lon="12.096794366133121"><ele>1077.8333333333333</ele><time>2026-04-05T07:40:25.997Z</time></trkpt><trkpt lat="45.97122774446382" lon="12.096849383370222"><ele>1072.6666666666667</ele><time>2026-04-05T07:40:27.997Z</time></trkpt><trkpt lat="45.97115766732831" lon="12.09689010220015"><ele>1067.5</ele><time>2026-04-05T07:40:28.997Z</time></trkpt><trkpt lat="45.97109416030661" lon="12.096950792758104"><ele>1062.3333333333335</ele><time>2026-04-05T07:40:29.997Z</time></trkpt><trkpt lat="45.97102828179382" lon="12.096992451838673"><ele>1057.1666666666667</ele><time>2026-04-05T07:40:30.997Z</time></trkpt><trkpt lat="45.97092162164304" lon="12.097035331549316"><ele>1052.0</ele><time>2026-04-05T07:40:32.997Z</time></trkpt><trkpt lat="45.97081415092308" lon="12.09707535163625"><ele>1052.0</ele><time>2026-04-05T07:40:34.997Z</time></trkpt><trkpt lat="45.970748104007036" lon="12.097109128132567"><ele>1052.0</ele><time>2026-04-05T07:40:35.997Z</time></trkpt><trkpt lat="45.97067826644043" lon="12.09711373654796"><ele>1052.0</ele><time>2026-04-05T07:40:36.997Z</time></trkpt><trkpt lat="45.970569585265494" lon="12.097174202603947"><ele>1052.0</ele><time>2026-04-05T07:40:38.997Z</time></trkpt><trkpt lat="45.97050263583743" lon="12.097177622056927"><ele>1052.0</ele><time>2026-04-05T07:40:40.997Z</time></trkpt><trkpt lat="45.97042217827579" lon="12.097240686808398"><ele>1052.0</ele><time>2026-04-05T07:40:42.997Z</time></trkpt><trkpt lat="45.97033704430221" lon="12.097244928006699"><ele>1052.0</ele><time>2026-04-05T07:40:44.997Z</time></trkpt><trkpt lat="45.97026102421815" lon="12.097293498890997"><ele>1052.0</ele><time>2026-04-05T07:40:46.997Z</time></trkpt><trkpt lat="45.97020512778049" lon="12.097348379117742"><ele>1052.0</ele><time>2026-04-05T07:40:51.997Z</time></trkpt><trkpt lat="45.97011084495393" lon="12.09740978921686"><ele>1052.0</ele><time>2026-04-05T07:40:56.997Z</time></trkpt><trkpt lat="45.9699886451745" lon="12.09744366578763"><ele>1052.0</ele><time>2026-04-05T07:40:58.997Z</time></trkpt><trkpt lat="45.969918504294476" lon="12.0974540666465"><ele>1052.0</ele><time>2026-04-05T07:40:59.997Z</time></trkpt><trkpt lat="45.96984018073477" lon="12.097472435943644"><ele>1045.8</ele><time>2026-04-05T07:41:00.997Z</time></trkpt><trkpt lat="45.969754944328955" lon="12.097499101543425"><ele>1039.6</ele><time>2026-04-05T07:41:01.996Z</time></trkpt><trkpt lat="45.96967685824699" lon="12.09751341264445"><ele>1033.3999999999999</ele><time>2026-04-05T07:41:02.996Z</time></trkpt><trkpt lat="45.96959900171202" lon="12.097536751352695"><ele>1027.2</ele><time>2026-04-05T07:41:03.996Z</time></trkpt><trkpt lat="45.969531189442854" lon="12.097572003417634"><ele>1021.0</ele><time>2026-04-05T07:41:04.996Z</time></trkpt><trkpt lat="45.969403112556385" lon="12.09762810585042"><ele>1020.9999999999999</ele><time>2026-04-05T07:41:06.996Z</time></trkpt><trkpt lat="45.96933129470487" lon="12.097683361208443"><ele>1021.0</ele><time>2026-04-05T07:41:07.996Z</time></trkpt><trkpt lat="45.9692589583346" lon="12.097738041216406"><ele>1021.0</ele><time>2026-04-05T07:41:08.996Z</time></trkpt><trkpt lat="45.96918884459572" lon="12.09779413262163"><ele>1021.0</ele><time>2026-04-05T07:41:09.996Z</time></trkpt><trkpt lat="45.96912723855985" lon="12.097866972186068"><ele>1020.9999999999999</ele><time>2026-04-05T07:41:10.996Z</time></trkpt><trkpt lat="45.969043077152996" lon="12.097992995236483"><ele>1021.0</ele><time>2026-04-05T07:41:12.996Z</time></trkpt><trkpt lat="45.96898200244525" lon="12.098158030962603"><ele>1021.8</ele><time>2026-04-05T07:41:14.996Z</time></trkpt><trkpt lat="45.968899042434614" lon="12.09835826965214"><ele>1022.5999999999999</ele><time>2026-04-05T07:41:16.996Z</time></trkpt><trkpt lat="45.968855743305554" lon="12.098461548375937"><ele>1023.4</ele><time>2026-04-05T07:41:17.996Z</time></trkpt><trkpt lat="45.96880192572224" lon="12.09852924633115"><ele>1024.2</ele><time>2026-04-05T07:41:18.996Z</time></trkpt><trkpt lat="45.96874765878989" lon="12.098592951840642"><ele>1025.0</ele><time>2026-04-05T07:41:19.996Z</time></trkpt><trkpt lat="45.96867872609051" lon="12.098644381212232"><ele>1025.0</ele><time>2026-04-05T07:41:20.996Z</time></trkpt><trkpt lat="45.96856060974992" lon="12.098682377135457"><ele>1025.0</ele><time>2026-04-05T07:41:22.996Z</time></trkpt><trkpt lat="45.96848007916462" lon="12.09872824246145"><ele>1025.0</ele><time>2026-04-05T07:41:24.996Z</time></trkpt><trkpt lat="45.96838277290612" lon="12.098861454988263"><ele>1025.0</ele><time>2026-04-05T07:41:26.996Z</time></trkpt><trkpt lat="45.96832339442636" lon="12.0989661432618"><ele>1025.0</ele><time>2026-04-05T07:41:27.996Z</time></trkpt><trkpt lat="45.968269728760845" lon="12.099072566108312"><ele>1022.4285714285713</ele><time>2026-04-05T07:41:28.996Z</time></trkpt><trkpt lat="45.968220510029894" lon="12.099165716664361"><ele>1019.8571428571429</ele><time>2026-04-05T07:41:29.996Z</time></trkpt><trkpt lat="45.96817994256641" lon="12.09924368764755"><ele>1017.2857142857142</ele><time>2026-04-05T07:41:30.996Z</time></trkpt><trkpt lat="45.96813156020582" lon="12.099311793467464"><ele>1014.7142857142857</ele><time>2026-04-05T07:41:31.996Z</time></trkpt><trkpt lat="45.96808001920589" lon="12.099393226215923"><ele>1012.1428571428571</ele><time>2026-04-05T07:41:32.996Z</time></trkpt><trkpt lat="45.96804471004119" lon="12.099476144366031"><ele>1009.5714285714286</ele><time>2026-04-05T07:41:33.996Z</time></trkpt><trkpt lat="45.96800138359153" lon="12.099565433873593"><ele>1007.0</ele><time>2026-04-05T07:41:34.996Z</time></trkpt><trkpt lat="45.96798335769851" lon="12.099653983957655"><ele>1007.0000000000001</ele><time>2026-04-05T07:41:35.996Z</time></trkpt><trkpt lat="45.967954562700925" lon="12.099769026739738"><ele>1007.0</ele><time>2026-04-05T07:41:36.996Z</time></trkpt><trkpt lat="45.967921488967804" lon="12.099877061033476"><ele>1007.0</ele><time>2026-04-05T07:41:37.996Z</time></trkpt><trkpt lat="45.96787945504745" lon="12.099965857342884"><ele>1007.0</ele><time>2026-04-05T07:41:38.996Z</time></trkpt><trkpt lat="45.967837159162414" lon="12.100036972011507"><ele>1007.0000000000001</ele><time>2026-04-05T07:41:39.996Z</time></trkpt><trkpt lat="45.96779596058005" lon="12.100113774386722"><ele>1007.0</ele><time>2026-04-05T07:41:40.996Z</time></trkpt><trkpt lat="45.967714716303924" lon="12.100207795016425"><ele>1003.8</ele><time>2026-04-05T07:41:42.996Z</time></trkpt><trkpt lat="45.96763321609243" lon="12.100299729276198"><ele>1000.6</ele><time>2026-04-05T07:41:44.996Z</time></trkpt><trkpt lat="45.967513424221366" lon="12.100363880427688"><ele>997.3999999999999</ele><time>2026-04-05T07:41:46.998Z</time></trkpt><trkpt lat="45.967435243965845" lon="12.100466602509185"><ele>994.1999999999999</ele><time>2026-04-05T07:41:50.998Z</time></trkpt><trkpt lat="45.967427990686865" lon="12.100557540177437"><ele>991.0</ele><time>2026-04-05T07:41:51.998Z</time></trkpt><trkpt lat="45.967398167100264" lon="12.100727293064086"><ele>990.8</ele><time>2026-04-05T07:41:53.998Z</time></trkpt><trkpt lat="45.96733079902779" lon="12.100874991676418"><ele>990.5999999999999</ele><time>2026-04-05T07:41:55.998Z</time></trkpt><trkpt lat="45.967262631637" lon="12.101017051183092"><ele>990.4</ele><time>2026-04-05T07:41:57.998Z</time></trkpt><trkpt lat="45.96723713321311" lon="12.101127266611085"><ele>990.2</ele><time>2026-04-05T07:41:58.998Z</time></trkpt><trkpt lat="45.96719400834234" lon="12.101222225293089"><ele>990.0</ele><time>2026-04-05T07:41:59.998Z</time></trkpt><trkpt lat="45.96715256901413" lon="12.101302885303134"><ele>990.0</ele><time>2026-04-05T07:42:00.998Z</time></trkpt><trkpt lat="45.96710090087421" lon="12.101365627189484"><ele>990.0</ele><time>2026-04-05T07:42:01.998Z</time></trkpt><trkpt lat="45.9670478336074" lon="12.101414778943212"><ele>990.0</ele><time>2026-04-05T07:42:02.998Z</time></trkpt><trkpt lat="45.96695618257644" lon="12.101479341612393"><ele>990.0</ele><time>2026-04-05T07:42:03.998Z</time></trkpt><trkpt lat="45.96686490502551" lon="12.101548990495964"><ele>990.0</ele><time>2026-04-05T07:42:04.998Z</time></trkpt><trkpt lat="45.96676068208412" lon="12.101613637988644"><ele>987.4</ele><time>2026-04-05T07:42:05.998Z</time></trkpt><trkpt lat="45.96665437232734" lon="12.101681264401009"><ele>984.8</ele><time>2026-04-05T07:42:06.998Z</time></trkpt><trkpt lat="45.96654941025149" lon="12.10173636736129"><ele>982.2</ele><time>2026-04-05T07:42:07.998Z</time></trkpt><trkpt lat="45.966470369768025" lon="12.101765351437715"><ele>979.6</ele><time>2026-04-05T07:42:08.998Z</time></trkpt><trkpt lat="45.966350424141645" lon="12.101791580184765"><ele>977.0</ele><time>2026-04-05T07:42:10.998Z</time></trkpt><trkpt lat="45.966227540064025" lon="12.101789673332027"><ele>977.0</ele><time>2026-04-05T07:42:12.998Z</time></trkpt><trkpt lat="45.966138894061714" lon="12.101818794852601"><ele>977.0</ele><time>2026-04-05T07:42:14.998Z</time></trkpt><trkpt lat="45.96608591623145" lon="12.101934175336426"><ele>977.0</ele><time>2026-04-05T07:42:16.998Z</time></trkpt><trkpt lat="45.966066612529154" lon="12.102087936697364"><ele>977.0</ele><time>2026-04-05T07:42:18.998Z</time></trkpt><trkpt lat="45.9660461954445" lon="12.102232876008179"><ele>977.0</ele><time>2026-04-05T07:42:20.998Z</time></trkpt><trkpt lat="45.96601832674766" lon="12.102334750680953"><ele>978.3333333333334</ele><time>2026-04-05T07:42:21.998Z</time></trkpt><trkpt lat="45.96599059252259" lon="12.102463613081174"><ele>979.6666666666667</ele><time>2026-04-05T07:42:22.998Z</time></trkpt><trkpt lat="45.9659581806977" lon="12.102578976327239"><ele>981.0</ele><time>2026-04-05T07:42:23.998Z</time></trkpt><trkpt lat="45.96592514006693" lon="12.102677341144433"><ele>982.3333333333333</ele><time>2026-04-05T07:42:24.998Z</time></trkpt><trkpt lat="45.965899928980186" lon="12.102789869105402"><ele>983.6666666666666</ele><time>2026-04-05T07:42:25.998Z</time></trkpt><trkpt lat="45.96585928872881" lon="12.102923394499658"><ele>985.0</ele><time>2026-04-05T07:42:27.998Z</time></trkpt><trkpt lat="45.965771078163264" lon="12.103015717986436"><ele>981.4</ele><time>2026-04-05T07:42:29.998Z</time></trkpt><trkpt lat="45.965689055480055" lon="12.103039238361685"><ele>977.8</ele><time>2026-04-05T07:42:30.998Z</time></trkpt><trkpt lat="45.965587587207146" lon="12.103095928033477"><ele>974.2</ele><time>2026-04-05T07:42:32.998Z</time></trkpt><trkpt lat="45.96550218587941" lon="12.103149574976792"><ele>970.6</ele><time>2026-04-05T07:42:34.998Z</time></trkpt><trkpt lat="45.965484933695805" lon="12.103264031856527"><ele>967.0</ele><time>2026-04-05T07:42:36.998Z</time></trkpt><trkpt lat="45.96550329079539" lon="12.103451974351161"><ele>967.0</ele><time>2026-04-05T07:42:38.998Z</time></trkpt><trkpt lat="45.965508089638895" lon="12.103543837680448"><ele>967.0</ele><time>2026-04-05T07:42:39.998Z</time></trkpt><trkpt lat="45.965542656368086" lon="12.103714782721068"><ele>967.0</ele><time>2026-04-05T07:42:41.998Z</time></trkpt><trkpt lat="45.965558908341784" lon="12.103892710632932"><ele>967.0</ele><time>2026-04-05T07:42:43.998Z</time></trkpt><trkpt lat="45.96555149586111" lon="12.10398601384378"><ele>967.0</ele><time>2026-04-05T07:42:44.998Z</time></trkpt><trkpt lat="45.9655017983346" lon="12.1040845939315"><ele>966.8</ele><time>2026-04-05T07:42:46.997Z</time></trkpt><trkpt lat="45.96540351879467" lon="12.104175572432371"><ele>966.6</ele><time>2026-04-05T07:42:48.997Z</time></trkpt><trkpt lat="45.965365652485254" lon="12.10427058669692"><ele>966.3999999999999</ele><time>2026-04-05T07:42:49.997Z</time></trkpt><trkpt lat="45.9652922035433" lon="12.104414365519363"><ele>966.1999999999999</ele><time>2026-04-05T07:42:51.997Z</time></trkpt><trkpt lat="45.96525084442638" lon="12.10448534499791"><ele>966.0</ele><time>2026-04-05T07:42:52.997Z</time></trkpt><trkpt lat="45.96519639841065" lon="12.10457563925559"><ele>966.0</ele><time>2026-04-05T07:42:54.997Z</time></trkpt><trkpt lat="45.965180981047276" lon="12.104668457704578"><ele>965.9999999999999</ele><time>2026-04-05T07:42:56.997Z</time></trkpt><trkpt lat="45.96521135989676" lon="12.104763020162359"><ele>965.9999999999999</ele><time>2026-04-05T07:42:58.997Z</time></trkpt><trkpt lat="45.96527560873975" lon="12.104872393425282"><ele>966.0</ele><time>2026-04-05T07:43:00.997Z</time></trkpt><trkpt lat="45.96534109718505" lon="12.104992947958674"><ele>966.0</ele><time>2026-04-05T07:43:02.997Z</time></trkpt><trkpt lat="45.96538106471125" lon="12.105137075742986"><ele>963.4</ele><time>2026-04-05T07:43:04.997Z</time></trkpt><trkpt lat="45.96537046956214" lon="12.105241221659066"><ele>960.8</ele><time>2026-04-05T07:43:07.997Z</time></trkpt><trkpt lat="45.96530098876168" lon="12.105266671573926"><ele>958.1999999999999</ele><time>2026-04-05T07:43:11.997Z</time></trkpt><trkpt lat="45.96524228102769" lon="12.105162664648569"><ele>955.5999999999999</ele><time>2026-04-05T07:43:15.997Z</time></trkpt><trkpt lat="45.96514325920515" lon="12.105108639106763"><ele>953.0</ele><time>2026-04-05T07:43:17.997Z</time></trkpt><trkpt lat="45.96502656379956" lon="12.10510939319219"><ele>948.8333333333334</ele><time>2026-04-05T07:43:19.997Z</time></trkpt><trkpt lat="45.964956133950096" lon="12.105099794029089"><ele>944.6666666666667</ele><time>2026-04-05T07:43:20.997Z</time></trkpt><trkpt lat="45.9648923469051" lon="12.10510362505819"><ele>940.5</ele><time>2026-04-05T07:43:21.997Z</time></trkpt><trkpt lat="45.96482841234622" lon="12.105081832657726"><ele>936.3333333333333</ele><time>2026-04-05T07:43:22.997Z</time></trkpt><trkpt lat="45.9647583814526" lon="12.105051678514691"><ele>932.1666666666666</ele><time>2026-04-05T07:43:24.997Z</time></trkpt><trkpt lat="45.964678809686994" lon="12.104963049438142"><ele>928.0</ele><time>2026-04-05T07:43:26.997Z</time></trkpt><trkpt lat="45.96460299610228" lon="12.104845851430671"><ele>927.9999999999999</ele><time>2026-04-05T07:43:28.997Z</time></trkpt><trkpt lat="45.96457924264492" lon="12.104734791540256"><ele>928.0</ele><time>2026-04-05T07:43:30.997Z</time></trkpt><trkpt lat="45.96455802687916" lon="12.104589612455117"><ele>928.0</ele><time>2026-04-05T07:43:33.997Z</time></trkpt><trkpt lat="45.96457513005232" lon="12.104493519277428"><ele>928.0</ele><time>2026-04-05T07:43:35.997Z</time></trkpt><trkpt lat="45.96464854452474" lon="12.104419596904174"><ele>927.9999999999999</ele><time>2026-04-05T07:43:37.997Z</time></trkpt><trkpt lat="45.9647156406846" lon="12.104349813862068"><ele>928.0</ele><time>2026-04-05T07:43:39.996Z</time></trkpt><trkpt lat="45.964835372819785" lon="12.10427281574977"><ele>928.0</ele><time>2026-04-05T07:43:41.996Z</time></trkpt><trkpt lat="45.964854066719525" lon="12.104128270625209"><ele>928.0</ele><time>2026-04-05T07:43:44.996Z</time></trkpt><trkpt lat="45.96480400726707" lon="12.104007730639113"><ele>928.0</ele><time>2026-04-05T07:43:46.996Z</time></trkpt><trkpt lat="45.96475821115125" lon="12.103904857658769"><ele>928.0</ele><time>2026-04-05T07:43:47.996Z</time></trkpt><trkpt lat="45.96471997265384" lon="12.10382062004261"><ele>928.0</ele><time>2026-04-05T07:43:48.996Z</time></trkpt><trkpt lat="45.96463272195319" lon="12.103696950789336"><ele>928.2</ele><time>2026-04-05T07:43:50.996Z</time></trkpt><trkpt lat="45.96458262172772" lon="12.103628568721078"><ele>928.4</ele><time>2026-04-05T07:43:51.999Z</time></trkpt><trkpt lat="45.96452659997123" lon="12.103520748587124"><ele>928.6000000000001</ele><time>2026-04-05T07:43:53.998Z</time></trkpt><trkpt lat="45.964477134320475" lon="12.103417919105329"><ele>928.8000000000001</ele><time>2026-04-05T07:43:55.998Z</time></trkpt><trkpt lat="45.964478986161076" lon="12.103285015195068"><ele>929.0</ele><time>2026-04-05T07:43:57.998Z</time></trkpt><trkpt lat="45.96448128960474" lon="12.103111431422466"><ele>927.5000000000001</ele><time>2026-04-05T07:43:59.998Z</time></trkpt><trkpt lat="45.96448949479733" lon="12.1029874759262"><ele>926.0</ele><time>2026-04-05T07:44:00.998Z</time></trkpt><trkpt lat="45.96450943458186" lon="12.102894812606136"><ele>924.5</ele><time>2026-04-05T07:44:01.999Z</time></trkpt><trkpt lat="45.96451287717329" lon="12.10279923690537"><ele>923.0</ele><time>2026-04-05T07:44:02.999Z</time></trkpt><trkpt lat="45.964555164904844" lon="12.102652443879032"><ele>921.5000000000001</ele><time>2026-04-05T07:44:04.998Z</time></trkpt><trkpt lat="45.9645870010318" lon="12.102560806410075"><ele>920.0</ele><time>2026-04-05T07:44:05.998Z</time></trkpt><trkpt lat="45.96462323162313" lon="12.102478995444448"><ele>918.6666666666667</ele><time>2026-04-05T07:44:06.998Z</time></trkpt><trkpt lat="45.96465754806492" lon="12.10238516235768"><ele>917.3333333333334</ele><time>2026-04-05T07:44:07.998Z</time></trkpt><trkpt lat="45.96470323718836" lon="12.102277818758063"><ele>916.0</ele><time>2026-04-05T07:44:09.998Z</time></trkpt><trkpt lat="45.964724620165406" lon="12.102158640447513"><ele>914.6666666666667</ele><time>2026-04-05T07:44:12.998Z</time></trkpt><trkpt lat="45.96465011819022" lon="12.102121991535032"><ele>913.3333333333334</ele><time>2026-04-05T07:44:15.998Z</time></trkpt><trkpt lat="45.96459708223318" lon="12.10218825500064"><ele>912.0</ele><time>2026-04-05T07:44:17.998Z</time></trkpt><trkpt lat="45.964516456714094" lon="12.102287073814077"><ele>912.0</ele><time>2026-04-05T07:44:19.997Z</time></trkpt><trkpt lat="45.964458621573065" lon="12.102332560753862"><ele>912.0</ele><time>2026-04-05T07:44:20.997Z</time></trkpt><trkpt lat="45.96440432524654" lon="12.102409276809734"><ele>912.0</ele><time>2026-04-05T07:44:21.997Z</time></trkpt><trkpt lat="45.96433520510261" lon="12.102479586509917"><ele>912.0</ele><time>2026-04-05T07:44:22.997Z</time></trkpt><trkpt lat="45.96429752417145" lon="12.10255918609019"><ele>912.0</ele><time>2026-04-05T07:44:23.997Z</time></trkpt><trkpt lat="45.964234052249274" lon="12.102632058158887"><ele>912.0</ele><time>2026-04-05T07:44:24.997Z</time></trkpt><trkpt lat="45.964175452026154" lon="12.10270096345455"><ele>906.8333333333334</ele><time>2026-04-05T07:44:25.997Z</time></trkpt><trkpt lat="45.9641206681942" lon="12.102782610382484"><ele>901.6666666666667</ele><time>2026-04-05T07:44:26.997Z</time></trkpt><trkpt lat="45.964065397913224" lon="12.102874194874557"><ele>896.5</ele><time>2026-04-05T07:44:27.997Z</time></trkpt><trkpt lat="45.96399699473111" lon="12.102943939433999"><ele>891.3333333333334</ele><time>2026-04-05T07:44:28.997Z</time></trkpt><trkpt lat="45.96393310213543" lon="12.103015441598307"><ele>886.1666666666667</ele><time>2026-04-05T07:44:29.997Z</time></trkpt><trkpt lat="45.963883781645585" lon="12.103081393917165"><ele>881.0</ele><time>2026-04-05T07:44:30.997Z</time></trkpt><trkpt lat="45.96384730994914" lon="12.103243726050687"><ele>882.3333333333334</ele><time>2026-04-05T07:44:32.997Z</time></trkpt><trkpt lat="45.963852168474325" lon="12.103387183236595"><ele>883.6666666666667</ele><time>2026-04-05T07:44:34.997Z</time></trkpt><trkpt lat="45.96387771391412" lon="12.103555548821177"><ele>885.0</ele><time>2026-04-05T07:44:36.997Z</time></trkpt><trkpt lat="45.96391513427867" lon="12.10365031385777"><ele>886.3333333333333</ele><time>2026-04-05T07:44:37.997Z</time></trkpt><trkpt lat="45.96391840809737" lon="12.103761103660535"><ele>887.6666666666666</ele><time>2026-04-05T07:44:39.997Z</time></trkpt><trkpt lat="45.96385887956269" lon="12.103827189795128"><ele>889.0</ele><time>2026-04-05T07:44:42.997Z</time></trkpt><trkpt lat="45.96378613014102" lon="12.103843188449725"><ele>889.0</ele><time>2026-04-05T07:44:44.997Z</time></trkpt><trkpt lat="45.96368756065239" lon="12.10387197347825"><ele>889.0</ele><time>2026-04-05T07:44:46.997Z</time></trkpt><trkpt lat="45.96359692861211" lon="12.103783947311054"><ele>889.0</ele><time>2026-04-05T07:44:48.997Z</time></trkpt><trkpt lat="45.96353694954591" lon="12.103659689992972"><ele>889.0</ele><time>2026-04-05T07:44:50.997Z</time></trkpt><trkpt lat="45.96348934430156" lon="12.103474412795173"><ele>889.0</ele><time>2026-04-05T07:44:52.997Z</time></trkpt><trkpt lat="45.963438471845386" lon="12.103288489547634"><ele>889.0</ele><time>2026-04-05T07:44:54.997Z</time></trkpt><trkpt lat="45.96337806932567" lon="12.103180551785194"><ele>889.0</ele><time>2026-04-05T07:44:56.997Z</time></trkpt><trkpt lat="45.96327547409203" lon="12.103088277682899"><ele>889.0</ele><time>2026-04-05T07:44:58.997Z</time></trkpt><trkpt lat="45.96318179700971" lon="12.103011258156968"><ele>882.9999999999999</ele><time>2026-04-05T07:45:00.997Z</time></trkpt><trkpt lat="45.96307682105404" lon="12.10292064164119"><ele>877.0</ele><time>2026-04-05T07:45:02.997Z</time></trkpt><trkpt lat="45.96299756132972" lon="12.102828863171144"><ele>871.0</ele><time>2026-04-05T07:45:04.997Z</time></trkpt><trkpt lat="45.962914871992915" lon="12.102825928662167"><ele>865.0</ele><time>2026-04-05T07:45:06.997Z</time></trkpt><trkpt lat="45.96285006406697" lon="12.10284070517356"><ele>858.9999999999999</ele><time>2026-04-05T07:45:07.997Z</time></trkpt><trkpt lat="45.96278232832755" lon="12.102836040718365"><ele>853.0</ele><time>2026-04-05T07:45:08.997Z</time></trkpt><trkpt lat="45.96267270705918" lon="12.102823765105628"><ele>852.9999999999999</ele><time>2026-04-05T07:45:10.997Z</time></trkpt><trkpt lat="45.96260939704415" lon="12.102881218516712"><ele>853.0</ele><time>2026-04-05T07:45:12.996Z</time></trkpt><trkpt lat="45.96252750023147" lon="12.102965684634615"><ele>853.0</ele><time>2026-04-05T07:45:13.996Z</time></trkpt><trkpt lat="45.96244171512014" lon="12.10304165887818"><ele>853.0</ele><time>2026-04-05T07:45:14.996Z</time></trkpt><trkpt lat="45.96237391810608" lon="12.103124893037652"><ele>852.9999999999999</ele><time>2026-04-05T07:45:15.996Z</time></trkpt><trkpt lat="45.962313571332395" lon="12.103182824286872"><ele>853.0</ele><time>2026-04-05T07:45:16.996Z</time></trkpt><trkpt lat="45.96225229627316" lon="12.103217829079798"><ele>852.5999999999999</ele><time>2026-04-05T07:45:17.996Z</time></trkpt><trkpt lat="45.96217680598076" lon="12.103245638567328"><ele>852.1999999999999</ele><time>2026-04-05T07:45:18.996Z</time></trkpt><trkpt lat="45.962081827636794" lon="12.103212091769988"><ele>851.8</ele><time>2026-04-05T07:45:19.996Z</time></trkpt><trkpt lat="45.96201612849172" lon="12.10320856884524"><ele>851.4</ele><time>2026-04-05T07:45:20.996Z</time></trkpt><trkpt lat="45.96193741122402" lon="12.103251472935598"><ele>851.0</ele><time>2026-04-05T07:45:22.996Z</time></trkpt><trkpt lat="45.96187149112805" lon="12.103409680914819"><ele>851.0000000000001</ele><time>2026-04-05T07:45:24.996Z</time></trkpt><trkpt lat="45.961842320677064" lon="12.103519181987442"><ele>851.0</ele><time>2026-04-05T07:45:25.996Z</time></trkpt><trkpt lat="45.96180200196065" lon="12.103603653296105"><ele>851.0</ele><time>2026-04-05T07:45:26.996Z</time></trkpt><trkpt lat="45.96175067455456" lon="12.10369018864764"><ele>851.0</ele><time>2026-04-05T07:45:27.996Z</time></trkpt><trkpt lat="45.96167656885696" lon="12.103805909412396"><ele>851.0000000000001</ele><time>2026-04-05T07:45:29.996Z</time></trkpt><trkpt lat="45.961579200847" lon="12.103811143529759"><ele>851.0</ele><time>2026-04-05T07:45:31.996Z</time></trkpt><trkpt lat="45.9614857397763" lon="12.103704389247907"><ele>847.5000000000001</ele><time>2026-04-05T07:45:33.996Z</time></trkpt><trkpt lat="45.96144604550446" lon="12.103620443180564"><ele>844.0</ele><time>2026-04-05T07:45:34.996Z</time></trkpt><trkpt lat="45.96140398589444" lon="12.103527797891273"><ele>840.5</ele><time>2026-04-05T07:45:35.996Z</time></trkpt><trkpt lat="45.96135503174629" lon="12.103421658680691"><ele>837.0</ele><time>2026-04-05T07:45:36.996Z</time></trkpt><trkpt lat="45.961310357476215" lon="12.103318643903817"><ele>833.5000000000001</ele><time>2026-04-05T07:45:37.996Z</time></trkpt><trkpt lat="45.96126298190703" lon="12.103231881247524"><ele>830.0</ele><time>2026-04-05T07:45:38.996Z</time></trkpt><trkpt lat="45.96120975447402" lon="12.103141251899793"><ele>827.6</ele><time>2026-04-05T07:45:39.996Z</time></trkpt><trkpt lat="45.96113249635011" lon="12.103037205802526"><ele>825.2</ele><time>2026-04-05T07:45:40.996Z</time></trkpt><trkpt lat="45.961054155049496" lon="12.102937208163423"><ele>822.8</ele><time>2026-04-05T07:45:41.996Z</time></trkpt><trkpt lat="45.960986983768954" lon="12.102844031178277"><ele>820.4</ele><time>2026-04-05T07:45:42.996Z</time></trkpt><trkpt lat="45.96093919607238" lon="12.102756425374253"><ele>818.0</ele><time>2026-04-05T07:45:43.996Z</time></trkpt><trkpt lat="45.96090465789148" lon="12.102655403729198"><ele>819.1666666666667</ele><time>2026-04-05T07:45:44.996Z</time></trkpt><trkpt lat="45.96086485857522" lon="12.102510944478471"><ele>820.3333333333334</ele><time>2026-04-05T07:45:46.996Z</time></trkpt><trkpt lat="45.96078935710389" lon="12.10248681354593"><ele>821.5</ele><time>2026-04-05T07:45:51.996Z</time></trkpt><trkpt lat="45.96075867788801" lon="12.102588930038817"><ele>822.6666666666667</ele><time>2026-04-05T07:45:53.996Z</time></trkpt><trkpt lat="45.96078641571905" lon="12.102713964693736"><ele>823.8333333333334</ele><time>2026-04-05T07:45:55.996Z</time></trkpt><trkpt lat="45.960833061146545" lon="12.102811018246532"><ele>825.0</ele><time>2026-04-05T07:45:57.998Z</time></trkpt><trkpt lat="45.960860270278985" lon="12.102906102869163"><ele>825.8333333333334</ele><time>2026-04-05T07:45:59.998Z</time></trkpt><trkpt lat="45.96086871487799" lon="12.10301567433997"><ele>826.6666666666667</ele><time>2026-04-05T07:46:01.998Z</time></trkpt><trkpt lat="45.96088487839778" lon="12.103113184908777"><ele>827.5</ele><time>2026-04-05T07:46:03.998Z</time></trkpt><trkpt lat="45.96091834610356" lon="12.103238750884993"><ele>828.3333333333334</ele><time>2026-04-05T07:46:06.998Z</time></trkpt><trkpt lat="45.96095041304108" lon="12.10334064176987"><ele>829.1666666666667</ele><time>2026-04-05T07:46:08.997Z</time></trkpt><trkpt lat="45.96097865286275" lon="12.103453977546101"><ele>830.0</ele><time>2026-04-05T07:46:10.998Z</time></trkpt><trkpt lat="45.9610082136527" lon="12.103577590029435"><ele>830.0000000000001</ele><time>2026-04-05T07:46:13.998Z</time></trkpt><trkpt lat="45.96101788243371" lon="12.103677012145509"><ele>830.0</ele><time>2026-04-05T07:46:15.998Z</time></trkpt><trkpt lat="45.961089870008735" lon="12.10364391498965"><ele>830.0</ele><time>2026-04-05T07:46:19.998Z</time></trkpt><trkpt lat="45.96106348890746" lon="12.103559832715026"><ele>830.0</ele><time>2026-04-05T07:46:21.998Z</time></trkpt><trkpt lat="45.96099478798572" lon="12.103467514623562"><ele>830.0000000000001</ele><time>2026-04-05T07:46:23.998Z</time></trkpt><trkpt lat="45.96093035247067" lon="12.10334313331203"><ele>830.0</ele><time>2026-04-05T07:46:25.998Z</time></trkpt><trkpt lat="45.96089109004076" lon="12.103166120322273"><ele>829.1666666666667</ele><time>2026-04-05T07:46:27.998Z</time></trkpt><trkpt lat="45.960879313541675" lon="12.103068521543738"><ele>828.3333333333334</ele><time>2026-04-05T07:46:28.998Z</time></trkpt><trkpt lat="45.96086397503783" lon="12.102960019203302"><ele>827.5</ele><time>2026-04-05T07:46:29.998Z</time></trkpt><trkpt lat="45.96085439437353" lon="12.10286748445811"><ele>826.6666666666667</ele><time>2026-04-05T07:46:30.998Z</time></trkpt><trkpt lat="45.960834564730995" lon="12.102703339469429"><ele>825.8333333333334</ele><time>2026-04-05T07:46:32.998Z</time></trkpt><trkpt lat="45.96083342464377" lon="12.102538195033704"><ele>825.0</ele><time>2026-04-05T07:46:34.998Z</time></trkpt><trkpt lat="45.96083785303899" lon="12.102378964198378"><ele>823.6</ele><time>2026-04-05T07:46:36.998Z</time></trkpt><trkpt lat="45.96079304943322" lon="12.10225037328441"><ele>822.2</ele><time>2026-04-05T07:46:38.998Z</time></trkpt><trkpt lat="45.960730230699774" lon="12.102123463212013"><ele>820.8</ele><time>2026-04-05T07:46:40.997Z</time></trkpt><trkpt lat="45.960673652877546" lon="12.102011935759048"><ele>819.4</ele><time>2026-04-05T07:46:42.997Z</time></trkpt><trkpt lat="45.96059509031708" lon="12.101955019087988"><ele>818.0</ele><time>2026-04-05T07:46:44.997Z</time></trkpt><trkpt lat="45.9605301622626" lon="12.101973541763485"><ele>818.0</ele><time>2026-04-05T07:46:46.997Z</time></trkpt><trkpt lat="45.96044532930096" lon="12.102037738024388"><ele>818.0</ele><time>2026-04-05T07:46:49.997Z</time></trkpt><trkpt lat="45.96035567044432" lon="12.102033551438144"><ele>818.0</ele><time>2026-04-05T07:46:51.997Z</time></trkpt><trkpt lat="45.96027819370601" lon="12.102075219855777"><ele>818.0</ele><time>2026-04-05T07:46:53.997Z</time></trkpt><trkpt lat="45.96023906750155" lon="12.102192191676618"><ele>818.0</ele><time>2026-04-05T07:46:55.997Z</time></trkpt><trkpt lat="45.96025151421818" lon="12.102327894969529"><ele>819.1666666666667</ele><time>2026-04-05T07:46:57.997Z</time></trkpt><trkpt lat="45.96028919929762" lon="12.102433886040174"><ele>820.3333333333334</ele><time>2026-04-05T07:46:59.997Z</time></trkpt><trkpt lat="45.96032581978924" lon="12.102545698094682"><ele>821.5</ele><time>2026-04-05T07:47:01.997Z</time></trkpt><trkpt lat="45.96035265737644" lon="12.102690963802713"><ele>822.6666666666667</ele><time>2026-04-05T07:47:03.997Z</time></trkpt><trkpt lat="45.960350438999825" lon="12.1028409092287"><ele>823.8333333333334</ele><time>2026-04-05T07:47:05.997Z</time></trkpt><trkpt lat="45.960333426885676" lon="12.102941516678802"><ele>825.0</ele><time>2026-04-05T07:47:06.997Z</time></trkpt><trkpt lat="45.96029888735948" lon="12.103029080576515"><ele>825.0</ele><time>2026-04-05T07:47:07.997Z</time></trkpt><trkpt lat="45.96027437932344" lon="12.103118504389515"><ele>825.0</ele><time>2026-04-05T07:47:08.997Z</time></trkpt><trkpt lat="45.96026380860193" lon="12.103218344159437"><ele>825.0</ele><time>2026-04-05T07:47:09.997Z</time></trkpt><trkpt lat="45.96025719560506" lon="12.103347707764385"><ele>825.0</ele><time>2026-04-05T07:47:10.997Z</time></trkpt><trkpt lat="45.96026436122802" lon="12.103467180446374"><ele>825.0</ele><time>2026-04-05T07:47:11.997Z</time></trkpt><trkpt lat="45.96027178458494" lon="12.103570257518927"><ele>825.0</ele><time>2026-04-05T07:47:12.997Z</time></trkpt><trkpt lat="45.960287449371066" lon="12.103684305503402"><ele>824.8333333333334</ele><time>2026-04-05T07:47:13.997Z</time></trkpt><trkpt lat="45.96030395415829" lon="12.103800418072534"><ele>824.6666666666667</ele><time>2026-04-05T07:47:14.997Z</time></trkpt><trkpt lat="45.960334834562296" lon="12.103915812687589"><ele>824.5</ele><time>2026-04-05T07:47:15.997Z</time></trkpt><trkpt lat="45.960364883225076" lon="12.104017498360069"><ele>824.3333333333334</ele><time>2026-04-05T07:47:16.997Z</time></trkpt><trkpt lat="45.960373111571755" lon="12.104183113467135"><ele>824.1666666666667</ele><time>2026-04-05T07:47:18.997Z</time></trkpt><trkpt lat="45.96041972779963" lon="12.104249527700471"><ele>824.0</ele><time>2026-04-05T07:47:19.997Z</time></trkpt><trkpt lat="45.96046684892982" lon="12.104317010477354"><ele>824.3333333333334</ele><time>2026-04-05T07:47:20.997Z</time></trkpt><trkpt lat="45.96052786652557" lon="12.104377740198892"><ele>824.6666666666667</ele><time>2026-04-05T07:47:21.997Z</time></trkpt><trkpt lat="45.96057609776513" lon="12.104475359357563"><ele>825.0</ele><time>2026-04-05T07:47:22.997Z</time></trkpt><trkpt lat="45.96062733323428" lon="12.104544093128723"><ele>825.3333333333333</ele><time>2026-04-05T07:47:23.997Z</time></trkpt><trkpt lat="45.96066302833046" lon="12.104625550676925"><ele>825.6666666666666</ele><time>2026-04-05T07:47:24.997Z</time></trkpt><trkpt lat="45.96072091532903" lon="12.10479938285996"><ele>826.0</ele><time>2026-04-05T07:47:26.997Z</time></trkpt><trkpt lat="45.96075651673327" lon="12.104901997973258"><ele>823.5999999999999</ele><time>2026-04-05T07:47:27.997Z</time></trkpt><trkpt lat="45.96080158248457" lon="12.10500455398873"><ele>821.2</ele><time>2026-04-05T07:47:28.997Z</time></trkpt><trkpt lat="45.960859514263575" lon="12.105097841821266"><ele>818.8</ele><time>2026-04-05T07:47:29.997Z</time></trkpt><trkpt lat="45.96093227353135" lon="12.105221736331034"><ele>816.4000000000001</ele><time>2026-04-05T07:47:30.997Z</time></trkpt><trkpt lat="45.96100898438642" lon="12.10534414956048"><ele>814.0</ele><time>2026-04-05T07:47:31.997Z</time></trkpt><trkpt lat="45.96107408721363" lon="12.105473335505168"><ele>817.25</ele><time>2026-04-05T07:47:32.997Z</time></trkpt><trkpt lat="45.961135245536205" lon="12.105585989531969"><ele>820.5</ele><time>2026-04-05T07:47:33.997Z</time></trkpt><trkpt lat="45.96121049279751" lon="12.10569365002314"><ele>823.75</ele><time>2026-04-05T07:47:34.996Z</time></trkpt><trkpt lat="45.96130224648277" lon="12.105816497955276"><ele>827.0</ele><time>2026-04-05T07:47:35.996Z</time></trkpt><trkpt lat="45.96139532449425" lon="12.105957911813096"><ele>827.0</ele><time>2026-04-05T07:47:36.996Z</time></trkpt><trkpt lat="45.96148826523748" lon="12.106106566337179"><ele>827.0</ele><time>2026-04-05T07:47:37.996Z</time></trkpt><trkpt lat="45.96158357743477" lon="12.106239543400939"><ele>827.0</ele><time>2026-04-05T07:47:38.996Z</time></trkpt><trkpt lat="45.961657795369305" lon="12.106351280948601"><ele>827.0</ele><time>2026-04-05T07:47:39.996Z</time></trkpt><trkpt lat="45.96171524655833" lon="12.106484332618798"><ele>827.4000000000001</ele><time>2026-04-05T07:47:40.996Z</time></trkpt><trkpt lat="45.961762263878015" lon="12.106595701111374"><ele>827.8000000000001</ele><time>2026-04-05T07:47:41.996Z</time></trkpt><trkpt lat="45.961811984054854" lon="12.106719464835596"><ele>828.2</ele><time>2026-04-05T07:47:42.996Z</time></trkpt><trkpt lat="45.96187578765934" lon="12.106835690150614"><ele>828.6</ele><time>2026-04-05T07:47:44.996Z</time></trkpt><trkpt lat="45.96198383837124" lon="12.10685237864712"><ele>829.0</ele><time>2026-04-05T07:47:46.996Z</time></trkpt><trkpt lat="45.962082153916064" lon="12.106883004276751"><ele>829.0</ele><time>2026-04-05T07:47:48.996Z</time></trkpt><trkpt lat="45.96217635186527" lon="12.10693420727414"><ele>829.0</ele><time>2026-04-05T07:47:50.996Z</time></trkpt><trkpt lat="45.962199878036415" lon="12.107071487707746"><ele>829.0</ele><time>2026-04-05T07:47:52.996Z</time></trkpt><trkpt lat="45.96218477369085" lon="12.107225764166234"><ele>829.0</ele><time>2026-04-05T07:47:53.996Z</time></trkpt><trkpt lat="45.96216964898514" lon="12.107378617643652"><ele>829.0</ele><time>2026-04-05T07:47:54.996Z</time></trkpt><trkpt lat="45.96218272658027" lon="12.107497972467138"><ele>824.9999999999999</ele><time>2026-04-05T07:47:55.996Z</time></trkpt><trkpt lat="45.9622053921325" lon="12.107606365216824"><ele>821.0</ele><time>2026-04-05T07:47:56.996Z</time></trkpt><trkpt lat="45.962246565336216" lon="12.107702566419558"><ele>817.0</ele><time>2026-04-05T07:47:57.996Z</time></trkpt><trkpt lat="45.962307696014726" lon="12.107804740470325"><ele>813.0</ele><time>2026-04-05T07:47:58.996Z</time></trkpt><trkpt lat="45.96237332200929" lon="12.107895562666204"><ele>808.9999999999999</ele><time>2026-04-05T07:47:59.996Z</time></trkpt><trkpt lat="45.9624607363842" lon="12.107968628709626"><ele>805.0</ele><time>2026-04-05T07:48:00.996Z</time></trkpt><trkpt lat="45.96251906907845" lon="12.108048083287924"><ele>802.3333333333333</ele><time>2026-04-05T07:48:01.996Z</time></trkpt><trkpt lat="45.96259487740091" lon="12.108138513754115"><ele>799.6666666666666</ele><time>2026-04-05T07:48:03.998Z</time></trkpt><trkpt lat="45.96264638693416" lon="12.10819664337608"><ele>797.0</ele><time>2026-04-05T07:48:04.997Z</time></trkpt><trkpt lat="45.962628147647195" lon="12.108323034182686"><ele>794.3333333333333</ele><time>2026-04-05T07:48:06.998Z</time></trkpt><trkpt lat="45.96257641382935" lon="12.108411980176793"><ele>791.6666666666666</ele><time>2026-04-05T07:48:07.998Z</time></trkpt><trkpt lat="45.96252833361352" lon="12.108478735011909"><ele>789.0</ele><time>2026-04-05T07:48:08.998Z</time></trkpt><trkpt lat="45.9624694557809" lon="12.108528217979394"><ele>789.0</ele><time>2026-04-05T07:48:09.998Z</time></trkpt><trkpt lat="45.96240371386169" lon="12.108559369911786"><ele>789.0</ele><time>2026-04-05T07:48:10.998Z</time></trkpt><trkpt lat="45.96232158607237" lon="12.108606657189803"><ele>789.0</ele><time>2026-04-05T07:48:11.997Z</time></trkpt><trkpt lat="45.96225416407648" lon="12.10864855691626"><ele>789.0</ele><time>2026-04-05T07:48:12.996Z</time></trkpt><trkpt lat="45.96219344279735" lon="12.108712265768705"><ele>789.0</ele><time>2026-04-05T07:48:13.996Z</time></trkpt><trkpt lat="45.962105911387866" lon="12.108828586195429"><ele>789.0</ele><time>2026-04-05T07:48:15.995Z</time></trkpt><trkpt lat="45.96206926348971" lon="12.108925067497784"><ele>789.0</ele><time>2026-04-05T07:48:16.994Z</time></trkpt><trkpt lat="45.962033342889434" lon="12.109045612243218"><ele>789.0</ele><time>2026-04-05T07:48:17.993Z</time></trkpt><trkpt lat="45.9620175625768" lon="12.10918741663535"><ele>789.0</ele><time>2026-04-05T07:48:18.993Z</time></trkpt><trkpt lat="45.961984724871336" lon="12.109325019521597"><ele>789.0</ele><time>2026-04-05T07:48:19.992Z</time></trkpt><trkpt lat="45.961988437402646" lon="12.10945453501868"><ele>789.0</ele><time>2026-04-05T07:48:20.992Z</time></trkpt><trkpt lat="45.96201354165051" lon="12.109551812512247"><ele>788.0</ele><time>2026-04-05T07:48:21.992Z</time></trkpt><trkpt lat="45.96203822360318" lon="12.109699009414447"><ele>787.0</ele><time>2026-04-05T07:48:23.991Z</time></trkpt><trkpt lat="45.96209791315917" lon="12.10979645587894"><ele>786.0</ele><time>2026-04-05T07:48:25.99Z</time></trkpt><trkpt lat="45.962203920343256" lon="12.109888321637161"><ele>785.0</ele><time>2026-04-05T07:48:27.99Z</time></trkpt><trkpt lat="45.9623178656957" lon="12.109909983756685"><ele>784.0</ele><time>2026-04-05T07:48:29.989Z</time></trkpt><trkpt lat="45.96243300701581" lon="12.109908338049715"><ele>782.8333333333333</ele><time>2026-04-05T07:48:31.989Z</time></trkpt><trkpt lat="45.962533757436525" lon="12.109898393675582"><ele>781.6666666666666</ele><time>2026-04-05T07:48:33.988Z</time></trkpt><trkpt lat="45.96264971704633" lon="12.109920512217839"><ele>780.5</ele><time>2026-04-05T07:48:35.988Z</time></trkpt><trkpt lat="45.96269301692753" lon="12.10999069710886"><ele>779.3333333333333</ele><time>2026-04-05T07:48:36.988Z</time></trkpt><trkpt lat="45.96272953445249" lon="12.110072179172114"><ele>778.1666666666666</ele><time>2026-04-05T07:48:37.988Z</time></trkpt><trkpt lat="45.962753466662015" lon="12.110193289149104"><ele>777.0</ele><time>2026-04-05T07:48:38.988Z</time></trkpt><trkpt lat="45.96278099521816" lon="12.11035507996288"><ele>777.0</ele><time>2026-04-05T07:48:39.988Z</time></trkpt><trkpt lat="45.96280917590462" lon="12.110475915656393"><ele>777.0</ele><time>2026-04-05T07:48:40.987Z</time></trkpt><trkpt lat="45.962852178905074" lon="12.110557117258635"><ele>777.0</ele><time>2026-04-05T07:48:42.987Z</time></trkpt><trkpt lat="45.96291388499955" lon="12.110667174331347"><ele>777.0</ele><time>2026-04-05T07:48:44.987Z</time></trkpt><trkpt lat="45.96297319906227" lon="12.110721263362171"><ele>777.0</ele><time>2026-04-05T07:48:45.987Z</time></trkpt><trkpt lat="45.96305344557553" lon="12.110788217105418"><ele>777.0</ele><time>2026-04-05T07:48:46.987Z</time></trkpt><trkpt lat="45.96312827917399" lon="12.110865813152614"><ele>771.6666666666666</ele><time>2026-04-05T07:48:47.987Z</time></trkpt><trkpt lat="45.96320733021184" lon="12.110909537578147"><ele>766.3333333333334</ele><time>2026-04-05T07:48:48.987Z</time></trkpt><trkpt lat="45.96327761834705" lon="12.110934361430125"><ele>761.0</ele><time>2026-04-05T07:48:49.987Z</time></trkpt><trkpt lat="45.96334852863157" lon="12.11094485227527"><ele>755.6666666666667</ele><time>2026-04-05T07:48:50.987Z</time></trkpt><trkpt lat="45.96345389902527" lon="12.110949873558926"><ele>750.3333333333334</ele><time>2026-04-05T07:48:52.986Z</time></trkpt><trkpt lat="45.96354062383188" lon="12.110911929627104"><ele>745.0</ele><time>2026-04-05T07:48:54.986Z</time></trkpt><trkpt lat="45.963601658814994" lon="12.110841454713707"><ele>745.0</ele><time>2026-04-05T07:48:55.986Z</time></trkpt><trkpt lat="45.9636845759162" lon="12.110792518904564"><ele>745.0</ele><time>2026-04-05T07:48:56.986Z</time></trkpt><trkpt lat="45.96376609229711" lon="12.110774041322388"><ele>745.0</ele><time>2026-04-05T07:48:57.986Z</time></trkpt><trkpt lat="45.9638534598966" lon="12.110789996452542"><ele>745.0</ele><time>2026-04-05T07:48:58.986Z</time></trkpt><trkpt lat="45.96398452095534" lon="12.110811755692435"><ele>745.0</ele><time>2026-04-05T07:48:59.986Z</time></trkpt><trkpt lat="45.96411549827828" lon="12.110851785834646"><ele>746.8</ele><time>2026-04-05T07:49:00.986Z</time></trkpt><trkpt lat="45.964230832562755" lon="12.110884380660199"><ele>748.6</ele><time>2026-04-05T07:49:01.986Z</time></trkpt><trkpt lat="45.964330242833924" lon="12.110922235730333"><ele>750.4000000000001</ele><time>2026-04-05T07:49:02.986Z</time></trkpt><trkpt lat="45.96442215754397" lon="12.110962350441149"><ele>752.2</ele><time>2026-04-05T07:49:03.986Z</time></trkpt><trkpt lat="45.9645089924129" lon="12.1109685193574"><ele>754.0</ele><time>2026-04-05T07:49:04.986Z</time></trkpt><trkpt lat="45.96459735463587" lon="12.110969817758129"><ele>754.0</ele><time>2026-04-05T07:49:05.986Z</time></trkpt><trkpt lat="45.964692662888936" lon="12.110971926970164"><ele>754.0</ele><time>2026-04-05T07:49:06.986Z</time></trkpt><trkpt lat="45.96478694902493" lon="12.1109297348864"><ele>754.0</ele><time>2026-04-05T07:49:07.986Z</time></trkpt><trkpt lat="45.96488262621764" lon="12.11091948438226"><ele>754.0</ele><time>2026-04-05T07:49:08.986Z</time></trkpt><trkpt lat="45.96496424380176" lon="12.11091229550937"><ele>754.0</ele><time>2026-04-05T07:49:09.986Z</time></trkpt><trkpt lat="45.96506671145442" lon="12.110966893486072"><ele>755.6</ele><time>2026-04-05T07:49:10.986Z</time></trkpt><trkpt lat="45.96516218397286" lon="12.111054812946707"><ele>757.2</ele><time>2026-04-05T07:49:11.985Z</time></trkpt><trkpt lat="45.96524403839358" lon="12.111120146971038"><ele>758.8000000000001</ele><time>2026-04-05T07:49:12.985Z</time></trkpt><trkpt lat="45.96532117467855" lon="12.111153866810623"><ele>760.4000000000001</ele><time>2026-04-05T07:49:13.985Z</time></trkpt><trkpt lat="45.96539732669882" lon="12.111161735619756"><ele>762.0</ele><time>2026-04-05T07:49:14.985Z</time></trkpt><trkpt lat="45.9654949915622" lon="12.111158021505823"><ele>762.0</ele><time>2026-04-05T07:49:15.985Z</time></trkpt><trkpt lat="45.965588600673534" lon="12.111206578294832"><ele>762.0</ele><time>2026-04-05T07:49:16.985Z</time></trkpt><trkpt lat="45.96567204512169" lon="12.11127390284153"><ele>762.0</ele><time>2026-04-05T07:49:17.985Z</time></trkpt><trkpt lat="45.965764541292366" lon="12.111350994379825"><ele>762.0</ele><time>2026-04-05T07:49:18.985Z</time></trkpt><trkpt lat="45.96585348328415" lon="12.111468896170166"><ele>762.0</ele><time>2026-04-05T07:49:19.985Z</time></trkpt><trkpt lat="45.96592579613027" lon="12.111571330893707"><ele>755.2</ele><time>2026-04-05T07:49:20.985Z</time></trkpt><trkpt lat="45.96599541569567" lon="12.111641022931808"><ele>748.4000000000001</ele><time>2026-04-05T07:49:21.985Z</time></trkpt><trkpt lat="45.96608595283335" lon="12.111711672118918"><ele>741.5999999999999</ele><time>2026-04-05T07:49:22.985Z</time></trkpt><trkpt lat="45.96616273375943" lon="12.111787310687557"><ele>734.8</ele><time>2026-04-05T07:49:23.985Z</time></trkpt><trkpt lat="45.966215077249444" lon="12.111842255609963"><ele>728.0</ele><time>2026-04-05T07:49:24.985Z</time></trkpt><trkpt lat="45.9663341857747" lon="12.111871650512308"><ele>728.0</ele><time>2026-04-05T07:49:26.985Z</time></trkpt><trkpt lat="45.96641579616213" lon="12.111866001985952"><ele>728.0</ele><time>2026-04-05T07:49:27.985Z</time></trkpt><trkpt lat="45.96651497593729" lon="12.1118663926946"><ele>728.0</ele><time>2026-04-05T07:49:28.985Z</time></trkpt><trkpt lat="45.96663434058588" lon="12.111854981972275"><ele>728.0</ele><time>2026-04-05T07:49:29.985Z</time></trkpt><trkpt lat="45.96673946926898" lon="12.111881312229983"><ele>728.0</ele><time>2026-04-05T07:49:30.985Z</time></trkpt><trkpt lat="45.966830651796876" lon="12.111904965267655"><ele>723.4</ele><time>2026-04-05T07:49:31.985Z</time></trkpt><trkpt lat="45.96689210886829" lon="12.111871836896345"><ele>718.8</ele><time>2026-04-05T07:49:34.985Z</time></trkpt><trkpt lat="45.96691609972609" lon="12.111756169150382"><ele>714.2</ele><time>2026-04-05T07:49:36.985Z</time></trkpt><trkpt lat="45.96693121505735" lon="12.111550867651893"><ele>709.6</ele><time>2026-04-05T07:49:38.985Z</time></trkpt><trkpt lat="45.96692830859835" lon="12.111393185418695"><ele>705.0</ele><time>2026-04-05T07:49:39.985Z</time></trkpt><trkpt lat="45.96687524538772" lon="12.111236620432441"><ele>703.3333333333334</ele><time>2026-04-05T07:49:40.985Z</time></trkpt><trkpt lat="45.96686170244449" lon="12.11112334732493"><ele>701.6666666666666</ele><time>2026-04-05T07:49:41.985Z</time></trkpt><trkpt lat="45.9668546344808" lon="12.110979571057888"><ele>700.0</ele><time>2026-04-05T07:49:42.985Z</time></trkpt><trkpt lat="45.96684669722516" lon="12.110844574603856"><ele>698.3333333333333</ele><time>2026-04-05T07:49:43.985Z</time></trkpt><trkpt lat="45.966849115834556" lon="12.110722904322625"><ele>696.6666666666666</ele><time>2026-04-05T07:49:44.985Z</time></trkpt><trkpt lat="45.966863627468975" lon="12.11060782331142"><ele>695.0</ele><time>2026-04-05T07:49:45.984Z</time></trkpt><trkpt lat="45.96688763670272" lon="12.110480466264589"><ele>694.8</ele><time>2026-04-05T07:49:46.984Z</time></trkpt><trkpt lat="45.96691099197358" lon="12.110348016804412"><ele>694.6</ele><time>2026-04-05T07:49:47.984Z</time></trkpt><trkpt lat="45.966949432715445" lon="12.110223055253778"><ele>694.4000000000001</ele><time>2026-04-05T07:49:48.984Z</time></trkpt><trkpt lat="45.96696500766642" lon="12.110089082250743"><ele>694.2</ele><time>2026-04-05T07:49:49.984Z</time></trkpt><trkpt lat="45.966994995782215" lon="12.109954430783162"><ele>694.0</ele><time>2026-04-05T07:49:50.984Z</time></trkpt><trkpt lat="45.967023504241595" lon="12.10984798241684"><ele>697.8000000000001</ele><time>2026-04-05T07:49:51.984Z</time></trkpt><trkpt lat="45.96706338135059" lon="12.109746278173771"><ele>701.6</ele><time>2026-04-05T07:49:52.984Z</time></trkpt><trkpt lat="45.96710516712011" lon="12.109624353838923"><ele>705.4</ele><time>2026-04-05T07:49:53.984Z</time></trkpt><trkpt lat="45.967152919721755" lon="12.109509650239584"><ele>709.2</ele><time>2026-04-05T07:49:54.984Z</time></trkpt><trkpt lat="45.96720962972815" lon="12.10940855634454"><ele>713.0</ele><time>2026-04-05T07:49:55.984Z</time></trkpt><trkpt lat="45.96725421473052" lon="12.10928937839555"><ele>713.0</ele><time>2026-04-05T07:49:56.984Z</time></trkpt><trkpt lat="45.9673176163976" lon="12.10919540039923"><ele>713.0</ele><time>2026-04-05T07:49:57.984Z</time></trkpt><trkpt lat="45.96737996696164" lon="12.109104708757863"><ele>713.0</ele><time>2026-04-05T07:49:58.984Z</time></trkpt><trkpt lat="45.967454858399215" lon="12.109024950568664"><ele>713.0</ele><time>2026-04-05T07:49:59.984Z</time></trkpt><trkpt lat="45.967557752422124" lon="12.108940821451677"><ele>713.0</ele><time>2026-04-05T07:50:00.984Z</time></trkpt><trkpt lat="45.967656845271996" lon="12.10885603106149"><ele>709.8</ele><time>2026-04-05T07:50:01.984Z</time></trkpt><trkpt lat="45.96777079301753" lon="12.108722508983089"><ele>706.5999999999999</ele><time>2026-04-05T07:50:02.984Z</time></trkpt><trkpt lat="45.96786075995211" lon="12.108637813146538"><ele>703.4000000000001</ele><time>2026-04-05T07:50:03.984Z</time></trkpt><trkpt lat="45.96792021579123" lon="12.108542479207427"><ele>700.2</ele><time>2026-04-05T07:50:04.984Z</time></trkpt><trkpt lat="45.96800597252756" lon="12.108469275546083"><ele>697.0</ele><time>2026-04-05T07:50:05.984Z</time></trkpt><trkpt lat="45.96808730152919" lon="12.108405772554603"><ele>697.0</ele><time>2026-04-05T07:50:06.984Z</time></trkpt><trkpt lat="45.96812953697777" lon="12.108338187611892"><ele>697.0</ele><time>2026-04-05T07:50:07.984Z</time></trkpt><trkpt lat="45.968185272975646" lon="12.108271934197855"><ele>697.0</ele><time>2026-04-05T07:50:08.984Z</time></trkpt><trkpt lat="45.9682266607813" lon="12.108199485491795"><ele>697.0</ele><time>2026-04-05T07:50:09.986Z</time></trkpt><trkpt lat="45.96826657406895" lon="12.108113608096616"><ele>697.0</ele><time>2026-04-05T07:50:10.987Z</time></trkpt><trkpt lat="45.96832065928449" lon="12.108057488293113"><ele>697.0</ele><time>2026-04-05T07:50:11.987Z</time></trkpt><trkpt lat="45.96838770578199" lon="12.108004901458228"><ele>697.0</ele><time>2026-04-05T07:50:12.986Z</time></trkpt><trkpt lat="45.968464657286056" lon="12.10791011248522"><ele>695.0</ele><time>2026-04-05T07:50:13.986Z</time></trkpt><trkpt lat="45.968568046745375" lon="12.107836193493155"><ele>693.0</ele><time>2026-04-05T07:50:14.986Z</time></trkpt><trkpt lat="45.968673822529645" lon="12.107715130222935"><ele>691.0</ele><time>2026-04-05T07:50:15.986Z</time></trkpt><trkpt lat="45.968749495752064" lon="12.1076091489909"><ele>689.0</ele><time>2026-04-05T07:50:16.986Z</time></trkpt><trkpt lat="45.96881319295627" lon="12.107507416050487"><ele>689.0</ele><time>2026-04-05T07:50:17.986Z</time></trkpt><trkpt lat="45.968867380046056" lon="12.107442428289431"><ele>689.0</ele><time>2026-04-05T07:50:18.986Z</time></trkpt><trkpt lat="45.96893690041361" lon="12.107418136987647"><ele>689.0</ele><time>2026-04-05T07:50:19.986Z</time></trkpt><trkpt lat="45.96902768668771" lon="12.1073725233278"><ele>689.0</ele><time>2026-04-05T07:50:20.986Z</time></trkpt><trkpt lat="45.96913191788356" lon="12.10734261689219"><ele>689.0</ele><time>2026-04-05T07:50:21.986Z</time></trkpt><trkpt lat="45.96923865857296" lon="12.107293707691737"><ele>687.0</ele><time>2026-04-05T07:50:22.986Z</time></trkpt><trkpt lat="45.96934850303724" lon="12.107262610420626"><ele>685.0</ele><time>2026-04-05T07:50:23.986Z</time></trkpt><trkpt lat="45.9694279133569" lon="12.107243771953826"><ele>683.0</ele><time>2026-04-05T07:50:24.986Z</time></trkpt><trkpt lat="45.96947795840459" lon="12.107182535765608"><ele>681.0</ele><time>2026-04-05T07:50:25.986Z</time></trkpt><trkpt lat="45.96957302928017" lon="12.107105243766517"><ele>679.0</ele><time>2026-04-05T07:50:27.986Z</time></trkpt><trkpt lat="45.96961343146703" lon="12.107019400373916"><ele>677.0</ele><time>2026-04-05T07:50:28.986Z</time></trkpt><trkpt lat="45.96962517663898" lon="12.106921376346643"><ele>677.0</ele><time>2026-04-05T07:50:29.986Z</time></trkpt><trkpt lat="45.96959914216179" lon="12.10680759195216"><ele>677.0</ele><time>2026-04-05T07:50:30.986Z</time></trkpt><trkpt lat="45.969587795994585" lon="12.10670939818462"><ele>677.0</ele><time>2026-04-05T07:50:31.986Z</time></trkpt><trkpt lat="45.96959403952199" lon="12.106584789161438"><ele>677.0</ele><time>2026-04-05T07:50:33.985Z</time></trkpt><trkpt lat="45.96967805206534" lon="12.106436291674227"><ele>677.0</ele><time>2026-04-05T07:50:35.985Z</time></trkpt><trkpt lat="45.9697362442552" lon="12.106360757035407"><ele>680.1666666666666</ele><time>2026-04-05T07:50:36.985Z</time></trkpt><trkpt lat="45.96978648754773" lon="12.10627703468252"><ele>683.3333333333333</ele><time>2026-04-05T07:50:37.985Z</time></trkpt><trkpt lat="45.969820164633134" lon="12.106170222006098"><ele>686.5</ele><time>2026-04-05T07:50:38.985Z</time></trkpt><trkpt lat="45.96983717248986" lon="12.106049640023723"><ele>689.6666666666666</ele><time>2026-04-05T07:50:39.985Z</time></trkpt><trkpt lat="45.96985950899919" lon="12.105940658545778"><ele>692.8333333333334</ele><time>2026-04-05T07:50:40.985Z</time></trkpt><trkpt lat="45.96990026152464" lon="12.10583054779872"><ele>696.0</ele><time>2026-04-05T07:50:41.985Z</time></trkpt><trkpt lat="45.96993709109617" lon="12.10573163262528"><ele>698.0</ele><time>2026-04-05T07:50:42.985Z</time></trkpt><trkpt lat="45.970003869370956" lon="12.105654096770847"><ele>700.0</ele><time>2026-04-05T07:50:43.985Z</time></trkpt><trkpt lat="45.97007442125947" lon="12.105605151719852"><ele>702.0</ele><time>2026-04-05T07:50:44.985Z</time></trkpt><trkpt lat="45.970149341748574" lon="12.105578847264235"><ele>704.0</ele><time>2026-04-05T07:50:45.985Z</time></trkpt><trkpt lat="45.970228147953016" lon="12.10557681237666"><ele>706.0</ele><time>2026-04-05T07:50:46.985Z</time></trkpt><trkpt lat="45.97031574083318" lon="12.105575394157322"><ele>708.0</ele><time>2026-04-05T07:50:47.985Z</time></trkpt><trkpt lat="45.9704161563916" lon="12.105595357299546"><ele>708.0</ele><time>2026-04-05T07:50:48.985Z</time></trkpt><trkpt lat="45.9705056283435" lon="12.105604921995273"><ele>708.0</ele><time>2026-04-05T07:50:49.985Z</time></trkpt><trkpt lat="45.97059672873649" lon="12.10559485510542"><ele>708.0</ele><time>2026-04-05T07:50:50.985Z</time></trkpt><trkpt lat="45.97068545352902" lon="12.105608882175382"><ele>708.0</ele><time>2026-04-05T07:50:51.985Z</time></trkpt><trkpt lat="45.97077561333651" lon="12.105611663478166"><ele>708.0</ele><time>2026-04-05T07:50:52.985Z</time></trkpt><trkpt lat="45.97085706441587" lon="12.10561680961619"><ele>708.0</ele><time>2026-04-05T07:50:53.985Z</time></trkpt><trkpt lat="45.970943880216126" lon="12.105625734809678"><ele>704.1666666666666</ele><time>2026-04-05T07:50:54.985Z</time></trkpt><trkpt lat="45.97103694557953" lon="12.10562834377715"><ele>700.3333333333334</ele><time>2026-04-05T07:50:55.985Z</time></trkpt><trkpt lat="45.971125061101326" lon="12.105619988435407"><ele>696.5</ele><time>2026-04-05T07:50:56.985Z</time></trkpt><trkpt lat="45.971213301028406" lon="12.105611279748276"><ele>692.6666666666667</ele><time>2026-04-05T07:50:57.985Z</time></trkpt><trkpt lat="45.971291829327505" lon="12.10557229374964"><ele>688.8333333333334</ele><time>2026-04-05T07:50:58.985Z</time></trkpt><trkpt lat="45.971380835250486" lon="12.105576546139657"><ele>685.0</ele><time>2026-04-05T07:50:59.985Z</time></trkpt><trkpt lat="45.971513760254496" lon="12.105585822393392"><ele>685.0</ele><time>2026-04-05T07:51:01.985Z</time></trkpt><trkpt lat="45.97158334070242" lon="12.1056023298963"><ele>685.0</ele><time>2026-04-05T07:51:02.985Z</time></trkpt><trkpt lat="45.971662128078435" lon="12.105607403081455"><ele>685.0</ele><time>2026-04-05T07:51:03.985Z</time></trkpt><trkpt lat="45.971746943410324" lon="12.105601588285744"><ele>685.0</ele><time>2026-04-05T07:51:04.985Z</time></trkpt><trkpt lat="45.97183183337676" lon="12.105603312369933"><ele>685.0</ele><time>2026-04-05T07:51:05.985Z</time></trkpt><trkpt lat="45.97190455227238" lon="12.10561714677565"><ele>685.0</ele><time>2026-04-05T07:51:06.985Z</time></trkpt><trkpt lat="45.97199042866514" lon="12.105607606138808"><ele>681.6666666666667</ele><time>2026-04-05T07:51:07.985Z</time></trkpt><trkpt lat="45.97206388891571" lon="12.105600206802348"><ele>678.3333333333334</ele><time>2026-04-05T07:51:08.985Z</time></trkpt><trkpt lat="45.97215042265463" lon="12.105568402131887"><ele>675.0</ele><time>2026-04-05T07:51:09.985Z</time></trkpt><trkpt lat="45.97223465808064" lon="12.105519014065786"><ele>671.6666666666666</ele><time>2026-04-05T07:51:10.985Z</time></trkpt><trkpt lat="45.97230095103002" lon="12.105449619470376"><ele>668.3333333333333</ele><time>2026-04-05T07:51:11.985Z</time></trkpt><trkpt lat="45.97235251791304" lon="12.105376321955498"><ele>665.0</ele><time>2026-04-05T07:51:12.985Z</time></trkpt><trkpt lat="45.9724180711757" lon="12.10524157114993"><ele>665.0</ele><time>2026-04-05T07:51:14.985Z</time></trkpt><trkpt lat="45.97244383231558" lon="12.105150537065308"><ele>665.0</ele><time>2026-04-05T07:51:15.985Z</time></trkpt><trkpt lat="45.97248706718484" lon="12.10505588430807"><ele>665.0</ele><time>2026-04-05T07:51:16.985Z</time></trkpt><trkpt lat="45.97253256093395" lon="12.104980215443097"><ele>665.0</ele><time>2026-04-05T07:51:17.985Z</time></trkpt><trkpt lat="45.97259403378669" lon="12.10491895475021"><ele>665.0</ele><time>2026-04-05T07:51:18.985Z</time></trkpt><trkpt lat="45.9726821874766" lon="12.10487539197315"><ele>665.0</ele><time>2026-04-05T07:51:20.985Z</time></trkpt><trkpt lat="45.97275375291711" lon="12.104928051859439"><ele>664.8333333333333</ele><time>2026-04-05T07:51:22.984Z</time></trkpt><trkpt lat="45.97278362482176" lon="12.105018020660609"><ele>664.6666666666666</ele><time>2026-04-05T07:51:24.984Z</time></trkpt><trkpt lat="45.97280148825147" lon="12.105112258770545"><ele>664.5</ele><time>2026-04-05T07:51:25.984Z</time></trkpt><trkpt lat="45.972822621484156" lon="12.105232519806409"><ele>664.3333333333334</ele><time>2026-04-05T07:51:26.984Z</time></trkpt><trkpt lat="45.972845243158304" lon="12.105373651537962"><ele>664.1666666666667</ele><time>2026-04-05T07:51:27.984Z</time></trkpt><trkpt lat="45.97285574773918" lon="12.10549970168784"><ele>664.0</ele><time>2026-04-05T07:51:28.984Z</time></trkpt><trkpt lat="45.97285037103635" lon="12.105619040293549"><ele>664.0</ele><time>2026-04-05T07:51:29.984Z</time></trkpt><trkpt lat="45.97286552813582" lon="12.105753620376092"><ele>664.0</ele><time>2026-04-05T07:51:31.984Z</time></trkpt><trkpt lat="45.972950818516566" lon="12.105798958932185"><ele>664.0</ele><time>2026-04-05T07:51:33.984Z</time></trkpt><trkpt lat="45.97307558828936" lon="12.105759713373203"><ele>664.0</ele><time>2026-04-05T07:51:35.984Z</time></trkpt><trkpt lat="45.97314485772075" lon="12.105716631553282"><ele>664.0</ele><time>2026-04-05T07:51:36.984Z</time></trkpt><trkpt lat="45.973205948211834" lon="12.105675821762468"><ele>664.0</ele><time>2026-04-05T07:51:37.984Z</time></trkpt><trkpt lat="45.97327042145718" lon="12.105637207219804"><ele>664.0</ele><time>2026-04-05T07:51:38.984Z</time></trkpt><trkpt lat="45.9733583559333" lon="12.105605293689573"><ele>664.0</ele><time>2026-04-05T07:51:40.984Z</time></trkpt><trkpt lat="45.97344932397917" lon="12.105664945734926"><ele>664.0</ele><time>2026-04-05T07:51:42.984Z</time></trkpt><trkpt lat="45.9734761742241" lon="12.10582034260728"><ele>664.0</ele><time>2026-04-05T07:51:44.984Z</time></trkpt><trkpt lat="45.97347723546873" lon="12.105940978374392"><ele>663.3333333333334</ele><time>2026-04-05T07:51:45.984Z</time></trkpt><trkpt lat="45.973480391627405" lon="12.106075476402795"><ele>662.6666666666667</ele><time>2026-04-05T07:51:46.984Z</time></trkpt><trkpt lat="45.97350711758885" lon="12.106205937836808"><ele>662.0</ele><time>2026-04-05T07:51:47.984Z</time></trkpt><trkpt lat="45.9735390125819" lon="12.106314070491013"><ele>661.3333333333334</ele><time>2026-04-05T07:51:48.984Z</time></trkpt><trkpt lat="45.97355845998846" lon="12.106425459838942"><ele>660.6666666666666</ele><time>2026-04-05T07:51:49.984Z</time></trkpt><trkpt lat="45.97360723746162" lon="12.106535034837908"><ele>660.0</ele><time>2026-04-05T07:51:50.984Z</time></trkpt><trkpt lat="45.9736328878134" lon="12.106656094180778"><ele>656.6666666666666</ele><time>2026-04-05T07:51:51.984Z</time></trkpt><trkpt lat="45.973702673403686" lon="12.106786548381422"><ele>653.3333333333334</ele><time>2026-04-05T07:51:52.984Z</time></trkpt><trkpt lat="45.97376345882315" lon="12.10687812158379"><ele>650.0</ele><time>2026-04-05T07:51:53.984Z</time></trkpt><trkpt lat="45.97381738612723" lon="12.106966762314824"><ele>646.6666666666667</ele><time>2026-04-05T07:51:54.984Z</time></trkpt><trkpt lat="45.973865879878055" lon="12.107050465455588"><ele>643.3333333333334</ele><time>2026-04-05T07:51:55.984Z</time></trkpt><trkpt lat="45.97391166871368" lon="12.107116640964053"><ele>640.0</ele><time>2026-04-05T07:51:56.984Z</time></trkpt><trkpt lat="45.97398437172689" lon="12.107193397147483"><ele>640.0</ele><time>2026-04-05T07:51:57.984Z</time></trkpt><trkpt lat="45.97406708558066" lon="12.107246621059868"><ele>640.0</ele><time>2026-04-05T07:51:58.984Z</time></trkpt><trkpt lat="45.97415093397718" lon="12.107352987785127"><ele>640.0</ele><time>2026-04-05T07:51:59.984Z</time></trkpt><trkpt lat="45.974217560863735" lon="12.107448134379329"><ele>640.0</ele><time>2026-04-05T07:52:00.984Z</time></trkpt><trkpt lat="45.97429120975077" lon="12.107547074483668"><ele>640.0</ele><time>2026-04-05T07:52:01.984Z</time></trkpt><trkpt lat="45.9743498330819" lon="12.107628697018013"><ele>636.1666666666667</ele><time>2026-04-05T07:52:03.984Z</time></trkpt><trkpt lat="45.97432460563571" lon="12.10771896137144"><ele>632.3333333333334</ele><time>2026-04-05T07:52:05.984Z</time></trkpt><trkpt lat="45.974249751303645" lon="12.107739881303695"><ele>628.5</ele><time>2026-04-05T07:52:06.984Z</time></trkpt><trkpt lat="45.97418681833682" lon="12.10772436261383"><ele>624.6666666666666</ele><time>2026-04-05T07:52:07.983Z</time></trkpt><trkpt lat="45.97408787034439" lon="12.10768561459008"><ele>620.8333333333333</ele><time>2026-04-05T07:52:08.983Z</time></trkpt><trkpt lat="45.973996551660456" lon="12.107667000840483"><ele>617.0</ele><time>2026-04-05T07:52:09.983Z</time></trkpt><trkpt lat="45.97390314049141" lon="12.10767492160826"><ele>617.0</ele><time>2026-04-05T07:52:10.983Z</time></trkpt><trkpt lat="45.973840293111756" lon="12.107646123727694"><ele>617.0</ele><time>2026-04-05T07:52:11.983Z</time></trkpt><trkpt lat="45.973709256327766" lon="12.107535784681266"><ele>617.0</ele><time>2026-04-05T07:52:13.983Z</time></trkpt><trkpt lat="45.973628216683736" lon="12.1074388636859"><ele>617.0</ele><time>2026-04-05T07:52:14.983Z</time></trkpt><trkpt lat="45.97355161618273" lon="12.107356183054886"><ele>617.0</ele><time>2026-04-05T07:52:15.986Z</time></trkpt><trkpt lat="45.97349106910947" lon="12.107268788647668"><ele>617.6</ele><time>2026-04-05T07:52:16.986Z</time></trkpt><trkpt lat="45.973441844678916" lon="12.107132023515248"><ele>618.2</ele><time>2026-04-05T07:52:17.986Z</time></trkpt><trkpt lat="45.97337535890588" lon="12.107024093275912"><ele>618.8</ele><time>2026-04-05T07:52:18.985Z</time></trkpt><trkpt lat="45.973292017842894" lon="12.106984022322154"><ele>619.4</ele><time>2026-04-05T07:52:20.985Z</time></trkpt><trkpt lat="45.973213259319486" lon="12.107037864251327"><ele>620.0</ele><time>2026-04-05T07:52:22.986Z</time></trkpt><trkpt lat="45.97312568187669" lon="12.107134378638458"><ele>620.0</ele><time>2026-04-05T07:52:23.986Z</time></trkpt><trkpt lat="45.973036092960506" lon="12.107243626180384"><ele>620.0</ele><time>2026-04-05T07:52:24.986Z</time></trkpt><trkpt lat="45.97296458816698" lon="12.107377011271154"><ele>620.0</ele><time>2026-04-05T07:52:25.986Z</time></trkpt><trkpt lat="45.97289432333454" lon="12.107529742670337"><ele>620.0</ele><time>2026-04-05T07:52:26.986Z</time></trkpt><trkpt lat="45.972826058873544" lon="12.107645693709406"><ele>620.0</ele><time>2026-04-05T07:52:27.986Z</time></trkpt><trkpt lat="45.972766938147494" lon="12.107736475265877"><ele>620.0</ele><time>2026-04-05T07:52:28.985Z</time></trkpt><trkpt lat="45.972671985994126" lon="12.10778677036342"><ele>620.0</ele><time>2026-04-05T07:52:30.985Z</time></trkpt><trkpt lat="45.972617525747694" lon="12.10769989931782"><ele>620.0</ele><time>2026-04-05T07:52:32.985Z</time></trkpt><trkpt lat="45.97260622134278" lon="12.107610431929599"><ele>620.0</ele><time>2026-04-05T07:52:33.985Z</time></trkpt><trkpt lat="45.97258695372323" lon="12.107488096274805"><ele>620.0</ele><time>2026-04-05T07:52:34.985Z</time></trkpt><trkpt lat="45.97256912053249" lon="12.107344897297153"><ele>620.0</ele><time>2026-04-05T07:52:35.985Z</time></trkpt><trkpt lat="45.97254711778357" lon="12.107227575435804"><ele>620.0</ele><time>2026-04-05T07:52:36.985Z</time></trkpt><trkpt lat="45.97252391413507" lon="12.107132121739355"><ele>620.0</ele><time>2026-04-05T07:52:37.985Z</time></trkpt><trkpt lat="45.97246878818133" lon="12.107061446713164"><ele>620.0</ele><time>2026-04-05T07:52:40.985Z</time></trkpt><trkpt lat="45.97244834399067" lon="12.107194423638232"><ele>620.0</ele><time>2026-04-05T07:52:42.985Z</time></trkpt><trkpt lat="45.972469521404584" lon="12.107367822033257"><ele>620.0</ele><time>2026-04-05T07:52:44.985Z</time></trkpt><trkpt lat="45.972466999955934" lon="12.107499639800363"><ele>615.6</ele><time>2026-04-05T07:52:45.985Z</time></trkpt><trkpt lat="45.97247719834533" lon="12.107673530735017"><ele>611.2</ele><time>2026-04-05T07:52:46.985Z</time></trkpt><trkpt lat="45.97250378638839" lon="12.10782979217474"><ele>606.8</ele><time>2026-04-05T07:52:47.985Z</time></trkpt><trkpt lat="45.97253149231622" lon="12.107944662456156"><ele>602.4</ele><time>2026-04-05T07:52:48.985Z</time></trkpt><trkpt lat="45.9725749856892" lon="12.1080422866691"><ele>598.0</ele><time>2026-04-05T07:52:49.985Z</time></trkpt><trkpt lat="45.97268208091127" lon="12.108163023497784"><ele>598.0</ele><time>2026-04-05T07:52:51.985Z</time></trkpt><trkpt lat="45.97273883830883" lon="12.108241436443167"><ele>598.0</ele><time>2026-04-05T07:52:52.985Z</time></trkpt><trkpt lat="45.97281656398992" lon="12.10827840810154"><ele>598.0</ele><time>2026-04-05T07:52:54.985Z</time></trkpt><trkpt lat="45.97293396589083" lon="12.108234592117912"><ele>598.0</ele><time>2026-04-05T07:52:56.985Z</time></trkpt><trkpt lat="45.972998498678976" lon="12.10823102534748"><ele>598.0</ele><time>2026-04-05T07:52:57.985Z</time></trkpt><trkpt lat="45.97308142170017" lon="12.10821712406524"><ele>598.0</ele><time>2026-04-05T07:52:59.985Z</time></trkpt><trkpt lat="45.973128688622886" lon="12.10827751838917"><ele>598.4</ele><time>2026-04-05T07:53:00.984Z</time></trkpt><trkpt lat="45.97320980828972" lon="12.10837925781908"><ele>598.8</ele><time>2026-04-05T07:53:01.984Z</time></trkpt><trkpt lat="45.97329177406481" lon="12.108518225259052"><ele>599.2</ele><time>2026-04-05T07:53:02.984Z</time></trkpt><trkpt lat="45.973337523874946" lon="12.108626645806899"><ele>599.6</ele><time>2026-04-05T07:53:03.984Z</time></trkpt><trkpt lat="45.97340585213254" lon="12.108733426038654"><ele>600.0</ele><time>2026-04-05T07:53:04.984Z</time></trkpt><trkpt lat="45.97347085895796" lon="12.108856077360226"><ele>600.0</ele><time>2026-04-05T07:53:05.984Z</time></trkpt><trkpt lat="45.97353954207584" lon="12.108969710949582"><ele>600.0</ele><time>2026-04-05T07:53:06.984Z</time></trkpt><trkpt lat="45.973591527510195" lon="12.109068173371858"><ele>600.0</ele><time>2026-04-05T07:53:07.984Z</time></trkpt><trkpt lat="45.97364737355846" lon="12.10915442046488"><ele>600.0</ele><time>2026-04-05T07:53:08.984Z</time></trkpt><trkpt lat="45.97372435254126" lon="12.109222663835569"><ele>600.0</ele><time>2026-04-05T07:53:10.984Z</time></trkpt><trkpt lat="45.973805954064176" lon="12.109257528800939"><ele>600.0</ele><time>2026-04-05T07:53:12.984Z</time></trkpt><trkpt lat="45.973918147920955" lon="12.109240955269135"><ele>595.1666666666666</ele><time>2026-04-05T07:53:14.984Z</time></trkpt><trkpt lat="45.97398742490824" lon="12.10927632993856"><ele>590.3333333333334</ele><time>2026-04-05T07:53:16.984Z</time></trkpt><trkpt lat="45.97401029974484" lon="12.109402666674775"><ele>585.5</ele><time>2026-04-05T07:53:18.984Z</time></trkpt><trkpt lat="45.97401697313103" lon="12.109493628626883"><ele>580.6666666666667</ele><time>2026-04-05T07:53:19.984Z</time></trkpt><trkpt lat="45.97402142804795" lon="12.109599341350771"><ele>575.8333333333334</ele><time>2026-04-05T07:53:20.984Z</time></trkpt><trkpt lat="45.974024731157634" lon="12.109748447090297"><ele>571.0</ele><time>2026-04-05T07:53:21.984Z</time></trkpt><trkpt lat="45.974046278281335" lon="12.10987633538603"><ele>567.5</ele><time>2026-04-05T07:53:22.984Z</time></trkpt><trkpt lat="45.974053315255546" lon="12.11001322266216"><ele>564.0</ele><time>2026-04-05T07:53:23.984Z</time></trkpt><trkpt lat="45.97404886462897" lon="12.110136265242879"><ele>560.5</ele><time>2026-04-05T07:53:24.984Z</time></trkpt><trkpt lat="45.97404138854179" lon="12.110226999560426"><ele>557.0</ele><time>2026-04-05T07:53:25.984Z</time></trkpt><trkpt lat="45.97404145451925" lon="12.11032958722923"><ele>553.5</ele><time>2026-04-05T07:53:26.984Z</time></trkpt><trkpt lat="45.974077532916226" lon="12.110468733863595"><ele>550.0</ele><time>2026-04-05T07:53:28.984Z</time></trkpt><trkpt lat="45.974158019760154" lon="12.110518279002719"><ele>548.0</ele><time>2026-04-05T07:53:30.984Z</time></trkpt><trkpt lat="45.97422333157632" lon="12.11055025659406"><ele>546.0</ele><time>2026-04-05T07:53:31.984Z</time></trkpt><trkpt lat="45.97428850894356" lon="12.110553816223423"><ele>544.0</ele><time>2026-04-05T07:53:32.984Z</time></trkpt><trkpt lat="45.97439761563732" lon="12.110483739122111"><ele>542.0</ele><time>2026-04-05T07:53:34.984Z</time></trkpt><trkpt lat="45.97447994431876" lon="12.11039135934984"><ele>540.0</ele><time>2026-04-05T07:53:35.984Z</time></trkpt><trkpt lat="45.974554312773144" lon="12.110317643796323"><ele>538.0</ele><time>2026-04-05T07:53:36.984Z</time></trkpt><trkpt lat="45.97465140612601" lon="12.110256666206466"><ele>538.0</ele><time>2026-04-05T07:53:37.984Z</time></trkpt><trkpt lat="45.97472540181239" lon="12.110181211421155"><ele>538.0</ele><time>2026-04-05T07:53:38.984Z</time></trkpt><trkpt lat="45.9747814907178" lon="12.110133642819282"><ele>538.0</ele><time>2026-04-05T07:53:39.984Z</time></trkpt><trkpt lat="45.97482854196756" lon="12.110060038327351"><ele>538.0</ele><time>2026-04-05T07:53:40.984Z</time></trkpt><trkpt lat="45.974911900875135" lon="12.109972269867633"><ele>538.0</ele><time>2026-04-05T07:53:42.984Z</time></trkpt><trkpt lat="45.97496966075357" lon="12.109872360250018"><ele>538.0</ele><time>2026-04-05T07:53:44.984Z</time></trkpt><trkpt lat="45.975054361646045" lon="12.109919422145207"><ele>538.0</ele><time>2026-04-05T07:53:46.984Z</time></trkpt><trkpt lat="45.97506269923082" lon="12.110057890481267"><ele>538.0</ele><time>2026-04-05T07:53:48.983Z</time></trkpt><trkpt lat="45.97501546185943" lon="12.110146968695817"><ele>538.0</ele><time>2026-04-05T07:53:49.983Z</time></trkpt><trkpt lat="45.97493546077088" lon="12.11027483990389"><ele>538.0</ele><time>2026-04-05T07:53:50.983Z</time></trkpt><trkpt lat="45.97485407496174" lon="12.110437533776109"><ele>538.0</ele><time>2026-04-05T07:53:51.983Z</time></trkpt><trkpt lat="45.97475139641968" lon="12.11059069498623"><ele>538.0</ele><time>2026-04-05T07:53:52.983Z</time></trkpt><trkpt lat="45.97467751206978" lon="12.110714513444647"><ele>538.0</ele><time>2026-04-05T07:53:53.983Z</time></trkpt><trkpt lat="45.974610764544295" lon="12.110824772636546"><ele>538.0</ele><time>2026-04-05T07:53:54.983Z</time></trkpt><trkpt lat="45.974555914258296" lon="12.11095834630035"><ele>538.0</ele><time>2026-04-05T07:53:55.983Z</time></trkpt><trkpt lat="45.97448957451154" lon="12.111079275131173"><ele>538.0</ele><time>2026-04-05T07:53:56.983Z</time></trkpt><trkpt lat="45.97442964182284" lon="12.111204566745547"><ele>535.5</ele><time>2026-04-05T07:53:57.983Z</time></trkpt><trkpt lat="45.97437606285806" lon="12.111297106594073"><ele>533.0</ele><time>2026-04-05T07:53:58.983Z</time></trkpt><trkpt lat="45.974331478615824" lon="12.11138525700512"><ele>530.5</ele><time>2026-04-05T07:53:59.983Z</time></trkpt><trkpt lat="45.97427617817191" lon="12.11148351168781"><ele>528.0</ele><time>2026-04-05T07:54:00.983Z</time></trkpt><trkpt lat="45.974231605006956" lon="12.111561189702318"><ele>525.5</ele><time>2026-04-05T07:54:01.983Z</time></trkpt><trkpt lat="45.97418093570469" lon="12.111620699647682"><ele>523.0</ele><time>2026-04-05T07:54:02.983Z</time></trkpt><trkpt lat="45.97404699563911" lon="12.111658929494352"><ele>521.8</ele><time>2026-04-05T07:54:04.983Z</time></trkpt><trkpt lat="45.97395786364469" lon="12.111669452113192"><ele>520.5999999999999</ele><time>2026-04-05T07:54:05.983Z</time></trkpt><trkpt lat="45.97388549010566" lon="12.11163339420215"><ele>519.4000000000001</ele><time>2026-04-05T07:54:06.983Z</time></trkpt><trkpt lat="45.97382199213552" lon="12.111499393793478"><ele>518.2</ele><time>2026-04-05T07:54:08.983Z</time></trkpt><trkpt lat="45.97378604591413" lon="12.111380547111002"><ele>517.0</ele><time>2026-04-05T07:54:09.983Z</time></trkpt><trkpt lat="45.97373949119042" lon="12.111246295427478"><ele>520.2</ele><time>2026-04-05T07:54:10.983Z</time></trkpt><trkpt lat="45.97368989533517" lon="12.111117580431767"><ele>523.4000000000001</ele><time>2026-04-05T07:54:11.983Z</time></trkpt><trkpt lat="45.97365709568838" lon="12.111001887850117"><ele>526.5999999999999</ele><time>2026-04-05T07:54:12.983Z</time></trkpt><trkpt lat="45.97360620441584" lon="12.110881730591286"><ele>529.8</ele><time>2026-04-05T07:54:14.983Z</time></trkpt><trkpt lat="45.9735289061397" lon="12.11094202924133"><ele>533.0</ele><time>2026-04-05T07:54:17.983Z</time></trkpt><trkpt lat="45.97346060553294" lon="12.11113061610787"><ele>533.0</ele><time>2026-04-05T07:54:19.983Z</time></trkpt><trkpt lat="45.97343040700447" lon="12.111250104014177"><ele>533.0</ele><time>2026-04-05T07:54:20.983Z</time></trkpt><trkpt lat="45.973406367378836" lon="12.111374595281543"><ele>533.0</ele><time>2026-04-05T07:54:21.984Z</time></trkpt><trkpt lat="45.97333009360707" lon="12.111491993251986"><ele>533.0</ele><time>2026-04-05T07:54:23.985Z</time></trkpt><trkpt lat="45.97323404141447" lon="12.111506744633571"><ele>533.0</ele><time>2026-04-05T07:54:25.984Z</time></trkpt><trkpt lat="45.97314381339437" lon="12.111555736540339"><ele>529.6</ele><time>2026-04-05T07:54:27.985Z</time></trkpt><trkpt lat="45.97308776467432" lon="12.111597758460574"><ele>526.1999999999999</ele><time>2026-04-05T07:54:28.985Z</time></trkpt><trkpt lat="45.97299630945485" lon="12.11158403539858"><ele>522.8</ele><time>2026-04-05T07:54:30.985Z</time></trkpt><trkpt lat="45.97293530433748" lon="12.111442283412215"><ele>519.4</ele><time>2026-04-05T07:54:32.985Z</time></trkpt><trkpt lat="45.972861430956804" lon="12.111381145961344"><ele>516.0</ele><time>2026-04-05T07:54:34.985Z</time></trkpt><trkpt lat="45.97277683078626" lon="12.111454131187497"><ele>516.0</ele><time>2026-04-05T07:54:36.985Z</time></trkpt><trkpt lat="45.97275339520919" lon="12.111560021376876"><ele>516.0</ele><time>2026-04-05T07:54:38.985Z</time></trkpt><trkpt lat="45.97273710935285" lon="12.111719169504727"><ele>516.0</ele><time>2026-04-05T07:54:40.985Z</time></trkpt><trkpt lat="45.97273545683019" lon="12.111813866844376"><ele>516.0</ele><time>2026-04-05T07:54:41.985Z</time></trkpt><trkpt lat="45.972740211578625" lon="12.11190725827761"><ele>516.0</ele><time>2026-04-05T07:54:42.985Z</time></trkpt><trkpt lat="45.97275359041836" lon="12.112020747409485"><ele>516.0</ele><time>2026-04-05T07:54:43.985Z</time></trkpt><trkpt lat="45.97276391558523" lon="12.11212695269298"><ele>514.3333333333334</ele><time>2026-04-05T07:54:44.985Z</time></trkpt><trkpt lat="45.97278406012515" lon="12.112228579396014"><ele>512.6666666666666</ele><time>2026-04-05T07:54:45.985Z</time></trkpt><trkpt lat="45.97280301419364" lon="12.112344105369795"><ele>511.0</ele><time>2026-04-05T07:54:46.985Z</time></trkpt><trkpt lat="45.97281410619658" lon="12.112459013439205"><ele>509.3333333333333</ele><time>2026-04-05T07:54:47.985Z</time></trkpt><trkpt lat="45.97284007182555" lon="12.112582623486565"><ele>507.66666666666663</ele><time>2026-04-05T07:54:48.985Z</time></trkpt><trkpt lat="45.97286469213972" lon="12.112667693479944"><ele>506.0</ele><time>2026-04-05T07:54:49.985Z</time></trkpt><trkpt lat="45.97287485129439" lon="12.11275943049685"><ele>504.4</ele><time>2026-04-05T07:54:50.984Z</time></trkpt><trkpt lat="45.97291168182383" lon="12.112909476555405"><ele>502.8</ele><time>2026-04-05T07:54:52.984Z</time></trkpt><trkpt lat="45.97297729002852" lon="12.112992447012383"><ele>501.19999999999993</ele><time>2026-04-05T07:54:54.984Z</time></trkpt><trkpt lat="45.97310507469922" lon="12.113067476297015"><ele>499.59999999999997</ele><time>2026-04-05T07:54:56.984Z</time></trkpt><trkpt lat="45.973202456059255" lon="12.11309729458624"><ele>498.0</ele><time>2026-04-05T07:54:58.984Z</time></trkpt><trkpt lat="45.973294205727456" lon="12.113055770841546"><ele>498.4</ele><time>2026-04-05T07:55:00.984Z</time></trkpt><trkpt lat="45.97338058757084" lon="12.11315475667324"><ele>498.79999999999995</ele><time>2026-04-05T07:55:04.984Z</time></trkpt><trkpt lat="45.97339800992027" lon="12.113286398594813"><ele>499.2</ele><time>2026-04-05T07:55:06.984Z</time></trkpt><trkpt lat="45.97339180081245" lon="12.113424474938283"><ele>499.6</ele><time>2026-04-05T07:55:08.984Z</time></trkpt><trkpt lat="45.97341431621395" lon="12.113573206496802"><ele>500.0</ele><time>2026-04-05T07:55:10.984Z</time></trkpt><trkpt lat="45.97345097154961" lon="12.113650912107618"><ele>496.16666666666663</ele><time>2026-04-05T07:55:11.984Z</time></trkpt><trkpt lat="45.97352563404578" lon="12.113755448520442"><ele>492.3333333333333</ele><time>2026-04-05T07:55:13.984Z</time></trkpt><trkpt lat="45.97358251791051" lon="12.113807979415068"><ele>488.5</ele><time>2026-04-05T07:55:14.984Z</time></trkpt><trkpt lat="45.97368024982751" lon="12.113826314488485"><ele>484.66666666666663</ele><time>2026-04-05T07:55:16.984Z</time></trkpt><trkpt lat="45.97376852896786" lon="12.113860442949976"><ele>480.8333333333333</ele><time>2026-04-05T07:55:18.984Z</time></trkpt><trkpt lat="45.973826119973566" lon="12.11393892202411"><ele>477.0</ele><time>2026-04-05T07:55:20.984Z</time></trkpt><trkpt lat="45.97387594313039" lon="12.114054251701983"><ele>473.20000000000005</ele><time>2026-04-05T07:55:23.984Z</time></trkpt><trkpt lat="45.97397208758755" lon="12.114141027325985"><ele>469.40000000000003</ele><time>2026-04-05T07:55:25.984Z</time></trkpt><trkpt lat="45.974026435279235" lon="12.114240058804983"><ele>465.59999999999997</ele><time>2026-04-05T07:55:27.984Z</time></trkpt><trkpt lat="45.97399432113542" lon="12.114334218119312"><ele>461.79999999999995</ele><time>2026-04-05T07:55:29.984Z</time></trkpt><trkpt lat="45.97391218633969" lon="12.114381302270544"><ele>458.0</ele><time>2026-04-05T07:55:31.984Z</time></trkpt><trkpt lat="45.97381531896841" lon="12.114421885061851"><ele>457.99999999999994</ele><time>2026-04-05T07:55:32.984Z</time></trkpt><trkpt lat="45.973716187033595" lon="12.114448264775586"><ele>458.0</ele><time>2026-04-05T07:55:33.984Z</time></trkpt><trkpt lat="45.973647203925616" lon="12.114443426606933"><ele>458.0</ele><time>2026-04-05T07:55:34.984Z</time></trkpt><trkpt lat="45.97357579721369" lon="12.114431334474542"><ele>458.0</ele><time>2026-04-05T07:55:35.983Z</time></trkpt><trkpt lat="45.97351664424801" lon="12.114389433968816"><ele>457.99999999999994</ele><time>2026-04-05T07:55:36.983Z</time></trkpt><trkpt lat="45.97344597106647" lon="12.114348741896798"><ele>458.0</ele><time>2026-04-05T07:55:37.983Z</time></trkpt><trkpt lat="45.97338233939809" lon="12.11438374440937"><ele>458.79999999999995</ele><time>2026-04-05T07:55:39.983Z</time></trkpt><trkpt lat="45.97334831541186" lon="12.114592004493122"><ele>459.59999999999997</ele><time>2026-04-05T07:55:41.983Z</time></trkpt><trkpt lat="45.973344736944206" lon="12.11470683614871"><ele>460.40000000000003</ele><time>2026-04-05T07:55:42.983Z</time></trkpt><trkpt lat="45.973339745398036" lon="12.114860714961244"><ele>461.20000000000005</ele><time>2026-04-05T07:55:43.983Z</time></trkpt><trkpt lat="45.973312304323706" lon="12.114971116855278"><ele>462.0</ele><time>2026-04-05T07:55:44.983Z</time></trkpt><trkpt lat="45.973262760915134" lon="12.115080291088228"><ele>459.0</ele><time>2026-04-05T07:55:45.983Z</time></trkpt><trkpt lat="45.97320867541611" lon="12.11520114711444"><ele>456.00000000000006</ele><time>2026-04-05T07:55:46.983Z</time></trkpt><trkpt lat="45.97310932093198" lon="12.115256696308352"><ele>453.00000000000006</ele><time>2026-04-05T07:55:48.983Z</time></trkpt><trkpt lat="45.97303821176411" lon="12.11525071311761"><ele>450.0</ele><time>2026-04-05T07:55:49.983Z</time></trkpt><trkpt lat="45.97295896197151" lon="12.115236144091094"><ele>447.0</ele><time>2026-04-05T07:55:50.983Z</time></trkpt><trkpt lat="45.97286821132461" lon="12.115208174512667"><ele>447.0</ele><time>2026-04-05T07:55:51.983Z</time></trkpt><trkpt lat="45.97279485990959" lon="12.115174443424445"><ele>447.00000000000006</ele><time>2026-04-05T07:55:52.983Z</time></trkpt><trkpt lat="45.97271783833023" lon="12.115147756505937"><ele>447.00000000000006</ele><time>2026-04-05T07:55:53.983Z</time></trkpt><trkpt lat="45.9726179453594" lon="12.115118873139728"><ele>447.0</ele><time>2026-04-05T07:55:54.983Z</time></trkpt><trkpt lat="45.972512716742045" lon="12.115025051741075"><ele>447.0</ele><time>2026-04-05T07:55:56.983Z</time></trkpt><trkpt lat="45.97244669757198" lon="12.114952067197015"><ele>447.0</ele><time>2026-04-05T07:55:57.983Z</time></trkpt><trkpt lat="45.97237542085326" lon="12.114885757257406"><ele>447.00000000000006</ele><time>2026-04-05T07:55:58.983Z</time></trkpt><trkpt lat="45.97230120588209" lon="12.114766494009098"><ele>447.00000000000006</ele><time>2026-04-05T07:55:59.983Z</time></trkpt><trkpt lat="45.97223621500448" lon="12.114660206284977"><ele>447.0</ele><time>2026-04-05T07:56:00.983Z</time></trkpt><trkpt lat="45.97216713768791" lon="12.114571124710958"><ele>447.0</ele><time>2026-04-05T07:56:01.983Z</time></trkpt><trkpt lat="45.97210534556495" lon="12.114485735470138"><ele>447.0</ele><time>2026-04-05T07:56:02.983Z</time></trkpt><trkpt lat="45.97206551562111" lon="12.11440499434323"><ele>447.00000000000006</ele><time>2026-04-05T07:56:04.983Z</time></trkpt><trkpt lat="45.97200063987264" lon="12.114500181110484"><ele>447.00000000000006</ele><time>2026-04-05T07:56:07.983Z</time></trkpt><trkpt lat="45.972020601548316" lon="12.114641815371934"><ele>447.0</ele><time>2026-04-05T07:56:09.983Z</time></trkpt><trkpt lat="45.97202852244208" lon="12.114780642556298"><ele>447.0</ele><time>2026-04-05T07:56:10.983Z</time></trkpt><trkpt lat="45.97205090558288" lon="12.114973589456637"><ele>444.40000000000003</ele><time>2026-04-05T07:56:11.983Z</time></trkpt><trkpt lat="45.97208618251279" lon="12.11514886095612"><ele>441.80000000000007</ele><time>2026-04-05T07:56:12.983Z</time></trkpt><trkpt lat="45.97213110036318" lon="12.115319966461351"><ele>439.2</ele><time>2026-04-05T07:56:13.983Z</time></trkpt><trkpt lat="45.972167172967126" lon="12.115456356793713"><ele>436.6</ele><time>2026-04-05T07:56:14.983Z</time></trkpt><trkpt lat="45.972184491507235" lon="12.11557956367955"><ele>434.0</ele><time>2026-04-05T07:56:15.983Z</time></trkpt><trkpt lat="45.97219518216661" lon="12.115672719449314"><ele>431.4</ele><time>2026-04-05T07:56:16.983Z</time></trkpt><trkpt lat="45.97219058910882" lon="12.115836008247404"><ele>428.79999999999995</ele><time>2026-04-05T07:56:18.983Z</time></trkpt><trkpt lat="45.972163609793895" lon="12.115921526803488"><ele>426.20000000000005</ele><time>2026-04-05T07:56:19.983Z</time></trkpt><trkpt lat="45.972116276364645" lon="12.116103014008809"><ele>423.6</ele><time>2026-04-05T07:56:21.983Z</time></trkpt><trkpt lat="45.972142645808525" lon="12.116250957706804"><ele>421.0</ele><time>2026-04-05T07:56:22.982Z</time></trkpt><trkpt lat="45.972176862517166" lon="12.116396947810424"><ele>421.0</ele><time>2026-04-05T07:56:23.982Z</time></trkpt><trkpt lat="45.97220067953118" lon="12.11656747858666"><ele>421.0</ele><time>2026-04-05T07:56:24.982Z</time></trkpt><trkpt lat="45.97223238510514" lon="12.116737847794662"><ele>421.0</ele><time>2026-04-05T07:56:25.982Z</time></trkpt><trkpt lat="45.9722545261002" lon="12.116916439969652"><ele>421.0</ele><time>2026-04-05T07:56:26.982Z</time></trkpt><trkpt lat="45.97228964230144" lon="12.117092355612774"><ele>418.20000000000005</ele><time>2026-04-05T07:56:27.985Z</time></trkpt><trkpt lat="45.97232479876596" lon="12.117269916394305"><ele>415.40000000000003</ele><time>2026-04-05T07:56:28.984Z</time></trkpt><trkpt lat="45.97235331173908" lon="12.117414288567723"><ele>412.6</ele><time>2026-04-05T07:56:29.984Z</time></trkpt><trkpt lat="45.972368305472514" lon="12.11752085327671"><ele>409.8</ele><time>2026-04-05T07:56:30.984Z</time></trkpt><trkpt lat="45.97238821477836" lon="12.11763883123106"><ele>407.0</ele><time>2026-04-05T07:56:31.984Z</time></trkpt><trkpt lat="45.9724343068272" lon="12.117767175146906"><ele>403.99999999999994</ele><time>2026-04-05T07:56:32.984Z</time></trkpt><trkpt lat="45.97247032811604" lon="12.117848794283805"><ele>401.0</ele><time>2026-04-05T07:56:33.984Z</time></trkpt><trkpt lat="45.97249944235288" lon="12.11797493068751"><ele>398.0</ele><time>2026-04-05T07:56:35.983Z</time></trkpt><trkpt lat="45.97245938078296" lon="12.118089097694336"><ele>395.0</ele><time>2026-04-05T07:56:37.983Z</time></trkpt><trkpt lat="45.97244624582135" lon="12.118221540968603"><ele>391.99999999999994</ele><time>2026-04-05T07:56:39.984Z</time></trkpt><trkpt lat="45.972485132584204" lon="12.118308866205163"><ele>389.0</ele><time>2026-04-05T07:56:40.984Z</time></trkpt><trkpt lat="45.9725329046883" lon="12.11841168392851"><ele>386.66666666666663</ele><time>2026-04-05T07:56:41.984Z</time></trkpt><trkpt lat="45.972597881102416" lon="12.118528840398103"><ele>384.3333333333333</ele><time>2026-04-05T07:56:42.984Z</time></trkpt><trkpt lat="45.97266936396025" lon="12.11860539922124"><ele>382.0</ele><time>2026-04-05T07:56:43.984Z</time></trkpt><trkpt lat="45.97271738875013" lon="12.118671237788444"><ele>379.66666666666663</ele><time>2026-04-05T07:56:44.984Z</time></trkpt><trkpt lat="45.97275619647742" lon="12.11880825970532"><ele>377.3333333333333</ele><time>2026-04-05T07:56:46.984Z</time></trkpt><trkpt lat="45.97274164371015" lon="12.118911903090819"><ele>375.0</ele><time>2026-04-05T07:56:47.984Z</time></trkpt><trkpt lat="45.97271340636435" lon="12.119005756250948"><ele>372.8333333333333</ele><time>2026-04-05T07:56:48.984Z</time></trkpt><trkpt lat="45.97271903252662" lon="12.11914054374278"><ele>370.6666666666667</ele><time>2026-04-05T07:56:49.984Z</time></trkpt><trkpt lat="45.972726292862674" lon="12.11924457349927"><ele>368.5</ele><time>2026-04-05T07:56:50.983Z</time></trkpt><trkpt lat="45.97272165570707" lon="12.11934551151148"><ele>366.33333333333337</ele><time>2026-04-05T07:56:51.983Z</time></trkpt><trkpt lat="45.972725701854095" lon="12.119464382098045"><ele>364.1666666666667</ele><time>2026-04-05T07:56:53.983Z</time></trkpt><trkpt lat="45.97279863405291" lon="12.119510659917282"><ele>362.0</ele><time>2026-04-05T07:56:55.983Z</time></trkpt><trkpt lat="45.972867219095875" lon="12.119513879244899"><ele>362.0</ele><time>2026-04-05T07:56:57.983Z</time></trkpt><trkpt lat="45.97286765358368" lon="12.119612832582309"><ele>362.0</ele><time>2026-04-05T07:56:59.983Z</time></trkpt><trkpt lat="45.97278094564204" lon="12.119733084137124"><ele>362.0</ele><time>2026-04-05T07:57:01.983Z</time></trkpt><trkpt lat="45.972730126870886" lon="12.119792824224593"><ele>362.0</ele><time>2026-04-05T07:57:02.983Z</time></trkpt><trkpt lat="45.972660344820525" lon="12.11985842920261"><ele>362.0</ele><time>2026-04-05T07:57:03.983Z</time></trkpt><trkpt lat="45.97258160311924" lon="12.119886643576335"><ele>362.0</ele><time>2026-04-05T07:57:04.983Z</time></trkpt><trkpt lat="45.9724840037308" lon="12.119926689251349"><ele>361.6666666666667</ele><time>2026-04-05T07:57:05.983Z</time></trkpt><trkpt lat="45.972385126715494" lon="12.11996709469439"><ele>361.33333333333337</ele><time>2026-04-05T07:57:06.983Z</time></trkpt><trkpt lat="45.972319191229104" lon="12.119990836385867"><ele>361.0</ele><time>2026-04-05T07:57:07.983Z</time></trkpt><trkpt lat="45.972253095099084" lon="12.119976721230337"><ele>360.6666666666667</ele><time>2026-04-05T07:57:08.983Z</time></trkpt><trkpt lat="45.97216953424785" lon="12.11994768009109"><ele>360.3333333333333</ele><time>2026-04-05T07:57:09.983Z</time></trkpt><trkpt lat="45.972098184202224" lon="12.119902697150183"><ele>360.0</ele><time>2026-04-05T07:57:10.983Z</time></trkpt><trkpt lat="45.97201711675298" lon="12.119868741846739"><ele>360.0</ele><time>2026-04-05T07:57:11.983Z</time></trkpt><trkpt lat="45.971939366042164" lon="12.119883246071048"><ele>360.0</ele><time>2026-04-05T07:57:12.983Z</time></trkpt><trkpt lat="45.97182634503931" lon="12.119934466955149"><ele>360.0</ele><time>2026-04-05T07:57:14.983Z</time></trkpt><trkpt lat="45.97175909099683" lon="12.119903549556422"><ele>360.0</ele><time>2026-04-05T07:57:15.983Z</time></trkpt><trkpt lat="45.97169174104973" lon="12.119884345998916"><ele>360.0</ele><time>2026-04-05T07:57:16.983Z</time></trkpt><trkpt lat="45.9715853991443" lon="12.119935947965196"><ele>360.0</ele><time>2026-04-05T07:57:18.983Z</time></trkpt><trkpt lat="45.971530659813446" lon="12.120024129828707"><ele>355.2</ele><time>2026-04-05T07:57:19.983Z</time></trkpt><trkpt lat="45.971459878360186" lon="12.120124549757369"><ele>350.4</ele><time>2026-04-05T07:57:20.983Z</time></trkpt><trkpt lat="45.97138582082057" lon="12.120203382895928"><ele>345.6</ele><time>2026-04-05T07:57:21.983Z</time></trkpt><trkpt lat="45.971315281261745" lon="12.120265218574517"><ele>340.8</ele><time>2026-04-05T07:57:22.983Z</time></trkpt><trkpt lat="45.97124194383351" lon="12.120277070687427"><ele>336.0</ele><time>2026-04-05T07:57:23.983Z</time></trkpt><trkpt lat="45.971138965570574" lon="12.12028907133479"><ele>336.0</ele><time>2026-04-05T07:57:24.983Z</time></trkpt><trkpt lat="45.971033715700536" lon="12.120337912004391"><ele>336.0</ele><time>2026-04-05T07:57:25.983Z</time></trkpt><trkpt lat="45.97097590404574" lon="12.120409800558248"><ele>336.0</ele><time>2026-04-05T07:57:26.983Z</time></trkpt><trkpt lat="45.97093818823661" lon="12.120488900308263"><ele>336.0</ele><time>2026-04-05T07:57:27.983Z</time></trkpt><trkpt lat="45.97082281933071" lon="12.120485381287724"><ele>336.0</ele><time>2026-04-05T07:57:29.983Z</time></trkpt><trkpt lat="45.97075457518102" lon="12.120456538594523"><ele>336.0</ele><time>2026-04-05T07:57:30.983Z</time></trkpt><trkpt lat="45.970692734275545" lon="12.120394032783238"><ele>333.1666666666667</ele><time>2026-04-05T07:57:31.983Z</time></trkpt><trkpt lat="45.97063744020467" lon="12.120313690113372"><ele>330.3333333333333</ele><time>2026-04-05T07:57:32.983Z</time></trkpt><trkpt lat="45.97057112049869" lon="12.120223775084279"><ele>327.5</ele><time>2026-04-05T07:57:33.983Z</time></trkpt><trkpt lat="45.97049282162622" lon="12.120219206883883"><ele>324.66666666666663</ele><time>2026-04-05T07:57:34.983Z</time></trkpt><trkpt lat="45.97040410582512" lon="12.120218588119304"><ele>321.8333333333333</ele><time>2026-04-05T07:57:35.983Z</time></trkpt><trkpt lat="45.970312155481324" lon="12.1202343033432"><ele>319.0</ele><time>2026-04-05T07:57:36.983Z</time></trkpt><trkpt lat="45.97020945307822" lon="12.120247795838619"><ele>319.0</ele><time>2026-04-05T07:57:37.982Z</time></trkpt><trkpt lat="45.9701078964128" lon="12.1202192060971"><ele>319.0</ele><time>2026-04-05T07:57:38.982Z</time></trkpt><trkpt lat="45.97002838362323" lon="12.120194628378133"><ele>319.0</ele><time>2026-04-05T07:57:39.982Z</time></trkpt><trkpt lat="45.969928381326106" lon="12.120220076034718"><ele>319.0</ele><time>2026-04-05T07:57:41.982Z</time></trkpt><trkpt lat="45.96987535035511" lon="12.120390223892116"><ele>319.0</ele><time>2026-04-05T07:57:43.982Z</time></trkpt><trkpt lat="45.969848258206525" lon="12.120521507460797"><ele>315.8</ele><time>2026-04-05T07:57:44.982Z</time></trkpt><trkpt lat="45.96982242032759" lon="12.120654544859908"><ele>312.59999999999997</ele><time>2026-04-05T07:57:45.982Z</time></trkpt><trkpt lat="45.969826174201025" lon="12.120789487157401"><ele>309.4</ele><time>2026-04-05T07:57:46.982Z</time></trkpt><trkpt lat="45.96982633003123" lon="12.120929713509783"><ele>306.2</ele><time>2026-04-05T07:57:47.982Z</time></trkpt><trkpt lat="45.96982005588084" lon="12.121093902582235"><ele>303.0</ele><time>2026-04-05T07:57:48.982Z</time></trkpt><trkpt lat="45.96978805279913" lon="12.121250690896247"><ele>302.0</ele><time>2026-04-05T07:57:49.982Z</time></trkpt><trkpt lat="45.96974652586527" lon="12.121371466453628"><ele>301.0</ele><time>2026-04-05T07:57:50.982Z</time></trkpt><trkpt lat="45.969696536465406" lon="12.121437116681745"><ele>300.0</ele><time>2026-04-05T07:57:51.982Z</time></trkpt><trkpt lat="45.96963579021775" lon="12.121502777770365"><ele>299.0</ele><time>2026-04-05T07:57:52.982Z</time></trkpt><trkpt lat="45.969557202323095" lon="12.121554889218329"><ele>298.0</ele><time>2026-04-05T07:57:53.982Z</time></trkpt><trkpt lat="45.96947809971749" lon="12.12161389257606"><ele>297.0</ele><time>2026-04-05T07:57:54.982Z</time></trkpt><trkpt lat="45.9694032369397" lon="12.121640679941153"><ele>295.8333333333333</ele><time>2026-04-05T07:57:55.982Z</time></trkpt><trkpt lat="45.969317376308155" lon="12.12164797731817"><ele>294.6666666666667</ele><time>2026-04-05T07:57:56.982Z</time></trkpt><trkpt lat="45.969246245190476" lon="12.121716311577492"><ele>293.5</ele><time>2026-04-05T07:57:57.982Z</time></trkpt><trkpt lat="45.969182993184624" lon="12.12181026395742"><ele>292.33333333333337</ele><time>2026-04-05T07:57:58.982Z</time></trkpt><trkpt lat="45.969127815782784" lon="12.121914418065845"><ele>291.1666666666667</ele><time>2026-04-05T07:57:59.982Z</time></trkpt><trkpt lat="45.96907454640197" lon="12.12200255885747"><ele>290.0</ele><time>2026-04-05T07:58:00.982Z</time></trkpt><trkpt lat="45.969025813349596" lon="12.122066357242426"><ele>286.0</ele><time>2026-04-05T07:58:01.982Z</time></trkpt><trkpt lat="45.96890869205875" lon="12.122083340651377"><ele>282.0</ele><time>2026-04-05T07:58:03.982Z</time></trkpt><trkpt lat="45.96882344918365" lon="12.122129154274777"><ele>278.0</ele><time>2026-04-05T07:58:05.982Z</time></trkpt><trkpt lat="45.968736849278685" lon="12.122007779303155"><ele>274.0</ele><time>2026-04-05T07:58:07.982Z</time></trkpt><trkpt lat="45.9686219501294" lon="12.121939487748955"><ele>274.0</ele><time>2026-04-05T07:58:09.982Z</time></trkpt><trkpt lat="45.96853110699859" lon="12.121992556906092"><ele>274.0</ele><time>2026-04-05T07:58:10.982Z</time></trkpt><trkpt lat="45.96846759818979" lon="12.122088051846225"><ele>274.0</ele><time>2026-04-05T07:58:11.982Z</time></trkpt><trkpt lat="45.96842682256366" lon="12.122195677526816"><ele>274.0</ele><time>2026-04-05T07:58:12.982Z</time></trkpt><trkpt lat="45.9683740354059" lon="12.122323799635605"><ele>274.0</ele><time>2026-04-05T07:58:13.982Z</time></trkpt><trkpt lat="45.96831879649599" lon="12.122445639831154"><ele>269.8</ele><time>2026-04-05T07:58:14.982Z</time></trkpt><trkpt lat="45.96826630353391" lon="12.122574736116979"><ele>265.59999999999997</ele><time>2026-04-05T07:58:15.982Z</time></trkpt><trkpt lat="45.96822073394872" lon="12.122689723456666"><ele>261.4</ele><time>2026-04-05T07:58:16.982Z</time></trkpt><trkpt lat="45.968202545949005" lon="12.122851150574371"><ele>257.2</ele><time>2026-04-05T07:58:18.982Z</time></trkpt><trkpt lat="45.96811470473996" lon="12.122924900155239"><ele>253.0</ele><time>2026-04-05T07:58:20.982Z</time></trkpt><trkpt lat="45.96804924555314" lon="12.122932416217076"><ele>252.99999999999997</ele><time>2026-04-05T07:58:21.982Z</time></trkpt><trkpt lat="45.968007045105566" lon="12.123052869797851"><ele>253.0</ele><time>2026-04-05T07:58:23.982Z</time></trkpt><trkpt lat="45.96800813923697" lon="12.123153853879066"><ele>253.0</ele><time>2026-04-05T07:58:24.981Z</time></trkpt><trkpt lat="45.968000289613975" lon="12.123269600845251"><ele>253.0</ele><time>2026-04-05T07:58:25.981Z</time></trkpt><trkpt lat="45.96800097735305" lon="12.123381352852576"><ele>252.99999999999997</ele><time>2026-04-05T07:58:26.981Z</time></trkpt><trkpt lat="45.967994550669715" lon="12.12350361696993"><ele>253.0</ele><time>2026-04-05T07:58:27.981Z</time></trkpt><trkpt lat="45.967977219899836" lon="12.12363394776131"><ele>252.16666666666666</ele><time>2026-04-05T07:58:28.981Z</time></trkpt><trkpt lat="45.96796441827116" lon="12.123764814135171"><ele>251.33333333333331</ele><time>2026-04-05T07:58:29.981Z</time></trkpt><trkpt lat="45.967938616320055" lon="12.123896081839423"><ele>250.5</ele><time>2026-04-05T07:58:30.981Z</time></trkpt><trkpt lat="45.967899167357366" lon="12.123991859654854"><ele>249.66666666666669</ele><time>2026-04-05T07:58:31.981Z</time></trkpt><trkpt lat="45.967822389499894" lon="12.124049224408733"><ele>248.83333333333334</ele><time>2026-04-05T07:58:32.981Z</time></trkpt><trkpt lat="45.96773366949542" lon="12.124108017197893"><ele>248.0</ele><time>2026-04-05T07:58:33.983Z</time></trkpt><trkpt lat="45.96764145774576" lon="12.124165678163871"><ele>247.8</ele><time>2026-04-05T07:58:34.982Z</time></trkpt><trkpt lat="45.967538979390575" lon="12.124211214290423"><ele>247.60000000000002</ele><time>2026-04-05T07:58:35.982Z</time></trkpt><trkpt lat="45.967438525968646" lon="12.124244528725823"><ele>247.39999999999998</ele><time>2026-04-05T07:58:36.983Z</time></trkpt><trkpt lat="45.96736623422316" lon="12.12431359524227"><ele>247.2</ele><time>2026-04-05T07:58:37.983Z</time></trkpt><trkpt lat="45.96731771682787" lon="12.124458553993206"><ele>247.0</ele><time>2026-04-05T07:58:39.983Z</time></trkpt><trkpt lat="45.96736336772848" lon="12.12463660276671"><ele>246.16666666666666</ele><time>2026-04-05T07:58:41.983Z</time></trkpt><trkpt lat="45.967409842509745" lon="12.12472459754553"><ele>245.33333333333331</ele><time>2026-04-05T07:58:42.983Z</time></trkpt><trkpt lat="45.967467080269486" lon="12.12481994387729"><ele>244.5</ele><time>2026-04-05T07:58:43.983Z</time></trkpt><trkpt lat="45.96751172404995" lon="12.1249064137134"><ele>243.66666666666669</ele><time>2026-04-05T07:58:44.983Z</time></trkpt><trkpt lat="45.96752474180541" lon="12.125001941043289"><ele>242.83333333333334</ele><time>2026-04-05T07:58:45.983Z</time></trkpt><trkpt lat="45.967491953441424" lon="12.125113643388605"><ele>242.0</ele><time>2026-04-05T07:58:46.983Z</time></trkpt><trkpt lat="45.9674678116589" lon="12.125236470558056"><ele>241.8</ele><time>2026-04-05T07:58:47.983Z</time></trkpt><trkpt lat="45.96746232566293" lon="12.125391464634433"><ele>241.6</ele><time>2026-04-05T07:58:48.983Z</time></trkpt><trkpt lat="45.967480169223656" lon="12.125547090709432"><ele>241.40000000000003</ele><time>2026-04-05T07:58:49.983Z</time></trkpt><trkpt lat="45.967486877175126" lon="12.125700972866793"><ele>241.20000000000002</ele><time>2026-04-05T07:58:50.983Z</time></trkpt><trkpt lat="45.967490608434396" lon="12.12584439105292"><ele>241.0</ele><time>2026-04-05T07:58:51.983Z</time></trkpt><trkpt lat="45.96749336859704" lon="12.125969420131696"><ele>241.33333333333331</ele><time>2026-04-05T07:58:52.983Z</time></trkpt><trkpt lat="45.967505381120255" lon="12.126082789165634"><ele>241.66666666666666</ele><time>2026-04-05T07:58:53.982Z</time></trkpt><trkpt lat="45.96753970071456" lon="12.126189080600854"><ele>242.0</ele><time>2026-04-05T07:58:54.982Z</time></trkpt><trkpt lat="45.96757786229856" lon="12.126271661147706"><ele>242.33333333333331</ele><time>2026-04-05T07:58:55.982Z</time></trkpt><trkpt lat="45.96764712523884" lon="12.126348072585017"><ele>242.66666666666666</ele><time>2026-04-05T07:58:56.982Z</time></trkpt><trkpt lat="45.96765792623007" lon="12.126453703792663"><ele>243.0</ele><time>2026-04-05T07:58:58.982Z</time></trkpt><trkpt lat="45.967625353130515" lon="12.126587733029728"><ele>243.0</ele><time>2026-04-05T07:59:00.982Z</time></trkpt><trkpt lat="45.96758450143455" lon="12.126684401799777"><ele>243.0</ele><time>2026-04-05T07:59:01.982Z</time></trkpt><trkpt lat="45.967552587348564" lon="12.12680690175739"><ele>243.0</ele><time>2026-04-05T07:59:02.982Z</time></trkpt><trkpt lat="45.96752909971362" lon="12.126912337503638"><ele>243.0</ele><time>2026-04-05T07:59:03.982Z</time></trkpt><trkpt lat="45.96749040752898" lon="12.12699466142366"><ele>243.0</ele><time>2026-04-05T07:59:04.982Z</time></trkpt><trkpt lat="45.96743600191625" lon="12.12704532440892"><ele>243.0</ele><time>2026-04-05T07:59:05.982Z</time></trkpt><trkpt lat="45.96737330600394" lon="12.12710201763808"><ele>243.0</ele><time>2026-04-05T07:59:06.982Z</time></trkpt><trkpt lat="45.96730171855437" lon="12.127157483391343"><ele>243.0</ele><time>2026-04-05T07:59:07.982Z</time></trkpt><trkpt lat="45.967232907247684" lon="12.127238709278345"><ele>243.0</ele><time>2026-04-05T07:59:08.982Z</time></trkpt><trkpt lat="45.9671524200363" lon="12.127313393505133"><ele>243.0</ele><time>2026-04-05T07:59:09.982Z</time></trkpt><trkpt lat="45.96706462474139" lon="12.127381087152877"><ele>243.0</ele><time>2026-04-05T07:59:10.982Z</time></trkpt><trkpt lat="45.96696793824313" lon="12.127436826204447"><ele>243.0</ele><time>2026-04-05T07:59:11.982Z</time></trkpt><trkpt lat="45.96687043833798" lon="12.127486985192974"><ele>243.0</ele><time>2026-04-05T07:59:12.982Z</time></trkpt><trkpt lat="45.966768716423594" lon="12.127521866482331"><ele>243.0</ele><time>2026-04-05T07:59:13.982Z</time></trkpt><trkpt lat="45.96666302633005" lon="12.127557842035097"><ele>243.0</ele><time>2026-04-05T07:59:14.982Z</time></trkpt><trkpt lat="45.96655956923716" lon="12.127577094953974"><ele>243.0</ele><time>2026-04-05T07:59:15.982Z</time></trkpt><trkpt lat="45.96645722687468" lon="12.12758174921495"><ele>242.2</ele><time>2026-04-05T07:59:16.982Z</time></trkpt><trkpt lat="45.96634741983107" lon="12.127593792537887"><ele>241.4</ele><time>2026-04-05T07:59:17.982Z</time></trkpt><trkpt lat="45.96625365558293" lon="12.12760276922815"><ele>240.59999999999997</ele><time>2026-04-05T07:59:18.982Z</time></trkpt><trkpt lat="45.966148860175366" lon="12.127595672922949"><ele>239.79999999999998</ele><time>2026-04-05T07:59:19.982Z</time></trkpt><trkpt lat="45.96602484685205" lon="12.127601877006214"><ele>239.0</ele><time>2026-04-05T07:59:20.982Z</time></trkpt><trkpt lat="45.965900005214955" lon="12.12757717910586"><ele>238.25</ele><time>2026-04-05T07:59:21.982Z</time></trkpt><trkpt lat="45.96576591383079" lon="12.127553843779806"><ele>237.5</ele><time>2026-04-05T07:59:22.982Z</time></trkpt><trkpt lat="45.965619647248054" lon="12.127511950661896"><ele>236.75</ele><time>2026-04-05T07:59:23.982Z</time></trkpt><trkpt lat="45.96546609743999" lon="12.127466374280077"><ele>236.0</ele><time>2026-04-05T07:59:24.982Z</time></trkpt><trkpt lat="45.965325108944015" lon="12.127435639427572"><ele>235.66666666666669</ele><time>2026-04-05T07:59:25.982Z</time></trkpt><trkpt lat="45.965180379756454" lon="12.127389189309323"><ele>235.33333333333331</ele><time>2026-04-05T07:59:26.982Z</time></trkpt><trkpt lat="45.965026502869044" lon="12.127344347763891"><ele>235.0</ele><time>2026-04-05T07:59:27.982Z</time></trkpt><trkpt lat="45.964865543344665" lon="12.12730882924996"><ele>233.5</ele><time>2026-04-05T07:59:28.982Z</time></trkpt><trkpt lat="45.96453940134592" lon="12.127212134849508"><ele>232.0</ele><time>2026-04-05T07:59:30.982Z</time></trkpt><trkpt lat="45.96439161103766" lon="12.127171472668321"><ele>232.0</ele><time>2026-04-05T07:59:31.982Z</time></trkpt><trkpt lat="45.9642481928113" lon="12.127130993856971"><ele>232.0</ele><time>2026-04-05T07:59:32.982Z</time></trkpt><trkpt lat="45.964111019978375" lon="12.127101712864414"><ele>232.0</ele><time>2026-04-05T07:59:33.982Z</time></trkpt><trkpt lat="45.96398619572081" lon="12.1270687025235"><ele>232.0</ele><time>2026-04-05T07:59:34.982Z</time></trkpt><trkpt lat="45.963854863489324" lon="12.127031310638216"><ele>230.75</ele><time>2026-04-05T07:59:35.982Z</time></trkpt><trkpt lat="45.96373421723981" lon="12.127010356161033"><ele>229.5</ele><time>2026-04-05T07:59:36.982Z</time></trkpt><trkpt lat="45.96360996228236" lon="12.126966568951627"><ele>228.25</ele><time>2026-04-05T07:59:37.982Z</time></trkpt><trkpt lat="45.96347225259352" lon="12.12693270534357"><ele>227.0</ele><time>2026-04-05T07:59:38.982Z</time></trkpt><trkpt lat="45.963334093090275" lon="12.126898338686887"><ele>226.5</ele><time>2026-04-05T07:59:39.982Z</time></trkpt><trkpt lat="45.96320809323411" lon="12.126871339236873"><ele>226.0</ele><time>2026-04-05T07:59:40.981Z</time></trkpt><trkpt lat="45.96308392805849" lon="12.126827559839425"><ele>225.5</ele><time>2026-04-05T07:59:41.981Z</time></trkpt><trkpt lat="45.96297322761445" lon="12.126797669752678"><ele>225.0</ele><time>2026-04-05T07:59:42.981Z</time></trkpt><trkpt lat="45.96286496948155" lon="12.126774736727281"><ele>225.0</ele><time>2026-04-05T07:59:43.981Z</time></trkpt><trkpt lat="45.96274944851037" lon="12.126746591260181"><ele>225.0</ele><time>2026-04-05T07:59:44.981Z</time></trkpt><trkpt lat="45.96264070923357" lon="12.126708826154234"><ele>225.0</ele><time>2026-04-05T07:59:45.981Z</time></trkpt><trkpt lat="45.96253583913264" lon="12.126683126072164"><ele>225.0</ele><time>2026-04-05T07:59:46.981Z</time></trkpt><trkpt lat="45.96241958383707" lon="12.126654832427626"><ele>224.75</ele><time>2026-04-05T07:59:47.981Z</time></trkpt><trkpt lat="45.962303326948685" lon="12.126626079292366"><ele>224.5</ele><time>2026-04-05T07:59:48.981Z</time></trkpt><trkpt lat="45.96219407771769" lon="12.12659613984534"><ele>224.25</ele><time>2026-04-05T07:59:49.981Z</time></trkpt><trkpt lat="45.962080420896825" lon="12.126566355246375"><ele>224.0</ele><time>2026-04-05T07:59:50.981Z</time></trkpt><trkpt lat="45.96196040811893" lon="12.12653305819262"><ele>223.75</ele><time>2026-04-05T07:59:51.981Z</time></trkpt><trkpt lat="45.961840089079125" lon="12.126500509776426"><ele>223.5</ele><time>2026-04-05T07:59:52.981Z</time></trkpt><trkpt lat="45.96171736539725" lon="12.126470819683576"><ele>223.25</ele><time>2026-04-05T07:59:53.981Z</time></trkpt><trkpt lat="45.961606460462335" lon="12.126443799785244"><ele>223.0</ele><time>2026-04-05T07:59:54.981Z</time></trkpt><trkpt lat="45.9614899422638" lon="12.126409103149118"><ele>222.4</ele><time>2026-04-05T07:59:55.981Z</time></trkpt><trkpt lat="45.96139740620464" lon="12.126382435008642"><ele>221.8</ele><time>2026-04-05T07:59:56.981Z</time></trkpt><trkpt lat="45.96130493423854" lon="12.126349767249202"><ele>221.2</ele><time>2026-04-05T07:59:58.981Z</time></trkpt><trkpt lat="45.96121621574582" lon="12.126331938711914"><ele>220.6</ele><time>2026-04-05T08:00:00.981Z</time></trkpt><trkpt lat="45.96110097645913" lon="12.126315075204118"><ele>220.0</ele><time>2026-04-05T08:00:02.981Z</time></trkpt><trkpt lat="45.961029298760565" lon="12.126286355566267"><ele>220.0</ele><time>2026-04-05T08:00:03.981Z</time></trkpt><trkpt lat="45.9609478996818" lon="12.12626268478264"><ele>220.0</ele><time>2026-04-05T08:00:04.981Z</time></trkpt><trkpt lat="45.96085642093487" lon="12.126245558860601"><ele>220.0</ele><time>2026-04-05T08:00:05.981Z</time></trkpt><trkpt lat="45.96076210057926" lon="12.126222679900609"><ele>220.0</ele><time>2026-04-05T08:00:06.981Z</time></trkpt><trkpt lat="45.96066470488313" lon="12.126188565201202"><ele>220.0</ele><time>2026-04-05T08:00:07.981Z</time></trkpt><trkpt lat="45.96056711046942" lon="12.126170778887746"><ele>219.0</ele><time>2026-04-05T08:00:08.981Z</time></trkpt><trkpt lat="45.96047593387976" lon="12.126141377598554"><ele>218.0</ele><time>2026-04-05T08:00:09.981Z</time></trkpt><trkpt lat="45.96037893526871" lon="12.126115955910267"><ele>217.0</ele><time>2026-04-05T08:00:10.981Z</time></trkpt><trkpt lat="45.96029030687496" lon="12.126089209376058"><ele>216.0</ele><time>2026-04-05T08:00:11.981Z</time></trkpt><trkpt lat="45.96020201090623" lon="12.126066663251741"><ele>215.0</ele><time>2026-04-05T08:00:12.981Z</time></trkpt><trkpt lat="45.96011708938335" lon="12.126048190840729"><ele>215.0</ele><time>2026-04-05T08:00:13.981Z</time></trkpt><trkpt lat="45.96005192616302" lon="12.126025896969267"><ele>215.0</ele><time>2026-04-05T08:00:14.981Z</time></trkpt><trkpt lat="45.95999556334108" lon="12.12597654699201"><ele>215.0</ele><time>2026-04-05T08:00:16.981Z</time></trkpt><trkpt lat="45.95990398286441" lon="12.125927933844325"><ele>215.0</ele><time>2026-04-05T08:00:19.981Z</time></trkpt><trkpt lat="45.959848367659156" lon="12.125832230396005"><ele>215.0</ele><time>2026-04-05T08:00:22.981Z</time></trkpt><trkpt lat="45.95978671948193" lon="12.125764750312209"><ele>215.0</ele><time>2026-04-05T08:00:25.981Z</time></trkpt></trkseg></trk></gpx>